<?xml version='1.0' encoding='UTF-8'?><gpx version="1.1" creator="JPX - https://github.com/jenetics/jpx" xmlns="http://www.topografix.com/GPX/1/1"><trk><trkseg><trkpt lat="44.479519702264" lon="11.267534265579664"><ele>77.8</ele><time>2026-03-22T09:48:03.001Z</time></trkpt><trkpt lat="44.47954119310243" lon="11.26727448424332"><ele>77.6</ele><time>2026-03-22T09:48:09.001Z</time></trkpt><trkpt lat="44.47953871601273" lon="11.267175920273878"><ele>77.4</ele><time>2026-03-22T09:48:10.001Z</time></trkpt><trkpt lat="44.47951785613946" lon="11.26706440839702"><ele>77.2</ele><time>2026-03-22T09:48:11.001Z</time></trkpt><trkpt lat="44.479483445160604" lon="11.26694600714412"><ele>77.0</ele><time>2026-03-22T09:48:12.001Z</time></trkpt><trkpt lat="44.47944432876063" lon="11.26681572017113"><ele>77.0</ele><time>2026-03-22T09:48:13.001Z</time></trkpt><trkpt lat="44.47940850902276" lon="11.26669317792978"><ele>77.0</ele><time>2026-03-22T09:48:14.001Z</time></trkpt><trkpt lat="44.47937590557646" lon="11.266592314377235"><ele>77.0</ele><time>2026-03-22T09:48:15.001Z</time></trkpt><trkpt lat="44.47935036769865" lon="11.266494605393126"><ele>77.0</ele><time>2026-03-22T09:48:16.001Z</time></trkpt><trkpt lat="44.47932528041465" lon="11.266410300988122"><ele>77.0</ele><time>2026-03-22T09:48:17.001Z</time></trkpt><trkpt lat="44.479294879049725" lon="11.266307116137801"><ele>77.0</ele><time>2026-03-22T09:48:18.001Z</time></trkpt><trkpt lat="44.47926806498228" lon="11.266193517041664"><ele>77.4</ele><time>2026-03-22T09:48:19.001Z</time></trkpt><trkpt lat="44.47923602018523" lon="11.266071179918299"><ele>77.80000000000001</ele><time>2026-03-22T09:48:20.001Z</time></trkpt><trkpt lat="44.47920209091593" lon="11.265946651522059"><ele>78.2</ele><time>2026-03-22T09:48:21.001Z</time></trkpt><trkpt lat="44.47916946019841" lon="11.265817374742703"><ele>78.60000000000001</ele><time>2026-03-22T09:48:22.001Z</time></trkpt><trkpt lat="44.47913765833634" lon="11.265682410577417"><ele>79.0</ele><time>2026-03-22T09:48:23.001Z</time></trkpt><trkpt lat="44.479098275902686" lon="11.265535368844354"><ele>79.0</ele><time>2026-03-22T09:48:24.001Z</time></trkpt><trkpt lat="44.479059173653845" lon="11.265405607987306"><ele>79.0</ele><time>2026-03-22T09:48:25.001Z</time></trkpt><trkpt lat="44.47902841890939" lon="11.265274889258707"><ele>79.0</ele><time>2026-03-22T09:48:26.001Z</time></trkpt><trkpt lat="44.47900000243627" lon="11.265144865873594"><ele>79.0</ele><time>2026-03-22T09:48:27.001Z</time></trkpt><trkpt lat="44.47897302230684" lon="11.26501427193832"><ele>79.0</ele><time>2026-03-22T09:48:28.001Z</time></trkpt><trkpt lat="44.47894526391306" lon="11.264885049294636"><ele>79.2</ele><time>2026-03-22T09:48:29.001Z</time></trkpt><trkpt lat="44.47892765224028" lon="11.264748703464727"><ele>79.4</ele><time>2026-03-22T09:48:30.001Z</time></trkpt><trkpt lat="44.47891757502403" lon="11.264603991427139"><ele>79.6</ele><time>2026-03-22T09:48:31.001Z</time></trkpt><trkpt lat="44.47891851314119" lon="11.264459910095942"><ele>79.8</ele><time>2026-03-22T09:48:32.001Z</time></trkpt><trkpt lat="44.47892356770654" lon="11.264327042972164"><ele>80.0</ele><time>2026-03-22T09:48:33.001Z</time></trkpt><trkpt lat="44.47891846630942" lon="11.26420174902769"><ele>80.0</ele><time>2026-03-22T09:48:34.001Z</time></trkpt><trkpt lat="44.47894048280135" lon="11.264035135174403"><ele>80.0</ele><time>2026-03-22T09:48:35.001Z</time></trkpt><trkpt lat="44.47896967192021" lon="11.26386276587301"><ele>80.0</ele><time>2026-03-22T09:48:37.001Z</time></trkpt><trkpt lat="44.479099328541665" lon="11.263545108905294"><ele>81.0</ele><time>2026-03-22T09:48:38.001Z</time></trkpt><trkpt lat="44.47918010945798" lon="11.263390759035381"><ele>82.0</ele><time>2026-03-22T09:48:39.001Z</time></trkpt><trkpt lat="44.479251338355475" lon="11.263228066559257"><ele>83.0</ele><time>2026-03-22T09:48:40.001Z</time></trkpt><trkpt lat="44.47934429204634" lon="11.263108871490354"><ele>84.0</ele><time>2026-03-22T09:48:41.001Z</time></trkpt><trkpt lat="44.47942064413448" lon="11.262976326229534"><ele>83.5</ele><time>2026-03-22T09:48:42.001Z</time></trkpt><trkpt lat="44.47951181373261" lon="11.26287384720569"><ele>83.0</ele><time>2026-03-22T09:48:43.001Z</time></trkpt><trkpt lat="44.47960414548822" lon="11.262765071750934"><ele>82.5</ele><time>2026-03-22T09:48:44.001Z</time></trkpt><trkpt lat="44.47970258157534" lon="11.262631024123026"><ele>82.0</ele><time>2026-03-22T09:48:45.001Z</time></trkpt><trkpt lat="44.479815663438664" lon="11.26247290581836"><ele>82.0</ele><time>2026-03-22T09:48:46.001Z</time></trkpt><trkpt lat="44.47992120108242" lon="11.262333743223582"><ele>82.0</ele><time>2026-03-22T09:48:47.001Z</time></trkpt><trkpt lat="44.480006219615795" lon="11.262217563403315"><ele>82.0</ele><time>2026-03-22T09:48:48.001Z</time></trkpt><trkpt lat="44.480086770735646" lon="11.262116021084964"><ele>82.0</ele><time>2026-03-22T09:48:49.001Z</time></trkpt><trkpt lat="44.48016319694377" lon="11.262015800734085"><ele>82.0</ele><time>2026-03-22T09:48:50.001Z</time></trkpt><trkpt lat="44.48023855024118" lon="11.26192137095137"><ele>82.0</ele><time>2026-03-22T09:48:51.001Z</time></trkpt><trkpt lat="44.480316950509774" lon="11.261828490476665"><ele>82.0</ele><time>2026-03-22T09:48:52Z</time></trkpt><trkpt lat="44.48038992500614" lon="11.261720965156911"><ele>82.0</ele><time>2026-03-22T09:48:53Z</time></trkpt><trkpt lat="44.48045742295234" lon="11.26161712421473"><ele>82.0</ele><time>2026-03-22T09:48:54Z</time></trkpt><trkpt lat="44.48051598367659" lon="11.261527442658453"><ele>82.0</ele><time>2026-03-22T09:48:55Z</time></trkpt><trkpt lat="44.48056742758798" lon="11.261452277737655"><ele>82.0</ele><time>2026-03-22T09:48:56Z</time></trkpt><trkpt lat="44.48065367744542" lon="11.261335172804364"><ele>82.0</ele><time>2026-03-22T09:48:58Z</time></trkpt><trkpt lat="44.48074735429165" lon="11.261219579330588"><ele>82.0</ele><time>2026-03-22T09:49:00Z</time></trkpt><trkpt lat="44.48081232387504" lon="11.26113440490904"><ele>82.0</ele><time>2026-03-22T09:49:01Z</time></trkpt><trkpt lat="44.48088429365102" lon="11.26103015667138"><ele>82.0</ele><time>2026-03-22T09:49:02Z</time></trkpt><trkpt lat="44.48096393889535" lon="11.260911709779574"><ele>82.0</ele><time>2026-03-22T09:49:03Z</time></trkpt><trkpt lat="44.48105655738419" lon="11.260772821721956"><ele>82.0</ele><time>2026-03-22T09:49:04Z</time></trkpt><trkpt lat="44.481150385554706" lon="11.260606397586862"><ele>82.0</ele><time>2026-03-22T09:49:05Z</time></trkpt><trkpt lat="44.481235106147835" lon="11.260454196107439"><ele>83.0</ele><time>2026-03-22T09:49:06Z</time></trkpt><trkpt lat="44.48131593173711" lon="11.26030435265201"><ele>84.0</ele><time>2026-03-22T09:49:07Z</time></trkpt><trkpt lat="44.48138083995293" lon="11.260163982907319"><ele>85.0</ele><time>2026-03-22T09:49:08Z</time></trkpt><trkpt lat="44.481429815506296" lon="11.260036088650113"><ele>86.0</ele><time>2026-03-22T09:49:09Z</time></trkpt><trkpt lat="44.48146445614451" lon="11.259914892125131"><ele>86.0</ele><time>2026-03-22T09:49:10Z</time></trkpt><trkpt lat="44.481489519398835" lon="11.25978896614912"><ele>86.0</ele><time>2026-03-22T09:49:11Z</time></trkpt><trkpt lat="44.48150220290627" lon="11.25965459559991"><ele>86.0</ele><time>2026-03-22T09:49:12Z</time></trkpt><trkpt lat="44.481500253223075" lon="11.259519231693169"><ele>86.0</ele><time>2026-03-22T09:49:13Z</time></trkpt><trkpt lat="44.48148867840295" lon="11.259383056638635"><ele>86.0</ele><time>2026-03-22T09:49:14Z</time></trkpt><trkpt lat="44.4814701879982" lon="11.259238270315365"><ele>86.4</ele><time>2026-03-22T09:49:15Z</time></trkpt><trkpt lat="44.481453620599325" lon="11.2590884222028"><ele>86.8</ele><time>2026-03-22T09:49:16Z</time></trkpt><trkpt lat="44.48143790282636" lon="11.258941850442454"><ele>87.2</ele><time>2026-03-22T09:49:17Z</time></trkpt><trkpt lat="44.48142496016268" lon="11.258812763893419"><ele>87.60000000000001</ele><time>2026-03-22T09:49:18Z</time></trkpt><trkpt lat="44.48141360195465" lon="11.258685889615682"><ele>88.0</ele><time>2026-03-22T09:49:19Z</time></trkpt><trkpt lat="44.48140475828268" lon="11.258562930814367"><ele>88.0</ele><time>2026-03-22T09:49:20Z</time></trkpt><trkpt lat="44.481399789758605" lon="11.258437859215016"><ele>88.0</ele><time>2026-03-22T09:49:21Z</time></trkpt><trkpt lat="44.481393454971474" lon="11.258288500958708"><ele>88.0</ele><time>2026-03-22T09:49:22Z</time></trkpt><trkpt lat="44.48138409137541" lon="11.2581197147014"><ele>88.0</ele><time>2026-03-22T09:49:23Z</time></trkpt><trkpt lat="44.48137305388787" lon="11.257949090892387"><ele>88.0</ele><time>2026-03-22T09:49:24Z</time></trkpt><trkpt lat="44.48136138656808" lon="11.257770349139571"><ele>88.0</ele><time>2026-03-22T09:49:25Z</time></trkpt><trkpt lat="44.48135480682861" lon="11.25759133451278"><ele>88.0</ele><time>2026-03-22T09:49:26Z</time></trkpt><trkpt lat="44.48135270112034" lon="11.25742682270624"><ele>88.0</ele><time>2026-03-22T09:49:27Z</time></trkpt><trkpt lat="44.48134826636806" lon="11.25727357688365"><ele>88.0</ele><time>2026-03-22T09:49:28Z</time></trkpt><trkpt lat="44.48134960124969" lon="11.25711718271852"><ele>88.0</ele><time>2026-03-22T09:49:29Z</time></trkpt><trkpt lat="44.4813548671771" lon="11.25693896299239"><ele>88.0</ele><time>2026-03-22T09:49:30Z</time></trkpt><trkpt lat="44.48136090750128" lon="11.256755012228847"><ele>88.0</ele><time>2026-03-22T09:49:31Z</time></trkpt><trkpt lat="44.4813688573487" lon="11.25658642582553"><ele>88.0</ele><time>2026-03-22T09:49:32Z</time></trkpt><trkpt lat="44.481378585161295" lon="11.256424153902199"><ele>88.0</ele><time>2026-03-22T09:49:33Z</time></trkpt><trkpt lat="44.4813930690791" lon="11.256250296496486"><ele>88.0</ele><time>2026-03-22T09:49:34Z</time></trkpt><trkpt lat="44.48140604920009" lon="11.256078559447571"><ele>88.0</ele><time>2026-03-22T09:49:35Z</time></trkpt><trkpt lat="44.48142323994027" lon="11.255921812617814"><ele>88.0</ele><time>2026-03-22T09:49:36Z</time></trkpt><trkpt lat="44.4814417166357" lon="11.255774928952606"><ele>88.0</ele><time>2026-03-22T09:49:37Z</time></trkpt><trkpt lat="44.48146009818565" lon="11.255623326364196"><ele>88.0</ele><time>2026-03-22T09:49:38Z</time></trkpt><trkpt lat="44.48147899946591" lon="11.255468140624483"><ele>88.0</ele><time>2026-03-22T09:49:39Z</time></trkpt><trkpt lat="44.481498976351254" lon="11.255326966499183"><ele>88.0</ele><time>2026-03-22T09:49:40Z</time></trkpt><trkpt lat="44.481518758949456" lon="11.255213909018128"><ele>88.0</ele><time>2026-03-22T09:49:41Z</time></trkpt><trkpt lat="44.48153472988624" lon="11.25510554752348"><ele>88.0</ele><time>2026-03-22T09:49:42Z</time></trkpt><trkpt lat="44.48154893679433" lon="11.255013132915035"><ele>88.0</ele><time>2026-03-22T09:49:43Z</time></trkpt><trkpt lat="44.481587438220316" lon="11.254861523532453"><ele>88.0</ele><time>2026-03-22T09:49:45Z</time></trkpt><trkpt lat="44.48163446008677" lon="11.254784461947315"><ele>88.0</ele><time>2026-03-22T09:49:47Z</time></trkpt><trkpt lat="44.48172827361496" lon="11.254690812245245"><ele>88.0</ele><time>2026-03-22T09:49:50Z</time></trkpt><trkpt lat="44.481844587319564" lon="11.254615440295954"><ele>87.85714285714286</ele><time>2026-03-22T09:49:52Z</time></trkpt><trkpt lat="44.48189305271644" lon="11.254541982245202"><ele>87.71428571428571</ele><time>2026-03-22T09:49:53Z</time></trkpt><trkpt lat="44.48192334154189" lon="11.254444664157477"><ele>87.57142857142857</ele><time>2026-03-22T09:49:54Z</time></trkpt><trkpt lat="44.48192965849694" lon="11.254341328389222"><ele>87.42857142857143</ele><time>2026-03-22T09:49:55Z</time></trkpt><trkpt lat="44.481907801231785" lon="11.254248997301165"><ele>87.28571428571429</ele><time>2026-03-22T09:49:56Z</time></trkpt><trkpt lat="44.48186233627718" lon="11.254165676924954"><ele>87.14285714285714</ele><time>2026-03-22T09:49:57Z</time></trkpt><trkpt lat="44.481799358567" lon="11.254101792883121"><ele>87.0</ele><time>2026-03-22T09:49:58Z</time></trkpt><trkpt lat="44.48172970246473" lon="11.254048527429287"><ele>87.0</ele><time>2026-03-22T09:49:59Z</time></trkpt><trkpt lat="44.481667733886226" lon="11.253996885229702"><ele>87.0</ele><time>2026-03-22T09:50:00Z</time></trkpt><trkpt lat="44.48169988803258" lon="11.25377778334048"><ele>87.0</ele><time>2026-03-22T09:50:01Z</time></trkpt><trkpt lat="44.4817012237385" lon="11.253668517870867"><ele>87.0</ele><time>2026-03-22T09:50:02Z</time></trkpt><trkpt lat="44.481707542184154" lon="11.253562528665578"><ele>87.0</ele><time>2026-03-22T09:50:03Z</time></trkpt><trkpt lat="44.48171091807252" lon="11.25344616020372"><ele>87.0</ele><time>2026-03-22T09:50:04Z</time></trkpt><trkpt lat="44.48170383370237" lon="11.253314704885439"><ele>87.0</ele><time>2026-03-22T09:50:05Z</time></trkpt><trkpt lat="44.48169248461857" lon="11.253173617368887"><ele>87.0</ele><time>2026-03-22T09:50:06Z</time></trkpt><trkpt lat="44.481679239328415" lon="11.253032385510503"><ele>87.0</ele><time>2026-03-22T09:50:07Z</time></trkpt><trkpt lat="44.48166679906122" lon="11.252899728344971"><ele>87.0</ele><time>2026-03-22T09:50:08Z</time></trkpt><trkpt lat="44.48165713971017" lon="11.25278692655551"><ele>87.0</ele><time>2026-03-22T09:50:09Z</time></trkpt><trkpt lat="44.48165374534193" lon="11.252692804266442"><ele>87.0</ele><time>2026-03-22T09:50:10.001Z</time></trkpt><trkpt lat="44.48167009359173" lon="11.25259010606779"><ele>87.0</ele><time>2026-03-22T09:50:12.001Z</time></trkpt><trkpt lat="44.48178605760169" lon="11.252566815105265"><ele>87.0</ele><time>2026-03-22T09:50:14.001Z</time></trkpt><trkpt lat="44.48185438375632" lon="11.252557659119425"><ele>87.0</ele><time>2026-03-22T09:50:15.001Z</time></trkpt><trkpt lat="44.4819179999888" lon="11.25254850657225"><ele>87.0</ele><time>2026-03-22T09:50:16.001Z</time></trkpt><trkpt lat="44.48201423977626" lon="11.252527168320956"><ele>87.0</ele><time>2026-03-22T09:50:18.001Z</time></trkpt><trkpt lat="44.482022047856084" lon="11.252364346709317"><ele>87.0</ele><time>2026-03-22T09:50:19.001Z</time></trkpt><trkpt lat="44.48201296042831" lon="11.252251810937768"><ele>87.0</ele><time>2026-03-22T09:50:20.001Z</time></trkpt><trkpt lat="44.48198753230424" lon="11.252119855690417"><ele>87.0</ele><time>2026-03-22T09:50:21.001Z</time></trkpt><trkpt lat="44.48196885500333" lon="11.251981940718645"><ele>87.0</ele><time>2026-03-22T09:50:22Z</time></trkpt><trkpt lat="44.48195447793393" lon="11.251836618967657"><ele>87.39999999999999</ele><time>2026-03-22T09:50:23Z</time></trkpt><trkpt lat="44.48193619731891" lon="11.251693333014954"><ele>87.8</ele><time>2026-03-22T09:50:24Z</time></trkpt><trkpt lat="44.48191391945784" lon="11.251564602812023"><ele>88.2</ele><time>2026-03-22T09:50:25Z</time></trkpt><trkpt lat="44.4819070929946" lon="11.25144653094305"><ele>88.6</ele><time>2026-03-22T09:50:26Z</time></trkpt><trkpt lat="44.48191904044516" lon="11.251329747199648"><ele>89.0</ele><time>2026-03-22T09:50:27Z</time></trkpt><trkpt lat="44.48194245347091" lon="11.251215554779494"><ele>89.0</ele><time>2026-03-22T09:50:28Z</time></trkpt><trkpt lat="44.48196926435858" lon="11.251117937287743"><ele>89.0</ele><time>2026-03-22T09:50:29Z</time></trkpt><trkpt lat="44.48200040483087" lon="11.251033617604497"><ele>89.0</ele><time>2026-03-22T09:50:30Z</time></trkpt><trkpt lat="44.482084368729" lon="11.250894029971862"><ele>89.0</ele><time>2026-03-22T09:50:32Z</time></trkpt><trkpt lat="44.48215084091819" lon="11.250816070706936"><ele>89.0</ele><time>2026-03-22T09:50:33Z</time></trkpt><trkpt lat="44.48223126893124" lon="11.250711724213414"><ele>88.0</ele><time>2026-03-22T09:50:34Z</time></trkpt><trkpt lat="44.48232360060254" lon="11.250610375144957"><ele>87.0</ele><time>2026-03-22T09:50:35Z</time></trkpt><trkpt lat="44.48240495396252" lon="11.25053357715104"><ele>86.0</ele><time>2026-03-22T09:50:36Z</time></trkpt><trkpt lat="44.48247362926782" lon="11.25046293099838"><ele>85.0</ele><time>2026-03-22T09:50:37Z</time></trkpt><trkpt lat="44.48252605072828" lon="11.250411039122504"><ele>84.0</ele><time>2026-03-22T09:50:38Z</time></trkpt><trkpt lat="44.48261623910209" lon="11.250400039565907"><ele>84.0</ele><time>2026-03-22T09:50:40Z</time></trkpt><trkpt lat="44.48269591279201" lon="11.250347940727513"><ele>84.0</ele><time>2026-03-22T09:50:44Z</time></trkpt><trkpt lat="44.482692942840856" lon="11.250169559939243"><ele>84.0</ele><time>2026-03-22T09:50:46Z</time></trkpt><trkpt lat="44.48267214811436" lon="11.250045380500445"><ele>84.0</ele><time>2026-03-22T09:50:47Z</time></trkpt><trkpt lat="44.48263547020904" lon="11.249912896876461"><ele>84.0</ele><time>2026-03-22T09:50:48Z</time></trkpt><trkpt lat="44.48258372075052" lon="11.24977739721129"><ele>84.33333333333333</ele><time>2026-03-22T09:50:49Z</time></trkpt><trkpt lat="44.482554904658436" lon="11.249648026761863"><ele>84.66666666666667</ele><time>2026-03-22T09:50:50Z</time></trkpt><trkpt lat="44.48255722514303" lon="11.249523038519293"><ele>85.0</ele><time>2026-03-22T09:50:51Z</time></trkpt><trkpt lat="44.4825839947118" lon="11.249420691605463"><ele>85.33333333333334</ele><time>2026-03-22T09:50:52Z</time></trkpt><trkpt lat="44.48261514765038" lon="11.249340733073762"><ele>85.66666666666667</ele><time>2026-03-22T09:50:53Z</time></trkpt><trkpt lat="44.482648015686124" lon="11.249204252401555"><ele>86.0</ele><time>2026-03-22T09:50:55Z</time></trkpt><trkpt lat="44.48276739537221" lon="11.249208279964629"><ele>86.0</ele><time>2026-03-22T09:50:58Z</time></trkpt><trkpt lat="44.4829064817012" lon="11.24926015708211"><ele>86.0</ele><time>2026-03-22T09:51:00Z</time></trkpt><trkpt lat="44.48300425871112" lon="11.249276164012569"><ele>86.0</ele><time>2026-03-22T09:51:01Z</time></trkpt><trkpt lat="44.483093834688226" lon="11.249317839603398"><ele>86.0</ele><time>2026-03-22T09:51:02Z</time></trkpt><trkpt lat="44.4831881288626" lon="11.249343228881488"><ele>86.0</ele><time>2026-03-22T09:51:03Z</time></trkpt><trkpt lat="44.483276655550654" lon="11.2493734608701"><ele>85.83333333333334</ele><time>2026-03-22T09:51:04Z</time></trkpt><trkpt lat="44.48336220702656" lon="11.24942677682568"><ele>85.66666666666667</ele><time>2026-03-22T09:51:05Z</time></trkpt><trkpt lat="44.483466454972486" lon="11.249443371639089"><ele>85.5</ele><time>2026-03-22T09:51:06Z</time></trkpt><trkpt lat="44.48355023983284" lon="11.249491056553245"><ele>85.33333333333333</ele><time>2026-03-22T09:51:07Z</time></trkpt><trkpt lat="44.483624895330315" lon="11.249523444396475"><ele>85.16666666666666</ele><time>2026-03-22T09:51:08Z</time></trkpt><trkpt lat="44.48369510192294" lon="11.249552775948457"><ele>85.0</ele><time>2026-03-22T09:51:09Z</time></trkpt><trkpt lat="44.48375733709963" lon="11.249578540425738"><ele>84.0</ele><time>2026-03-22T09:51:10Z</time></trkpt><trkpt lat="44.48382146475124" lon="11.249586945525927"><ele>83.0</ele><time>2026-03-22T09:51:11Z</time></trkpt><trkpt lat="44.48392573295512" lon="11.249513846779898"><ele>82.0</ele><time>2026-03-22T09:51:13Z</time></trkpt><trkpt lat="44.483936474567784" lon="11.249395079804158"><ele>81.0</ele><time>2026-03-22T09:51:14Z</time></trkpt><trkpt lat="44.48395206259797" lon="11.24926291603378"><ele>80.0</ele><time>2026-03-22T09:51:15Z</time></trkpt><trkpt lat="44.48397700073466" lon="11.249114651467897"><ele>80.2</ele><time>2026-03-22T09:51:16Z</time></trkpt><trkpt lat="44.48400826851319" lon="11.248943793378476"><ele>80.4</ele><time>2026-03-22T09:51:17Z</time></trkpt><trkpt lat="44.48403826376782" lon="11.248779170995634"><ele>80.6</ele><time>2026-03-22T09:51:18Z</time></trkpt><trkpt lat="44.484064720994304" lon="11.248647021694321"><ele>80.8</ele><time>2026-03-22T09:51:19Z</time></trkpt><trkpt lat="44.48409379833373" lon="11.24852602470067"><ele>81.0</ele><time>2026-03-22T09:51:20Z</time></trkpt><trkpt lat="44.48411664058904" lon="11.248414887802223"><ele>81.0</ele><time>2026-03-22T09:51:21Z</time></trkpt><trkpt lat="44.48413407912101" lon="11.248321147958661"><ele>81.0</ele><time>2026-03-22T09:51:22Z</time></trkpt><trkpt lat="44.48411531931497" lon="11.248179567827723"><ele>81.0</ele><time>2026-03-22T09:51:24Z</time></trkpt><trkpt lat="44.484067683027114" lon="11.248115153321535"><ele>81.0</ele><time>2026-03-22T09:51:25Z</time></trkpt><trkpt lat="44.48399783455135" lon="11.248094189343114"><ele>81.0</ele><time>2026-03-22T09:51:26Z</time></trkpt><trkpt lat="44.48397728027094" lon="11.247963822196255"><ele>81.0</ele><time>2026-03-22T09:51:28Z</time></trkpt><trkpt lat="44.483995668889236" lon="11.247864150885983"><ele>81.0</ele><time>2026-03-22T09:51:29Z</time></trkpt><trkpt lat="44.484021628233776" lon="11.2477532728822"><ele>81.0</ele><time>2026-03-22T09:51:30Z</time></trkpt><trkpt lat="44.48404767927935" lon="11.247626462896484"><ele>81.0</ele><time>2026-03-22T09:51:31Z</time></trkpt><trkpt lat="44.4840745847433" lon="11.247479735303756"><ele>81.0</ele><time>2026-03-22T09:51:32Z</time></trkpt><trkpt lat="44.48410080091328" lon="11.247341150229053"><ele>81.0</ele><time>2026-03-22T09:51:33Z</time></trkpt><trkpt lat="44.48413104370963" lon="11.247191446317306"><ele>81.75</ele><time>2026-03-22T09:51:34Z</time></trkpt><trkpt lat="44.484176913100974" lon="11.24703749413367"><ele>82.5</ele><time>2026-03-22T09:51:35Z</time></trkpt><trkpt lat="44.48424789922537" lon="11.246911098394861"><ele>83.25</ele><time>2026-03-22T09:51:36Z</time></trkpt><trkpt lat="44.48428163058448" lon="11.246721319008833"><ele>84.0</ele><time>2026-03-22T09:51:37Z</time></trkpt><trkpt lat="44.48431247928378" lon="11.246548779594464"><ele>84.2</ele><time>2026-03-22T09:51:38Z</time></trkpt><trkpt lat="44.48433453758698" lon="11.246389547162671"><ele>84.4</ele><time>2026-03-22T09:51:39Z</time></trkpt><trkpt lat="44.48435791247125" lon="11.246248581071185"><ele>84.6</ele><time>2026-03-22T09:51:40Z</time></trkpt><trkpt lat="44.48437691899954" lon="11.246123568448544"><ele>84.8</ele><time>2026-03-22T09:51:41Z</time></trkpt><trkpt lat="44.48440006502515" lon="11.246009082257515"><ele>85.0</ele><time>2026-03-22T09:51:42Z</time></trkpt><trkpt lat="44.48442256741979" lon="11.245905339873675"><ele>85.0</ele><time>2026-03-22T09:51:43Z</time></trkpt><trkpt lat="44.48442808081057" lon="11.245768141293219"><ele>85.0</ele><time>2026-03-22T09:51:45Z</time></trkpt><trkpt lat="44.484360248588736" lon="11.245656636882147"><ele>85.0</ele><time>2026-03-22T09:51:47Z</time></trkpt><trkpt lat="44.48430910618773" lon="11.245595538038863"><ele>85.0</ele><time>2026-03-22T09:51:48Z</time></trkpt><trkpt lat="44.48422891981869" lon="11.245545396477755"><ele>85.0</ele><time>2026-03-22T09:51:50Z</time></trkpt><trkpt lat="44.48425367060475" lon="11.245255860838283"><ele>84.8</ele><time>2026-03-22T09:51:53Z</time></trkpt><trkpt lat="44.48428488177762" lon="11.245137369725652"><ele>84.6</ele><time>2026-03-22T09:51:54Z</time></trkpt><trkpt lat="44.484310019770696" lon="11.245008344174925"><ele>84.4</ele><time>2026-03-22T09:51:55Z</time></trkpt><trkpt lat="44.48432630757832" lon="11.24486583841371"><ele>84.2</ele><time>2026-03-22T09:51:56Z</time></trkpt><trkpt lat="44.48434571208253" lon="11.244709717420541"><ele>84.0</ele><time>2026-03-22T09:51:57Z</time></trkpt><trkpt lat="44.484364541739254" lon="11.244558254980028"><ele>83.80000000000001</ele><time>2026-03-22T09:51:58Z</time></trkpt><trkpt lat="44.48438199668848" lon="11.24441040573038"><ele>83.60000000000001</ele><time>2026-03-22T09:51:59Z</time></trkpt><trkpt lat="44.48439804890306" lon="11.244252501237114"><ele>83.4</ele><time>2026-03-22T09:52:00Z</time></trkpt><trkpt lat="44.48441494793447" lon="11.244093940809092"><ele>83.2</ele><time>2026-03-22T09:52:01Z</time></trkpt><trkpt lat="44.48442859327674" lon="11.243954434281624"><ele>83.0</ele><time>2026-03-22T09:52:02Z</time></trkpt><trkpt lat="44.48443417026157" lon="11.243823077898242"><ele>82.83333333333334</ele><time>2026-03-22T09:52:03Z</time></trkpt><trkpt lat="44.48442874418648" lon="11.243698080953557"><ele>82.66666666666667</ele><time>2026-03-22T09:52:04Z</time></trkpt><trkpt lat="44.48441609373393" lon="11.243588638429289"><ele>82.5</ele><time>2026-03-22T09:52:05Z</time></trkpt><trkpt lat="44.484405165816554" lon="11.24347704152536"><ele>82.33333333333333</ele><time>2026-03-22T09:52:06Z</time></trkpt><trkpt lat="44.48439390266846" lon="11.243346957163022"><ele>82.16666666666666</ele><time>2026-03-22T09:52:07Z</time></trkpt><trkpt lat="44.48437622449501" lon="11.24321408862712"><ele>82.0</ele><time>2026-03-22T09:52:08Z</time></trkpt><trkpt lat="44.48435330174694" lon="11.24306638570243"><ele>82.0</ele><time>2026-03-22T09:52:09Z</time></trkpt><trkpt lat="44.4843315289187" lon="11.24291902010096"><ele>82.0</ele><time>2026-03-22T09:52:10Z</time></trkpt><trkpt lat="44.48431347306405" lon="11.242789534016477"><ele>82.0</ele><time>2026-03-22T09:52:11Z</time></trkpt><trkpt lat="44.48429768596737" lon="11.24266992264395"><ele>82.0</ele><time>2026-03-22T09:52:12Z</time></trkpt><trkpt lat="44.4842890350073" lon="11.242550883888587"><ele>82.0</ele><time>2026-03-22T09:52:13Z</time></trkpt><trkpt lat="44.484292265940844" lon="11.24242697896965"><ele>82.0</ele><time>2026-03-22T09:52:14Z</time></trkpt><trkpt lat="44.484302852018686" lon="11.242307077229567"><ele>82.0</ele><time>2026-03-22T09:52:15Z</time></trkpt><trkpt lat="44.48431958723987" lon="11.242191314015589"><ele>82.0</ele><time>2026-03-22T09:52:16.001Z</time></trkpt><trkpt lat="44.48434533154942" lon="11.242064326349837"><ele>82.0</ele><time>2026-03-22T09:52:17.001Z</time></trkpt><trkpt lat="44.48437344642283" lon="11.24194172491572"><ele>82.0</ele><time>2026-03-22T09:52:18.001Z</time></trkpt><trkpt lat="44.4844046190578" lon="11.241821826892982"><ele>82.0</ele><time>2026-03-22T09:52:19.001Z</time></trkpt><trkpt lat="44.48442976734346" lon="11.241702604608108"><ele>82.0</ele><time>2026-03-22T09:52:20.001Z</time></trkpt><trkpt lat="44.48445203439358" lon="11.241585656842798"><ele>82.0</ele><time>2026-03-22T09:52:21.001Z</time></trkpt><trkpt lat="44.48447544892284" lon="11.241479648009497"><ele>82.0</ele><time>2026-03-22T09:52:22.001Z</time></trkpt><trkpt lat="44.48450148394494" lon="11.241379042894957"><ele>82.0</ele><time>2026-03-22T09:52:23.001Z</time></trkpt><trkpt lat="44.48452338258668" lon="11.241283233142257"><ele>82.0</ele><time>2026-03-22T09:52:24.001Z</time></trkpt><trkpt lat="44.48454249081441" lon="11.241195445260772"><ele>82.0</ele><time>2026-03-22T09:52:25.001Z</time></trkpt><trkpt lat="44.484578950900236" lon="11.241035990977757"><ele>81.6</ele><time>2026-03-22T09:52:27.001Z</time></trkpt><trkpt lat="44.48462302419279" lon="11.240878699084924"><ele>81.19999999999999</ele><time>2026-03-22T09:52:29Z</time></trkpt><trkpt lat="44.484648272530244" lon="11.240770854233366"><ele>80.8</ele><time>2026-03-22T09:52:30Z</time></trkpt><trkpt lat="44.48468184277051" lon="11.240629815890241"><ele>80.4</ele><time>2026-03-22T09:52:31Z</time></trkpt><trkpt lat="44.48471274387551" lon="11.240484056205881"><ele>80.0</ele><time>2026-03-22T09:52:32Z</time></trkpt><trkpt lat="44.484754592579336" lon="11.240307044938547"><ele>80.0</ele><time>2026-03-22T09:52:33Z</time></trkpt><trkpt lat="44.484793503840244" lon="11.24014358221594"><ele>80.0</ele><time>2026-03-22T09:52:34Z</time></trkpt><trkpt lat="44.48483296094464" lon="11.239998361706789"><ele>80.0</ele><time>2026-03-22T09:52:35Z</time></trkpt><trkpt lat="44.48486565971427" lon="11.239865407082009"><ele>80.0</ele><time>2026-03-22T09:52:36Z</time></trkpt><trkpt lat="44.48489666888238" lon="11.239739652203815"><ele>80.0</ele><time>2026-03-22T09:52:37Z</time></trkpt><trkpt lat="44.484928659941225" lon="11.239636268487715"><ele>80.0</ele><time>2026-03-22T09:52:38Z</time></trkpt><trkpt lat="44.484979181618385" lon="11.239529812047266"><ele>80.0</ele><time>2026-03-22T09:52:39Z</time></trkpt><trkpt lat="44.48503665189469" lon="11.239416941398941"><ele>80.0</ele><time>2026-03-22T09:52:40Z</time></trkpt><trkpt lat="44.48507552410266" lon="11.23930649906928"><ele>80.0</ele><time>2026-03-22T09:52:41Z</time></trkpt><trkpt lat="44.48509808035664" lon="11.239176091207767"><ele>80.0</ele><time>2026-03-22T09:52:42Z</time></trkpt><trkpt lat="44.48510601253648" lon="11.239019682044917"><ele>79.8</ele><time>2026-03-22T09:52:43Z</time></trkpt><trkpt lat="44.48512294774053" lon="11.238863071890586"><ele>79.6</ele><time>2026-03-22T09:52:44Z</time></trkpt><trkpt lat="44.48515677050116" lon="11.2387160383724"><ele>79.4</ele><time>2026-03-22T09:52:45Z</time></trkpt><trkpt lat="44.48518863717492" lon="11.23858342153496"><ele>79.2</ele><time>2026-03-22T09:52:46Z</time></trkpt><trkpt lat="44.48521393910334" lon="11.238470215146389"><ele>79.0</ele><time>2026-03-22T09:52:47Z</time></trkpt><trkpt lat="44.48523342971824" lon="11.238380220105267"><ele>79.0</ele><time>2026-03-22T09:52:48Z</time></trkpt><trkpt lat="44.485259961037556" lon="11.238208685045164"><ele>79.0</ele><time>2026-03-22T09:52:50Z</time></trkpt><trkpt lat="44.48528205257258" lon="11.238107972244324"><ele>79.0</ele><time>2026-03-22T09:52:51Z</time></trkpt><trkpt lat="44.485316055026516" lon="11.237992318584206"><ele>79.0</ele><time>2026-03-22T09:52:52Z</time></trkpt><trkpt lat="44.48535526029407" lon="11.237866689233098"><ele>79.0</ele><time>2026-03-22T09:52:53Z</time></trkpt><trkpt lat="44.48539987411182" lon="11.237731741375676"><ele>78.5</ele><time>2026-03-22T09:52:54Z</time></trkpt><trkpt lat="44.48544537803739" lon="11.237557429583065"><ele>78.0</ele><time>2026-03-22T09:52:55Z</time></trkpt><trkpt lat="44.48549111890646" lon="11.237360176240518"><ele>77.5</ele><time>2026-03-22T09:52:56Z</time></trkpt><trkpt lat="44.48554098684008" lon="11.237167847233797"><ele>77.0</ele><time>2026-03-22T09:52:57Z</time></trkpt><trkpt lat="44.48558709235613" lon="11.23698532583411"><ele>77.0</ele><time>2026-03-22T09:52:58Z</time></trkpt><trkpt lat="44.48562618704465" lon="11.236821716539625"><ele>77.0</ele><time>2026-03-22T09:52:59Z</time></trkpt><trkpt lat="44.48566457002212" lon="11.236671384472235"><ele>77.0</ele><time>2026-03-22T09:53:00Z</time></trkpt><trkpt lat="44.48570296131457" lon="11.236515343534135"><ele>77.0</ele><time>2026-03-22T09:53:01Z</time></trkpt><trkpt lat="44.48573421766089" lon="11.23636560820254"><ele>77.2</ele><time>2026-03-22T09:53:02Z</time></trkpt><trkpt lat="44.48575517371197" lon="11.236229315793945"><ele>77.4</ele><time>2026-03-22T09:53:03Z</time></trkpt><trkpt lat="44.485767285937065" lon="11.236102008826302"><ele>77.6</ele><time>2026-03-22T09:53:04Z</time></trkpt><trkpt lat="44.4857801653118" lon="11.235970349427799"><ele>77.8</ele><time>2026-03-22T09:53:05Z</time></trkpt><trkpt lat="44.485800856852045" lon="11.235824777756543"><ele>78.0</ele><time>2026-03-22T09:53:06Z</time></trkpt><trkpt lat="44.48581877258002" lon="11.23566415529241"><ele>77.5</ele><time>2026-03-22T09:53:07Z</time></trkpt><trkpt lat="44.4858335943058" lon="11.235497069636777"><ele>77.0</ele><time>2026-03-22T09:53:08Z</time></trkpt><trkpt lat="44.48585162437352" lon="11.235334775173662"><ele>76.5</ele><time>2026-03-22T09:53:09Z</time></trkpt><trkpt lat="44.48587264949379" lon="11.235182626581068"><ele>76.0</ele><time>2026-03-22T09:53:10Z</time></trkpt><trkpt lat="44.48589522646" lon="11.235026310353888"><ele>76.0</ele><time>2026-03-22T09:53:11Z</time></trkpt><trkpt lat="44.485921143378945" lon="11.23486869188155"><ele>76.0</ele><time>2026-03-22T09:53:12Z</time></trkpt><trkpt lat="44.48594871428628" lon="11.234715368044725"><ele>76.0</ele><time>2026-03-22T09:53:13Z</time></trkpt><trkpt lat="44.48597778095155" lon="11.23455940950732"><ele>76.0</ele><time>2026-03-22T09:53:14Z</time></trkpt><trkpt lat="44.48600583937907" lon="11.234393977293855"><ele>75.75</ele><time>2026-03-22T09:53:15Z</time></trkpt><trkpt lat="44.48603548390008" lon="11.234227972077706"><ele>75.5</ele><time>2026-03-22T09:53:16Z</time></trkpt><trkpt lat="44.48606709173615" lon="11.234057673029197"><ele>75.25</ele><time>2026-03-22T09:53:17Z</time></trkpt><trkpt lat="44.486098765099214" lon="11.233882282565686"><ele>75.0</ele><time>2026-03-22T09:53:18Z</time></trkpt><trkpt lat="44.48613023610225" lon="11.23369963829809"><ele>75.0</ele><time>2026-03-22T09:53:19Z</time></trkpt><trkpt lat="44.48616309960524" lon="11.233508467649626"><ele>75.0</ele><time>2026-03-22T09:53:20Z</time></trkpt><trkpt lat="44.486202627711194" lon="11.233297512770084"><ele>75.0</ele><time>2026-03-22T09:53:21Z</time></trkpt><trkpt lat="44.48624288412605" lon="11.233090254092787"><ele>75.0</ele><time>2026-03-22T09:53:22Z</time></trkpt><trkpt lat="44.48628016114181" lon="11.232885376967884"><ele>75.0</ele><time>2026-03-22T09:53:23Z</time></trkpt><trkpt lat="44.48631487145532" lon="11.232690518797577"><ele>75.0</ele><time>2026-03-22T09:53:24Z</time></trkpt><trkpt lat="44.48635170132294" lon="11.23250505356169"><ele>75.0</ele><time>2026-03-22T09:53:25Z</time></trkpt><trkpt lat="44.48642121830505" lon="11.232101820064848"><ele>75.66666666666667</ele><time>2026-03-22T09:53:27Z</time></trkpt><trkpt lat="44.48646363698286" lon="11.231882169649754"><ele>76.33333333333334</ele><time>2026-03-22T09:53:28Z</time></trkpt><trkpt lat="44.4865083908971" lon="11.231666689833398"><ele>77.0</ele><time>2026-03-22T09:53:29Z</time></trkpt><trkpt lat="44.48655298179523" lon="11.23143743667634"><ele>77.0</ele><time>2026-03-22T09:53:30Z</time></trkpt><trkpt lat="44.48659083794691" lon="11.231223107657652"><ele>77.0</ele><time>2026-03-22T09:53:31Z</time></trkpt><trkpt lat="44.48662781953169" lon="11.231023379393944"><ele>77.0</ele><time>2026-03-22T09:53:32Z</time></trkpt><trkpt lat="44.486663479937995" lon="11.23084604844957"><ele>77.0</ele><time>2026-03-22T09:53:33Z</time></trkpt><trkpt lat="44.48669784636691" lon="11.23066195260196"><ele>76.5</ele><time>2026-03-22T09:53:34Z</time></trkpt><trkpt lat="44.48672973687287" lon="11.230458207686478"><ele>76.0</ele><time>2026-03-22T09:53:35Z</time></trkpt><trkpt lat="44.48676100511137" lon="11.230243108125471"><ele>75.5</ele><time>2026-03-22T09:53:36Z</time></trkpt><trkpt lat="44.48679603242479" lon="11.230054153197903"><ele>75.0</ele><time>2026-03-22T09:53:37Z</time></trkpt><trkpt lat="44.486827782658786" lon="11.229881002613254"><ele>75.0</ele><time>2026-03-22T09:53:38Z</time></trkpt><trkpt lat="44.48685705780228" lon="11.229709565591246"><ele>75.0</ele><time>2026-03-22T09:53:39Z</time></trkpt><trkpt lat="44.4868831398729" lon="11.22955021991709"><ele>75.0</ele><time>2026-03-22T09:53:40Z</time></trkpt><trkpt lat="44.486910062761304" lon="11.229407700831265"><ele>75.0</ele><time>2026-03-22T09:53:41Z</time></trkpt><trkpt lat="44.48693687607077" lon="11.229283054247228"><ele>75.0</ele><time>2026-03-22T09:53:42Z</time></trkpt><trkpt lat="44.48696093891598" lon="11.229183111177889"><ele>75.0</ele><time>2026-03-22T09:53:43Z</time></trkpt><trkpt lat="44.486980372638456" lon="11.229067543975"><ele>75.0</ele><time>2026-03-22T09:53:44Z</time></trkpt><trkpt lat="44.48699868114287" lon="11.228926052826058"><ele>75.0</ele><time>2026-03-22T09:53:45Z</time></trkpt><trkpt lat="44.48702321333362" lon="11.228775000752583"><ele>75.0</ele><time>2026-03-22T09:53:46Z</time></trkpt><trkpt lat="44.487054309067055" lon="11.228613914353954"><ele>75.0</ele><time>2026-03-22T09:53:47Z</time></trkpt><trkpt lat="44.48708811835743" lon="11.228441603278032"><ele>75.0</ele><time>2026-03-22T09:53:48Z</time></trkpt><trkpt lat="44.487122870439265" lon="11.228267228890173"><ele>75.0</ele><time>2026-03-22T09:53:49Z</time></trkpt><trkpt lat="44.48716096459582" lon="11.228111575753472"><ele>75.0</ele><time>2026-03-22T09:53:50Z</time></trkpt><trkpt lat="44.487200813592224" lon="11.227977936823768"><ele>75.0</ele><time>2026-03-22T09:53:51Z</time></trkpt><trkpt lat="44.48724727989448" lon="11.22785952565024"><ele>75.0</ele><time>2026-03-22T09:53:52Z</time></trkpt><trkpt lat="44.48730688170194" lon="11.227753452480385"><ele>75.2</ele><time>2026-03-22T09:53:53Z</time></trkpt><trkpt lat="44.48738558629802" lon="11.227659724869861"><ele>75.4</ele><time>2026-03-22T09:53:54Z</time></trkpt><trkpt lat="44.48745777124256" lon="11.227537601757975"><ele>75.6</ele><time>2026-03-22T09:53:55Z</time></trkpt><trkpt lat="44.48757615045474" lon="11.227491454220374"><ele>75.8</ele><time>2026-03-22T09:53:56Z</time></trkpt><trkpt lat="44.487659419680604" lon="11.227404519189873"><ele>76.0</ele><time>2026-03-22T09:53:57Z</time></trkpt><trkpt lat="44.48772326123992" lon="11.227294955660945"><ele>76.8</ele><time>2026-03-22T09:53:58Z</time></trkpt><trkpt lat="44.48776070793322" lon="11.227174668403272"><ele>77.6</ele><time>2026-03-22T09:53:59Z</time></trkpt><trkpt lat="44.48777614837945" lon="11.227052099501911"><ele>78.4</ele><time>2026-03-22T09:54:00Z</time></trkpt><trkpt lat="44.48778964577013" lon="11.226916030710573"><ele>79.2</ele><time>2026-03-22T09:54:01Z</time></trkpt><trkpt lat="44.48782021140017" lon="11.226768763408273"><ele>80.0</ele><time>2026-03-22T09:54:02Z</time></trkpt><trkpt lat="44.48786753732993" lon="11.226631999578027"><ele>80.0</ele><time>2026-03-22T09:54:03Z</time></trkpt><trkpt lat="44.48788426807266" lon="11.226494675872749"><ele>80.0</ele><time>2026-03-22T09:54:04Z</time></trkpt><trkpt lat="44.48798647061194" lon="11.226385032270274"><ele>80.0</ele><time>2026-03-22T09:54:05Z</time></trkpt><trkpt lat="44.488052594994784" lon="11.226273756467446"><ele>80.0</ele><time>2026-03-22T09:54:06Z</time></trkpt><trkpt lat="44.4881115074168" lon="11.226180885594376"><ele>80.0</ele><time>2026-03-22T09:54:07Z</time></trkpt><trkpt lat="44.48816513267877" lon="11.226090216998978"><ele>79.8</ele><time>2026-03-22T09:54:08Z</time></trkpt><trkpt lat="44.488226134109006" lon="11.22599622552467"><ele>79.6</ele><time>2026-03-22T09:54:09Z</time></trkpt><trkpt lat="44.488293017690026" lon="11.22588713909835"><ele>79.4</ele><time>2026-03-22T09:54:10Z</time></trkpt><trkpt lat="44.488359208361295" lon="11.225773361605938"><ele>79.2</ele><time>2026-03-22T09:54:11Z</time></trkpt><trkpt lat="44.488423034615614" lon="11.225661970972451"><ele>79.0</ele><time>2026-03-22T09:54:12Z</time></trkpt><trkpt lat="44.48848533251264" lon="11.22556113951476"><ele>79.0</ele><time>2026-03-22T09:54:13Z</time></trkpt><trkpt lat="44.4885489102601" lon="11.225460108854799"><ele>79.0</ele><time>2026-03-22T09:54:14Z</time></trkpt><trkpt lat="44.488616070716205" lon="11.225350681903727"><ele>79.0</ele><time>2026-03-22T09:54:15Z</time></trkpt><trkpt lat="44.488687878611564" lon="11.22523025209813"><ele>79.0</ele><time>2026-03-22T09:54:16Z</time></trkpt><trkpt lat="44.4887587436744" lon="11.225115019493682"><ele>79.0</ele><time>2026-03-22T09:54:17Z</time></trkpt><trkpt lat="44.48882577645237" lon="11.225000644536228"><ele>79.0</ele><time>2026-03-22T09:54:18Z</time></trkpt><trkpt lat="44.48888504492972" lon="11.224899445059972"><ele>79.0</ele><time>2026-03-22T09:54:19Z</time></trkpt><trkpt lat="44.488935824592474" lon="11.224808768934889"><ele>79.0</ele><time>2026-03-22T09:54:20Z</time></trkpt><trkpt lat="44.48898597750352" lon="11.224723037015849"><ele>79.0</ele><time>2026-03-22T09:54:21Z</time></trkpt><trkpt lat="44.48903462512632" lon="11.224640343791098"><ele>79.0</ele><time>2026-03-22T09:54:22Z</time></trkpt><trkpt lat="44.48907649701921" lon="11.22457199484507"><ele>79.0</ele><time>2026-03-22T09:54:23Z</time></trkpt><trkpt lat="44.48912934721594" lon="11.22448681970659"><ele>79.0</ele><time>2026-03-22T09:54:25Z</time></trkpt><trkpt lat="44.48919523300695" lon="11.224372660407468"><ele>79.0</ele><time>2026-03-22T09:54:28Z</time></trkpt><trkpt lat="44.48928212378807" lon="11.224205122547433"><ele>79.0</ele><time>2026-03-22T09:54:30Z</time></trkpt><trkpt lat="44.48934114909065" lon="11.224101548588504"><ele>79.0</ele><time>2026-03-22T09:54:31Z</time></trkpt><trkpt lat="44.4894042033349" lon="11.22399142181802"><ele>79.0</ele><time>2026-03-22T09:54:32Z</time></trkpt><trkpt lat="44.48946590975979" lon="11.223886590854207"><ele>79.0</ele><time>2026-03-22T09:54:33Z</time></trkpt><trkpt lat="44.48952351405294" lon="11.223783690786068"><ele>79.0</ele><time>2026-03-22T09:54:34Z</time></trkpt><trkpt lat="44.48958321987853" lon="11.223678123179983"><ele>79.0</ele><time>2026-03-22T09:54:35Z</time></trkpt><trkpt lat="44.48964134927799" lon="11.223573041767445"><ele>79.0</ele><time>2026-03-22T09:54:36Z</time></trkpt><trkpt lat="44.489700997864844" lon="11.2234695145061"><ele>79.0</ele><time>2026-03-22T09:54:37Z</time></trkpt><trkpt lat="44.48975852039539" lon="11.223366492563986"><ele>79.0</ele><time>2026-03-22T09:54:38Z</time></trkpt><trkpt lat="44.48982021825201" lon="11.223255196480391"><ele>79.0</ele><time>2026-03-22T09:54:39Z</time></trkpt><trkpt lat="44.48988836020172" lon="11.223131933851846"><ele>79.0</ele><time>2026-03-22T09:54:40Z</time></trkpt><trkpt lat="44.48995573245152" lon="11.223015138425964"><ele>79.0</ele><time>2026-03-22T09:54:41Z</time></trkpt><trkpt lat="44.490017819514065" lon="11.222908308821452"><ele>79.0</ele><time>2026-03-22T09:54:42Z</time></trkpt><trkpt lat="44.49008148250201" lon="11.222802379783333"><ele>78.8</ele><time>2026-03-22T09:54:43Z</time></trkpt><trkpt lat="44.49013707929628" lon="11.222706065900747"><ele>78.60000000000001</ele><time>2026-03-22T09:54:44Z</time></trkpt><trkpt lat="44.490185289546275" lon="11.222622420376199"><ele>78.4</ele><time>2026-03-22T09:54:45Z</time></trkpt><trkpt lat="44.490241132997326" lon="11.222526807399872"><ele>78.2</ele><time>2026-03-22T09:54:46Z</time></trkpt><trkpt lat="44.4903096396442" lon="11.22240185339359"><ele>78.0</ele><time>2026-03-22T09:54:47Z</time></trkpt><trkpt lat="44.49038078180677" lon="11.222279086647237"><ele>77.83333333333333</ele><time>2026-03-22T09:54:48Z</time></trkpt><trkpt lat="44.49044701183136" lon="11.22216395756394"><ele>77.66666666666667</ele><time>2026-03-22T09:54:49Z</time></trkpt><trkpt lat="44.49049345085567" lon="11.222071621193233"><ele>77.5</ele><time>2026-03-22T09:54:50Z</time></trkpt><trkpt lat="44.49053975695577" lon="11.221961175696807"><ele>77.33333333333334</ele><time>2026-03-22T09:54:51Z</time></trkpt><trkpt lat="44.49057030366124" lon="11.221853646731644"><ele>77.16666666666667</ele><time>2026-03-22T09:54:52Z</time></trkpt><trkpt lat="44.490595566885425" lon="11.221762953520507"><ele>77.0</ele><time>2026-03-22T09:54:53Z</time></trkpt><trkpt lat="44.490632158111644" lon="11.221619573567457"><ele>77.0</ele><time>2026-03-22T09:54:55Z</time></trkpt><trkpt lat="44.490648197359704" lon="11.221512781466624"><ele>77.0</ele><time>2026-03-22T09:54:57Z</time></trkpt><trkpt lat="44.49066683150546" lon="11.22139846293567"><ele>77.0</ele><time>2026-03-22T09:55:04Z</time></trkpt><trkpt lat="44.490699893482585" lon="11.221264082299045"><ele>77.0</ele><time>2026-03-22T09:55:06Z</time></trkpt><trkpt lat="44.49070798071872" lon="11.221115167520379"><ele>77.0</ele><time>2026-03-22T09:55:08Z</time></trkpt><trkpt lat="44.49072511876448" lon="11.221018079013529"><ele>77.0</ele><time>2026-03-22T09:55:09Z</time></trkpt><trkpt lat="44.49073977714904" lon="11.220909249899986"><ele>77.0</ele><time>2026-03-22T09:55:10Z</time></trkpt><trkpt lat="44.49075968661321" lon="11.220800250977577"><ele>77.0</ele><time>2026-03-22T09:55:11Z</time></trkpt><trkpt lat="44.490772275189414" lon="11.220697935758162"><ele>77.0</ele><time>2026-03-22T09:55:12Z</time></trkpt><trkpt lat="44.49077921078061" lon="11.220605989571188"><ele>77.0</ele><time>2026-03-22T09:55:13Z</time></trkpt><trkpt lat="44.4907881688212" lon="11.220516668366779"><ele>77.0</ele><time>2026-03-22T09:55:14Z</time></trkpt><trkpt lat="44.49080620410277" lon="11.220359880598494"><ele>77.0</ele><time>2026-03-22T09:55:16Z</time></trkpt><trkpt lat="44.490820086468034" lon="11.220228660123299"><ele>77.4</ele><time>2026-03-22T09:55:18Z</time></trkpt><trkpt lat="44.490821834095584" lon="11.220098114093519"><ele>77.80000000000001</ele><time>2026-03-22T09:55:20Z</time></trkpt><trkpt lat="44.49084181905971" lon="11.219978663940001"><ele>78.2</ele><time>2026-03-22T09:55:23Z</time></trkpt><trkpt lat="44.4908766737514" lon="11.219843144048408"><ele>78.60000000000001</ele><time>2026-03-22T09:55:35Z</time></trkpt><trkpt lat="44.490910577072775" lon="11.219663594200114"><ele>79.0</ele><time>2026-03-22T09:55:37Z</time></trkpt><trkpt lat="44.49093811351065" lon="11.219562122890348"><ele>79.0</ele><time>2026-03-22T09:55:38Z</time></trkpt><trkpt lat="44.490968803331924" lon="11.219462984365439"><ele>79.0</ele><time>2026-03-22T09:55:39Z</time></trkpt><trkpt lat="44.49100176139556" lon="11.219348081600943"><ele>79.0</ele><time>2026-03-22T09:55:40Z</time></trkpt><trkpt lat="44.49103186229142" lon="11.21922300465217"><ele>79.0</ele><time>2026-03-22T09:55:41Z</time></trkpt><trkpt lat="44.49104776560408" lon="11.219106464894917"><ele>79.0</ele><time>2026-03-22T09:55:42Z</time></trkpt><trkpt lat="44.49106429144896" lon="11.219007325169155"><ele>79.0</ele><time>2026-03-22T09:55:43Z</time></trkpt><trkpt lat="44.491100036671995" lon="11.218853460687207"><ele>78.83333333333333</ele><time>2026-03-22T09:55:45Z</time></trkpt><trkpt lat="44.49112533817009" lon="11.218760221919474"><ele>78.66666666666666</ele><time>2026-03-22T09:55:47Z</time></trkpt><trkpt lat="44.49115930587627" lon="11.218668333057979"><ele>78.5</ele><time>2026-03-22T09:55:52Z</time></trkpt><trkpt lat="44.491048151828714" lon="11.218570624797923"><ele>78.33333333333333</ele><time>2026-03-22T09:55:54Z</time></trkpt><trkpt lat="44.49099259488135" lon="11.21851287880798"><ele>78.16666666666667</ele><time>2026-03-22T09:55:55Z</time></trkpt><trkpt lat="44.49091521484642" lon="11.218492888897554"><ele>78.0</ele><time>2026-03-22T09:55:56Z</time></trkpt><trkpt lat="44.49084284059113" lon="11.218446719738264"><ele>78.0</ele><time>2026-03-22T09:55:57Z</time></trkpt><trkpt lat="44.49076057457071" lon="11.218385780696263"><ele>78.0</ele><time>2026-03-22T09:55:58Z</time></trkpt><trkpt lat="44.49064822957693" lon="11.218314840214962"><ele>78.0</ele><time>2026-03-22T09:55:59Z</time></trkpt><trkpt lat="44.490536600997" lon="11.218243840976577"><ele>78.0</ele><time>2026-03-22T09:56:00Z</time></trkpt><trkpt lat="44.49044341374594" lon="11.218145228615558"><ele>78.0</ele><time>2026-03-22T09:56:01Z</time></trkpt><trkpt lat="44.49054332215331" lon="11.21819764053021"><ele>78.0</ele><time>2026-03-22T09:56:02Z</time></trkpt><trkpt lat="44.4904639145537" lon="11.218130930670059"><ele>78.0</ele><time>2026-03-22T09:56:04Z</time></trkpt><trkpt lat="44.49040590439566" lon="11.218072200117295"><ele>78.0</ele><time>2026-03-22T09:56:06Z</time></trkpt><trkpt lat="44.49034338339338" lon="11.218030426241725"><ele>78.0</ele><time>2026-03-22T09:56:08Z</time></trkpt><trkpt lat="44.490283373636174" lon="11.217960883216922"><ele>78.0</ele><time>2026-03-22T09:56:10Z</time></trkpt><trkpt lat="44.490183922916536" lon="11.217879555976449"><ele>78.33333333333333</ele><time>2026-03-22T09:56:13Z</time></trkpt><trkpt lat="44.49012942843958" lon="11.21783079430867"><ele>78.66666666666667</ele><time>2026-03-22T09:56:14Z</time></trkpt><trkpt lat="44.49006742075922" lon="11.217761083958612"><ele>79.0</ele><time>2026-03-22T09:56:15Z</time></trkpt><trkpt lat="44.48998753416272" lon="11.21771108927299"><ele>79.33333333333334</ele><time>2026-03-22T09:56:16Z</time></trkpt><trkpt lat="44.489934009636144" lon="11.217662464449537"><ele>79.66666666666667</ele><time>2026-03-22T09:56:17Z</time></trkpt><trkpt lat="44.48983332584309" lon="11.217581281149497"><ele>80.0</ele><time>2026-03-22T09:56:19Z</time></trkpt><trkpt lat="44.48975150922092" lon="11.217533534832894"><ele>80.0</ele><time>2026-03-22T09:56:21Z</time></trkpt><trkpt lat="44.48966913535818" lon="11.217491803469528"><ele>80.0</ele><time>2026-03-22T09:56:24Z</time></trkpt><trkpt lat="44.48968102699365" lon="11.217265298532732"><ele>80.0</ele><time>2026-03-22T09:56:30Z</time></trkpt><trkpt lat="44.48969724496828" lon="11.217148148467238"><ele>80.0</ele><time>2026-03-22T09:56:33Z</time></trkpt><trkpt lat="44.48971619029754" lon="11.217011638595555"><ele>80.0</ele><time>2026-03-22T09:56:35Z</time></trkpt><trkpt lat="44.489731817976605" lon="11.216899959239292"><ele>79.8</ele><time>2026-03-22T09:56:36Z</time></trkpt><trkpt lat="44.48975243319807" lon="11.216752637562745"><ele>79.6</ele><time>2026-03-22T09:56:37Z</time></trkpt><trkpt lat="44.48977533065514" lon="11.216589006462288"><ele>79.4</ele><time>2026-03-22T09:56:38Z</time></trkpt><trkpt lat="44.4897984867682" lon="11.216423526897911"><ele>79.2</ele><time>2026-03-22T09:56:39Z</time></trkpt><trkpt lat="44.489831098092935" lon="11.216289743810963"><ele>79.0</ele><time>2026-03-22T09:56:40Z</time></trkpt><trkpt lat="44.489850438939946" lon="11.216168864518018"><ele>79.0</ele><time>2026-03-22T09:56:41Z</time></trkpt><trkpt lat="44.48985049160808" lon="11.216051887037164"><ele>79.0</ele><time>2026-03-22T09:56:42Z</time></trkpt><trkpt lat="44.48988047244437" lon="11.215955705260354"><ele>79.0</ele><time>2026-03-22T09:56:43Z</time></trkpt><trkpt lat="44.489888300945104" lon="11.215860411308697"><ele>79.0</ele><time>2026-03-22T09:56:44Z</time></trkpt><trkpt lat="44.48990103597931" lon="11.215663538743733"><ele>79.0</ele><time>2026-03-22T09:56:47Z</time></trkpt><trkpt lat="44.489724805630715" lon="11.215561532802427"><ele>78.71428571428572</ele><time>2026-03-22T09:56:52Z</time></trkpt><trkpt lat="44.489654505704706" lon="11.215546370704818"><ele>78.42857142857143</ele><time>2026-03-22T09:56:53Z</time></trkpt><trkpt lat="44.489580343947765" lon="11.21552647622633"><ele>78.14285714285714</ele><time>2026-03-22T09:56:54Z</time></trkpt><trkpt lat="44.48951592137631" lon="11.215510069150445"><ele>77.85714285714286</ele><time>2026-03-22T09:56:55Z</time></trkpt><trkpt lat="44.489426287084704" lon="11.215493131914927"><ele>77.57142857142857</ele><time>2026-03-22T09:56:57Z</time></trkpt><trkpt lat="44.48935680384094" lon="11.215469980531987"><ele>77.28571428571429</ele><time>2026-03-22T09:56:59Z</time></trkpt><trkpt lat="44.48929098575713" lon="11.215442110105752"><ele>77.0</ele><time>2026-03-22T09:57:01Z</time></trkpt><trkpt lat="44.489323776234045" lon="11.215217337670516"><ele>77.66666666666667</ele><time>2026-03-22T09:57:06Z</time></trkpt><trkpt lat="44.4893265087652" lon="11.215097637348283"><ele>78.33333333333334</ele><time>2026-03-22T09:57:08Z</time></trkpt><trkpt lat="44.48934902188316" lon="11.21500413199101"><ele>79.0</ele><time>2026-03-22T09:57:09Z</time></trkpt><trkpt lat="44.48935985415635" lon="11.214889365921497"><ele>79.66666666666667</ele><time>2026-03-22T09:57:10Z</time></trkpt><trkpt lat="44.48937462904383" lon="11.214763934384326"><ele>80.33333333333333</ele><time>2026-03-22T09:57:11Z</time></trkpt><trkpt lat="44.48939748756728" lon="11.214629783291981"><ele>81.0</ele><time>2026-03-22T09:57:12Z</time></trkpt><trkpt lat="44.48941850690753" lon="11.214484455220354"><ele>81.19999999999999</ele><time>2026-03-22T09:57:13Z</time></trkpt><trkpt lat="44.48943953066742" lon="11.214326991192557"><ele>81.39999999999999</ele><time>2026-03-22T09:57:14Z</time></trkpt><trkpt lat="44.48945807316644" lon="11.214188604369383"><ele>81.6</ele><time>2026-03-22T09:57:15Z</time></trkpt><trkpt lat="44.48947429291087" lon="11.214060863248509"><ele>81.8</ele><time>2026-03-22T09:57:16Z</time></trkpt><trkpt lat="44.48949289692899" lon="11.213912017869346"><ele>82.0</ele><time>2026-03-22T09:57:17Z</time></trkpt><trkpt lat="44.48951808516426" lon="11.21373538907364"><ele>82.0</ele><time>2026-03-22T09:57:18Z</time></trkpt><trkpt lat="44.48953958375414" lon="11.213563003147087"><ele>82.0</ele><time>2026-03-22T09:57:19Z</time></trkpt><trkpt lat="44.489565240115084" lon="11.213392381245427"><ele>82.0</ele><time>2026-03-22T09:57:20Z</time></trkpt><trkpt lat="44.48958778140681" lon="11.213240010063863"><ele>82.0</ele><time>2026-03-22T09:57:21Z</time></trkpt><trkpt lat="44.489607378591906" lon="11.213099412703386"><ele>81.5</ele><time>2026-03-22T09:57:22Z</time></trkpt><trkpt lat="44.48962880587758" lon="11.212972561681127"><ele>81.0</ele><time>2026-03-22T09:57:23Z</time></trkpt><trkpt lat="44.489646914219655" lon="11.212850015775398"><ele>80.5</ele><time>2026-03-22T09:57:24Z</time></trkpt><trkpt lat="44.489662039834734" lon="11.212730464993"><ele>80.0</ele><time>2026-03-22T09:57:25Z</time></trkpt><trkpt lat="44.489679482439165" lon="11.212618456789379"><ele>79.5</ele><time>2026-03-22T09:57:26Z</time></trkpt><trkpt lat="44.48969470546178" lon="11.212532208050401"><ele>79.0</ele><time>2026-03-22T09:57:27Z</time></trkpt><trkpt lat="44.4897018771959" lon="11.212397483898059"><ele>79.0</ele><time>2026-03-22T09:57:29Z</time></trkpt><trkpt lat="44.489767158138484" lon="11.212330038104758"><ele>79.0</ele><time>2026-03-22T09:57:32Z</time></trkpt><trkpt lat="44.48988281687599" lon="11.212374241471966"><ele>79.0</ele><time>2026-03-22T09:57:34Z</time></trkpt><trkpt lat="44.48996882047104" lon="11.212402051840293"><ele>79.0</ele><time>2026-03-22T09:57:35Z</time></trkpt><trkpt lat="44.49007047757806" lon="11.212407452634288"><ele>79.0</ele><time>2026-03-22T09:57:36Z</time></trkpt><trkpt lat="44.49017879411705" lon="11.212421734031576"><ele>79.0</ele><time>2026-03-22T09:57:37Z</time></trkpt><trkpt lat="44.49027056966167" lon="11.212434772194127"><ele>79.0</ele><time>2026-03-22T09:57:38Z</time></trkpt><trkpt lat="44.49035418237063" lon="11.212444424086723"><ele>79.0</ele><time>2026-03-22T09:57:39Z</time></trkpt><trkpt lat="44.49043101836047" lon="11.21244972011159"><ele>79.0</ele><time>2026-03-22T09:57:40Z</time></trkpt><trkpt lat="44.49050359317103" lon="11.212462921283377"><ele>79.0</ele><time>2026-03-22T09:57:41Z</time></trkpt><trkpt lat="44.49056663394363" lon="11.212473587209328"><ele>79.0</ele><time>2026-03-22T09:57:42Z</time></trkpt><trkpt lat="44.49067780819867" lon="11.212472767385407"><ele>79.25</ele><time>2026-03-22T09:57:44Z</time></trkpt><trkpt lat="44.490741509316926" lon="11.212216514655537"><ele>79.5</ele><time>2026-03-22T09:57:46Z</time></trkpt><trkpt lat="44.49078569159989" lon="11.212092651825488"><ele>79.75</ele><time>2026-03-22T09:57:47Z</time></trkpt><trkpt lat="44.49083152910862" lon="11.211964148467155"><ele>80.0</ele><time>2026-03-22T09:57:48Z</time></trkpt><trkpt lat="44.49088336656403" lon="11.211862195355307"><ele>80.0</ele><time>2026-03-22T09:57:49Z</time></trkpt><trkpt lat="44.4909190432094" lon="11.211756048250058"><ele>80.0</ele><time>2026-03-22T09:57:50Z</time></trkpt><trkpt lat="44.49095366520912" lon="11.211648914126984"><ele>80.0</ele><time>2026-03-22T09:57:51Z</time></trkpt><trkpt lat="44.490984078175096" lon="11.211551798753566"><ele>80.0</ele><time>2026-03-22T09:57:52Z</time></trkpt><trkpt lat="44.49101710560034" lon="11.211453173137002"><ele>80.0</ele><time>2026-03-22T09:57:53Z</time></trkpt><trkpt lat="44.491063387669" lon="11.211342572413741"><ele>80.0</ele><time>2026-03-22T09:57:54Z</time></trkpt><trkpt lat="44.49110240587113" lon="11.211234161624823"><ele>80.4</ele><time>2026-03-22T09:57:55Z</time></trkpt><trkpt lat="44.49112958879401" lon="11.21114461310667"><ele>80.8</ele><time>2026-03-22T09:57:56Z</time></trkpt><trkpt lat="44.49117818885261" lon="11.210996904487251"><ele>81.19999999999999</ele><time>2026-03-22T09:57:58Z</time></trkpt><trkpt lat="44.49122864172193" lon="11.210885536491528"><ele>81.6</ele><time>2026-03-22T09:58:00Z</time></trkpt><trkpt lat="44.49126660234718" lon="11.210798726942942"><ele>82.0</ele><time>2026-03-22T09:58:02Z</time></trkpt><trkpt lat="44.491329288175514" lon="11.210693178855314"><ele>80.5</ele><time>2026-03-22T09:58:06Z</time></trkpt><trkpt lat="44.491347480830534" lon="11.210608623171067"><ele>79.0</ele><time>2026-03-22T09:58:07Z</time></trkpt><trkpt lat="44.49136374197283" lon="11.210498861664759"><ele>77.5</ele><time>2026-03-22T09:58:08Z</time></trkpt><trkpt lat="44.491390489319734" lon="11.210373953389437"><ele>76.0</ele><time>2026-03-22T09:58:09Z</time></trkpt><trkpt lat="44.49142277755278" lon="11.210251198193367"><ele>74.5</ele><time>2026-03-22T09:58:10Z</time></trkpt><trkpt lat="44.491453907270866" lon="11.210132196693703"><ele>73.0</ele><time>2026-03-22T09:58:11Z</time></trkpt><trkpt lat="44.49148124454266" lon="11.210029101169086"><ele>73.0</ele><time>2026-03-22T09:58:12Z</time></trkpt><trkpt lat="44.491510898466565" lon="11.209928355118775"><ele>73.0</ele><time>2026-03-22T09:58:13Z</time></trkpt><trkpt lat="44.49153834186106" lon="11.2098310907183"><ele>73.0</ele><time>2026-03-22T09:58:14Z</time></trkpt><trkpt lat="44.49155541976016" lon="11.209723844999756"><ele>73.0</ele><time>2026-03-22T09:58:15Z</time></trkpt><trkpt lat="44.49155399222817" lon="11.209608710676777"><ele>73.0</ele><time>2026-03-22T09:58:16Z</time></trkpt><trkpt lat="44.49152885246092" lon="11.209496491389562"><ele>73.0</ele><time>2026-03-22T09:58:17Z</time></trkpt><trkpt lat="44.49149105598757" lon="11.209372895919389"><ele>73.4</ele><time>2026-03-22T09:58:18Z</time></trkpt><trkpt lat="44.49145559389597" lon="11.209243544265362"><ele>73.8</ele><time>2026-03-22T09:58:19Z</time></trkpt><trkpt lat="44.491427072934385" lon="11.209106719995985"><ele>74.2</ele><time>2026-03-22T09:58:20Z</time></trkpt><trkpt lat="44.49139461549971" lon="11.208972655307482"><ele>74.6</ele><time>2026-03-22T09:58:21Z</time></trkpt><trkpt lat="44.49136586644036" lon="11.208843125421897"><ele>75.0</ele><time>2026-03-22T09:58:22Z</time></trkpt><trkpt lat="44.49134046413101" lon="11.208716377097048"><ele>75.2</ele><time>2026-03-22T09:58:23Z</time></trkpt><trkpt lat="44.49130955521161" lon="11.208573796631589"><ele>75.4</ele><time>2026-03-22T09:58:24Z</time></trkpt><trkpt lat="44.49127212228038" lon="11.208423173453886"><ele>75.6</ele><time>2026-03-22T09:58:25Z</time></trkpt><trkpt lat="44.49123857345416" lon="11.208291560070627"><ele>75.8</ele><time>2026-03-22T09:58:26Z</time></trkpt><trkpt lat="44.49121508384638" lon="11.208180699486581"><ele>76.0</ele><time>2026-03-22T09:58:27Z</time></trkpt><trkpt lat="44.49118170873065" lon="11.208068681254607"><ele>77.4</ele><time>2026-03-22T09:58:28Z</time></trkpt><trkpt lat="44.491138768490394" lon="11.207960420571933"><ele>78.8</ele><time>2026-03-22T09:58:29Z</time></trkpt><trkpt lat="44.49109382581191" lon="11.207840181124668"><ele>80.2</ele><time>2026-03-22T09:58:30Z</time></trkpt><trkpt lat="44.49104709594469" lon="11.207706030670234"><ele>81.60000000000001</ele><time>2026-03-22T09:58:31Z</time></trkpt><trkpt lat="44.490983891720745" lon="11.207564318575924"><ele>83.0</ele><time>2026-03-22T09:58:32Z</time></trkpt><trkpt lat="44.49090994746851" lon="11.207421763068107"><ele>83.75</ele><time>2026-03-22T09:58:33Z</time></trkpt><trkpt lat="44.49083986251396" lon="11.207276381838595"><ele>84.5</ele><time>2026-03-22T09:58:34Z</time></trkpt><trkpt lat="44.490777150007766" lon="11.207124432172874"><ele>85.25</ele><time>2026-03-22T09:58:35Z</time></trkpt><trkpt lat="44.49071524038866" lon="11.206977778279274"><ele>86.0</ele><time>2026-03-22T09:58:36Z</time></trkpt><trkpt lat="44.49065082226872" lon="11.20684366818317"><ele>86.0</ele><time>2026-03-22T09:58:37Z</time></trkpt><trkpt lat="44.49059107489369" lon="11.206707678529858"><ele>86.0</ele><time>2026-03-22T09:58:38Z</time></trkpt><trkpt lat="44.49053344308548" lon="11.20655811113413"><ele>86.0</ele><time>2026-03-22T09:58:39Z</time></trkpt><trkpt lat="44.49046557927011" lon="11.206388720113015"><ele>86.0</ele><time>2026-03-22T09:58:40Z</time></trkpt><trkpt lat="44.49040760811507" lon="11.20622716392911"><ele>88.8</ele><time>2026-03-22T09:58:41Z</time></trkpt><trkpt lat="44.490357694139284" lon="11.206079487639052"><ele>91.6</ele><time>2026-03-22T09:58:42Z</time></trkpt><trkpt lat="44.490314619642" lon="11.205939839503626"><ele>94.4</ele><time>2026-03-22T09:58:43Z</time></trkpt><trkpt lat="44.490275404219034" lon="11.205796453571352"><ele>97.2</ele><time>2026-03-22T09:58:44Z</time></trkpt><trkpt lat="44.490235682327" lon="11.205654989790952"><ele>100.0</ele><time>2026-03-22T09:58:45Z</time></trkpt><trkpt lat="44.49019357618275" lon="11.20552826294338"><ele>100.4</ele><time>2026-03-22T09:58:46Z</time></trkpt><trkpt lat="44.49015124222135" lon="11.205400371192821"><ele>100.8</ele><time>2026-03-22T09:58:47Z</time></trkpt><trkpt lat="44.49009873391609" lon="11.205256963408537"><ele>101.19999999999999</ele><time>2026-03-22T09:58:48Z</time></trkpt><trkpt lat="44.490047714726934" lon="11.205128705664045"><ele>101.6</ele><time>2026-03-22T09:58:49Z</time></trkpt><trkpt lat="44.49000389527575" lon="11.20502021997216"><ele>102.0</ele><time>2026-03-22T09:58:50Z</time></trkpt><trkpt lat="44.48995907765215" lon="11.20491161162383"><ele>103.0</ele><time>2026-03-22T09:58:51Z</time></trkpt><trkpt lat="44.48990950187041" lon="11.204788159532127"><ele>104.0</ele><time>2026-03-22T09:58:52Z</time></trkpt><trkpt lat="44.48984840450023" lon="11.204646828896585"><ele>105.0</ele><time>2026-03-22T09:58:53Z</time></trkpt><trkpt lat="44.489782454430895" lon="11.204490498615108"><ele>106.0</ele><time>2026-03-22T09:58:54Z</time></trkpt><trkpt lat="44.48971772188976" lon="11.20433491749505"><ele>106.0</ele><time>2026-03-22T09:58:55Z</time></trkpt><trkpt lat="44.48964943282852" lon="11.20417590378426"><ele>106.0</ele><time>2026-03-22T09:58:56Z</time></trkpt><trkpt lat="44.48957540574969" lon="11.204008359688034"><ele>106.0</ele><time>2026-03-22T09:58:57Z</time></trkpt><trkpt lat="44.48950617427339" lon="11.203855553709223"><ele>106.0</ele><time>2026-03-22T09:58:58Z</time></trkpt><trkpt lat="44.48944494431748" lon="11.20372279655612"><ele>107.75</ele><time>2026-03-22T09:58:59Z</time></trkpt><trkpt lat="44.48938629247646" lon="11.203596048531983"><ele>109.5</ele><time>2026-03-22T09:59:00Z</time></trkpt><trkpt lat="44.489329476552136" lon="11.203468434177449"><ele>111.25</ele><time>2026-03-22T09:59:01Z</time></trkpt><trkpt lat="44.48926640422387" lon="11.203334830678976"><ele>113.0</ele><time>2026-03-22T09:59:02Z</time></trkpt><trkpt lat="44.48919478958107" lon="11.203192852633542"><ele>112.60000000000001</ele><time>2026-03-22T09:59:03Z</time></trkpt><trkpt lat="44.48912551930531" lon="11.203068034462193"><ele>112.20000000000002</ele><time>2026-03-22T09:59:04Z</time></trkpt><trkpt lat="44.48906303011052" lon="11.202953095872363"><ele>111.8</ele><time>2026-03-22T09:59:05Z</time></trkpt><trkpt lat="44.48900241959906" lon="11.202836501738847"><ele>111.4</ele><time>2026-03-22T09:59:06Z</time></trkpt><trkpt lat="44.488947437531465" lon="11.202720274586113"><ele>111.0</ele><time>2026-03-22T09:59:07Z</time></trkpt><trkpt lat="44.48888715373282" lon="11.20261157249355"><ele>111.0</ele><time>2026-03-22T09:59:08Z</time></trkpt><trkpt lat="44.48883073172371" lon="11.202510177096553"><ele>111.0</ele><time>2026-03-22T09:59:09Z</time></trkpt><trkpt lat="44.48879542805176" lon="11.202402494189341"><ele>111.0</ele><time>2026-03-22T09:59:10Z</time></trkpt><trkpt lat="44.488767984064815" lon="11.202257130778168"><ele>111.0</ele><time>2026-03-22T09:59:11Z</time></trkpt><trkpt lat="44.48874699534511" lon="11.202088088289255"><ele>111.0</ele><time>2026-03-22T09:59:12Z</time></trkpt><trkpt lat="44.48873107196558" lon="11.201899307206999"><ele>111.8</ele><time>2026-03-22T09:59:13Z</time></trkpt><trkpt lat="44.48872533150656" lon="11.201713469771896"><ele>112.6</ele><time>2026-03-22T09:59:14Z</time></trkpt><trkpt lat="44.48871441055016" lon="11.201558843782063"><ele>113.4</ele><time>2026-03-22T09:59:15Z</time></trkpt><trkpt lat="44.48870168054996" lon="11.20143215319777"><ele>114.2</ele><time>2026-03-22T09:59:16Z</time></trkpt><trkpt lat="44.48868869098895" lon="11.201318469237549"><ele>115.0</ele><time>2026-03-22T09:59:17Z</time></trkpt><trkpt lat="44.4886769868344" lon="11.201223151674562"><ele>115.0</ele><time>2026-03-22T09:59:18Z</time></trkpt><trkpt lat="44.4886427850925" lon="11.201057420941229"><ele>115.0</ele><time>2026-03-22T09:59:20Z</time></trkpt><trkpt lat="44.488599656716524" lon="11.200935963119614"><ele>115.0</ele><time>2026-03-22T09:59:21Z</time></trkpt><trkpt lat="44.48855248936648" lon="11.200798892628576"><ele>115.0</ele><time>2026-03-22T09:59:22Z</time></trkpt><trkpt lat="44.48850706157708" lon="11.200652140094066"><ele>115.0</ele><time>2026-03-22T09:59:23Z</time></trkpt><trkpt lat="44.488466425564745" lon="11.200509865464168"><ele>114.6</ele><time>2026-03-22T09:59:24Z</time></trkpt><trkpt lat="44.48843179805243" lon="11.200382440285495"><ele>114.2</ele><time>2026-03-22T09:59:25Z</time></trkpt><trkpt lat="44.48840599623761" lon="11.200251139851934"><ele>113.80000000000001</ele><time>2026-03-22T09:59:26Z</time></trkpt><trkpt lat="44.48839541548572" lon="11.20011084559236"><ele>113.4</ele><time>2026-03-22T09:59:27Z</time></trkpt><trkpt lat="44.48839463979161" lon="11.199962685725474"><ele>113.0</ele><time>2026-03-22T09:59:28Z</time></trkpt><trkpt lat="44.488396017291166" lon="11.199807538735419"><ele>112.80000000000001</ele><time>2026-03-22T09:59:29Z</time></trkpt><trkpt lat="44.48838735413704" lon="11.199666001711968"><ele>112.60000000000001</ele><time>2026-03-22T09:59:30Z</time></trkpt><trkpt lat="44.48837123464633" lon="11.19953190898657"><ele>112.39999999999999</ele><time>2026-03-22T09:59:31Z</time></trkpt><trkpt lat="44.48835338544111" lon="11.199396404980877"><ele>112.19999999999999</ele><time>2026-03-22T09:59:32Z</time></trkpt><trkpt lat="44.488327565105614" lon="11.199258236985125"><ele>112.0</ele><time>2026-03-22T09:59:33Z</time></trkpt><trkpt lat="44.48829120139201" lon="11.199128462163577"><ele>111.6</ele><time>2026-03-22T09:59:34Z</time></trkpt><trkpt lat="44.48824701142977" lon="11.198999249509015"><ele>111.19999999999999</ele><time>2026-03-22T09:59:35Z</time></trkpt><trkpt lat="44.48819545101294" lon="11.198867919779643"><ele>110.8</ele><time>2026-03-22T09:59:36Z</time></trkpt><trkpt lat="44.488140153648374" lon="11.198736700495283"><ele>110.4</ele><time>2026-03-22T09:59:37Z</time></trkpt><trkpt lat="44.48807918529087" lon="11.198607599928682"><ele>110.0</ele><time>2026-03-22T09:59:38Z</time></trkpt><trkpt lat="44.48800903942285" lon="11.198479721294479"><ele>110.0</ele><time>2026-03-22T09:59:39Z</time></trkpt><trkpt lat="44.48792915807334" lon="11.198358838293125"><ele>110.0</ele><time>2026-03-22T09:59:40Z</time></trkpt><trkpt lat="44.487841778039865" lon="11.198239952400524"><ele>110.0</ele><time>2026-03-22T09:59:41Z</time></trkpt><trkpt lat="44.487750578178265" lon="11.198128379886157"><ele>110.0</ele><time>2026-03-22T09:59:42Z</time></trkpt><trkpt lat="44.487666969070034" lon="11.198025750972674"><ele>110.2</ele><time>2026-03-22T09:59:43Z</time></trkpt><trkpt lat="44.48759225834647" lon="11.19794316416581"><ele>110.4</ele><time>2026-03-22T09:59:44Z</time></trkpt><trkpt lat="44.48750803101709" lon="11.197869998694197"><ele>110.6</ele><time>2026-03-22T09:59:45Z</time></trkpt><trkpt lat="44.48740754400664" lon="11.197793597365337"><ele>110.8</ele><time>2026-03-22T09:59:46Z</time></trkpt><trkpt lat="44.48728521213566" lon="11.197710346219962"><ele>111.0</ele><time>2026-03-22T09:59:47Z</time></trkpt><trkpt lat="44.48717343993424" lon="11.197644588713608"><ele>112.0</ele><time>2026-03-22T09:59:48Z</time></trkpt><trkpt lat="44.487069185057464" lon="11.19760192488634"><ele>113.0</ele><time>2026-03-22T09:59:49Z</time></trkpt><trkpt lat="44.48697571613604" lon="11.197558277897281"><ele>114.0</ele><time>2026-03-22T09:59:50Z</time></trkpt><trkpt lat="44.48687194588944" lon="11.197516918358003"><ele>115.0</ele><time>2026-03-22T09:59:51Z</time></trkpt><trkpt lat="44.486769441471644" lon="11.197469849866133"><ele>116.0</ele><time>2026-03-22T09:59:52Z</time></trkpt><trkpt lat="44.48667868633643" lon="11.1974219037893"><ele>115.99999999999999</ele><time>2026-03-22T09:59:53Z</time></trkpt><trkpt lat="44.48659255427286" lon="11.197386931139462"><ele>116.0</ele><time>2026-03-22T09:59:54Z</time></trkpt><trkpt lat="44.48650566468849" lon="11.197359694690393"><ele>116.0</ele><time>2026-03-22T09:59:55Z</time></trkpt><trkpt lat="44.48642402736407" lon="11.197322738014838"><ele>116.0</ele><time>2026-03-22T09:59:56Z</time></trkpt><trkpt lat="44.48634842370662" lon="11.197273085725133"><ele>115.99999999999999</ele><time>2026-03-22T09:59:57Z</time></trkpt><trkpt lat="44.486269647302" lon="11.197218424059724"><ele>116.0</ele><time>2026-03-22T09:59:58Z</time></trkpt><trkpt lat="44.4861850611438" lon="11.19716911660309"><ele>112.8</ele><time>2026-03-22T09:59:59Z</time></trkpt><trkpt lat="44.486087534598255" lon="11.197165214258792"><ele>109.6</ele><time>2026-03-22T10:00:00Z</time></trkpt><trkpt lat="44.485977063607145" lon="11.19715412447665"><ele>106.4</ele><time>2026-03-22T10:00:01Z</time></trkpt><trkpt lat="44.485858475166324" lon="11.197165079307595"><ele>103.2</ele><time>2026-03-22T10:00:02Z</time></trkpt><trkpt lat="44.48574991524381" lon="11.197177838500206"><ele>100.0</ele><time>2026-03-22T10:00:03Z</time></trkpt><trkpt lat="44.485630557205575" lon="11.197192984309469"><ele>100.0</ele><time>2026-03-22T10:00:04Z</time></trkpt><trkpt lat="44.48549101162194" lon="11.197209834969298"><ele>100.0</ele><time>2026-03-22T10:00:05Z</time></trkpt><trkpt lat="44.48535857034906" lon="11.197217236343604"><ele>100.0</ele><time>2026-03-22T10:00:06Z</time></trkpt><trkpt lat="44.48523901246982" lon="11.19721320402212"><ele>100.0</ele><time>2026-03-22T10:00:07Z</time></trkpt><trkpt lat="44.48512797000172" lon="11.197192317638711"><ele>101.75</ele><time>2026-03-22T10:00:08Z</time></trkpt><trkpt lat="44.4850177591651" lon="11.197171646788494"><ele>103.5</ele><time>2026-03-22T10:00:09Z</time></trkpt><trkpt lat="44.48490308967121" lon="11.197152699804988"><ele>105.25</ele><time>2026-03-22T10:00:10Z</time></trkpt><trkpt lat="44.48477762474307" lon="11.19713683432132"><ele>107.0</ele><time>2026-03-22T10:00:11Z</time></trkpt><trkpt lat="44.48464258209501" lon="11.197159829696059"><ele>110.75</ele><time>2026-03-22T10:00:12Z</time></trkpt><trkpt lat="44.48449200568298" lon="11.197157875065784"><ele>114.5</ele><time>2026-03-22T10:00:13Z</time></trkpt><trkpt lat="44.48434264587089" lon="11.197166376190436"><ele>118.25</ele><time>2026-03-22T10:00:14Z</time></trkpt><trkpt lat="44.484214156169095" lon="11.197152030754463"><ele>122.0</ele><time>2026-03-22T10:00:15Z</time></trkpt><trkpt lat="44.48410834828659" lon="11.197135586305395"><ele>122.0</ele><time>2026-03-22T10:00:16Z</time></trkpt><trkpt lat="44.48400787093221" lon="11.19711900922601"><ele>121.99999999999999</ele><time>2026-03-22T10:00:17Z</time></trkpt><trkpt lat="44.483912847944715" lon="11.197075281453827"><ele>121.99999999999999</ele><time>2026-03-22T10:00:18Z</time></trkpt><trkpt lat="44.48381073696008" lon="11.197051439287616"><ele>122.0</ele><time>2026-03-22T10:00:19Z</time></trkpt><trkpt lat="44.48370438434497" lon="11.197030502907914"><ele>122.0</ele><time>2026-03-22T10:00:20Z</time></trkpt><trkpt lat="44.48359547371045" lon="11.197030569815434"><ele>122.83333333333333</ele><time>2026-03-22T10:00:21Z</time></trkpt><trkpt lat="44.48349266203978" lon="11.197008195185854"><ele>123.66666666666666</ele><time>2026-03-22T10:00:22Z</time></trkpt><trkpt lat="44.48338742496637" lon="11.196995468266264"><ele>124.5</ele><time>2026-03-22T10:00:23Z</time></trkpt><trkpt lat="44.483303230851725" lon="11.196970667242717"><ele>125.33333333333334</ele><time>2026-03-22T10:00:24Z</time></trkpt><trkpt lat="44.4832391395513" lon="11.196941034339622"><ele>126.16666666666667</ele><time>2026-03-22T10:00:25Z</time></trkpt><trkpt lat="44.483168753133185" lon="11.196906088153225"><ele>127.0</ele><time>2026-03-22T10:00:26Z</time></trkpt><trkpt lat="44.48308153747586" lon="11.196858471906058"><ele>127.0</ele><time>2026-03-22T10:00:27Z</time></trkpt><trkpt lat="44.48297958569632" lon="11.196797978009654"><ele>126.99999999999999</ele><time>2026-03-22T10:00:28Z</time></trkpt><trkpt lat="44.48288037314013" lon="11.196727696108422"><ele>126.99999999999999</ele><time>2026-03-22T10:00:29Z</time></trkpt><trkpt lat="44.48279562783069" lon="11.196652617820797"><ele>127.0</ele><time>2026-03-22T10:00:30Z</time></trkpt><trkpt lat="44.4827198863472" lon="11.196573575128594"><ele>127.0</ele><time>2026-03-22T10:00:31Z</time></trkpt><trkpt lat="44.48265394501063" lon="11.19648964815528"><ele>126.83333333333334</ele><time>2026-03-22T10:00:32Z</time></trkpt><trkpt lat="44.48260007387493" lon="11.196398449815023"><ele>126.66666666666667</ele><time>2026-03-22T10:00:33Z</time></trkpt><trkpt lat="44.48254495386674" lon="11.19633427915495"><ele>126.5</ele><time>2026-03-22T10:00:34Z</time></trkpt><trkpt lat="44.48247385970248" lon="11.1962853933847"><ele>126.33333333333334</ele><time>2026-03-22T10:00:35Z</time></trkpt><trkpt lat="44.482383933792626" lon="11.196247084668666"><ele>126.16666666666667</ele><time>2026-03-22T10:00:36Z</time></trkpt><trkpt lat="44.482281864287" lon="11.19622351623497"><ele>126.0</ele><time>2026-03-22T10:00:37Z</time></trkpt><trkpt lat="44.48216161161629" lon="11.196209169825435"><ele>128.4</ele><time>2026-03-22T10:00:38Z</time></trkpt><trkpt lat="44.48203736016854" lon="11.196174179499133"><ele>130.8</ele><time>2026-03-22T10:00:39Z</time></trkpt><trkpt lat="44.48192586445438" lon="11.196157084265597"><ele>133.20000000000002</ele><time>2026-03-22T10:00:40Z</time></trkpt><trkpt lat="44.48183251253774" lon="11.196159793212912"><ele>135.6</ele><time>2026-03-22T10:00:41Z</time></trkpt><trkpt lat="44.48175222611617" lon="11.196145680256489"><ele>138.0</ele><time>2026-03-22T10:00:42Z</time></trkpt><trkpt lat="44.481684830302946" lon="11.196100805174876"><ele>138.0</ele><time>2026-03-22T10:00:43Z</time></trkpt><trkpt lat="44.48159768740727" lon="11.196077304251515"><ele>138.0</ele><time>2026-03-22T10:00:44Z</time></trkpt><trkpt lat="44.481514825681884" lon="11.196013677141263"><ele>138.0</ele><time>2026-03-22T10:00:45Z</time></trkpt><trkpt lat="44.48142957244918" lon="11.195941326771162"><ele>138.0</ele><time>2026-03-22T10:00:46Z</time></trkpt><trkpt lat="44.48134283523776" lon="11.195869337999094"><ele>138.0</ele><time>2026-03-22T10:00:47Z</time></trkpt><trkpt lat="44.48125648213235" lon="11.195798782827982"><ele>139.4</ele><time>2026-03-22T10:00:48Z</time></trkpt><trkpt lat="44.48118093438964" lon="11.195708243797363"><ele>140.8</ele><time>2026-03-22T10:00:49Z</time></trkpt><trkpt lat="44.48109374158417" lon="11.195660659898419"><ele>142.2</ele><time>2026-03-22T10:00:50Z</time></trkpt><trkpt lat="44.481015285270374" lon="11.195588086229945"><ele>143.6</ele><time>2026-03-22T10:00:51Z</time></trkpt><trkpt lat="44.480921972468856" lon="11.19550272218728"><ele>145.0</ele><time>2026-03-22T10:00:52Z</time></trkpt><trkpt lat="44.480824479534945" lon="11.195414612892364"><ele>145.0</ele><time>2026-03-22T10:00:53Z</time></trkpt><trkpt lat="44.48074044303596" lon="11.195323143426664"><ele>145.0</ele><time>2026-03-22T10:00:54Z</time></trkpt><trkpt lat="44.480666754601366" lon="11.195238487644815"><ele>145.0</ele><time>2026-03-22T10:00:55Z</time></trkpt><trkpt lat="44.48058940942202" lon="11.19514416558462"><ele>145.0</ele><time>2026-03-22T10:00:56Z</time></trkpt><trkpt lat="44.480507940586946" lon="11.195048732851268"><ele>145.0</ele><time>2026-03-22T10:00:57Z</time></trkpt><trkpt lat="44.480424644807606" lon="11.194959597272046"><ele>144.6</ele><time>2026-03-22T10:00:58Z</time></trkpt><trkpt lat="44.480352697402765" lon="11.194878272749474"><ele>144.2</ele><time>2026-03-22T10:00:59Z</time></trkpt><trkpt lat="44.48028798560713" lon="11.194779697812198"><ele>143.8</ele><time>2026-03-22T10:01:00Z</time></trkpt><trkpt lat="44.480224387347995" lon="11.194667212116908"><ele>143.4</ele><time>2026-03-22T10:01:01Z</time></trkpt><trkpt lat="44.480144279126264" lon="11.194557633024823"><ele>143.0</ele><time>2026-03-22T10:01:02Z</time></trkpt><trkpt lat="44.48004225613025" lon="11.194433148474118"><ele>143.0</ele><time>2026-03-22T10:01:03Z</time></trkpt><trkpt lat="44.4799343671434" lon="11.19430965309245"><ele>143.0</ele><time>2026-03-22T10:01:04Z</time></trkpt><trkpt lat="44.47982072708162" lon="11.194176185151468"><ele>143.0</ele><time>2026-03-22T10:01:05Z</time></trkpt><trkpt lat="44.479710637206175" lon="11.19405538142949"><ele>143.0</ele><time>2026-03-22T10:01:06Z</time></trkpt><trkpt lat="44.479613256292225" lon="11.193946217963711"><ele>144.0</ele><time>2026-03-22T10:01:07Z</time></trkpt><trkpt lat="44.47952112046749" lon="11.193845453062236"><ele>145.0</ele><time>2026-03-22T10:01:08Z</time></trkpt><trkpt lat="44.47942326189852" lon="11.193727526960611"><ele>146.0</ele><time>2026-03-22T10:01:09Z</time></trkpt><trkpt lat="44.47932487088485" lon="11.193604970789123"><ele>147.0</ele><time>2026-03-22T10:01:10Z</time></trkpt><trkpt lat="44.47920817927647" lon="11.193458070536998"><ele>147.0</ele><time>2026-03-22T10:01:11Z</time></trkpt><trkpt lat="44.47909361133716" lon="11.193309707874903"><ele>147.0</ele><time>2026-03-22T10:01:12Z</time></trkpt><trkpt lat="44.478988567808784" lon="11.193178995207562"><ele>147.0</ele><time>2026-03-22T10:01:13Z</time></trkpt><trkpt lat="44.47878298607609" lon="11.19297027928451"><ele>148.0</ele><time>2026-03-22T10:01:15Z</time></trkpt><trkpt lat="44.478663298480214" lon="11.192857226164076"><ele>149.0</ele><time>2026-03-22T10:01:16Z</time></trkpt><trkpt lat="44.478543696893325" lon="11.192733206541298"><ele>150.0</ele><time>2026-03-22T10:01:17Z</time></trkpt><trkpt lat="44.47843678913358" lon="11.192615229623012"><ele>151.0</ele><time>2026-03-22T10:01:18Z</time></trkpt><trkpt lat="44.47834178139889" lon="11.192517259352948"><ele>151.0</ele><time>2026-03-22T10:01:19Z</time></trkpt><trkpt lat="44.478246616181835" lon="11.19243156390461"><ele>151.0</ele><time>2026-03-22T10:01:20Z</time></trkpt><trkpt lat="44.47813813871507" lon="11.192353944947818"><ele>151.0</ele><time>2026-03-22T10:01:21Z</time></trkpt><trkpt lat="44.47802649697237" lon="11.192277085550153"><ele>151.0</ele><time>2026-03-22T10:01:22Z</time></trkpt><trkpt lat="44.47793959140607" lon="11.192232247055674"><ele>152.0</ele><time>2026-03-22T10:01:23Z</time></trkpt><trkpt lat="44.477872306428004" lon="11.192188201001214"><ele>153.0</ele><time>2026-03-22T10:01:24Z</time></trkpt><trkpt lat="44.47778412270534" lon="11.192150098067298"><ele>154.0</ele><time>2026-03-22T10:01:26Z</time></trkpt><trkpt lat="44.47767500245281" lon="11.192109823179566"><ele>155.0</ele><time>2026-03-22T10:01:28Z</time></trkpt><trkpt lat="44.47760054270425" lon="11.192111110174443"><ele>156.0</ele><time>2026-03-22T10:01:29Z</time></trkpt><trkpt lat="44.477521227543434" lon="11.192098138678567"><ele>157.0</ele><time>2026-03-22T10:01:30Z</time></trkpt><trkpt lat="44.47743023235591" lon="11.192088833859899"><ele>157.0</ele><time>2026-03-22T10:01:31Z</time></trkpt><trkpt lat="44.477334474558795" lon="11.192083219962809"><ele>157.0</ele><time>2026-03-22T10:01:32Z</time></trkpt><trkpt lat="44.47723671087042" lon="11.19208424559424"><ele>157.0</ele><time>2026-03-22T10:01:33Z</time></trkpt><trkpt lat="44.47715003406729" lon="11.192063872756753"><ele>157.0</ele><time>2026-03-22T10:01:34Z</time></trkpt><trkpt lat="44.47704332895262" lon="11.192063417430814"><ele>157.0</ele><time>2026-03-22T10:01:35Z</time></trkpt><trkpt lat="44.47692177296335" lon="11.192085847919092"><ele>160.5</ele><time>2026-03-22T10:01:36Z</time></trkpt><trkpt lat="44.47679475559254" lon="11.19206472082298"><ele>164.0</ele><time>2026-03-22T10:01:37Z</time></trkpt><trkpt lat="44.47666580339508" lon="11.192064847126245"><ele>167.5</ele><time>2026-03-22T10:01:38Z</time></trkpt><trkpt lat="44.4765473412796" lon="11.192064847131956"><ele>171.0</ele><time>2026-03-22T10:01:39Z</time></trkpt><trkpt lat="44.47642476949543" lon="11.192090196400121"><ele>171.0</ele><time>2026-03-22T10:01:40Z</time></trkpt><trkpt lat="44.47631585921353" lon="11.192103646065808"><ele>171.0</ele><time>2026-03-22T10:01:41Z</time></trkpt><trkpt lat="44.47621655433833" lon="11.1921118565755"><ele>171.0</ele><time>2026-03-22T10:01:42Z</time></trkpt><trkpt lat="44.476125524469126" lon="11.192148924636376"><ele>171.0</ele><time>2026-03-22T10:01:43Z</time></trkpt><trkpt lat="44.47605744710534" lon="11.192183974182823"><ele>171.0</ele><time>2026-03-22T10:01:44Z</time></trkpt><trkpt lat="44.47598979538856" lon="11.19224436462052"><ele>173.0</ele><time>2026-03-22T10:01:46Z</time></trkpt><trkpt lat="44.475923820735154" lon="11.192311750221885"><ele>175.0</ele><time>2026-03-22T10:01:48Z</time></trkpt><trkpt lat="44.47586259414548" lon="11.192408889307218"><ele>177.0</ele><time>2026-03-22T10:01:50Z</time></trkpt><trkpt lat="44.47577620102643" lon="11.192321443254572"><ele>179.0</ele><time>2026-03-22T10:01:52Z</time></trkpt><trkpt lat="44.475726459572336" lon="11.192247785376049"><ele>181.0</ele><time>2026-03-22T10:01:53Z</time></trkpt><trkpt lat="44.47566556734428" lon="11.192157858048638"><ele>183.0</ele><time>2026-03-22T10:01:54Z</time></trkpt><trkpt lat="44.475599232710934" lon="11.192051635461011"><ele>183.0</ele><time>2026-03-22T10:01:55Z</time></trkpt><trkpt lat="44.47552635737529" lon="11.191938315419259"><ele>183.0</ele><time>2026-03-22T10:01:56Z</time></trkpt><trkpt lat="44.47545896309718" lon="11.191840118196502"><ele>183.0</ele><time>2026-03-22T10:01:57Z</time></trkpt><trkpt lat="44.47540950992235" lon="11.191755970371245"><ele>183.0</ele><time>2026-03-22T10:01:58Z</time></trkpt><trkpt lat="44.47536347497253" lon="11.191664604587265"><ele>183.0</ele><time>2026-03-22T10:01:59Z</time></trkpt><trkpt lat="44.475320072145024" lon="11.191555973016081"><ele>182.8</ele><time>2026-03-22T10:02:00Z</time></trkpt><trkpt lat="44.475275761100654" lon="11.191432153739074"><ele>182.60000000000002</ele><time>2026-03-22T10:02:01Z</time></trkpt><trkpt lat="44.475230181566" lon="11.191300346029582"><ele>182.39999999999998</ele><time>2026-03-22T10:02:02Z</time></trkpt><trkpt lat="44.47517809818442" lon="11.191154124009406"><ele>182.2</ele><time>2026-03-22T10:02:03Z</time></trkpt><trkpt lat="44.47512812869799" lon="11.19101073469728"><ele>182.0</ele><time>2026-03-22T10:02:04Z</time></trkpt><trkpt lat="44.47508138936867" lon="11.190873022344647"><ele>182.0</ele><time>2026-03-22T10:02:05Z</time></trkpt><trkpt lat="44.47503672747047" lon="11.190746701490793"><ele>182.0</ele><time>2026-03-22T10:02:06Z</time></trkpt><trkpt lat="44.47499881328092" lon="11.190638061687617"><ele>182.0</ele><time>2026-03-22T10:02:07Z</time></trkpt><trkpt lat="44.4749669626448" lon="11.190545999040564"><ele>182.0</ele><time>2026-03-22T10:02:08Z</time></trkpt><trkpt lat="44.47491683794036" lon="11.190399429473105"><ele>182.0</ele><time>2026-03-22T10:02:10Z</time></trkpt><trkpt lat="44.47487703182344" lon="11.190289229439987"><ele>183.39999999999998</ele><time>2026-03-22T10:02:12Z</time></trkpt><trkpt lat="44.47483944415941" lon="11.19020717941838"><ele>184.79999999999998</ele><time>2026-03-22T10:02:16Z</time></trkpt><trkpt lat="44.474774382744904" lon="11.19010226638659"><ele>186.2</ele><time>2026-03-22T10:08:09Z</time></trkpt><trkpt lat="44.474693245900646" lon="11.189966799165418"><ele>187.6</ele><time>2026-03-22T10:08:11Z</time></trkpt><trkpt lat="44.474648280185995" lon="11.189881751778485"><ele>189.0</ele><time>2026-03-22T10:08:12Z</time></trkpt><trkpt lat="44.474576013770225" lon="11.189782128828314"><ele>189.39999999999998</ele><time>2026-03-22T10:08:14Z</time></trkpt><trkpt lat="44.47447253386243" lon="11.189627452031358"><ele>189.8</ele><time>2026-03-22T10:08:16Z</time></trkpt><trkpt lat="44.47441445328768" lon="11.189538927537683"><ele>190.2</ele><time>2026-03-22T10:08:17Z</time></trkpt><trkpt lat="44.47437144152309" lon="11.189453941552989"><ele>190.60000000000002</ele><time>2026-03-22T10:08:18Z</time></trkpt><trkpt lat="44.47433367236354" lon="11.189357860140483"><ele>191.0</ele><time>2026-03-22T10:08:19Z</time></trkpt><trkpt lat="44.47429997307946" lon="11.189253518627764"><ele>191.0</ele><time>2026-03-22T10:08:20Z</time></trkpt><trkpt lat="44.47426555116548" lon="11.18911705882947"><ele>191.0</ele><time>2026-03-22T10:08:21Z</time></trkpt><trkpt lat="44.47424034484799" lon="11.188964134917258"><ele>191.0</ele><time>2026-03-22T10:08:22Z</time></trkpt><trkpt lat="44.47421372289627" lon="11.188800508054676"><ele>191.0</ele><time>2026-03-22T10:08:23Z</time></trkpt><trkpt lat="44.47419088663275" lon="11.18865760629314"><ele>191.0</ele><time>2026-03-22T10:08:24Z</time></trkpt><trkpt lat="44.4741688244543" lon="11.188519330392555"><ele>191.5</ele><time>2026-03-22T10:08:25Z</time></trkpt><trkpt lat="44.47415058746295" lon="11.188386654867221"><ele>192.0</ele><time>2026-03-22T10:08:26Z</time></trkpt><trkpt lat="44.47413870025198" lon="11.188273382036419"><ele>192.5</ele><time>2026-03-22T10:08:27Z</time></trkpt><trkpt lat="44.47413712595919" lon="11.188171035439654"><ele>193.0</ele><time>2026-03-22T10:08:28Z</time></trkpt><trkpt lat="44.47414455056835" lon="11.188066512217176"><ele>193.50000000000003</ele><time>2026-03-22T10:08:29Z</time></trkpt><trkpt lat="44.474143383951464" lon="11.187972791876993"><ele>194.0</ele><time>2026-03-22T10:08:30Z</time></trkpt><trkpt lat="44.474086021432925" lon="11.187834963905907"><ele>193.39999999999998</ele><time>2026-03-22T10:08:32Z</time></trkpt><trkpt lat="44.47403370719733" lon="11.187759874728492"><ele>192.8</ele><time>2026-03-22T10:08:33Z</time></trkpt><trkpt lat="44.47397019867059" lon="11.187664060225261"><ele>192.2</ele><time>2026-03-22T10:08:34Z</time></trkpt><trkpt lat="44.47389097810627" lon="11.187551123535632"><ele>191.60000000000002</ele><time>2026-03-22T10:08:35Z</time></trkpt><trkpt lat="44.47379759081396" lon="11.187421638742709"><ele>191.0</ele><time>2026-03-22T10:08:36Z</time></trkpt><trkpt lat="44.473715097625984" lon="11.187301279457866"><ele>191.0</ele><time>2026-03-22T10:08:37Z</time></trkpt><trkpt lat="44.473644994890435" lon="11.187195895627811"><ele>191.0</ele><time>2026-03-22T10:08:38Z</time></trkpt><trkpt lat="44.47359064092094" lon="11.187107392257353"><ele>191.0</ele><time>2026-03-22T10:08:39Z</time></trkpt><trkpt lat="44.47354565745563" lon="11.187008289856836"><ele>191.0</ele><time>2026-03-22T10:08:40Z</time></trkpt><trkpt lat="44.473513231687186" lon="11.186894702846963"><ele>191.0</ele><time>2026-03-22T10:08:41Z</time></trkpt><trkpt lat="44.47348432772279" lon="11.186756585995992"><ele>191.0</ele><time>2026-03-22T10:08:42Z</time></trkpt><trkpt lat="44.47345314106569" lon="11.186598076064831"><ele>191.0</ele><time>2026-03-22T10:08:43Z</time></trkpt><trkpt lat="44.47342290423007" lon="11.186471116824245"><ele>191.0</ele><time>2026-03-22T10:08:44Z</time></trkpt><trkpt lat="44.47338700641847" lon="11.186359087427723"><ele>191.0</ele><time>2026-03-22T10:08:45Z</time></trkpt><trkpt lat="44.47333510994549" lon="11.186265908529691"><ele>191.0</ele><time>2026-03-22T10:08:46Z</time></trkpt><trkpt lat="44.473275595111744" lon="11.18618570851981"><ele>192.0</ele><time>2026-03-22T10:08:47Z</time></trkpt><trkpt lat="44.47321237796367" lon="11.186141730430942"><ele>193.0</ele><time>2026-03-22T10:08:48Z</time></trkpt><trkpt lat="44.473133981585995" lon="11.18609899020728"><ele>194.0</ele><time>2026-03-22T10:08:49Z</time></trkpt><trkpt lat="44.4730429699806" lon="11.186052282209102"><ele>195.0</ele><time>2026-03-22T10:08:50Z</time></trkpt><trkpt lat="44.47294355009066" lon="11.186008685799127"><ele>196.0</ele><time>2026-03-22T10:08:51Z</time></trkpt><trkpt lat="44.47284339032615" lon="11.185960991348955"><ele>196.0</ele><time>2026-03-22T10:08:52Z</time></trkpt><trkpt lat="44.472733540193765" lon="11.185907151690888"><ele>196.0</ele><time>2026-03-22T10:08:53Z</time></trkpt><trkpt lat="44.47263460673061" lon="11.185846256697934"><ele>196.0</ele><time>2026-03-22T10:08:54Z</time></trkpt><trkpt lat="44.47255281823606" lon="11.185795737988423"><ele>196.0</ele><time>2026-03-22T10:08:55Z</time></trkpt><trkpt lat="44.472486585042695" lon="11.185760402951843"><ele>196.0</ele><time>2026-03-22T10:08:56Z</time></trkpt><trkpt lat="44.47242221310439" lon="11.18571838607658"><ele>197.4</ele><time>2026-03-22T10:08:57Z</time></trkpt><trkpt lat="44.47234841326162" lon="11.185634683587073"><ele>198.8</ele><time>2026-03-22T10:08:59Z</time></trkpt><trkpt lat="44.47228999385105" lon="11.18554832352356"><ele>200.20000000000002</ele><time>2026-03-22T10:09:01Z</time></trkpt><trkpt lat="44.47228328121258" lon="11.185459736464722"><ele>201.60000000000002</ele><time>2026-03-22T10:09:08Z</time></trkpt><trkpt lat="44.47236936695391" lon="11.185362828221674"><ele>203.0</ele><time>2026-03-22T10:09:10Z</time></trkpt><trkpt lat="44.472447889340906" lon="11.185235450508948"><ele>203.00000000000003</ele><time>2026-03-22T10:09:12Z</time></trkpt><trkpt lat="44.472531269190036" lon="11.185100732579889"><ele>203.0</ele><time>2026-03-22T10:09:14Z</time></trkpt><trkpt lat="44.472575027140714" lon="11.185029589819933"><ele>203.0</ele><time>2026-03-22T10:09:15Z</time></trkpt><trkpt lat="44.47261807426716" lon="11.184961193706638"><ele>203.0</ele><time>2026-03-22T10:09:16Z</time></trkpt><trkpt lat="44.472661216053" lon="11.184887996685807"><ele>203.00000000000003</ele><time>2026-03-22T10:09:17Z</time></trkpt><trkpt lat="44.472704081237175" lon="11.184816559155543"><ele>203.0</ele><time>2026-03-22T10:09:18Z</time></trkpt><trkpt lat="44.472744445151676" lon="11.184742945467372"><ele>203.16666666666669</ele><time>2026-03-22T10:09:19Z</time></trkpt><trkpt lat="44.47278306600196" lon="11.184663045422017"><ele>203.33333333333334</ele><time>2026-03-22T10:09:20Z</time></trkpt><trkpt lat="44.472843660557075" lon="11.184515708290293"><ele>203.5</ele><time>2026-03-22T10:09:22Z</time></trkpt><trkpt lat="44.472873436398366" lon="11.184434761842734"><ele>203.66666666666669</ele><time>2026-03-22T10:09:23Z</time></trkpt><trkpt lat="44.472899198824464" lon="11.184352355730383"><ele>203.83333333333334</ele><time>2026-03-22T10:09:24Z</time></trkpt><trkpt lat="44.47292525584167" lon="11.184261674663475"><ele>204.0</ele><time>2026-03-22T10:09:25Z</time></trkpt><trkpt lat="44.4729448617068" lon="11.184162283117363"><ele>206.0</ele><time>2026-03-22T10:09:26Z</time></trkpt><trkpt lat="44.472973992328306" lon="11.18406624689108"><ele>208.0</ele><time>2026-03-22T10:09:27Z</time></trkpt><trkpt lat="44.47301221544908" lon="11.183973071518201"><ele>210.0</ele><time>2026-03-22T10:09:28Z</time></trkpt><trkpt lat="44.473046600417085" lon="11.183891936117186"><ele>212.0</ele><time>2026-03-22T10:09:29Z</time></trkpt><trkpt lat="44.47308676872869" lon="11.183808681207065"><ele>214.0</ele><time>2026-03-22T10:09:30Z</time></trkpt><trkpt lat="44.47312410361862" lon="11.183648468328576"><ele>216.0</ele><time>2026-03-22T10:09:32Z</time></trkpt><trkpt lat="44.47313338323336" lon="11.183547998950433"><ele>216.33333333333334</ele><time>2026-03-22T10:09:33Z</time></trkpt><trkpt lat="44.47314637983521" lon="11.183452033203961"><ele>216.66666666666669</ele><time>2026-03-22T10:09:34Z</time></trkpt><trkpt lat="44.47314802751014" lon="11.183322227189382"><ele>217.0</ele><time>2026-03-22T10:09:36Z</time></trkpt><trkpt lat="44.47309826609738" lon="11.183177241796875"><ele>217.33333333333334</ele><time>2026-03-22T10:09:38Z</time></trkpt><trkpt lat="44.473047967730075" lon="11.183086835553894"><ele>217.66666666666669</ele><time>2026-03-22T10:09:39Z</time></trkpt><trkpt lat="44.47299045808405" lon="11.182994403774355"><ele>218.0</ele><time>2026-03-22T10:09:40Z</time></trkpt><trkpt lat="44.472934996139806" lon="11.182892323652396"><ele>218.50000000000003</ele><time>2026-03-22T10:09:41Z</time></trkpt><trkpt lat="44.472875625305306" lon="11.182795553207844"><ele>219.0</ele><time>2026-03-22T10:09:42Z</time></trkpt><trkpt lat="44.47280961932575" lon="11.18269681448413"><ele>219.5</ele><time>2026-03-22T10:09:43Z</time></trkpt><trkpt lat="44.47275051570829" lon="11.182609783469514"><ele>220.0</ele><time>2026-03-22T10:09:44Z</time></trkpt><trkpt lat="44.47270384880091" lon="11.182499727934804"><ele>220.50000000000003</ele><time>2026-03-22T10:09:45Z</time></trkpt><trkpt lat="44.472651739825274" lon="11.18241046680961"><ele>221.0</ele><time>2026-03-22T10:09:46Z</time></trkpt><trkpt lat="44.47259842322026" lon="11.182319644272129"><ele>221.16666666666669</ele><time>2026-03-22T10:09:47Z</time></trkpt><trkpt lat="44.47253630090845" lon="11.182252224777143"><ele>221.33333333333334</ele><time>2026-03-22T10:09:48Z</time></trkpt><trkpt lat="44.47248746370191" lon="11.182173892791088"><ele>221.5</ele><time>2026-03-22T10:09:49Z</time></trkpt><trkpt lat="44.472454433939234" lon="11.182084303973536"><ele>221.66666666666669</ele><time>2026-03-22T10:09:50Z</time></trkpt><trkpt lat="44.47239652075735" lon="11.18201509805017"><ele>221.83333333333334</ele><time>2026-03-22T10:09:51Z</time></trkpt><trkpt lat="44.47234540946717" lon="11.181921418366876"><ele>222.0</ele><time>2026-03-22T10:09:52Z</time></trkpt><trkpt lat="44.472296008822745" lon="11.181829497842557"><ele>222.0</ele><time>2026-03-22T10:09:53Z</time></trkpt><trkpt lat="44.47224434134917" lon="11.181745153497161"><ele>222.0</ele><time>2026-03-22T10:09:54Z</time></trkpt><trkpt lat="44.47219680773225" lon="11.18167460822541"><ele>222.0</ele><time>2026-03-22T10:09:55Z</time></trkpt><trkpt lat="44.47214542370101" lon="11.181603873163867"><ele>222.0</ele><time>2026-03-22T10:09:56Z</time></trkpt><trkpt lat="44.472094716388305" lon="11.181519605864864"><ele>222.0</ele><time>2026-03-22T10:09:57Z</time></trkpt><trkpt lat="44.47203976006583" lon="11.181413216659056"><ele>222.0</ele><time>2026-03-22T10:09:58Z</time></trkpt><trkpt lat="44.471982755238145" lon="11.18131491602905"><ele>224.83333333333334</ele><time>2026-03-22T10:09:59Z</time></trkpt><trkpt lat="44.471924844285546" lon="11.18122357013075"><ele>227.66666666666669</ele><time>2026-03-22T10:10:00Z</time></trkpt><trkpt lat="44.471867775929596" lon="11.181123753542167"><ele>230.5</ele><time>2026-03-22T10:10:01Z</time></trkpt><trkpt lat="44.47182101968865" lon="11.181028194694747"><ele>233.33333333333334</ele><time>2026-03-22T10:10:02Z</time></trkpt><trkpt lat="44.4717753525812" lon="11.180926041527941"><ele>236.16666666666669</ele><time>2026-03-22T10:10:03Z</time></trkpt><trkpt lat="44.47172763638001" lon="11.180818767890166"><ele>239.0</ele><time>2026-03-22T10:10:04Z</time></trkpt><trkpt lat="44.471680710846485" lon="11.18072056789317"><ele>238.66666666666669</ele><time>2026-03-22T10:10:05Z</time></trkpt><trkpt lat="44.47163854313816" lon="11.180631300369262"><ele>238.33333333333334</ele><time>2026-03-22T10:10:06Z</time></trkpt><trkpt lat="44.471584797566784" lon="11.18055239906546"><ele>238.0</ele><time>2026-03-22T10:10:07Z</time></trkpt><trkpt lat="44.4715383115226" lon="11.180461396832529"><ele>237.66666666666669</ele><time>2026-03-22T10:10:08Z</time></trkpt><trkpt lat="44.471483998592205" lon="11.18038648688996"><ele>237.33333333333334</ele><time>2026-03-22T10:10:09Z</time></trkpt><trkpt lat="44.47142907195856" lon="11.180311515735509"><ele>237.0</ele><time>2026-03-22T10:10:10Z</time></trkpt><trkpt lat="44.4713757733706" lon="11.18023698476777"><ele>237.0</ele><time>2026-03-22T10:10:11Z</time></trkpt><trkpt lat="44.47132508792519" lon="11.180168175280304"><ele>237.0</ele><time>2026-03-22T10:10:12Z</time></trkpt><trkpt lat="44.471281832414235" lon="11.180101068993046"><ele>237.0</ele><time>2026-03-22T10:10:13Z</time></trkpt><trkpt lat="44.471215074132346" lon="11.179995983908139"><ele>237.0</ele><time>2026-03-22T10:10:15Z</time></trkpt><trkpt lat="44.47117058522666" lon="11.179861272442434"><ele>237.0</ele><time>2026-03-22T10:10:17Z</time></trkpt><trkpt lat="44.47115821648107" lon="11.179705771340773"><ele>238.0</ele><time>2026-03-22T10:10:19Z</time></trkpt><trkpt lat="44.47116050642248" lon="11.179606196477486"><ele>239.0</ele><time>2026-03-22T10:10:20Z</time></trkpt><trkpt lat="44.4711613477151" lon="11.17949173999956"><ele>240.0</ele><time>2026-03-22T10:10:21Z</time></trkpt><trkpt lat="44.47116101023059" lon="11.1793691006599"><ele>241.0</ele><time>2026-03-22T10:10:22Z</time></trkpt><trkpt lat="44.4711563943814" lon="11.179245050041926"><ele>242.0</ele><time>2026-03-22T10:10:23Z</time></trkpt><trkpt lat="44.47114020773968" lon="11.179109832110731"><ele>243.0</ele><time>2026-03-22T10:10:24Z</time></trkpt><trkpt lat="44.471111451488156" lon="11.178990224813893"><ele>243.0</ele><time>2026-03-22T10:10:25Z</time></trkpt><trkpt lat="44.47107377140151" lon="11.178876842571501"><ele>243.0</ele><time>2026-03-22T10:10:26Z</time></trkpt><trkpt lat="44.471033015024" lon="11.178756119786614"><ele>243.0</ele><time>2026-03-22T10:10:27Z</time></trkpt><trkpt lat="44.47099583961595" lon="11.17864050772186"><ele>243.0</ele><time>2026-03-22T10:10:28Z</time></trkpt><trkpt lat="44.470964114942745" lon="11.17853377421097"><ele>243.0</ele><time>2026-03-22T10:10:29Z</time></trkpt><trkpt lat="44.470941780922736" lon="11.178434847160487"><ele>243.0</ele><time>2026-03-22T10:10:30Z</time></trkpt><trkpt lat="44.47092813506638" lon="11.178321895407722"><ele>243.0</ele><time>2026-03-22T10:10:31Z</time></trkpt><trkpt lat="44.470920297913935" lon="11.17818654519743"><ele>243.0</ele><time>2026-03-22T10:10:32Z</time></trkpt><trkpt lat="44.470926796923166" lon="11.178038290102235"><ele>243.0</ele><time>2026-03-22T10:10:33Z</time></trkpt><trkpt lat="44.47094216829452" lon="11.17789097155035"><ele>243.0</ele><time>2026-03-22T10:10:34Z</time></trkpt><trkpt lat="44.47097110649033" lon="11.177732236309314"><ele>243.0</ele><time>2026-03-22T10:10:35Z</time></trkpt><trkpt lat="44.47099778775072" lon="11.177562216425207"><ele>243.5</ele><time>2026-03-22T10:10:36Z</time></trkpt><trkpt lat="44.471016102886296" lon="11.177387994484812"><ele>244.0</ele><time>2026-03-22T10:10:37Z</time></trkpt><trkpt lat="44.47102639027687" lon="11.177207862847936"><ele>244.5</ele><time>2026-03-22T10:10:38Z</time></trkpt><trkpt lat="44.471035015247374" lon="11.177040307098544"><ele>245.0</ele><time>2026-03-22T10:10:39Z</time></trkpt><trkpt lat="44.4710390379564" lon="11.176889266644633"><ele>246.33333333333334</ele><time>2026-03-22T10:10:40Z</time></trkpt><trkpt lat="44.47104769351468" lon="11.176760282116241"><ele>247.66666666666669</ele><time>2026-03-22T10:10:41Z</time></trkpt><trkpt lat="44.471042969418114" lon="11.176653009474776"><ele>249.0</ele><time>2026-03-22T10:10:42Z</time></trkpt><trkpt lat="44.47103311612832" lon="11.176550769004963"><ele>250.33333333333331</ele><time>2026-03-22T10:10:43Z</time></trkpt><trkpt lat="44.471014581572355" lon="11.176453422415117"><ele>251.66666666666666</ele><time>2026-03-22T10:10:44Z</time></trkpt><trkpt lat="44.47098837501677" lon="11.176325073228728"><ele>253.0</ele><time>2026-03-22T10:10:46Z</time></trkpt><trkpt lat="44.47094451929161" lon="11.176239489441604"><ele>253.0</ele><time>2026-03-22T10:10:48Z</time></trkpt><trkpt lat="44.47087039341853" lon="11.176132016366985"><ele>253.0</ele><time>2026-03-22T10:10:50Z</time></trkpt><trkpt lat="44.47079849367457" lon="11.17601887451301"><ele>253.0</ele><time>2026-03-22T10:10:52Z</time></trkpt><trkpt lat="44.4707610952091" lon="11.175871070527341"><ele>253.0</ele><time>2026-03-22T10:10:54Z</time></trkpt><trkpt lat="44.470767298678005" lon="11.175766424914906"><ele>253.0</ele><time>2026-03-22T10:10:55Z</time></trkpt><trkpt lat="44.470774765945855" lon="11.175650104768945"><ele>252.83333333333331</ele><time>2026-03-22T10:10:56Z</time></trkpt><trkpt lat="44.4707809054062" lon="11.17553181873998"><ele>252.66666666666666</ele><time>2026-03-22T10:10:57Z</time></trkpt><trkpt lat="44.47077481208079" lon="11.175426705167144"><ele>252.5</ele><time>2026-03-22T10:10:58Z</time></trkpt><trkpt lat="44.47075665851772" lon="11.175303784800608"><ele>252.33333333333331</ele><time>2026-03-22T10:10:59Z</time></trkpt><trkpt lat="44.47071887047339" lon="11.175176751956673"><ele>252.16666666666666</ele><time>2026-03-22T10:11:00Z</time></trkpt><trkpt lat="44.470669289416186" lon="11.175053252939072"><ele>252.0</ele><time>2026-03-22T10:11:01Z</time></trkpt><trkpt lat="44.47061271632752" lon="11.174945669333717"><ele>252.33333333333334</ele><time>2026-03-22T10:11:02Z</time></trkpt><trkpt lat="44.47055137922022" lon="11.17483936327366"><ele>252.66666666666669</ele><time>2026-03-22T10:11:03Z</time></trkpt><trkpt lat="44.470498053616005" lon="11.174748044639054"><ele>253.0</ele><time>2026-03-22T10:11:04Z</time></trkpt><trkpt lat="44.47046056357218" lon="11.17466267038285"><ele>253.33333333333334</ele><time>2026-03-22T10:11:05Z</time></trkpt><trkpt lat="44.47043076570449" lon="11.174573022818251"><ele>253.66666666666669</ele><time>2026-03-22T10:11:06Z</time></trkpt><trkpt lat="44.47040165263391" lon="11.174473854597922"><ele>254.0</ele><time>2026-03-22T10:11:07Z</time></trkpt><trkpt lat="44.47037899110868" lon="11.174371790888971"><ele>249.2</ele><time>2026-03-22T10:11:08Z</time></trkpt><trkpt lat="44.47037272608424" lon="11.174262841263085"><ele>244.39999999999998</ele><time>2026-03-22T10:11:09Z</time></trkpt><trkpt lat="44.47037846844075" lon="11.17414064127138"><ele>239.6</ele><time>2026-03-22T10:11:10Z</time></trkpt><trkpt lat="44.47039020308983" lon="11.17400464060084"><ele>234.8</ele><time>2026-03-22T10:11:11Z</time></trkpt><trkpt lat="44.47041125551223" lon="11.173860945046451"><ele>230.0</ele><time>2026-03-22T10:11:12Z</time></trkpt><trkpt lat="44.47043118670368" lon="11.173719691536162"><ele>233.2</ele><time>2026-03-22T10:11:13Z</time></trkpt><trkpt lat="44.47044560796095" lon="11.173589307787562"><ele>236.4</ele><time>2026-03-22T10:11:14Z</time></trkpt><trkpt lat="44.47045663905241" lon="11.17346752741126"><ele>239.60000000000002</ele><time>2026-03-22T10:11:15Z</time></trkpt><trkpt lat="44.470462061583184" lon="11.173333236566295"><ele>242.8</ele><time>2026-03-22T10:11:16Z</time></trkpt><trkpt lat="44.470460385756475" lon="11.173203820654916"><ele>246.0</ele><time>2026-03-22T10:11:17Z</time></trkpt><trkpt lat="44.47044784726671" lon="11.173072285388633"><ele>242.8</ele><time>2026-03-22T10:11:18Z</time></trkpt><trkpt lat="44.47042311673972" lon="11.172934089777346"><ele>239.60000000000002</ele><time>2026-03-22T10:11:19Z</time></trkpt><trkpt lat="44.470394527295284" lon="11.172785535014937"><ele>236.4</ele><time>2026-03-22T10:11:20Z</time></trkpt><trkpt lat="44.470367558648476" lon="11.172642113325448"><ele>233.2</ele><time>2026-03-22T10:11:21Z</time></trkpt><trkpt lat="44.47034060092147" lon="11.172507788188096"><ele>230.0</ele><time>2026-03-22T10:11:22Z</time></trkpt><trkpt lat="44.470315760872815" lon="11.172370527202176"><ele>230.50000000000003</ele><time>2026-03-22T10:11:23Z</time></trkpt><trkpt lat="44.470288362023595" lon="11.17224589987765"><ele>231.0</ele><time>2026-03-22T10:11:24Z</time></trkpt><trkpt lat="44.47026029152168" lon="11.172131580361874"><ele>231.5</ele><time>2026-03-22T10:11:25Z</time></trkpt><trkpt lat="44.47023279612236" lon="11.172031428875368"><ele>232.0</ele><time>2026-03-22T10:11:26Z</time></trkpt><trkpt lat="44.47019501736452" lon="11.17190795940327"><ele>232.50000000000003</ele><time>2026-03-22T10:11:28Z</time></trkpt><trkpt lat="44.470151925717026" lon="11.171801070151913"><ele>233.0</ele><time>2026-03-22T10:11:30Z</time></trkpt><trkpt lat="44.470117004419585" lon="11.171706419779245"><ele>233.0</ele><time>2026-03-22T10:11:31Z</time></trkpt><trkpt lat="44.470062624972506" lon="11.17159711044813"><ele>233.0</ele><time>2026-03-22T10:11:32Z</time></trkpt><trkpt lat="44.469998667004674" lon="11.171479335146815"><ele>233.0</ele><time>2026-03-22T10:11:33Z</time></trkpt><trkpt lat="44.469935527291234" lon="11.171355919642727"><ele>233.0</ele><time>2026-03-22T10:11:34Z</time></trkpt><trkpt lat="44.46988392416377" lon="11.171241363453055"><ele>233.0</ele><time>2026-03-22T10:11:35Z</time></trkpt><trkpt lat="44.46983629927881" lon="11.171130487043076"><ele>232.0</ele><time>2026-03-22T10:11:36Z</time></trkpt><trkpt lat="44.46976854618469" lon="11.171013671057034"><ele>231.0</ele><time>2026-03-22T10:11:37Z</time></trkpt><trkpt lat="44.46970037822932" lon="11.170891478539525"><ele>230.0</ele><time>2026-03-22T10:11:38Z</time></trkpt><trkpt lat="44.4696398336969" lon="11.17078639084531"><ele>229.0</ele><time>2026-03-22T10:11:39Z</time></trkpt><trkpt lat="44.46959336471744" lon="11.170670210412599"><ele>228.0</ele><time>2026-03-22T10:11:40Z</time></trkpt><trkpt lat="44.469549736607206" lon="11.170538323467428"><ele>230.4</ele><time>2026-03-22T10:11:41Z</time></trkpt><trkpt lat="44.469512231711356" lon="11.17040823086175"><ele>232.8</ele><time>2026-03-22T10:11:42Z</time></trkpt><trkpt lat="44.46948991919361" lon="11.170277991112751"><ele>235.2</ele><time>2026-03-22T10:11:43Z</time></trkpt><trkpt lat="44.469477445905085" lon="11.17013897407815"><ele>237.6</ele><time>2026-03-22T10:11:44Z</time></trkpt><trkpt lat="44.469467623670454" lon="11.170001123730124"><ele>240.0</ele><time>2026-03-22T10:11:45Z</time></trkpt><trkpt lat="44.469446223728106" lon="11.169874780831943"><ele>239.5</ele><time>2026-03-22T10:11:46Z</time></trkpt><trkpt lat="44.469413716356726" lon="11.169746602420652"><ele>239.0</ele><time>2026-03-22T10:11:47Z</time></trkpt><trkpt lat="44.46936240461492" lon="11.169610756681417"><ele>238.5</ele><time>2026-03-22T10:11:48Z</time></trkpt><trkpt lat="44.469287907456675" lon="11.1694623240351"><ele>238.0</ele><time>2026-03-22T10:11:49Z</time></trkpt><trkpt lat="44.46920163090148" lon="11.169307756034701"><ele>238.0</ele><time>2026-03-22T10:11:50Z</time></trkpt><trkpt lat="44.46912339816895" lon="11.169153908120888"><ele>238.0</ele><time>2026-03-22T10:11:51Z</time></trkpt><trkpt lat="44.46906616169703" lon="11.168993494703413"><ele>238.0</ele><time>2026-03-22T10:11:52Z</time></trkpt><trkpt lat="44.4690184582713" lon="11.168812549249834"><ele>238.0</ele><time>2026-03-22T10:11:53Z</time></trkpt><trkpt lat="44.46897156667987" lon="11.168650451370038"><ele>238.4</ele><time>2026-03-22T10:11:54Z</time></trkpt><trkpt lat="44.46892467499152" lon="11.168519889613034"><ele>238.8</ele><time>2026-03-22T10:11:55Z</time></trkpt><trkpt lat="44.468869439567385" lon="11.168407687868537"><ele>239.2</ele><time>2026-03-22T10:11:56Z</time></trkpt><trkpt lat="44.46879939431107" lon="11.168313300912581"><ele>239.6</ele><time>2026-03-22T10:11:57Z</time></trkpt><trkpt lat="44.46872099290569" lon="11.168234579929354"><ele>240.0</ele><time>2026-03-22T10:11:58Z</time></trkpt><trkpt lat="44.46863420265365" lon="11.168187349166502"><ele>240.0</ele><time>2026-03-22T10:11:59Z</time></trkpt><trkpt lat="44.46853778325484" lon="11.168153416997635"><ele>240.0</ele><time>2026-03-22T10:12:00Z</time></trkpt><trkpt lat="44.468442710938504" lon="11.168095212539988"><ele>240.0</ele><time>2026-03-22T10:12:01Z</time></trkpt><trkpt lat="44.468343971938395" lon="11.168044190425624"><ele>240.0</ele><time>2026-03-22T10:12:02Z</time></trkpt><trkpt lat="44.46824615431613" lon="11.167997043826269"><ele>240.0</ele><time>2026-03-22T10:12:03Z</time></trkpt><trkpt lat="44.46815960584224" lon="11.1679431372358"><ele>240.0</ele><time>2026-03-22T10:12:04Z</time></trkpt><trkpt lat="44.468092919469775" lon="11.16790370214303"><ele>240.0</ele><time>2026-03-22T10:12:05Z</time></trkpt><trkpt lat="44.46802038397985" lon="11.167863454571355"><ele>240.0</ele><time>2026-03-22T10:12:07Z</time></trkpt><trkpt lat="44.46795844201645" lon="11.167743432311976"><ele>240.0</ele><time>2026-03-22T10:12:09Z</time></trkpt><trkpt lat="44.46791396834959" lon="11.167639142441457"><ele>240.0</ele><time>2026-03-22T10:12:10Z</time></trkpt><trkpt lat="44.46785971847635" lon="11.167524491334898"><ele>240.0</ele><time>2026-03-22T10:12:11Z</time></trkpt><trkpt lat="44.467796783657356" lon="11.167398153885731"><ele>241.6</ele><time>2026-03-22T10:12:12Z</time></trkpt><trkpt lat="44.46773637540124" lon="11.167265843534087"><ele>243.2</ele><time>2026-03-22T10:12:13Z</time></trkpt><trkpt lat="44.46768114406048" lon="11.167145938263237"><ele>244.8</ele><time>2026-03-22T10:12:14Z</time></trkpt><trkpt lat="44.467629840496336" lon="11.167033563840386"><ele>246.4</ele><time>2026-03-22T10:12:15Z</time></trkpt><trkpt lat="44.467593891486224" lon="11.16692792398088"><ele>248.0</ele><time>2026-03-22T10:12:16Z</time></trkpt><trkpt lat="44.46757970051765" lon="11.166832151983018"><ele>248.0</ele><time>2026-03-22T10:12:17Z</time></trkpt><trkpt lat="44.46757845859819" lon="11.166731143944158"><ele>248.0</ele><time>2026-03-22T10:12:18Z</time></trkpt><trkpt lat="44.46758451458772" lon="11.166623343110842"><ele>248.0</ele><time>2026-03-22T10:12:19Z</time></trkpt><trkpt lat="44.46760032097283" lon="11.166350209381314"><ele>248.0</ele><time>2026-03-22T10:12:21Z</time></trkpt><trkpt lat="44.46760847431085" lon="11.166243882012317"><ele>248.0</ele><time>2026-03-22T10:12:22Z</time></trkpt><trkpt lat="44.46762370065517" lon="11.166146360894805"><ele>249.4</ele><time>2026-03-22T10:12:23Z</time></trkpt><trkpt lat="44.46764566762245" lon="11.166029412537007"><ele>250.8</ele><time>2026-03-22T10:12:24Z</time></trkpt><trkpt lat="44.46767232905236" lon="11.16590271428959"><ele>252.2</ele><time>2026-03-22T10:12:25Z</time></trkpt><trkpt lat="44.467704378247866" lon="11.165775951936569"><ele>253.6</ele><time>2026-03-22T10:12:26Z</time></trkpt><trkpt lat="44.46773092146921" lon="11.165639174139157"><ele>255.0</ele><time>2026-03-22T10:12:27Z</time></trkpt><trkpt lat="44.46774864680437" lon="11.165494081500308"><ele>257.25</ele><time>2026-03-22T10:12:28Z</time></trkpt><trkpt lat="44.467767812664476" lon="11.165339437156108"><ele>259.5</ele><time>2026-03-22T10:12:29Z</time></trkpt><trkpt lat="44.46779491090389" lon="11.165172033844478"><ele>261.75</ele><time>2026-03-22T10:12:30Z</time></trkpt><trkpt lat="44.46782712669251" lon="11.164988570011468"><ele>264.0</ele><time>2026-03-22T10:12:31Z</time></trkpt><trkpt lat="44.46785337127425" lon="11.164799915116532"><ele>266.4</ele><time>2026-03-22T10:12:32Z</time></trkpt><trkpt lat="44.4678880074751" lon="11.16465657502301"><ele>268.79999999999995</ele><time>2026-03-22T10:12:32.999Z</time></trkpt><trkpt lat="44.46790867688844" lon="11.164497954661046"><ele>271.20000000000005</ele><time>2026-03-22T10:12:33.999Z</time></trkpt><trkpt lat="44.467928594193005" lon="11.164374337289427"><ele>273.6</ele><time>2026-03-22T10:12:34.999Z</time></trkpt><trkpt lat="44.467939373311566" lon="11.164272506885673"><ele>276.0</ele><time>2026-03-22T10:12:35.999Z</time></trkpt><trkpt lat="44.4679417544939" lon="11.164172209111928"><ele>276.0</ele><time>2026-03-22T10:12:36.999Z</time></trkpt><trkpt lat="44.46793259802051" lon="11.164065248070244"><ele>276.0</ele><time>2026-03-22T10:12:37.999Z</time></trkpt><trkpt lat="44.467912280716206" lon="11.16397153730284"><ele>276.0</ele><time>2026-03-22T10:12:38.999Z</time></trkpt><trkpt lat="44.46786883556951" lon="11.163871238093776"><ele>276.0</ele><time>2026-03-22T10:12:39.999Z</time></trkpt><trkpt lat="44.46780404233193" lon="11.163761751915445"><ele>276.0</ele><time>2026-03-22T10:12:40.999Z</time></trkpt><trkpt lat="44.46773801864913" lon="11.163666748337393"><ele>276.0</ele><time>2026-03-22T10:12:41.999Z</time></trkpt><trkpt lat="44.46767843418572" lon="11.163562681720812"><ele>275.8</ele><time>2026-03-22T10:12:42.999Z</time></trkpt><trkpt lat="44.467614824794104" lon="11.163448580239848"><ele>275.6</ele><time>2026-03-22T10:12:43.999Z</time></trkpt><trkpt lat="44.46754541815865" lon="11.16332372199147"><ele>275.4</ele><time>2026-03-22T10:12:44.999Z</time></trkpt><trkpt lat="44.46747158380222" lon="11.163207741262381"><ele>275.2</ele><time>2026-03-22T10:12:45.999Z</time></trkpt><trkpt lat="44.467404243583665" lon="11.163092740917772"><ele>275.0</ele><time>2026-03-22T10:12:46.999Z</time></trkpt><trkpt lat="44.4673345158929" lon="11.162970591925044"><ele>275.0</ele><time>2026-03-22T10:12:47.999Z</time></trkpt><trkpt lat="44.467266997804124" lon="11.162837611829598"><ele>275.0</ele><time>2026-03-22T10:12:48.999Z</time></trkpt><trkpt lat="44.46719042320582" lon="11.16269362690021"><ele>275.0</ele><time>2026-03-22T10:12:49.999Z</time></trkpt><trkpt lat="44.467106239539255" lon="11.16254036008629"><ele>275.0</ele><time>2026-03-22T10:12:50.999Z</time></trkpt><trkpt lat="44.467022817511285" lon="11.162388505850796"><ele>282.6666666666667</ele><time>2026-03-22T10:12:51.999Z</time></trkpt><trkpt lat="44.46693667122898" lon="11.162223130303907"><ele>290.3333333333333</ele><time>2026-03-22T10:12:52.999Z</time></trkpt><trkpt lat="44.4668468568091" lon="11.16205095316629"><ele>298.0</ele><time>2026-03-22T10:12:53.999Z</time></trkpt><trkpt lat="44.46675338970542" lon="11.161870210988466"><ele>298.0</ele><time>2026-03-22T10:12:54.999Z</time></trkpt><trkpt lat="44.46667459442079" lon="11.161712633713142"><ele>298.0</ele><time>2026-03-22T10:12:55.999Z</time></trkpt><trkpt lat="44.46659901732216" lon="11.161574472849315"><ele>298.0</ele><time>2026-03-22T10:12:56.999Z</time></trkpt><trkpt lat="44.46652923861344" lon="11.161436224217201"><ele>298.0</ele><time>2026-03-22T10:12:57.999Z</time></trkpt><trkpt lat="44.466449171431336" lon="11.161285542714316"><ele>295.25</ele><time>2026-03-22T10:12:58.999Z</time></trkpt><trkpt lat="44.46636543914936" lon="11.161134476622045"><ele>292.5</ele><time>2026-03-22T10:12:59.999Z</time></trkpt><trkpt lat="44.46628792964606" lon="11.16100074958022"><ele>289.75</ele><time>2026-03-22T10:13:00.999Z</time></trkpt><trkpt lat="44.46621583313848" lon="11.16087885408187"><ele>287.0</ele><time>2026-03-22T10:13:01.999Z</time></trkpt><trkpt lat="44.4661376306162" lon="11.160748420742836"><ele>290.25</ele><time>2026-03-22T10:13:02.999Z</time></trkpt><trkpt lat="44.466043985627834" lon="11.160599729019546"><ele>293.5</ele><time>2026-03-22T10:13:03.999Z</time></trkpt><trkpt lat="44.46595010520936" lon="11.160445864219765"><ele>296.75</ele><time>2026-03-22T10:13:04.999Z</time></trkpt><trkpt lat="44.465871452999984" lon="11.16031439794455"><ele>300.0</ele><time>2026-03-22T10:13:05.999Z</time></trkpt><trkpt lat="44.46580209532995" lon="11.16018686889501"><ele>300.0</ele><time>2026-03-22T10:13:06.999Z</time></trkpt><trkpt lat="44.46573462999441" lon="11.160043656001859"><ele>300.0</ele><time>2026-03-22T10:13:07.999Z</time></trkpt><trkpt lat="44.46566296673425" lon="11.159909676521089"><ele>300.0</ele><time>2026-03-22T10:13:08.999Z</time></trkpt><trkpt lat="44.46559852732089" lon="11.159802668404625"><ele>300.0</ele><time>2026-03-22T10:13:09.999Z</time></trkpt><trkpt lat="44.46553747678522" lon="11.159697831690261"><ele>300.0</ele><time>2026-03-22T10:13:10.999Z</time></trkpt><trkpt lat="44.46547828940799" lon="11.159600347398282"><ele>300.2857142857143</ele><time>2026-03-22T10:13:11.999Z</time></trkpt><trkpt lat="44.46542578739656" lon="11.15951751385263"><ele>300.57142857142856</ele><time>2026-03-22T10:13:13Z</time></trkpt><trkpt lat="44.46537343900648" lon="11.159444003730414"><ele>300.8571428571429</ele><time>2026-03-22T10:13:14Z</time></trkpt><trkpt lat="44.46531828326658" lon="11.159376156636743"><ele>301.1428571428571</ele><time>2026-03-22T10:13:15Z</time></trkpt><trkpt lat="44.46526576052362" lon="11.15930536650233"><ele>301.42857142857144</ele><time>2026-03-22T10:13:16Z</time></trkpt><trkpt lat="44.46522409647528" lon="11.159229045247848"><ele>301.7142857142857</ele><time>2026-03-22T10:13:17Z</time></trkpt><trkpt lat="44.46520180163598" lon="11.159144925102275"><ele>302.0</ele><time>2026-03-22T10:13:18Z</time></trkpt><trkpt lat="44.465190621955564" lon="11.159056206064323"><ele>301.0</ele><time>2026-03-22T10:13:19Z</time></trkpt><trkpt lat="44.46520470517831" lon="11.158897229956535"><ele>300.0</ele><time>2026-03-22T10:13:21Z</time></trkpt><trkpt lat="44.46528594859911" lon="11.158745829686296"><ele>299.0</ele><time>2026-03-22T10:13:23Z</time></trkpt><trkpt lat="44.46534840958911" lon="11.15866176990967"><ele>298.0</ele><time>2026-03-22T10:13:24Z</time></trkpt><trkpt lat="44.46541093727117" lon="11.158553020060793"><ele>297.0</ele><time>2026-03-22T10:13:25Z</time></trkpt><trkpt lat="44.465467803194116" lon="11.15842423211584"><ele>297.0</ele><time>2026-03-22T10:13:26Z</time></trkpt><trkpt lat="44.46551775595215" lon="11.158273252717379"><ele>297.0</ele><time>2026-03-22T10:13:27Z</time></trkpt><trkpt lat="44.465559282774144" lon="11.15808994448388"><ele>297.0</ele><time>2026-03-22T10:13:28Z</time></trkpt><trkpt lat="44.46559490222056" lon="11.157910954520439"><ele>297.0</ele><time>2026-03-22T10:13:29Z</time></trkpt><trkpt lat="44.46562125752709" lon="11.157758532508481"><ele>297.8</ele><time>2026-03-22T10:13:30Z</time></trkpt><trkpt lat="44.46562972478886" lon="11.157611622045637"><ele>298.6</ele><time>2026-03-22T10:13:31Z</time></trkpt><trkpt lat="44.46561907248471" lon="11.157469224294852"><ele>299.40000000000003</ele><time>2026-03-22T10:13:32Z</time></trkpt><trkpt lat="44.46558543976441" lon="11.1573393407935"><ele>300.2</ele><time>2026-03-22T10:13:33Z</time></trkpt><trkpt lat="44.46552244393192" lon="11.157216201705953"><ele>301.0</ele><time>2026-03-22T10:13:34Z</time></trkpt><trkpt lat="44.46543723017104" lon="11.157083788713305"><ele>307.75</ele><time>2026-03-22T10:13:35Z</time></trkpt><trkpt lat="44.46535542593184" lon="11.156940319234504"><ele>314.5</ele><time>2026-03-22T10:13:36Z</time></trkpt><trkpt lat="44.46529211305894" lon="11.156779911625678"><ele>321.25</ele><time>2026-03-22T10:13:37Z</time></trkpt><trkpt lat="44.46525082045805" lon="11.156610871326947"><ele>328.0</ele><time>2026-03-22T10:13:38Z</time></trkpt><trkpt lat="44.46523341208634" lon="11.156438116815037"><ele>328.0</ele><time>2026-03-22T10:13:39Z</time></trkpt><trkpt lat="44.46523417532133" lon="11.156274899615427"><ele>328.0</ele><time>2026-03-22T10:13:40Z</time></trkpt><trkpt lat="44.46525052536793" lon="11.156101062486217"><ele>328.0</ele><time>2026-03-22T10:13:41Z</time></trkpt><trkpt lat="44.465267632109835" lon="11.155905674994596"><ele>328.0</ele><time>2026-03-22T10:13:42Z</time></trkpt><trkpt lat="44.465290073255346" lon="11.15569925964233"><ele>330.0</ele><time>2026-03-22T10:13:43Z</time></trkpt><trkpt lat="44.4653057170698" lon="11.155499984149175"><ele>332.0</ele><time>2026-03-22T10:13:44Z</time></trkpt><trkpt lat="44.465326310371914" lon="11.155341826470647"><ele>334.0</ele><time>2026-03-22T10:13:45Z</time></trkpt><trkpt lat="44.46535166828359" lon="11.155188814836992"><ele>336.0</ele><time>2026-03-22T10:13:46Z</time></trkpt><trkpt lat="44.46539478714511" lon="11.155030797673861"><ele>335.0</ele><time>2026-03-22T10:13:47Z</time></trkpt><trkpt lat="44.46545433179408" lon="11.154863933784506"><ele>334.0</ele><time>2026-03-22T10:13:48Z</time></trkpt><trkpt lat="44.46551361699232" lon="11.154709065232172"><ele>333.0</ele><time>2026-03-22T10:13:49Z</time></trkpt><trkpt lat="44.46555633294912" lon="11.154585423292074"><ele>332.0</ele><time>2026-03-22T10:13:50Z</time></trkpt><trkpt lat="44.46559391248255" lon="11.154486529258316"><ele>331.0</ele><time>2026-03-22T10:13:51Z</time></trkpt><trkpt lat="44.46561819646027" lon="11.154401528371398"><ele>331.0</ele><time>2026-03-22T10:13:52Z</time></trkpt><trkpt lat="44.46561569495878" lon="11.15424310778719"><ele>331.0</ele><time>2026-03-22T10:13:54Z</time></trkpt><trkpt lat="44.46550425011653" lon="11.154119477448065"><ele>331.0</ele><time>2026-03-22T10:13:56Z</time></trkpt><trkpt lat="44.46543670559045" lon="11.154053581991036"><ele>331.0</ele><time>2026-03-22T10:13:57Z</time></trkpt><trkpt lat="44.46540492821181" lon="11.153962511775502"><ele>331.0</ele><time>2026-03-22T10:13:58Z</time></trkpt><trkpt lat="44.46538580909115" lon="11.153864489766445"><ele>330.8333333333333</ele><time>2026-03-22T10:13:59Z</time></trkpt><trkpt lat="44.465366100323834" lon="11.153771301664806"><ele>330.66666666666663</ele><time>2026-03-22T10:14:00Z</time></trkpt><trkpt lat="44.46534051428356" lon="11.153681234241834"><ele>330.5</ele><time>2026-03-22T10:14:01Z</time></trkpt><trkpt lat="44.46530904439905" lon="11.153595527591454"><ele>330.3333333333333</ele><time>2026-03-22T10:14:02Z</time></trkpt><trkpt lat="44.46526843166271" lon="11.153513598384132"><ele>330.1666666666667</ele><time>2026-03-22T10:14:03Z</time></trkpt><trkpt lat="44.465198065369144" lon="11.153435539352445"><ele>330.0</ele><time>2026-03-22T10:14:04Z</time></trkpt><trkpt lat="44.46511852656787" lon="11.15336296368177"><ele>330.0</ele><time>2026-03-22T10:14:05Z</time></trkpt><trkpt lat="44.46502361997488" lon="11.153282670010901"><ele>330.0</ele><time>2026-03-22T10:14:06Z</time></trkpt><trkpt lat="44.46492686890454" lon="11.15319307578469"><ele>330.0</ele><time>2026-03-22T10:14:07Z</time></trkpt><trkpt lat="44.464828919578764" lon="11.153100079676225"><ele>330.0</ele><time>2026-03-22T10:14:08Z</time></trkpt><trkpt lat="44.464733761877206" lon="11.153009701144528"><ele>327.8</ele><time>2026-03-22T10:14:09Z</time></trkpt><trkpt lat="44.4646378735131" lon="11.152918215816696"><ele>325.6</ele><time>2026-03-22T10:14:10Z</time></trkpt><trkpt lat="44.46454527881267" lon="11.15282835356048"><ele>323.4</ele><time>2026-03-22T10:14:11Z</time></trkpt><trkpt lat="44.46445286239435" lon="11.152742159591726"><ele>321.2</ele><time>2026-03-22T10:14:12Z</time></trkpt><trkpt lat="44.464365503668816" lon="11.152657357383147"><ele>319.0</ele><time>2026-03-22T10:14:13Z</time></trkpt><trkpt lat="44.46428131900047" lon="11.15257779881523"><ele>319.0</ele><time>2026-03-22T10:14:14Z</time></trkpt><trkpt lat="44.46420785808977" lon="11.15250703145207"><ele>319.0</ele><time>2026-03-22T10:14:15Z</time></trkpt><trkpt lat="44.46414191814832" lon="11.152440344173128"><ele>319.0</ele><time>2026-03-22T10:14:16Z</time></trkpt><trkpt lat="44.46408413413956" lon="11.1523745247182"><ele>319.0</ele><time>2026-03-22T10:14:17Z</time></trkpt><trkpt lat="44.46403062832417" lon="11.152309039431348"><ele>319.0</ele><time>2026-03-22T10:14:18Z</time></trkpt><trkpt lat="44.46398283574981" lon="11.152245845600744"><ele>319.0</ele><time>2026-03-22T10:14:19Z</time></trkpt><trkpt lat="44.46390117951673" lon="11.1521351144052"><ele>320.3333333333333</ele><time>2026-03-22T10:14:20.999Z</time></trkpt><trkpt lat="44.463855140545675" lon="11.152045194640309"><ele>321.66666666666663</ele><time>2026-03-22T10:14:22.999Z</time></trkpt><trkpt lat="44.46382246217768" lon="11.151966008831899"><ele>323.0</ele><time>2026-03-22T10:14:32.999Z</time></trkpt><trkpt lat="44.463771236945995" lon="11.151868847184936"><ele>324.3333333333333</ele><time>2026-03-22T10:14:34.999Z</time></trkpt><trkpt lat="44.4637228329443" lon="11.151747739618962"><ele>325.6666666666667</ele><time>2026-03-22T10:14:36.999Z</time></trkpt><trkpt lat="44.4636615175849" lon="11.151621189619007"><ele>327.0</ele><time>2026-03-22T10:14:38.999Z</time></trkpt><trkpt lat="44.46359953185082" lon="11.151474505822684"><ele>327.0</ele><time>2026-03-22T10:14:40.999Z</time></trkpt><trkpt lat="44.463546737086155" lon="11.151306599376113"><ele>327.0</ele><time>2026-03-22T10:14:42.999Z</time></trkpt><trkpt lat="44.46351862060641" lon="11.15121241309192"><ele>327.0</ele><time>2026-03-22T10:14:43.999Z</time></trkpt><trkpt lat="44.463483833948686" lon="11.151126888789202"><ele>327.0</ele><time>2026-03-22T10:14:44.999Z</time></trkpt><trkpt lat="44.463441968794626" lon="11.151039485811603"><ele>327.0</ele><time>2026-03-22T10:14:45.999Z</time></trkpt><trkpt lat="44.46339164572761" lon="11.150955325815678"><ele>327.0</ele><time>2026-03-22T10:14:46.999Z</time></trkpt><trkpt lat="44.4633301601244" lon="11.150880250247793"><ele>327.0</ele><time>2026-03-22T10:14:47.999Z</time></trkpt><trkpt lat="44.46326182192036" lon="11.150814547561328"><ele>327.0</ele><time>2026-03-22T10:14:48.999Z</time></trkpt><trkpt lat="44.463192925947354" lon="11.150743503140664"><ele>327.0</ele><time>2026-03-22T10:14:49.999Z</time></trkpt><trkpt lat="44.46312651141829" lon="11.150663331236094"><ele>327.0</ele><time>2026-03-22T10:14:50.999Z</time></trkpt><trkpt lat="44.463060974095505" lon="11.150576954136548"><ele>327.0</ele><time>2026-03-22T10:14:51.999Z</time></trkpt><trkpt lat="44.46300917704845" lon="11.150495508323637"><ele>327.0</ele><time>2026-03-22T10:14:52.999Z</time></trkpt><trkpt lat="44.46297837918902" lon="11.15041632719925"><ele>327.5</ele><time>2026-03-22T10:14:53.999Z</time></trkpt><trkpt lat="44.462956456025765" lon="11.150323440356827"><ele>328.0</ele><time>2026-03-22T10:14:54.999Z</time></trkpt><trkpt lat="44.46293654502738" lon="11.15021069451031"><ele>328.5</ele><time>2026-03-22T10:14:55.999Z</time></trkpt><trkpt lat="44.462917238260204" lon="11.150089227367902"><ele>329.0</ele><time>2026-03-22T10:14:56.999Z</time></trkpt><trkpt lat="44.462908068599916" lon="11.14996394302201"><ele>329.5</ele><time>2026-03-22T10:14:57.999Z</time></trkpt><trkpt lat="44.462901866761285" lon="11.149819946002903"><ele>330.0</ele><time>2026-03-22T10:14:58.999Z</time></trkpt><trkpt lat="44.462902660660376" lon="11.149652886690689"><ele>333.75</ele><time>2026-03-22T10:14:59.999Z</time></trkpt><trkpt lat="44.46291003827615" lon="11.149480118439026"><ele>337.5</ele><time>2026-03-22T10:15:00.999Z</time></trkpt><trkpt lat="44.46292051045889" lon="11.149298291077875"><ele>341.25</ele><time>2026-03-22T10:15:01.999Z</time></trkpt><trkpt lat="44.462925708927585" lon="11.149107928850485"><ele>345.0</ele><time>2026-03-22T10:15:02.999Z</time></trkpt><trkpt lat="44.46292384256902" lon="11.148920591134736"><ele>345.0</ele><time>2026-03-22T10:15:03.999Z</time></trkpt><trkpt lat="44.46291813969164" lon="11.148765882169986"><ele>345.0</ele><time>2026-03-22T10:15:04.999Z</time></trkpt><trkpt lat="44.4629118266319" lon="11.148632123721828"><ele>345.0</ele><time>2026-03-22T10:15:05.999Z</time></trkpt><trkpt lat="44.46291271989645" lon="11.148527884656001"><ele>345.0</ele><time>2026-03-22T10:15:06.999Z</time></trkpt><trkpt lat="44.4629215847059" lon="11.148431035456877"><ele>345.0</ele><time>2026-03-22T10:15:07.999Z</time></trkpt><trkpt lat="44.462942623914834" lon="11.148335016423422"><ele>345.0</ele><time>2026-03-22T10:15:08.999Z</time></trkpt><trkpt lat="44.4629693872522" lon="11.14824487204369"><ele>348.6</ele><time>2026-03-22T10:15:09.999Z</time></trkpt><trkpt lat="44.46301175821926" lon="11.148159628168838"><ele>352.2</ele><time>2026-03-22T10:15:10.999Z</time></trkpt><trkpt lat="44.46306748922499" lon="11.14807139946956"><ele>355.79999999999995</ele><time>2026-03-22T10:15:11.999Z</time></trkpt><trkpt lat="44.463134609060816" lon="11.14798112363144"><ele>359.4</ele><time>2026-03-22T10:15:12.999Z</time></trkpt><trkpt lat="44.46320416190259" lon="11.14788092881862"><ele>363.0</ele><time>2026-03-22T10:15:13.999Z</time></trkpt><trkpt lat="44.46328090751244" lon="11.147764076919309"><ele>363.0</ele><time>2026-03-22T10:15:14.999Z</time></trkpt><trkpt lat="44.4633644000118" lon="11.147640223667748"><ele>363.0</ele><time>2026-03-22T10:15:15.999Z</time></trkpt><trkpt lat="44.4634396302691" lon="11.147520749097954"><ele>363.0</ele><time>2026-03-22T10:15:16.999Z</time></trkpt><trkpt lat="44.46349486520891" lon="11.147424201417243"><ele>363.0</ele><time>2026-03-22T10:15:17.999Z</time></trkpt><trkpt lat="44.46354612005637" lon="11.147319561181813"><ele>363.0</ele><time>2026-03-22T10:15:19Z</time></trkpt><trkpt lat="44.46360824080721" lon="11.147198831437457"><ele>362.4</ele><time>2026-03-22T10:15:20Z</time></trkpt><trkpt lat="44.46366968284752" lon="11.14708135698538"><ele>361.79999999999995</ele><time>2026-03-22T10:15:21Z</time></trkpt><trkpt lat="44.463731292592165" lon="11.146978485867136"><ele>361.2</ele><time>2026-03-22T10:15:22Z</time></trkpt><trkpt lat="44.46378815751694" lon="11.146887190225685"><ele>360.6</ele><time>2026-03-22T10:15:23Z</time></trkpt><trkpt lat="44.46385224763911" lon="11.146816898578697"><ele>360.0</ele><time>2026-03-22T10:15:24Z</time></trkpt><trkpt lat="44.46392598585092" lon="11.146751136284156"><ele>360.0</ele><time>2026-03-22T10:15:25Z</time></trkpt><trkpt lat="44.46400199551841" lon="11.14669232980157"><ele>360.0</ele><time>2026-03-22T10:15:26Z</time></trkpt><trkpt lat="44.46410648393412" lon="11.146610900007435"><ele>360.0</ele><time>2026-03-22T10:15:27Z</time></trkpt><trkpt lat="44.46421320601978" lon="11.146527028963064"><ele>360.0</ele><time>2026-03-22T10:15:28Z</time></trkpt><trkpt lat="44.46431424445327" lon="11.146439209252609"><ele>360.0</ele><time>2026-03-22T10:15:29Z</time></trkpt><trkpt lat="44.46439856147197" lon="11.146366687871488"><ele>359.1666666666667</ele><time>2026-03-22T10:15:30Z</time></trkpt><trkpt lat="44.46447516352529" lon="11.146307115939877"><ele>358.3333333333333</ele><time>2026-03-22T10:15:31Z</time></trkpt><trkpt lat="44.46455030071702" lon="11.146255924247539"><ele>357.5</ele><time>2026-03-22T10:15:32Z</time></trkpt><trkpt lat="44.4646174182612" lon="11.146207550012482"><ele>356.66666666666663</ele><time>2026-03-22T10:15:33Z</time></trkpt><trkpt lat="44.46466564536759" lon="11.14613734549471"><ele>355.8333333333333</ele><time>2026-03-22T10:15:34Z</time></trkpt><trkpt lat="44.46469521122138" lon="11.14605243927908"><ele>355.0</ele><time>2026-03-22T10:15:35Z</time></trkpt><trkpt lat="44.464705471803796" lon="11.145959523823976"><ele>355.0</ele><time>2026-03-22T10:15:36Z</time></trkpt><trkpt lat="44.46471044433082" lon="11.145860825451607"><ele>355.0</ele><time>2026-03-22T10:15:37Z</time></trkpt><trkpt lat="44.46472077388344" lon="11.145744376467722"><ele>355.0</ele><time>2026-03-22T10:15:38Z</time></trkpt><trkpt lat="44.46472647450944" lon="11.14564893710425"><ele>355.0</ele><time>2026-03-22T10:15:39Z</time></trkpt><trkpt lat="44.464727967590285" lon="11.145518808855684"><ele>355.0</ele><time>2026-03-22T10:15:41Z</time></trkpt><trkpt lat="44.4647034940284" lon="11.145357481638015"><ele>355.0</ele><time>2026-03-22T10:15:43Z</time></trkpt><trkpt lat="44.464687822444475" lon="11.145270402852669"><ele>355.16666666666663</ele><time>2026-03-22T10:15:44Z</time></trkpt><trkpt lat="44.4646818293684" lon="11.145175180722825"><ele>355.3333333333333</ele><time>2026-03-22T10:15:45Z</time></trkpt><trkpt lat="44.46467241491036" lon="11.145063592241183"><ele>355.5</ele><time>2026-03-22T10:15:46Z</time></trkpt><trkpt lat="44.46467016634353" lon="11.144952063157366"><ele>355.6666666666667</ele><time>2026-03-22T10:15:47Z</time></trkpt><trkpt lat="44.46467177945212" lon="11.14483847826136"><ele>355.83333333333337</ele><time>2026-03-22T10:15:48Z</time></trkpt><trkpt lat="44.46468440028864" lon="11.144726681236408"><ele>356.0</ele><time>2026-03-22T10:15:49Z</time></trkpt><trkpt lat="44.46469712551283" lon="11.144617790966782"><ele>355.33333333333337</ele><time>2026-03-22T10:15:50Z</time></trkpt><trkpt lat="44.46469755014791" lon="11.144526811693082"><ele>354.6666666666667</ele><time>2026-03-22T10:15:51Z</time></trkpt><trkpt lat="44.46467246837707" lon="11.144434381908788"><ele>354.0</ele><time>2026-03-22T10:15:52Z</time></trkpt><trkpt lat="44.46462820744233" lon="11.144359114814321"><ele>353.3333333333333</ele><time>2026-03-22T10:15:53Z</time></trkpt><trkpt lat="44.46458215230973" lon="11.144287274540794"><ele>352.66666666666663</ele><time>2026-03-22T10:15:54Z</time></trkpt><trkpt lat="44.46452013977923" lon="11.144180864873743"><ele>352.0</ele><time>2026-03-22T10:15:56Z</time></trkpt><trkpt lat="44.46449312237746" lon="11.144042937239771"><ele>352.0</ele><time>2026-03-22T10:15:58Z</time></trkpt><trkpt lat="44.464487915840714" lon="11.143940604756565"><ele>352.0</ele><time>2026-03-22T10:15:59Z</time></trkpt><trkpt lat="44.464488048200636" lon="11.14383008433986"><ele>352.0</ele><time>2026-03-22T10:16:00Z</time></trkpt><trkpt lat="44.46448604428227" lon="11.143725461402886"><ele>352.0</ele><time>2026-03-22T10:16:01Z</time></trkpt><trkpt lat="44.46448333039641" lon="11.143604321132834"><ele>352.0</ele><time>2026-03-22T10:16:02Z</time></trkpt><trkpt lat="44.464474089591874" lon="11.143481974200576"><ele>352.0</ele><time>2026-03-22T10:16:03Z</time></trkpt><trkpt lat="44.46445336668333" lon="11.14335506601447"><ele>352.0</ele><time>2026-03-22T10:16:04Z</time></trkpt><trkpt lat="44.46443325091808" lon="11.143221944531241"><ele>352.0</ele><time>2026-03-22T10:16:05Z</time></trkpt><trkpt lat="44.464413465894026" lon="11.143112914972056"><ele>352.0</ele><time>2026-03-22T10:16:06Z</time></trkpt><trkpt lat="44.464387016665945" lon="11.142970731094476"><ele>352.0</ele><time>2026-03-22T10:16:07Z</time></trkpt><trkpt lat="44.46435736911574" lon="11.14283514237903"><ele>352.0</ele><time>2026-03-22T10:16:08Z</time></trkpt><trkpt lat="44.46432479728316" lon="11.142707505317052"><ele>352.0</ele><time>2026-03-22T10:16:09Z</time></trkpt><trkpt lat="44.46429444621931" lon="11.142581660547933"><ele>352.0</ele><time>2026-03-22T10:16:10Z</time></trkpt><trkpt lat="44.464266531920735" lon="11.142461656312818"><ele>352.0</ele><time>2026-03-22T10:16:11Z</time></trkpt><trkpt lat="44.4642365055512" lon="11.142344191531746"><ele>352.0</ele><time>2026-03-22T10:16:12Z</time></trkpt><trkpt lat="44.4642056141722" lon="11.142225787103174"><ele>352.0</ele><time>2026-03-22T10:16:13Z</time></trkpt><trkpt lat="44.46417201266995" lon="11.142109219982531"><ele>350.14285714285717</ele><time>2026-03-22T10:16:14Z</time></trkpt><trkpt lat="44.464134926462236" lon="11.142000398636714"><ele>348.2857142857143</ele><time>2026-03-22T10:16:14.999Z</time></trkpt><trkpt lat="44.464104779766984" lon="11.141901360648925"><ele>346.42857142857144</ele><time>2026-03-22T10:16:15.999Z</time></trkpt><trkpt lat="44.46406345718572" lon="11.1418100403724"><ele>344.57142857142856</ele><time>2026-03-22T10:16:16.999Z</time></trkpt><trkpt lat="44.4640121851026" lon="11.141741387767137"><ele>342.7142857142857</ele><time>2026-03-22T10:16:17.999Z</time></trkpt><trkpt lat="44.46396241556298" lon="11.14167394568219"><ele>340.85714285714283</ele><time>2026-03-22T10:16:18.999Z</time></trkpt><trkpt lat="44.46390934365168" lon="11.141612816614808"><ele>339.0</ele><time>2026-03-22T10:16:19.999Z</time></trkpt><trkpt lat="44.46385512609639" lon="11.141552285803503"><ele>337.1666666666667</ele><time>2026-03-22T10:16:20.999Z</time></trkpt><trkpt lat="44.46381064429279" lon="11.141486865302294"><ele>335.3333333333333</ele><time>2026-03-22T10:16:21.999Z</time></trkpt><trkpt lat="44.463773424797346" lon="11.14140757448192"><ele>333.5</ele><time>2026-03-22T10:16:22.999Z</time></trkpt><trkpt lat="44.46375271528403" lon="11.14132138723618"><ele>331.66666666666663</ele><time>2026-03-22T10:16:23.999Z</time></trkpt><trkpt lat="44.46374430637845" lon="11.14115758113854"><ele>329.8333333333333</ele><time>2026-03-22T10:16:25.999Z</time></trkpt><trkpt lat="44.463747336896326" lon="11.141067726630835"><ele>328.0</ele><time>2026-03-22T10:16:26.999Z</time></trkpt><trkpt lat="44.463784307655416" lon="11.140920945473725"><ele>327.99999999999994</ele><time>2026-03-22T10:16:28.999Z</time></trkpt><trkpt lat="44.46382813143127" lon="11.140844725372563"><ele>328.0</ele><time>2026-03-22T10:16:29.999Z</time></trkpt><trkpt lat="44.46388645764123" lon="11.140774365765159"><ele>328.0</ele><time>2026-03-22T10:16:30.999Z</time></trkpt><trkpt lat="44.46394067472191" lon="11.14070541713835"><ele>328.0</ele><time>2026-03-22T10:16:31.999Z</time></trkpt><trkpt lat="44.46399145587348" lon="11.14064624887573"><ele>328.0</ele><time>2026-03-22T10:16:32.999Z</time></trkpt><trkpt lat="44.4640461016492" lon="11.140589947969648"><ele>327.99999999999994</ele><time>2026-03-22T10:16:33.999Z</time></trkpt><trkpt lat="44.46410264431601" lon="11.140549835574664"><ele>328.0</ele><time>2026-03-22T10:16:34.999Z</time></trkpt><trkpt lat="44.46420354963302" lon="11.140496288235745"><ele>325.3333333333333</ele><time>2026-03-22T10:16:36.999Z</time></trkpt><trkpt lat="44.46428809476871" lon="11.14046542590355"><ele>322.66666666666663</ele><time>2026-03-22T10:16:38.999Z</time></trkpt><trkpt lat="44.46434333201947" lon="11.140394258626452"><ele>320.0</ele><time>2026-03-22T10:16:40.999Z</time></trkpt><trkpt lat="44.46436584542313" lon="11.140291070072596"><ele>317.3333333333333</ele><time>2026-03-22T10:16:48.999Z</time></trkpt><trkpt lat="44.464339399259565" lon="11.140380752459539"><ele>314.6666666666667</ele><time>2026-03-22T10:17:20.999Z</time></trkpt><trkpt lat="44.46429535343779" lon="11.140476092706267"><ele>312.0</ele><time>2026-03-22T10:17:25Z</time></trkpt><trkpt lat="44.464253574604804" lon="11.14056652670346"><ele>312.0</ele><time>2026-03-22T10:17:28Z</time></trkpt><trkpt lat="44.464026694861424" lon="11.140413522355828"><ele>312.0</ele><time>2026-03-22T10:17:30Z</time></trkpt><trkpt lat="44.46394154432771" lon="11.140436064776758"><ele>312.0</ele><time>2026-03-22T10:17:33Z</time></trkpt><trkpt lat="44.46386430125131" lon="11.1404599418699"><ele>312.0</ele><time>2026-03-22T10:17:35Z</time></trkpt><trkpt lat="44.46379541664908" lon="11.140490520706534"><ele>311.8</ele><time>2026-03-22T10:17:37Z</time></trkpt><trkpt lat="44.463718675975336" lon="11.140529810306077"><ele>311.6</ele><time>2026-03-22T10:17:39Z</time></trkpt><trkpt lat="44.463630158792135" lon="11.14058747709752"><ele>311.40000000000003</ele><time>2026-03-22T10:17:41Z</time></trkpt><trkpt lat="44.46354814159056" lon="11.140676248304052"><ele>311.2</ele><time>2026-03-22T10:17:43Z</time></trkpt><trkpt lat="44.46345579413469" lon="11.14076045080795"><ele>311.0</ele><time>2026-03-22T10:17:45Z</time></trkpt><trkpt lat="44.463385550372706" lon="11.140812540113298"><ele>311.0</ele><time>2026-03-22T10:17:47Z</time></trkpt><trkpt lat="44.46330951656799" lon="11.140855222386623"><ele>311.0</ele><time>2026-03-22T10:17:50Z</time></trkpt><trkpt lat="44.46325354943306" lon="11.140790072270429"><ele>311.0</ele><time>2026-03-22T10:17:53Z</time></trkpt><trkpt lat="44.46321106726516" lon="11.140723881566629"><ele>311.0</ele><time>2026-03-22T10:17:55Z</time></trkpt><trkpt lat="44.46313712433298" lon="11.140676800007533"><ele>311.0</ele><time>2026-03-22T10:17:58Z</time></trkpt><trkpt lat="44.46306240605463" lon="11.1406652282582"><ele>311.0</ele><time>2026-03-22T10:18:01Z</time></trkpt><trkpt lat="44.46299880062928" lon="11.140689499677391"><ele>311.0</ele><time>2026-03-22T10:18:03Z</time></trkpt><trkpt lat="44.46294034431061" lon="11.140730443110558"><ele>307.2857142857143</ele><time>2026-03-22T10:18:05Z</time></trkpt><trkpt lat="44.46286561783334" lon="11.140725428227112"><ele>303.5714285714286</ele><time>2026-03-22T10:18:08Z</time></trkpt><trkpt lat="44.46278258302388" lon="11.140722565561168"><ele>299.8571428571429</ele><time>2026-03-22T10:18:19Z</time></trkpt><trkpt lat="44.46270926688575" lon="11.140691977954045"><ele>296.1428571428571</ele><time>2026-03-22T10:18:22Z</time></trkpt><trkpt lat="44.462648382943904" lon="11.14065553261024"><ele>292.42857142857144</ele><time>2026-03-22T10:18:25Z</time></trkpt><trkpt lat="44.46259147049655" lon="11.140611407592301"><ele>288.7142857142857</ele><time>2026-03-22T10:18:43.999Z</time></trkpt><trkpt lat="44.46252108854537" lon="11.140595312963773"><ele>285.0</ele><time>2026-03-22T10:18:47.999Z</time></trkpt><trkpt lat="44.46245319759745" lon="11.140568336940127"><ele>283.5</ele><time>2026-03-22T10:18:52.999Z</time></trkpt><trkpt lat="44.46240835185262" lon="11.1404917742607"><ele>282.0</ele><time>2026-03-22T10:18:54.999Z</time></trkpt><trkpt lat="44.46235357056491" lon="11.140424889634751"><ele>280.5</ele><time>2026-03-22T10:18:58.999Z</time></trkpt><trkpt lat="44.46224723413153" lon="11.14036527659731"><ele>279.0</ele><time>2026-03-22T10:19:08.999Z</time></trkpt><trkpt lat="44.46216551327258" lon="11.140378637182973"><ele>277.5</ele><time>2026-03-22T10:19:10.999Z</time></trkpt><trkpt lat="44.46209460935535" lon="11.140392453212208"><ele>276.0</ele><time>2026-03-22T10:19:12.999Z</time></trkpt><trkpt lat="44.462027552159824" lon="11.140379736315833"><ele>276.0</ele><time>2026-03-22T10:19:14.999Z</time></trkpt><trkpt lat="44.46196364067963" lon="11.140363386427186"><ele>276.0</ele><time>2026-03-22T10:19:17.999Z</time></trkpt><trkpt lat="44.46191647164795" lon="11.140304534802818"><ele>276.0</ele><time>2026-03-22T10:19:20.999Z</time></trkpt><trkpt lat="44.46186117977449" lon="11.140217533013697"><ele>276.0</ele><time>2026-03-22T10:19:24.999Z</time></trkpt><trkpt lat="44.46187608710573" lon="11.140098554068803"><ele>276.0</ele><time>2026-03-22T10:19:27.999Z</time></trkpt><trkpt lat="44.461879254482064" lon="11.139984301778197"><ele>276.0</ele><time>2026-03-22T10:19:29.999Z</time></trkpt><trkpt lat="44.46187473570843" lon="11.13985334999854"><ele>274.5</ele><time>2026-03-22T10:19:32Z</time></trkpt><trkpt lat="44.461823793460724" lon="11.139747269407252"><ele>273.0</ele><time>2026-03-22T10:19:34Z</time></trkpt><trkpt lat="44.46173401850124" lon="11.139671251818829"><ele>271.5</ele><time>2026-03-22T10:19:36Z</time></trkpt><trkpt lat="44.46165267406259" lon="11.13956042581694"><ele>270.0</ele><time>2026-03-22T10:19:38Z</time></trkpt><trkpt lat="44.461619702838895" lon="11.139479733533975"><ele>268.5</ele><time>2026-03-22T10:19:39Z</time></trkpt><trkpt lat="44.461579336840494" lon="11.139398844037144"><ele>267.0</ele><time>2026-03-22T10:19:40Z</time></trkpt><trkpt lat="44.46152740001413" lon="11.139336763010872"><ele>267.0</ele><time>2026-03-22T10:19:41Z</time></trkpt><trkpt lat="44.461445059414245" lon="11.139240395697229"><ele>267.0</ele><time>2026-03-22T10:19:43Z</time></trkpt><trkpt lat="44.461390873764984" lon="11.139099686676028"><ele>267.0</ele><time>2026-03-22T10:19:45Z</time></trkpt><trkpt lat="44.461326888553046" lon="11.138971020108642"><ele>267.0</ele><time>2026-03-22T10:19:47Z</time></trkpt><trkpt lat="44.46128017752445" lon="11.138906022676002"><ele>267.0</ele><time>2026-03-22T10:19:48Z</time></trkpt><trkpt lat="44.46123066246297" lon="11.138834225290148"><ele>268.6</ele><time>2026-03-22T10:19:49Z</time></trkpt><trkpt lat="44.46114821993425" lon="11.138737029224181"><ele>270.2</ele><time>2026-03-22T10:19:51Z</time></trkpt><trkpt lat="44.461091200849104" lon="11.138684896217097"><ele>271.8</ele><time>2026-03-22T10:19:52Z</time></trkpt><trkpt lat="44.46101096992714" lon="11.138594493314436"><ele>273.4</ele><time>2026-03-22T10:19:54Z</time></trkpt><trkpt lat="44.460956881193596" lon="11.138471169824461"><ele>275.0</ele><time>2026-03-22T10:19:56Z</time></trkpt><trkpt lat="44.46091585994417" lon="11.138384111121477"><ele>275.0</ele><time>2026-03-22T10:19:57Z</time></trkpt><trkpt lat="44.460866632444144" lon="11.138301512070528"><ele>275.0</ele><time>2026-03-22T10:19:58Z</time></trkpt><trkpt lat="44.46083092193921" lon="11.138206388540192"><ele>275.0</ele><time>2026-03-22T10:19:59Z</time></trkpt><trkpt lat="44.460779327054325" lon="11.138143307111415"><ele>275.0</ele><time>2026-03-22T10:20:00Z</time></trkpt><trkpt lat="44.46072150953834" lon="11.138094480724261"><ele>275.0</ele><time>2026-03-22T10:20:01Z</time></trkpt><trkpt lat="44.46065983632682" lon="11.138058512099418"><ele>275.0</ele><time>2026-03-22T10:20:02Z</time></trkpt><trkpt lat="44.46054984096923" lon="11.137985823806083"><ele>273.5</ele><time>2026-03-22T10:20:04Z</time></trkpt><trkpt lat="44.460488529721836" lon="11.137940759433263"><ele>272.0</ele><time>2026-03-22T10:20:05Z</time></trkpt><trkpt lat="44.460428402955436" lon="11.13789656764693"><ele>270.5</ele><time>2026-03-22T10:20:06Z</time></trkpt><trkpt lat="44.46035612039477" lon="11.137883595617108"><ele>269.0</ele><time>2026-03-22T10:20:07Z</time></trkpt><trkpt lat="44.46030123584218" lon="11.137836622005173"><ele>267.5</ele><time>2026-03-22T10:20:08Z</time></trkpt><trkpt lat="44.46024016224498" lon="11.137798903612525"><ele>266.0</ele><time>2026-03-22T10:20:09Z</time></trkpt><trkpt lat="44.46013192660562" lon="11.137736554056909"><ele>269.1666666666667</ele><time>2026-03-22T10:20:11Z</time></trkpt><trkpt lat="44.46002810687938" lon="11.137645828317243"><ele>272.33333333333337</ele><time>2026-03-22T10:20:13Z</time></trkpt><trkpt lat="44.46000680314893" lon="11.137550517149183"><ele>275.5</ele><time>2026-03-22T10:20:14Z</time></trkpt><trkpt lat="44.459952746413386" lon="11.13749512501092"><ele>278.6666666666667</ele><time>2026-03-22T10:20:15Z</time></trkpt><trkpt lat="44.45988358852918" lon="11.137427749312533"><ele>281.8333333333333</ele><time>2026-03-22T10:20:16Z</time></trkpt><trkpt lat="44.45983090372543" lon="11.137338398033"><ele>285.0</ele><time>2026-03-22T10:20:17Z</time></trkpt><trkpt lat="44.459784327424124" lon="11.137255275731832"><ele>285.2</ele><time>2026-03-22T10:20:18Z</time></trkpt><trkpt lat="44.459743841640204" lon="11.13717706037849"><ele>285.4</ele><time>2026-03-22T10:20:19Z</time></trkpt><trkpt lat="44.45967031626016" lon="11.137047129319678"><ele>285.6</ele><time>2026-03-22T10:20:21Z</time></trkpt><trkpt lat="44.45959671844774" lon="11.136981258788737"><ele>285.8</ele><time>2026-03-22T10:20:23Z</time></trkpt><trkpt lat="44.459524531850704" lon="11.136896537878256"><ele>286.0</ele><time>2026-03-22T10:20:25Z</time></trkpt><trkpt lat="44.45941440580676" lon="11.13689257958807"><ele>285.0</ele><time>2026-03-22T10:20:27Z</time></trkpt><trkpt lat="44.45927985250085" lon="11.136912964326061"><ele>284.0</ele><time>2026-03-22T10:20:29Z</time></trkpt><trkpt lat="44.45920619029356" lon="11.136925883519819"><ele>283.0</ele><time>2026-03-22T10:20:30Z</time></trkpt><trkpt lat="44.459135831796445" lon="11.136935179109063"><ele>282.0</ele><time>2026-03-22T10:20:31Z</time></trkpt><trkpt lat="44.45905796981468" lon="11.136944702449709"><ele>281.0</ele><time>2026-03-22T10:20:32Z</time></trkpt><trkpt lat="44.45897197231929" lon="11.136960753292207"><ele>280.0</ele><time>2026-03-22T10:20:33Z</time></trkpt><trkpt lat="44.458881678580504" lon="11.13694913260292"><ele>280.0</ele><time>2026-03-22T10:20:34Z</time></trkpt><trkpt lat="44.45878598568786" lon="11.136961193389606"><ele>280.0</ele><time>2026-03-22T10:20:35Z</time></trkpt><trkpt lat="44.45868451691129" lon="11.13699729770418"><ele>280.0</ele><time>2026-03-22T10:20:36Z</time></trkpt><trkpt lat="44.458579384169504" lon="11.137012068098207"><ele>280.0</ele><time>2026-03-22T10:20:37Z</time></trkpt><trkpt lat="44.458496086002" lon="11.137017173955352"><ele>280.0</ele><time>2026-03-22T10:20:38Z</time></trkpt><trkpt lat="44.458426754767416" lon="11.13702073983009"><ele>281.0</ele><time>2026-03-22T10:20:39Z</time></trkpt><trkpt lat="44.458362138329136" lon="11.137018096130284"><ele>282.0</ele><time>2026-03-22T10:20:40Z</time></trkpt><trkpt lat="44.458289234467074" lon="11.136997405077821"><ele>283.0</ele><time>2026-03-22T10:20:41Z</time></trkpt><trkpt lat="44.45821591746327" lon="11.136953174596004"><ele>284.0</ele><time>2026-03-22T10:20:42Z</time></trkpt><trkpt lat="44.45815299325987" lon="11.136882915604765"><ele>285.0</ele><time>2026-03-22T10:20:43Z</time></trkpt><trkpt lat="44.45809550649601" lon="11.136787018769317"><ele>286.0</ele><time>2026-03-22T10:20:44Z</time></trkpt><trkpt lat="44.45803049506573" lon="11.13666484421314"><ele>287.0</ele><time>2026-03-22T10:20:45Z</time></trkpt><trkpt lat="44.45796669546645" lon="11.13653919827429"><ele>288.0</ele><time>2026-03-22T10:20:45.999Z</time></trkpt><trkpt lat="44.457907742172765" lon="11.13641896610948"><ele>289.0</ele><time>2026-03-22T10:20:46.999Z</time></trkpt><trkpt lat="44.4578530038934" lon="11.136306387417864"><ele>290.0</ele><time>2026-03-22T10:20:47.999Z</time></trkpt><trkpt lat="44.45780937785572" lon="11.136204752205597"><ele>291.0</ele><time>2026-03-22T10:20:48.999Z</time></trkpt><trkpt lat="44.45776662349791" lon="11.136102351854793"><ele>291.0</ele><time>2026-03-22T10:20:49.999Z</time></trkpt><trkpt lat="44.457727172013" lon="11.13598420174902"><ele>291.0</ele><time>2026-03-22T10:20:50.999Z</time></trkpt><trkpt lat="44.45769439899561" lon="11.135862977971486"><ele>291.0</ele><time>2026-03-22T10:20:51.999Z</time></trkpt><trkpt lat="44.45766349865003" lon="11.135760260775145"><ele>291.0</ele><time>2026-03-22T10:20:52.999Z</time></trkpt><trkpt lat="44.45762888682481" lon="11.135659451879883"><ele>291.0</ele><time>2026-03-22T10:20:53.999Z</time></trkpt><trkpt lat="44.45758774508107" lon="11.135549088595933"><ele>291.0</ele><time>2026-03-22T10:20:54.999Z</time></trkpt><trkpt lat="44.457530495790856" lon="11.135427900726551"><ele>291.6</ele><time>2026-03-22T10:20:55.999Z</time></trkpt><trkpt lat="44.457463796247346" lon="11.135315799760464"><ele>292.20000000000005</ele><time>2026-03-22T10:20:56.999Z</time></trkpt><trkpt lat="44.45739633637565" lon="11.135201989906147"><ele>292.79999999999995</ele><time>2026-03-22T10:20:57.999Z</time></trkpt><trkpt lat="44.45732711302104" lon="11.135070375681655"><ele>293.4</ele><time>2026-03-22T10:20:58.999Z</time></trkpt><trkpt lat="44.45726050318387" lon="11.13492667709536"><ele>294.0</ele><time>2026-03-22T10:20:59.999Z</time></trkpt><trkpt lat="44.45718615537163" lon="11.134786414452233"><ele>292.5</ele><time>2026-03-22T10:21:00.999Z</time></trkpt><trkpt lat="44.45711112761013" lon="11.134651101552373"><ele>291.0</ele><time>2026-03-22T10:21:01.999Z</time></trkpt><trkpt lat="44.457042963317164" lon="11.134515864636592"><ele>289.5</ele><time>2026-03-22T10:21:02.999Z</time></trkpt><trkpt lat="44.45696199133389" lon="11.134359048898729"><ele>288.0</ele><time>2026-03-22T10:21:03.999Z</time></trkpt><trkpt lat="44.45687448043321" lon="11.134192162239122"><ele>287.75</ele><time>2026-03-22T10:21:04.999Z</time></trkpt><trkpt lat="44.45679260567945" lon="11.134044057222692"><ele>287.5</ele><time>2026-03-22T10:21:05.999Z</time></trkpt><trkpt lat="44.45671848597537" lon="11.133905744174628"><ele>287.25</ele><time>2026-03-22T10:21:06.999Z</time></trkpt><trkpt lat="44.45664759709974" lon="11.133769287804917"><ele>287.0</ele><time>2026-03-22T10:21:07.999Z</time></trkpt><trkpt lat="44.45657915006396" lon="11.133639916323203"><ele>287.0</ele><time>2026-03-22T10:21:08.999Z</time></trkpt><trkpt lat="44.45651109930923" lon="11.133513346196505"><ele>287.0</ele><time>2026-03-22T10:21:09.999Z</time></trkpt><trkpt lat="44.456449842606524" lon="11.133392018254893"><ele>287.0</ele><time>2026-03-22T10:21:10.999Z</time></trkpt><trkpt lat="44.45639276319536" lon="11.133282311792263"><ele>287.0</ele><time>2026-03-22T10:21:11.999Z</time></trkpt><trkpt lat="44.45633876475301" lon="11.133182751616934"><ele>287.0</ele><time>2026-03-22T10:21:12.999Z</time></trkpt><trkpt lat="44.45628996391666" lon="11.133094351669191"><ele>285.4</ele><time>2026-03-22T10:21:13.999Z</time></trkpt><trkpt lat="44.45624577753715" lon="11.133010703601329"><ele>283.79999999999995</ele><time>2026-03-22T10:21:14.999Z</time></trkpt><trkpt lat="44.456205775048716" lon="11.132930050346928"><ele>282.2</ele><time>2026-03-22T10:21:15.999Z</time></trkpt><trkpt lat="44.45614963440946" lon="11.13281257024998"><ele>280.59999999999997</ele><time>2026-03-22T10:21:17.999Z</time></trkpt><trkpt lat="44.45609620944085" lon="11.132697329854706"><ele>279.0</ele><time>2026-03-22T10:21:20.999Z</time></trkpt><trkpt lat="44.45600243392702" lon="11.132562865544052"><ele>279.0</ele><time>2026-03-22T10:21:22.999Z</time></trkpt><trkpt lat="44.45593967532267" lon="11.132475284843915"><ele>279.0</ele><time>2026-03-22T10:21:23.999Z</time></trkpt><trkpt lat="44.45587179030427" lon="11.13236856308423"><ele>279.0</ele><time>2026-03-22T10:21:24.999Z</time></trkpt><trkpt lat="44.455796626574994" lon="11.132245554797223"><ele>279.0</ele><time>2026-03-22T10:21:25.999Z</time></trkpt><trkpt lat="44.45571868149072" lon="11.132128966942263"><ele>279.0</ele><time>2026-03-22T10:21:26.999Z</time></trkpt><trkpt lat="44.45563248668141" lon="11.132002916292016"><ele>278.75</ele><time>2026-03-22T10:21:27.999Z</time></trkpt><trkpt lat="44.4555397983266" lon="11.131863679520086"><ele>278.5</ele><time>2026-03-22T10:21:28.999Z</time></trkpt><trkpt lat="44.45544289729194" lon="11.131713898401372"><ele>278.25</ele><time>2026-03-22T10:21:29.999Z</time></trkpt><trkpt lat="44.45533729820964" lon="11.131550994348148"><ele>278.0</ele><time>2026-03-22T10:21:30.999Z</time></trkpt><trkpt lat="44.45522928326845" lon="11.131387447564485"><ele>281.33333333333337</ele><time>2026-03-22T10:21:31.999Z</time></trkpt><trkpt lat="44.45511347832051" lon="11.131218676637364"><ele>284.6666666666667</ele><time>2026-03-22T10:21:32.999Z</time></trkpt><trkpt lat="44.45499753867288" lon="11.131044536222044"><ele>288.0</ele><time>2026-03-22T10:21:33.999Z</time></trkpt><trkpt lat="44.45489886393335" lon="11.130885293755737"><ele>288.0</ele><time>2026-03-22T10:21:34.999Z</time></trkpt><trkpt lat="44.45481024174592" lon="11.130743937856593"><ele>288.0</ele><time>2026-03-22T10:21:35.999Z</time></trkpt><trkpt lat="44.454715424399865" lon="11.130600218565219"><ele>288.0</ele><time>2026-03-22T10:21:37Z</time></trkpt><trkpt lat="44.45462020628703" lon="11.130453167476029"><ele>288.0</ele><time>2026-03-22T10:21:38Z</time></trkpt><trkpt lat="44.454536416192965" lon="11.130318541540776"><ele>288.2</ele><time>2026-03-22T10:21:39Z</time></trkpt><trkpt lat="44.454462769213265" lon="11.13020071283498"><ele>288.4</ele><time>2026-03-22T10:21:40Z</time></trkpt><trkpt lat="44.45440092542512" lon="11.130091901662189"><ele>288.59999999999997</ele><time>2026-03-22T10:21:41Z</time></trkpt><trkpt lat="44.45435171247244" lon="11.13000061648731"><ele>288.8</ele><time>2026-03-22T10:21:42Z</time></trkpt><trkpt lat="44.45429534189909" lon="11.129891865273665"><ele>289.0</ele><time>2026-03-22T10:21:44Z</time></trkpt><trkpt lat="44.454241586866296" lon="11.129841815749199"><ele>288.0</ele><time>2026-03-22T10:21:46Z</time></trkpt><trkpt lat="44.45417291545102" lon="11.129825763986027"><ele>287.0</ele><time>2026-03-22T10:21:47Z</time></trkpt><trkpt lat="44.45407870513836" lon="11.12982762014276"><ele>286.0</ele><time>2026-03-22T10:21:48Z</time></trkpt><trkpt lat="44.45395972484208" lon="11.129814149293207"><ele>285.0</ele><time>2026-03-22T10:21:49Z</time></trkpt><trkpt lat="44.45382201843094" lon="11.129827199099637"><ele>284.0</ele><time>2026-03-22T10:21:50Z</time></trkpt><trkpt lat="44.453688768707" lon="11.129819322133054"><ele>282.8</ele><time>2026-03-22T10:21:51Z</time></trkpt><trkpt lat="44.453567397388014" lon="11.129815108712966"><ele>281.59999999999997</ele><time>2026-03-22T10:21:52Z</time></trkpt><trkpt lat="44.45345349760353" lon="11.129804958197667"><ele>280.4</ele><time>2026-03-22T10:21:53Z</time></trkpt><trkpt lat="44.453342209267916" lon="11.129799779200239"><ele>279.2</ele><time>2026-03-22T10:21:54Z</time></trkpt><trkpt lat="44.45324047804581" lon="11.129799169861963"><ele>278.0</ele><time>2026-03-22T10:21:55Z</time></trkpt><trkpt lat="44.453157904919664" lon="11.129792386645493"><ele>278.0</ele><time>2026-03-22T10:21:56Z</time></trkpt><trkpt lat="44.453092851211366" lon="11.12976938462821"><ele>278.0</ele><time>2026-03-22T10:21:57Z</time></trkpt><trkpt lat="44.45301478439896" lon="11.129633107368734"><ele>278.0</ele><time>2026-03-22T10:21:59Z</time></trkpt><trkpt lat="44.45300631469637" lon="11.129521563152027"><ele>278.0</ele><time>2026-03-22T10:22:00Z</time></trkpt><trkpt lat="44.453007219236774" lon="11.129371106445458"><ele>278.0</ele><time>2026-03-22T10:22:01Z</time></trkpt><trkpt lat="44.45300279569846" lon="11.129194501230705"><ele>275.8</ele><time>2026-03-22T10:22:02Z</time></trkpt><trkpt lat="44.45300333571194" lon="11.12902134119647"><ele>273.6</ele><time>2026-03-22T10:22:03Z</time></trkpt><trkpt lat="44.45299897844582" lon="11.128867419840718"><ele>271.4</ele><time>2026-03-22T10:22:04Z</time></trkpt><trkpt lat="44.452990020763764" lon="11.128724059217946"><ele>269.2</ele><time>2026-03-22T10:22:05Z</time></trkpt><trkpt lat="44.452968529060236" lon="11.128583455799458"><ele>267.0</ele><time>2026-03-22T10:22:06Z</time></trkpt><trkpt lat="44.45292775817248" lon="11.128442602247295"><ele>267.0</ele><time>2026-03-22T10:22:07Z</time></trkpt><trkpt lat="44.45286874147809" lon="11.128314368766558"><ele>267.0</ele><time>2026-03-22T10:22:08Z</time></trkpt><trkpt lat="44.45280060984684" lon="11.12820462877294"><ele>267.0</ele><time>2026-03-22T10:22:09Z</time></trkpt><trkpt lat="44.452730532385644" lon="11.12810582563369"><ele>267.0</ele><time>2026-03-22T10:22:10Z</time></trkpt><trkpt lat="44.45265961136418" lon="11.128016790372186"><ele>267.0</ele><time>2026-03-22T10:22:11Z</time></trkpt><trkpt lat="44.45258348938575" lon="11.127953334901399"><ele>268.2</ele><time>2026-03-22T10:22:12Z</time></trkpt><trkpt lat="44.45250188084519" lon="11.127923888160453"><ele>269.4</ele><time>2026-03-22T10:22:13Z</time></trkpt><trkpt lat="44.45240804066022" lon="11.127928178007558"><ele>270.6</ele><time>2026-03-22T10:22:14Z</time></trkpt><trkpt lat="44.45229496957562" lon="11.127959111449307"><ele>271.8</ele><time>2026-03-22T10:22:15Z</time></trkpt><trkpt lat="44.45215946518652" lon="11.127972097636535"><ele>273.0</ele><time>2026-03-22T10:22:16Z</time></trkpt><trkpt lat="44.4520256874559" lon="11.128030108518557"><ele>274.75</ele><time>2026-03-22T10:22:17Z</time></trkpt><trkpt lat="44.45190330798048" lon="11.128103751055182"><ele>276.5</ele><time>2026-03-22T10:22:18Z</time></trkpt><trkpt lat="44.45177618941128" lon="11.128192718994912"><ele>278.25</ele><time>2026-03-22T10:22:19Z</time></trkpt><trkpt lat="44.451659506438226" lon="11.128264237862576"><ele>280.0</ele><time>2026-03-22T10:22:20Z</time></trkpt><trkpt lat="44.45155108752513" lon="11.128314884153017"><ele>277.0</ele><time>2026-03-22T10:22:21Z</time></trkpt><trkpt lat="44.451442511490384" lon="11.12834847252144"><ele>274.0</ele><time>2026-03-22T10:22:22Z</time></trkpt><trkpt lat="44.45131308648229" lon="11.128365771010618"><ele>271.0</ele><time>2026-03-22T10:22:23Z</time></trkpt><trkpt lat="44.451166166312824" lon="11.128378938474302"><ele>268.0</ele><time>2026-03-22T10:22:24Z</time></trkpt><trkpt lat="44.45100971175773" lon="11.128403895232326"><ele>268.0</ele><time>2026-03-22T10:22:25Z</time></trkpt><trkpt lat="44.450874923395176" lon="11.128428134015971"><ele>268.0</ele><time>2026-03-22T10:22:26Z</time></trkpt><trkpt lat="44.45075886816129" lon="11.128446836183025"><ele>268.0</ele><time>2026-03-22T10:22:27Z</time></trkpt><trkpt lat="44.45065034218061" lon="11.128459043502941"><ele>268.0</ele><time>2026-03-22T10:22:28Z</time></trkpt><trkpt lat="44.45053545720412" lon="11.128460816352764"><ele>268.25</ele><time>2026-03-22T10:22:29Z</time></trkpt><trkpt lat="44.45040330235598" lon="11.128444354564518"><ele>268.5</ele><time>2026-03-22T10:22:30Z</time></trkpt><trkpt lat="44.45027854513982" lon="11.128450656962368"><ele>268.75</ele><time>2026-03-22T10:22:31Z</time></trkpt><trkpt lat="44.450173938553064" lon="11.128435368466459"><ele>269.0</ele><time>2026-03-22T10:22:32Z</time></trkpt><trkpt lat="44.45008287756779" lon="11.128416348753053"><ele>269.0</ele><time>2026-03-22T10:22:33Z</time></trkpt><trkpt lat="44.45000129488802" lon="11.128392206473046"><ele>269.0</ele><time>2026-03-22T10:22:34Z</time></trkpt><trkpt lat="44.44991689844122" lon="11.128327444941187"><ele>269.0</ele><time>2026-03-22T10:22:35Z</time></trkpt><trkpt lat="44.44981363391458" lon="11.12824752075678"><ele>269.0</ele><time>2026-03-22T10:22:36Z</time></trkpt><trkpt lat="44.449692476898186" lon="11.128166084563304"><ele>269.0</ele><time>2026-03-22T10:22:37Z</time></trkpt><trkpt lat="44.44955425171057" lon="11.128097794382356"><ele>267.33333333333337</ele><time>2026-03-22T10:22:38Z</time></trkpt><trkpt lat="44.4494055636972" lon="11.128017927782052"><ele>265.6666666666667</ele><time>2026-03-22T10:22:39Z</time></trkpt><trkpt lat="44.44924915528856" lon="11.127938362197792"><ele>264.0</ele><time>2026-03-22T10:22:40Z</time></trkpt><trkpt lat="44.449093141908875" lon="11.127861859252688"><ele>264.0</ele><time>2026-03-22T10:22:41Z</time></trkpt><trkpt lat="44.448955409761716" lon="11.12779364241474"><ele>264.0</ele><time>2026-03-22T10:22:42Z</time></trkpt><trkpt lat="44.448829597882806" lon="11.127731862555509"><ele>264.0</ele><time>2026-03-22T10:22:43Z</time></trkpt><trkpt lat="44.44871862157861" lon="11.12764808527792"><ele>264.0</ele><time>2026-03-22T10:22:44Z</time></trkpt><trkpt lat="44.44860920742772" lon="11.127609269730712"><ele>264.8</ele><time>2026-03-22T10:22:45Z</time></trkpt><trkpt lat="44.44851497297963" lon="11.12755008813612"><ele>265.59999999999997</ele><time>2026-03-22T10:22:46Z</time></trkpt><trkpt lat="44.44843354420183" lon="11.127494428714401"><ele>266.4</ele><time>2026-03-22T10:22:46.999Z</time></trkpt><trkpt lat="44.44835709875357" lon="11.1274431681355"><ele>267.2</ele><time>2026-03-22T10:22:47.999Z</time></trkpt><trkpt lat="44.448272627812244" lon="11.12736847159987"><ele>268.0</ele><time>2026-03-22T10:22:48.999Z</time></trkpt><trkpt lat="44.44818592151587" lon="11.127268605808661"><ele>268.0</ele><time>2026-03-22T10:22:49.999Z</time></trkpt><trkpt lat="44.448099741810445" lon="11.127152976271296"><ele>268.0</ele><time>2026-03-22T10:22:50.999Z</time></trkpt><trkpt lat="44.44802742333512" lon="11.12704125103643"><ele>268.0</ele><time>2026-03-22T10:22:51.999Z</time></trkpt><trkpt lat="44.44794949537345" lon="11.126925781917757"><ele>268.0</ele><time>2026-03-22T10:22:52.999Z</time></trkpt><trkpt lat="44.447870938616816" lon="11.126807709541465"><ele>267.2</ele><time>2026-03-22T10:22:53.999Z</time></trkpt><trkpt lat="44.447800821587386" lon="11.126701092465854"><ele>266.4</ele><time>2026-03-22T10:22:54.999Z</time></trkpt><trkpt lat="44.44771544605032" lon="11.12661155868934"><ele>265.59999999999997</ele><time>2026-03-22T10:22:55.999Z</time></trkpt><trkpt lat="44.44763144133851" lon="11.126525103539873"><ele>264.8</ele><time>2026-03-22T10:22:56.999Z</time></trkpt><trkpt lat="44.44756067967111" lon="11.126430432233652"><ele>264.0</ele><time>2026-03-22T10:22:57.999Z</time></trkpt><trkpt lat="44.44748636966511" lon="11.126368575254315"><ele>263.5</ele><time>2026-03-22T10:22:58.999Z</time></trkpt><trkpt lat="44.447403248697796" lon="11.126341608448344"><ele>263.0</ele><time>2026-03-22T10:22:59.999Z</time></trkpt><trkpt lat="44.447334974159276" lon="11.126281072261166"><ele>262.5</ele><time>2026-03-22T10:23:00.999Z</time></trkpt><trkpt lat="44.447254911539964" lon="11.12625386170943"><ele>262.0</ele><time>2026-03-22T10:23:01.999Z</time></trkpt><trkpt lat="44.44718241147761" lon="11.126236455014215"><ele>261.5</ele><time>2026-03-22T10:23:02.999Z</time></trkpt><trkpt lat="44.44711060771667" lon="11.126219040441573"><ele>261.0</ele><time>2026-03-22T10:23:03.999Z</time></trkpt><trkpt lat="44.44703547214519" lon="11.126210263818061"><ele>261.0</ele><time>2026-03-22T10:23:04.999Z</time></trkpt><trkpt lat="44.44696227259569" lon="11.126162963558828"><ele>261.0</ele><time>2026-03-22T10:23:05.999Z</time></trkpt><trkpt lat="44.446889489921254" lon="11.126122904071647"><ele>261.0</ele><time>2026-03-22T10:23:06.999Z</time></trkpt><trkpt lat="44.4468173901952" lon="11.126082251458246"><ele>261.0</ele><time>2026-03-22T10:23:07.999Z</time></trkpt><trkpt lat="44.4467414402557" lon="11.126039400444805"><ele>261.0</ele><time>2026-03-22T10:23:08.999Z</time></trkpt><trkpt lat="44.446673101659584" lon="11.125996430032282"><ele>261.0</ele><time>2026-03-22T10:23:09.999Z</time></trkpt><trkpt lat="44.44661035965327" lon="11.125954784023472"><ele>261.0</ele><time>2026-03-22T10:23:10.999Z</time></trkpt><trkpt lat="44.446504973839275" lon="11.125910025904115"><ele>261.0</ele><time>2026-03-22T10:23:12.999Z</time></trkpt><trkpt lat="44.446421993153606" lon="11.125865757444004"><ele>261.0</ele><time>2026-03-22T10:23:14.999Z</time></trkpt><trkpt lat="44.44636500252059" lon="11.12574817067673"><ele>261.0</ele><time>2026-03-22T10:23:16.999Z</time></trkpt><trkpt lat="44.44631420311184" lon="11.125674940673218"><ele>261.0</ele><time>2026-03-22T10:23:18.999Z</time></trkpt><trkpt lat="44.44620441975468" lon="11.125611186328527"><ele>259.5</ele><time>2026-03-22T10:23:20.999Z</time></trkpt><trkpt lat="44.446133778361244" lon="11.125574502579903"><ele>258.0</ele><time>2026-03-22T10:23:21.999Z</time></trkpt><trkpt lat="44.44605709694003" lon="11.125548808868489"><ele>256.5</ele><time>2026-03-22T10:23:22.999Z</time></trkpt><trkpt lat="44.44597576005926" lon="11.125505056305833"><ele>255.0</ele><time>2026-03-22T10:23:23.999Z</time></trkpt><trkpt lat="44.44588179834424" lon="11.125465226819994"><ele>253.5</ele><time>2026-03-22T10:23:24.999Z</time></trkpt><trkpt lat="44.44578582137101" lon="11.12542215786552"><ele>252.0</ele><time>2026-03-22T10:23:25.999Z</time></trkpt><trkpt lat="44.4457116087157" lon="11.125393035265567"><ele>252.0</ele><time>2026-03-22T10:23:26.999Z</time></trkpt><trkpt lat="44.44564615793686" lon="11.12536750453863"><ele>252.0</ele><time>2026-03-22T10:23:27.999Z</time></trkpt><trkpt lat="44.44557904390589" lon="11.125319951104855"><ele>252.0</ele><time>2026-03-22T10:23:28.999Z</time></trkpt><trkpt lat="44.445500115644855" lon="11.125313377351404"><ele>252.0</ele><time>2026-03-22T10:23:29.999Z</time></trkpt><trkpt lat="44.44542294724595" lon="11.125282948096713"><ele>252.0</ele><time>2026-03-22T10:23:30.999Z</time></trkpt><trkpt lat="44.44534400345255" lon="11.125249512900828"><ele>252.0</ele><time>2026-03-22T10:23:31.999Z</time></trkpt><trkpt lat="44.44527234253542" lon="11.125228273465993"><ele>255.0</ele><time>2026-03-22T10:23:32.999Z</time></trkpt><trkpt lat="44.445173584581184" lon="11.125195232011686"><ele>258.0</ele><time>2026-03-22T10:23:34.999Z</time></trkpt><trkpt lat="44.44510402400985" lon="11.125181283694873"><ele>261.0</ele><time>2026-03-22T10:23:36.999Z</time></trkpt><trkpt lat="44.44503606867204" lon="11.125147138249735"><ele>264.0</ele><time>2026-03-22T10:23:39.999Z</time></trkpt><trkpt lat="44.4449597259137" lon="11.125141331013483"><ele>267.0</ele><time>2026-03-22T10:23:41.999Z</time></trkpt><trkpt lat="44.444839438558574" lon="11.125419805929882"><ele>267.0</ele><time>2026-03-22T10:23:44Z</time></trkpt><trkpt lat="44.44477260529486" lon="11.125479081769159"><ele>267.0</ele><time>2026-03-22T10:23:46Z</time></trkpt><trkpt lat="44.444802631535566" lon="11.125559660753243"><ele>267.0</ele><time>2026-03-22T10:23:51Z</time></trkpt><trkpt lat="44.444838516909435" lon="11.125466920856967"><ele>267.0</ele><time>2026-03-22T10:24:06Z</time></trkpt><trkpt lat="44.44488448077209" lon="11.125356994243786"><ele>267.0</ele><time>2026-03-22T10:24:09Z</time></trkpt><trkpt lat="44.444947910777564" lon="11.125276118471897"><ele>267.0</ele><time>2026-03-22T10:24:11Z</time></trkpt><trkpt lat="44.44501639474006" lon="11.125201377366805"><ele>267.0</ele><time>2026-03-22T10:24:13Z</time></trkpt><trkpt lat="44.4451075679178" lon="11.125169111045388"><ele>267.0</ele><time>2026-03-22T10:24:15Z</time></trkpt><trkpt lat="44.44519885028648" lon="11.125243020286042"><ele>267.0</ele><time>2026-03-22T10:24:17Z</time></trkpt><trkpt lat="44.44531625046623" lon="11.125269425717988"><ele>267.0</ele><time>2026-03-22T10:24:19Z</time></trkpt><trkpt lat="44.44538250922481" lon="11.125299664409205"><ele>267.0</ele><time>2026-03-22T10:24:20Z</time></trkpt><trkpt lat="44.445464038557944" lon="11.12532632833006"><ele>264.5</ele><time>2026-03-22T10:24:21Z</time></trkpt><trkpt lat="44.445552695115836" lon="11.12533988093777"><ele>262.0</ele><time>2026-03-22T10:24:22Z</time></trkpt><trkpt lat="44.44562792314597" lon="11.125371808473522"><ele>259.5</ele><time>2026-03-22T10:24:23Z</time></trkpt><trkpt lat="44.44570685122092" lon="11.125402881406256"><ele>257.0</ele><time>2026-03-22T10:24:24Z</time></trkpt><trkpt lat="44.44578888989372" lon="11.12543662936137"><ele>254.5</ele><time>2026-03-22T10:24:25Z</time></trkpt><trkpt lat="44.44587113961891" lon="11.125475324000382"><ele>252.0</ele><time>2026-03-22T10:24:26Z</time></trkpt><trkpt lat="44.445950221791755" lon="11.125510882237926"><ele>252.0</ele><time>2026-03-22T10:24:27Z</time></trkpt><trkpt lat="44.446019339407854" lon="11.125559832750056"><ele>252.0</ele><time>2026-03-22T10:24:28Z</time></trkpt><trkpt lat="44.44609063576774" lon="11.125571174822644"><ele>252.0</ele><time>2026-03-22T10:24:29Z</time></trkpt><trkpt lat="44.44614950812739" lon="11.12562508197171"><ele>252.0</ele><time>2026-03-22T10:24:30Z</time></trkpt><trkpt lat="44.44624959316628" lon="11.125685327598227"><ele>252.0</ele><time>2026-03-22T10:24:32Z</time></trkpt><trkpt lat="44.44632032989821" lon="11.125754600783777"><ele>252.0</ele><time>2026-03-22T10:24:34Z</time></trkpt><trkpt lat="44.446362012146125" lon="11.12584990424968"><ele>250.83333333333334</ele><time>2026-03-22T10:24:36Z</time></trkpt><trkpt lat="44.44640177066274" lon="11.125931108860309"><ele>249.66666666666669</ele><time>2026-03-22T10:24:39Z</time></trkpt><trkpt lat="44.44646945260753" lon="11.125869536017394"><ele>248.5</ele><time>2026-03-22T10:24:48.999Z</time></trkpt><trkpt lat="44.44640501368567" lon="11.125905693106619"><ele>247.33333333333334</ele><time>2026-03-22T10:24:54.999Z</time></trkpt><trkpt lat="44.446354128218154" lon="11.125852155272367"><ele>246.16666666666669</ele><time>2026-03-22T10:24:57.999Z</time></trkpt><trkpt lat="44.44630301285414" lon="11.125691452469983"><ele>245.0</ele><time>2026-03-22T10:24:59.999Z</time></trkpt><trkpt lat="44.446470763253" lon="11.125772005974213"><ele>246.75</ele><time>2026-03-22T10:25:01.999Z</time></trkpt><trkpt lat="44.44628378426388" lon="11.12547603354558"><ele>248.5</ele><time>2026-03-22T10:25:02.999Z</time></trkpt><trkpt lat="44.44623163808165" lon="11.125391123316748"><ele>250.25</ele><time>2026-03-22T10:25:05.999Z</time></trkpt><trkpt lat="44.446179674541625" lon="11.125330620552495"><ele>252.0</ele><time>2026-03-22T10:25:23.999Z</time></trkpt><trkpt lat="44.44611360578164" lon="11.125309773619929"><ele>252.0</ele><time>2026-03-22T10:25:52Z</time></trkpt><trkpt lat="44.44620047568607" lon="11.125358759674153"><ele>252.0</ele><time>2026-03-22T10:35:36Z</time></trkpt><trkpt lat="44.446256092915284" lon="11.12541560444677"><ele>252.0</ele><time>2026-03-22T10:35:39Z</time></trkpt><trkpt lat="44.446300266316754" lon="11.125487202564486"><ele>252.0</ele><time>2026-03-22T10:35:41Z</time></trkpt><trkpt lat="44.44637285321541" lon="11.125628470658059"><ele>252.0</ele><time>2026-03-22T10:35:43Z</time></trkpt><trkpt lat="44.4463230896401" lon="11.125761668572153"><ele>252.0</ele><time>2026-03-22T10:35:44Z</time></trkpt><trkpt lat="44.4463570517229" lon="11.125838375616118"><ele>252.0</ele><time>2026-03-22T10:35:46Z</time></trkpt><trkpt lat="44.44639575390727" lon="11.125918512020801"><ele>252.0</ele><time>2026-03-22T10:35:48Z</time></trkpt><trkpt lat="44.44647614176314" lon="11.125873113436539"><ele>252.0</ele><time>2026-03-22T10:36:01Z</time></trkpt><trkpt lat="44.446453387007296" lon="11.125956587799413"><ele>252.0</ele><time>2026-03-22T10:36:02Z</time></trkpt><trkpt lat="44.44641389697402" lon="11.125873730325194"><ele>252.0</ele><time>2026-03-22T10:36:11Z</time></trkpt><trkpt lat="44.44635807195033" lon="11.125805675168726"><ele>252.0</ele><time>2026-03-22T10:36:14Z</time></trkpt><trkpt lat="44.44628920783522" lon="11.12566092080788"><ele>252.0</ele><time>2026-03-22T10:36:17Z</time></trkpt><trkpt lat="44.446242548162715" lon="11.125550418892884"><ele>252.0</ele><time>2026-03-22T10:36:20Z</time></trkpt><trkpt lat="44.44614765682479" lon="11.125576983923292"><ele>252.0</ele><time>2026-03-22T10:36:21Z</time></trkpt><trkpt lat="44.44606280609392" lon="11.125570845138306"><ele>252.0</ele><time>2026-03-22T10:36:23Z</time></trkpt><trkpt lat="44.44595080587588" lon="11.125525249172323"><ele>252.0</ele><time>2026-03-22T10:36:25Z</time></trkpt><trkpt lat="44.44588947929181" lon="11.125494709753333"><ele>252.0</ele><time>2026-03-22T10:36:26Z</time></trkpt><trkpt lat="44.4458279067145" lon="11.125473194287743"><ele>252.0</ele><time>2026-03-22T10:36:27Z</time></trkpt><trkpt lat="44.445713873293876" lon="11.125421583690795"><ele>252.0</ele><time>2026-03-22T10:36:29Z</time></trkpt><trkpt lat="44.445605962004365" lon="11.125377991480345"><ele>252.0</ele><time>2026-03-22T10:36:31Z</time></trkpt><trkpt lat="44.44551760138633" lon="11.125316157644502"><ele>252.0</ele><time>2026-03-22T10:36:33Z</time></trkpt><trkpt lat="44.44540651288564" lon="11.125306474392707"><ele>255.0</ele><time>2026-03-22T10:36:58Z</time></trkpt><trkpt lat="44.445325851665295" lon="11.125251839426596"><ele>258.0</ele><time>2026-03-22T10:37:00Z</time></trkpt><trkpt lat="44.44521453773003" lon="11.12519112642524"><ele>261.0</ele><time>2026-03-22T10:37:02Z</time></trkpt><trkpt lat="44.44510615282948" lon="11.12518777923281"><ele>264.0</ele><time>2026-03-22T10:37:04Z</time></trkpt><trkpt lat="44.44501383439424" lon="11.1252356867382"><ele>267.0</ele><time>2026-03-22T10:37:06Z</time></trkpt><trkpt lat="44.444917611193894" lon="11.125332493900641"><ele>267.0</ele><time>2026-03-22T10:37:08Z</time></trkpt><trkpt lat="44.444837780434376" lon="11.125458586914506"><ele>267.0</ele><time>2026-03-22T10:37:10Z</time></trkpt><trkpt lat="44.444760394500605" lon="11.12552174119815"><ele>267.0</ele><time>2026-03-22T10:37:12Z</time></trkpt><trkpt lat="44.44468869152318" lon="11.125539700873318"><ele>267.0</ele><time>2026-03-22T10:37:14Z</time></trkpt><trkpt lat="44.44461383402175" lon="11.125549114756721"><ele>267.0</ele><time>2026-03-22T10:37:17Z</time></trkpt><trkpt lat="44.44454242343586" lon="11.125577299191152"><ele>267.0</ele><time>2026-03-22T10:37:19Z</time></trkpt><trkpt lat="44.44447394190376" lon="11.125582659563086"><ele>267.2</ele><time>2026-03-22T10:37:23Z</time></trkpt><trkpt lat="44.44441081509926" lon="11.125588286202692"><ele>267.4</ele><time>2026-03-22T10:37:24Z</time></trkpt><trkpt lat="44.44430095198897" lon="11.1255775275595"><ele>267.6</ele><time>2026-03-22T10:37:26Z</time></trkpt><trkpt lat="44.444185746878176" lon="11.125589807433741"><ele>267.8</ele><time>2026-03-22T10:37:28Z</time></trkpt><trkpt lat="44.44409426629379" lon="11.125639018284176"><ele>268.0</ele><time>2026-03-22T10:37:30Z</time></trkpt><trkpt lat="44.444011646456595" lon="11.12573148876307"><ele>269.2</ele><time>2026-03-22T10:37:32Z</time></trkpt><trkpt lat="44.44394475155775" lon="11.12577357822618"><ele>270.4</ele><time>2026-03-22T10:37:34Z</time></trkpt><trkpt lat="44.44384018967477" lon="11.12581267186791"><ele>271.59999999999997</ele><time>2026-03-22T10:37:36Z</time></trkpt><trkpt lat="44.443762390051305" lon="11.125833522271826"><ele>272.8</ele><time>2026-03-22T10:37:37Z</time></trkpt><trkpt lat="44.44367470298197" lon="11.125864949208077"><ele>274.0</ele><time>2026-03-22T10:37:38Z</time></trkpt><trkpt lat="44.44356737173337" lon="11.125899382909934"><ele>276.75</ele><time>2026-03-22T10:37:39Z</time></trkpt><trkpt lat="44.44345033721767" lon="11.125937014448978"><ele>279.5</ele><time>2026-03-22T10:37:40Z</time></trkpt><trkpt lat="44.44332180857336" lon="11.12598786191229"><ele>282.25</ele><time>2026-03-22T10:37:41Z</time></trkpt><trkpt lat="44.443221802460926" lon="11.126034657101965"><ele>285.0</ele><time>2026-03-22T10:37:42Z</time></trkpt><trkpt lat="44.443122236711616" lon="11.126075375420687"><ele>285.0</ele><time>2026-03-22T10:37:44Z</time></trkpt><trkpt lat="44.443026234721295" lon="11.126113230890578"><ele>285.0</ele><time>2026-03-22T10:37:46Z</time></trkpt><trkpt lat="44.44290763327105" lon="11.126145608273347"><ele>285.0</ele><time>2026-03-22T10:37:48Z</time></trkpt><trkpt lat="44.442792352510594" lon="11.126128755039337"><ele>285.0</ele><time>2026-03-22T10:37:50Z</time></trkpt><trkpt lat="44.442664330578246" lon="11.126140752534017"><ele>287.8333333333333</ele><time>2026-03-22T10:37:52Z</time></trkpt><trkpt lat="44.44259640486909" lon="11.126154538025412"><ele>290.6666666666667</ele><time>2026-03-22T10:37:53Z</time></trkpt><trkpt lat="44.44253284686469" lon="11.126155486066155"><ele>293.5</ele><time>2026-03-22T10:37:54Z</time></trkpt><trkpt lat="44.44244258992532" lon="11.12613847979055"><ele>296.33333333333337</ele><time>2026-03-22T10:37:56Z</time></trkpt><trkpt lat="44.442367905409135" lon="11.126082228281655"><ele>299.1666666666667</ele><time>2026-03-22T10:38:13Z</time></trkpt><trkpt lat="44.44226523411465" lon="11.126132502383456"><ele>302.0</ele><time>2026-03-22T10:38:16Z</time></trkpt><trkpt lat="44.44217432440271" lon="11.126228639407673"><ele>300.6</ele><time>2026-03-22T10:38:18Z</time></trkpt><trkpt lat="44.44209654136324" lon="11.126301536453186"><ele>299.2</ele><time>2026-03-22T10:38:20Z</time></trkpt><trkpt lat="44.442008468461616" lon="11.12632943855458"><ele>297.8</ele><time>2026-03-22T10:38:23Z</time></trkpt><trkpt lat="44.44192029109941" lon="11.126334911783239"><ele>296.4</ele><time>2026-03-22T10:38:26Z</time></trkpt><trkpt lat="44.4418455465993" lon="11.126361583398758"><ele>295.0</ele><time>2026-03-22T10:38:28Z</time></trkpt><trkpt lat="44.44174031480626" lon="11.126406118991166"><ele>295.0</ele><time>2026-03-22T10:38:30Z</time></trkpt><trkpt lat="44.44167814216169" lon="11.126428487178217"><ele>295.0</ele><time>2026-03-22T10:38:31Z</time></trkpt><trkpt lat="44.44157679753273" lon="11.126450680827906"><ele>295.0</ele><time>2026-03-22T10:38:33Z</time></trkpt><trkpt lat="44.44145664075772" lon="11.12641604242728"><ele>295.0</ele><time>2026-03-22T10:38:35Z</time></trkpt><trkpt lat="44.441387172645534" lon="11.126398569342431"><ele>295.0</ele><time>2026-03-22T10:38:36Z</time></trkpt><trkpt lat="44.44132363163683" lon="11.126390854233591"><ele>295.0</ele><time>2026-03-22T10:38:37Z</time></trkpt><trkpt lat="44.44123186154607" lon="11.126350312216442"><ele>293.8</ele><time>2026-03-22T10:38:39Z</time></trkpt><trkpt lat="44.44114356989732" lon="11.126287700238674"><ele>292.6</ele><time>2026-03-22T10:38:41Z</time></trkpt><trkpt lat="44.44106683041966" lon="11.126250535940846"><ele>291.4</ele><time>2026-03-22T10:38:43Z</time></trkpt><trkpt lat="44.440992256246446" lon="11.126227911318303"><ele>290.2</ele><time>2026-03-22T10:38:45Z</time></trkpt><trkpt lat="44.44087726464806" lon="11.126192965873773"><ele>289.0</ele><time>2026-03-22T10:38:47Z</time></trkpt><trkpt lat="44.44075322634922" lon="11.126170583304235"><ele>289.0</ele><time>2026-03-22T10:38:49Z</time></trkpt><trkpt lat="44.4406106709557" lon="11.126184491037394"><ele>289.0</ele><time>2026-03-22T10:38:51Z</time></trkpt><trkpt lat="44.44054006331844" lon="11.126203252169525"><ele>289.0</ele><time>2026-03-22T10:38:52Z</time></trkpt><trkpt lat="44.44044500602977" lon="11.12623693155922"><ele>289.0</ele><time>2026-03-22T10:38:54Z</time></trkpt><trkpt lat="44.44032239764851" lon="11.126327332195132"><ele>287.0</ele><time>2026-03-22T10:38:56Z</time></trkpt><trkpt lat="44.44025919962151" lon="11.126369461828698"><ele>285.0</ele><time>2026-03-22T10:38:57Z</time></trkpt><trkpt lat="44.44014586952658" lon="11.126412803373242"><ele>283.0</ele><time>2026-03-22T10:38:59Z</time></trkpt><trkpt lat="44.44002389258991" lon="11.126447402477798"><ele>281.0</ele><time>2026-03-22T10:39:01Z</time></trkpt><trkpt lat="44.43995871409928" lon="11.126465968883721"><ele>279.0</ele><time>2026-03-22T10:39:02Z</time></trkpt><trkpt lat="44.43988636992572" lon="11.126484079147035"><ele>279.0</ele><time>2026-03-22T10:39:03Z</time></trkpt><trkpt lat="44.43981595756698" lon="11.126504936507095"><ele>279.0</ele><time>2026-03-22T10:39:04Z</time></trkpt><trkpt lat="44.439729716237935" lon="11.126528605555388"><ele>279.0</ele><time>2026-03-22T10:39:05Z</time></trkpt><trkpt lat="44.43964861987" lon="11.126551737202242"><ele>279.0</ele><time>2026-03-22T10:39:06Z</time></trkpt><trkpt lat="44.43957300785668" lon="11.12657550270802"><ele>279.0</ele><time>2026-03-22T10:39:07Z</time></trkpt><trkpt lat="44.43943844352759" lon="11.12661273311782"><ele>280.2</ele><time>2026-03-22T10:39:09Z</time></trkpt><trkpt lat="44.4393394612767" lon="11.126644405802615"><ele>281.4</ele><time>2026-03-22T10:39:10Z</time></trkpt><trkpt lat="44.439243339712746" lon="11.12667576152595"><ele>282.6</ele><time>2026-03-22T10:39:11Z</time></trkpt><trkpt lat="44.43913876302786" lon="11.126713103143091"><ele>283.8</ele><time>2026-03-22T10:39:12Z</time></trkpt><trkpt lat="44.43902204179549" lon="11.12675354539664"><ele>285.0</ele><time>2026-03-22T10:39:13Z</time></trkpt><trkpt lat="44.43893478422066" lon="11.12678552116359"><ele>285.0</ele><time>2026-03-22T10:39:14Z</time></trkpt><trkpt lat="44.438870012220065" lon="11.126814551628"><ele>285.0</ele><time>2026-03-22T10:39:15Z</time></trkpt><trkpt lat="44.438771394910894" lon="11.126859436643379"><ele>285.0</ele><time>2026-03-22T10:39:17Z</time></trkpt><trkpt lat="44.43865310792314" lon="11.126935860286013"><ele>285.0</ele><time>2026-03-22T10:39:19Z</time></trkpt><trkpt lat="44.438587814609306" lon="11.126986986636194"><ele>285.0</ele><time>2026-03-22T10:39:20Z</time></trkpt><trkpt lat="44.43852722483022" lon="11.127038522668137"><ele>285.0</ele><time>2026-03-22T10:39:21Z</time></trkpt><trkpt lat="44.438457508223145" lon="11.127096394352055"><ele>284.5</ele><time>2026-03-22T10:39:22Z</time></trkpt><trkpt lat="44.43839243949258" lon="11.127151853621832"><ele>284.0</ele><time>2026-03-22T10:39:23Z</time></trkpt><trkpt lat="44.438326748386125" lon="11.127203485565433"><ele>283.5</ele><time>2026-03-22T10:39:24Z</time></trkpt><trkpt lat="44.43822084221059" lon="11.127270217642156"><ele>283.0</ele><time>2026-03-22T10:39:26Z</time></trkpt><trkpt lat="44.43815096328891" lon="11.127328172217426"><ele>282.5</ele><time>2026-03-22T10:39:28Z</time></trkpt><trkpt lat="44.43811419996856" lon="11.127403537304192"><ele>282.0</ele><time>2026-03-22T10:39:31Z</time></trkpt><trkpt lat="44.43809547180483" lon="11.127538928287096"><ele>281.6666666666667</ele><time>2026-03-22T10:39:34Z</time></trkpt><trkpt lat="44.4380931222453" lon="11.12766199208544"><ele>281.3333333333333</ele><time>2026-03-22T10:39:36Z</time></trkpt><trkpt lat="44.43807013729579" lon="11.127746572697253"><ele>281.0</ele><time>2026-03-22T10:39:40Z</time></trkpt><trkpt lat="44.437997444004324" lon="11.127754385267117"><ele>280.66666666666663</ele><time>2026-03-22T10:39:56Z</time></trkpt><trkpt lat="44.43794172098346" lon="11.127673994259096"><ele>280.3333333333333</ele><time>2026-03-22T10:39:58Z</time></trkpt><trkpt lat="44.43785983771049" lon="11.127647696067001"><ele>280.0</ele><time>2026-03-22T10:40:01Z</time></trkpt><trkpt lat="44.43775789087241" lon="11.127696318096996"><ele>280.0</ele><time>2026-03-22T10:40:03Z</time></trkpt><trkpt lat="44.43770083824011" lon="11.127736412746883"><ele>280.0</ele><time>2026-03-22T10:40:04Z</time></trkpt><trkpt lat="44.43759125759249" lon="11.127783714509023"><ele>280.0</ele><time>2026-03-22T10:40:06Z</time></trkpt><trkpt lat="44.43746915133895" lon="11.127808325658604"><ele>280.0</ele><time>2026-03-22T10:40:08Z</time></trkpt><trkpt lat="44.4373517520666" lon="11.127819582229401"><ele>280.0</ele><time>2026-03-22T10:40:10Z</time></trkpt><trkpt lat="44.43723026289599" lon="11.12784590286963"><ele>280.0</ele><time>2026-03-22T10:40:12Z</time></trkpt><trkpt lat="44.43714173762921" lon="11.127873117634534"><ele>280.0</ele><time>2026-03-22T10:40:14Z</time></trkpt><trkpt lat="44.43704563098188" lon="11.127900981530301"><ele>280.0</ele><time>2026-03-22T10:40:17Z</time></trkpt><trkpt lat="44.43698297231978" lon="11.127845611594362"><ele>280.0</ele><time>2026-03-22T10:40:18Z</time></trkpt><trkpt lat="44.43691796452554" lon="11.127837312821747"><ele>280.0</ele><time>2026-03-22T10:40:43Z</time></trkpt><trkpt lat="44.43690484406609" lon="11.127724040342613"><ele>280.0</ele><time>2026-03-22T10:40:44Z</time></trkpt><trkpt lat="44.43686311621105" lon="11.127632464648004"><ele>279.8333333333333</ele><time>2026-03-22T10:40:45Z</time></trkpt><trkpt lat="44.4368170512665" lon="11.127533872631789"><ele>279.66666666666663</ele><time>2026-03-22T10:40:46Z</time></trkpt><trkpt lat="44.436774982903785" lon="11.127438915818557"><ele>279.5</ele><time>2026-03-22T10:40:47Z</time></trkpt><trkpt lat="44.43672264973344" lon="11.127345904505816"><ele>279.3333333333333</ele><time>2026-03-22T10:40:48Z</time></trkpt><trkpt lat="44.436672866814355" lon="11.127243644908043"><ele>279.1666666666667</ele><time>2026-03-22T10:40:49Z</time></trkpt><trkpt lat="44.436628458075745" lon="11.127154618114217"><ele>279.0</ele><time>2026-03-22T10:40:50Z</time></trkpt><trkpt lat="44.43657915276195" lon="11.127061576425783"><ele>276.0</ele><time>2026-03-22T10:40:51Z</time></trkpt><trkpt lat="44.436537147177596" lon="11.126977602508262"><ele>273.0</ele><time>2026-03-22T10:40:52Z</time></trkpt><trkpt lat="44.436498519553645" lon="11.126870572997761"><ele>270.0</ele><time>2026-03-22T10:40:53Z</time></trkpt><trkpt lat="44.436443531257304" lon="11.126742751253408"><ele>267.0</ele><time>2026-03-22T10:40:54Z</time></trkpt><trkpt lat="44.436391884695034" lon="11.126635289915068"><ele>264.0</ele><time>2026-03-22T10:40:55Z</time></trkpt><trkpt lat="44.43634391755173" lon="11.126521825696093"><ele>263.0</ele><time>2026-03-22T10:40:56Z</time></trkpt><trkpt lat="44.43627587662223" lon="11.126382010753055"><ele>262.0</ele><time>2026-03-22T10:40:57Z</time></trkpt><trkpt lat="44.43621062799146" lon="11.126245922254887"><ele>261.0</ele><time>2026-03-22T10:40:58Z</time></trkpt><trkpt lat="44.43615005205221" lon="11.126111455186713"><ele>260.0</ele><time>2026-03-22T10:40:59Z</time></trkpt><trkpt lat="44.436088163154565" lon="11.125982317692056"><ele>260.0</ele><time>2026-03-22T10:41:00Z</time></trkpt><trkpt lat="44.43602223164071" lon="11.125850954493854"><ele>260.0</ele><time>2026-03-22T10:41:01Z</time></trkpt><trkpt lat="44.4359553315344" lon="11.125721286767567"><ele>260.0</ele><time>2026-03-22T10:41:02Z</time></trkpt><trkpt lat="44.435882103476715" lon="11.125579099679099"><ele>260.0</ele><time>2026-03-22T10:41:03Z</time></trkpt><trkpt lat="44.43581359197944" lon="11.125439494857348"><ele>256.5</ele><time>2026-03-22T10:41:04Z</time></trkpt><trkpt lat="44.43574472069733" lon="11.125303754847998"><ele>253.0</ele><time>2026-03-22T10:41:05Z</time></trkpt><trkpt lat="44.43568049349403" lon="11.125175006435056"><ele>249.5</ele><time>2026-03-22T10:41:06Z</time></trkpt><trkpt lat="44.435619554337926" lon="11.125044626478385"><ele>246.0</ele><time>2026-03-22T10:41:07Z</time></trkpt><trkpt lat="44.43555991081337" lon="11.12491237193863"><ele>247.4</ele><time>2026-03-22T10:41:08Z</time></trkpt><trkpt lat="44.43549725868782" lon="11.12478446353913"><ele>248.8</ele><time>2026-03-22T10:41:09Z</time></trkpt><trkpt lat="44.435430371970845" lon="11.124657643453197"><ele>250.20000000000002</ele><time>2026-03-22T10:41:10Z</time></trkpt><trkpt lat="44.43536468859262" lon="11.124537031027875"><ele>251.60000000000002</ele><time>2026-03-22T10:41:11Z</time></trkpt><trkpt lat="44.43529972670772" lon="11.124403923161857"><ele>253.0</ele><time>2026-03-22T10:41:12Z</time></trkpt><trkpt lat="44.43522956887803" lon="11.124252833350832"><ele>253.0</ele><time>2026-03-22T10:41:13Z</time></trkpt><trkpt lat="44.435160213011315" lon="11.124111053275769"><ele>253.0</ele><time>2026-03-22T10:41:14Z</time></trkpt><trkpt lat="44.43509228339211" lon="11.123975305594797"><ele>253.0</ele><time>2026-03-22T10:41:15Z</time></trkpt><trkpt lat="44.43503377727812" lon="11.123844881973296"><ele>253.0</ele><time>2026-03-22T10:41:16Z</time></trkpt><trkpt lat="44.43498558321479" lon="11.123716491975037"><ele>249.83333333333331</ele><time>2026-03-22T10:41:17Z</time></trkpt><trkpt lat="44.43494828049563" lon="11.123590541151774"><ele>246.66666666666666</ele><time>2026-03-22T10:41:18Z</time></trkpt><trkpt lat="44.43492105738751" lon="11.123466824750064"><ele>243.5</ele><time>2026-03-22T10:41:19Z</time></trkpt><trkpt lat="44.434896541024024" lon="11.123346345427546"><ele>240.33333333333331</ele><time>2026-03-22T10:41:20Z</time></trkpt><trkpt lat="44.43486812409847" lon="11.12323108713903"><ele>237.16666666666666</ele><time>2026-03-22T10:41:21Z</time></trkpt><trkpt lat="44.43485705914486" lon="11.123128497357563"><ele>234.0</ele><time>2026-03-22T10:41:22Z</time></trkpt><trkpt lat="44.434842070199615" lon="11.123034691266824"><ele>232.33333333333334</ele><time>2026-03-22T10:41:23Z</time></trkpt><trkpt lat="44.43483358391178" lon="11.122918705348573"><ele>230.66666666666669</ele><time>2026-03-22T10:41:25Z</time></trkpt><trkpt lat="44.434769850330625" lon="11.122838779158878"><ele>229.0</ele><time>2026-03-22T10:41:27Z</time></trkpt><trkpt lat="44.43470916779225" lon="11.122801135705988"><ele>227.33333333333334</ele><time>2026-03-22T10:41:28Z</time></trkpt><trkpt lat="44.43464308119101" lon="11.122786701423694"><ele>225.66666666666669</ele><time>2026-03-22T10:41:29Z</time></trkpt><trkpt lat="44.43457031913551" lon="11.122752827966952"><ele>224.0</ele><time>2026-03-22T10:41:30Z</time></trkpt><trkpt lat="44.43447064849363" lon="11.122752518454002"><ele>223.39999999999998</ele><time>2026-03-22T10:41:31Z</time></trkpt><trkpt lat="44.43437450066894" lon="11.12275370118435"><ele>222.79999999999998</ele><time>2026-03-22T10:41:32Z</time></trkpt><trkpt lat="44.43427727075583" lon="11.122754897225755"><ele>222.20000000000002</ele><time>2026-03-22T10:41:33Z</time></trkpt><trkpt lat="44.4341738152496" lon="11.122756169849476"><ele>221.60000000000002</ele><time>2026-03-22T10:41:34Z</time></trkpt><trkpt lat="44.434072199483126" lon="11.12275545707179"><ele>221.0</ele><time>2026-03-22T10:41:35Z</time></trkpt><trkpt lat="44.433966474621876" lon="11.12275086331539"><ele>221.0</ele><time>2026-03-22T10:41:36Z</time></trkpt><trkpt lat="44.43385769343306" lon="11.12274613675862"><ele>221.00000000000003</ele><time>2026-03-22T10:41:37Z</time></trkpt><trkpt lat="44.43375523639587" lon="11.1227411688617"><ele>221.00000000000003</ele><time>2026-03-22T10:41:38Z</time></trkpt><trkpt lat="44.433654637272824" lon="11.122734208774913"><ele>221.0</ele><time>2026-03-22T10:41:39Z</time></trkpt><trkpt lat="44.43356324716043" lon="11.122743735937725"><ele>221.0</ele><time>2026-03-22T10:41:40Z</time></trkpt><trkpt lat="44.43347700596463" lon="11.122714648211225"><ele>220.60000000000002</ele><time>2026-03-22T10:41:41Z</time></trkpt><trkpt lat="44.43340369993059" lon="11.122654499973816"><ele>220.20000000000002</ele><time>2026-03-22T10:41:42Z</time></trkpt><trkpt lat="44.43334595231057" lon="11.122550300482065"><ele>219.79999999999998</ele><time>2026-03-22T10:41:43Z</time></trkpt><trkpt lat="44.43330116672106" lon="11.122409980666403"><ele>219.39999999999998</ele><time>2026-03-22T10:41:44Z</time></trkpt><trkpt lat="44.43326237132613" lon="11.122266193018689"><ele>219.0</ele><time>2026-03-22T10:41:45Z</time></trkpt><trkpt lat="44.4332183697828" lon="11.12213966137259"><ele>215.79999999999998</ele><time>2026-03-22T10:41:46Z</time></trkpt><trkpt lat="44.43316617414633" lon="11.122027967071512"><ele>212.59999999999997</ele><time>2026-03-22T10:41:47Z</time></trkpt><trkpt lat="44.433116823759484" lon="11.121920539198808"><ele>209.4</ele><time>2026-03-22T10:41:48Z</time></trkpt><trkpt lat="44.43307817105613" lon="11.121811870695767"><ele>206.2</ele><time>2026-03-22T10:41:49Z</time></trkpt><trkpt lat="44.43304274566205" lon="11.121704191777814"><ele>203.0</ele><time>2026-03-22T10:41:50Z</time></trkpt><trkpt lat="44.433053847821796" lon="11.121571310010726"><ele>201.50000000000003</ele><time>2026-03-22T10:41:51Z</time></trkpt><trkpt lat="44.43305484795666" lon="11.121444505826377"><ele>200.0</ele><time>2026-03-22T10:41:52Z</time></trkpt><trkpt lat="44.43305925000163" lon="11.1213186802142"><ele>198.5</ele><time>2026-03-22T10:41:53Z</time></trkpt><trkpt lat="44.433069513699714" lon="11.121200858306793"><ele>197.0</ele><time>2026-03-22T10:41:54Z</time></trkpt><trkpt lat="44.43307065804326" lon="11.121083507026862"><ele>195.50000000000003</ele><time>2026-03-22T10:41:55Z</time></trkpt><trkpt lat="44.4330774474887" lon="11.12097690187101"><ele>194.0</ele><time>2026-03-22T10:41:56Z</time></trkpt><trkpt lat="44.433065486523034" lon="11.120881679518254"><ele>194.00000000000003</ele><time>2026-03-22T10:41:57Z</time></trkpt><trkpt lat="44.433068970896045" lon="11.120732870736845"><ele>194.0</ele><time>2026-03-22T10:41:59Z</time></trkpt><trkpt lat="44.433071485829075" lon="11.120628948885086"><ele>194.0</ele><time>2026-03-22T10:42:01Z</time></trkpt><trkpt lat="44.43306320910108" lon="11.120541166645157"><ele>194.0</ele><time>2026-03-22T10:42:18Z</time></trkpt><trkpt lat="44.43295625726532" lon="11.120519114182347"><ele>194.00000000000003</ele><time>2026-03-22T10:42:20Z</time></trkpt><trkpt lat="44.432873548985064" lon="11.120529195525963"><ele>194.0</ele><time>2026-03-22T10:42:21Z</time></trkpt><trkpt lat="44.43277680148285" lon="11.120541609957831"><ele>193.0</ele><time>2026-03-22T10:42:22Z</time></trkpt><trkpt lat="44.43265914149893" lon="11.120557946948141"><ele>192.0</ele><time>2026-03-22T10:42:23Z</time></trkpt><trkpt lat="44.43253366909605" lon="11.120575368679559"><ele>191.0</ele><time>2026-03-22T10:42:24Z</time></trkpt><trkpt lat="44.43242235387219" lon="11.120590824696576"><ele>190.0</ele><time>2026-03-22T10:42:25Z</time></trkpt><trkpt lat="44.43232575778245" lon="11.120604236958089"><ele>190.0</ele><time>2026-03-22T10:42:26Z</time></trkpt><trkpt lat="44.432226051386955" lon="11.120618081100314"><ele>190.0</ele><time>2026-03-22T10:42:27Z</time></trkpt><trkpt lat="44.43210464915415" lon="11.120633044356138"><ele>190.0</ele><time>2026-03-22T10:42:28Z</time></trkpt><trkpt lat="44.431983888570436" lon="11.12064702146291"><ele>190.0</ele><time>2026-03-22T10:42:29Z</time></trkpt><trkpt lat="44.431858685714815" lon="11.120661512807356"><ele>190.8</ele><time>2026-03-22T10:42:30Z</time></trkpt><trkpt lat="44.431734059311985" lon="11.120685083247563"><ele>191.6</ele><time>2026-03-22T10:42:31Z</time></trkpt><trkpt lat="44.43162820979483" lon="11.120712941501342"><ele>192.39999999999998</ele><time>2026-03-22T10:42:32Z</time></trkpt><trkpt lat="44.43152880474804" lon="11.120733404634294"><ele>193.2</ele><time>2026-03-22T10:42:33Z</time></trkpt><trkpt lat="44.43143961662254" lon="11.120745248781995"><ele>194.0</ele><time>2026-03-22T10:42:34Z</time></trkpt><trkpt lat="44.431358422665895" lon="11.120715171461052"><ele>194.39999999999998</ele><time>2026-03-22T10:42:35Z</time></trkpt><trkpt lat="44.43128050466848" lon="11.120674474968997"><ele>194.8</ele><time>2026-03-22T10:42:36Z</time></trkpt><trkpt lat="44.43119315100529" lon="11.120621855792926"><ele>195.2</ele><time>2026-03-22T10:42:37Z</time></trkpt><trkpt lat="44.43110234936543" lon="11.120563267373809"><ele>195.60000000000002</ele><time>2026-03-22T10:42:38Z</time></trkpt><trkpt lat="44.4310045729131" lon="11.120492508103485"><ele>196.0</ele><time>2026-03-22T10:42:39Z</time></trkpt><trkpt lat="44.43088932761877" lon="11.120413818940225"><ele>196.0</ele><time>2026-03-22T10:42:40Z</time></trkpt><trkpt lat="44.4307608804856" lon="11.120333033042993"><ele>196.0</ele><time>2026-03-22T10:42:41Z</time></trkpt><trkpt lat="44.43063079147977" lon="11.120249137953689"><ele>196.0</ele><time>2026-03-22T10:42:42Z</time></trkpt><trkpt lat="44.4305002903103" lon="11.120157185765546"><ele>196.0</ele><time>2026-03-22T10:42:43Z</time></trkpt><trkpt lat="44.43038307635325" lon="11.120076853279498"><ele>196.25</ele><time>2026-03-22T10:42:44Z</time></trkpt><trkpt lat="44.43027511916899" lon="11.120003655080398"><ele>196.5</ele><time>2026-03-22T10:42:45Z</time></trkpt><trkpt lat="44.430150713083854" lon="11.119922375086826"><ele>196.75</ele><time>2026-03-22T10:42:46Z</time></trkpt><trkpt lat="44.43001263248892" lon="11.119831413730672"><ele>197.0</ele><time>2026-03-22T10:42:47Z</time></trkpt><trkpt lat="44.429877172715166" lon="11.11974860372747"><ele>197.0</ele><time>2026-03-22T10:42:48Z</time></trkpt><trkpt lat="44.42975153180004" lon="11.119671381007219"><ele>197.0</ele><time>2026-03-22T10:42:49Z</time></trkpt><trkpt lat="44.42963563746877" lon="11.119594433732525"><ele>197.0</ele><time>2026-03-22T10:42:50Z</time></trkpt><trkpt lat="44.42952667854262" lon="11.119513762625937"><ele>197.0</ele><time>2026-03-22T10:42:51Z</time></trkpt><trkpt lat="44.429418768153816" lon="11.119418633968726"><ele>197.25</ele><time>2026-03-22T10:42:52Z</time></trkpt><trkpt lat="44.429312845395614" lon="11.119313881487725"><ele>197.5</ele><time>2026-03-22T10:42:53Z</time></trkpt><trkpt lat="44.42922427389519" lon="11.119215101039979"><ele>197.75</ele><time>2026-03-22T10:42:54Z</time></trkpt><trkpt lat="44.42913806730044" lon="11.119121411170779"><ele>198.0</ele><time>2026-03-22T10:42:55Z</time></trkpt><trkpt lat="44.429051612831714" lon="11.119032269872152"><ele>198.0</ele><time>2026-03-22T10:42:56Z</time></trkpt><trkpt lat="44.428973649809485" lon="11.118951202250784"><ele>198.0</ele><time>2026-03-22T10:42:57Z</time></trkpt><trkpt lat="44.42890296053609" lon="11.118877121243662"><ele>198.0</ele><time>2026-03-22T10:42:58Z</time></trkpt><trkpt lat="44.42882376390372" lon="11.118805008009922"><ele>198.0</ele><time>2026-03-22T10:42:59Z</time></trkpt><trkpt lat="44.42871779536204" lon="11.11872700023783"><ele>198.0</ele><time>2026-03-22T10:43:00Z</time></trkpt><trkpt lat="44.4286003563953" lon="11.118648740686622"><ele>198.60000000000002</ele><time>2026-03-22T10:43:01Z</time></trkpt><trkpt lat="44.42849522008495" lon="11.118580618631574"><ele>199.20000000000002</ele><time>2026-03-22T10:43:02Z</time></trkpt><trkpt lat="44.4283983909453" lon="11.1185247067424"><ele>199.8</ele><time>2026-03-22T10:43:03Z</time></trkpt><trkpt lat="44.428314947043845" lon="11.118459144753864"><ele>200.4</ele><time>2026-03-22T10:43:04Z</time></trkpt><trkpt lat="44.42824859092568" lon="11.11837423591894"><ele>201.0</ele><time>2026-03-22T10:43:05Z</time></trkpt><trkpt lat="44.42817880091583" lon="11.118259700877298"><ele>201.20000000000002</ele><time>2026-03-22T10:43:06Z</time></trkpt><trkpt lat="44.428113845321754" lon="11.118137877080764"><ele>201.4</ele><time>2026-03-22T10:43:07Z</time></trkpt><trkpt lat="44.42805718446136" lon="11.118040370407172"><ele>201.6</ele><time>2026-03-22T10:43:08Z</time></trkpt><trkpt lat="44.42800376266778" lon="11.117962263500342"><ele>201.8</ele><time>2026-03-22T10:43:09Z</time></trkpt><trkpt lat="44.427938167715496" lon="11.117881202055475"><ele>202.0</ele><time>2026-03-22T10:43:10Z</time></trkpt><trkpt lat="44.42787674887475" lon="11.117792797469907"><ele>201.99999999999997</ele><time>2026-03-22T10:43:11Z</time></trkpt><trkpt lat="44.42781604475109" lon="11.117700752440182"><ele>202.0</ele><time>2026-03-22T10:43:12Z</time></trkpt><trkpt lat="44.42775402790213" lon="11.117621436378256"><ele>202.0</ele><time>2026-03-22T10:43:13Z</time></trkpt><trkpt lat="44.4276971693631" lon="11.11753793777075"><ele>202.0</ele><time>2026-03-22T10:43:14Z</time></trkpt><trkpt lat="44.42764547938949" lon="11.117449661653255"><ele>201.99999999999997</ele><time>2026-03-22T10:43:15Z</time></trkpt><trkpt lat="44.42765258040344" lon="11.117328674959895"><ele>202.0</ele><time>2026-03-22T10:43:16Z</time></trkpt><trkpt lat="44.42766617504241" lon="11.117216610740618"><ele>200.33333333333331</ele><time>2026-03-22T10:43:17Z</time></trkpt><trkpt lat="44.427660393026564" lon="11.117100432522474"><ele>198.66666666666666</ele><time>2026-03-22T10:43:18Z</time></trkpt><trkpt lat="44.427647059374934" lon="11.116998170039228"><ele>197.0</ele><time>2026-03-22T10:43:19Z</time></trkpt><trkpt lat="44.42762327582089" lon="11.116875627505388"><ele>195.33333333333331</ele><time>2026-03-22T10:43:20Z</time></trkpt><trkpt lat="44.427571422058875" lon="11.11676532432999"><ele>193.66666666666666</ele><time>2026-03-22T10:43:21Z</time></trkpt><trkpt lat="44.42751910402044" lon="11.116660329031916"><ele>192.0</ele><time>2026-03-22T10:43:22Z</time></trkpt><trkpt lat="44.427464463541824" lon="11.1165633287459"><ele>190.39999999999998</ele><time>2026-03-22T10:43:23Z</time></trkpt><trkpt lat="44.427395997316026" lon="11.116485044942054"><ele>188.79999999999998</ele><time>2026-03-22T10:43:24Z</time></trkpt><trkpt lat="44.427307499067425" lon="11.116428344880301"><ele>187.2</ele><time>2026-03-22T10:43:25Z</time></trkpt><trkpt lat="44.42719230226948" lon="11.116388295137986"><ele>185.6</ele><time>2026-03-22T10:43:26Z</time></trkpt><trkpt lat="44.42708095156946" lon="11.116355698286846"><ele>184.0</ele><time>2026-03-22T10:43:27Z</time></trkpt><trkpt lat="44.42698392289955" lon="11.116313793210058"><ele>184.0</ele><time>2026-03-22T10:43:28Z</time></trkpt><trkpt lat="44.42689730036782" lon="11.116256181687312"><ele>184.0</ele><time>2026-03-22T10:43:29Z</time></trkpt><trkpt lat="44.42681282478497" lon="11.116178469899204"><ele>184.0</ele><time>2026-03-22T10:43:30Z</time></trkpt><trkpt lat="44.42672018378251" lon="11.116067647096278"><ele>184.0</ele><time>2026-03-22T10:43:31Z</time></trkpt><trkpt lat="44.42662676382045" lon="11.115962983441793"><ele>184.0</ele><time>2026-03-22T10:43:32Z</time></trkpt><trkpt lat="44.42654432829398" lon="11.115873036382654"><ele>184.0</ele><time>2026-03-22T10:43:33Z</time></trkpt><trkpt lat="44.42647127392898" lon="11.115787270874439"><ele>184.0</ele><time>2026-03-22T10:43:34Z</time></trkpt><trkpt lat="44.42640360407481" lon="11.115704126494592"><ele>184.0</ele><time>2026-03-22T10:43:35Z</time></trkpt><trkpt lat="44.42633883695487" lon="11.115624390765118"><ele>184.0</ele><time>2026-03-22T10:43:36Z</time></trkpt><trkpt lat="44.42627444321319" lon="11.115549376718363"><ele>184.0</ele><time>2026-03-22T10:43:37Z</time></trkpt><trkpt lat="44.426208799814475" lon="11.115480716003978"><ele>184.0</ele><time>2026-03-22T10:43:38Z</time></trkpt><trkpt lat="44.42614579363582" lon="11.11541192964109"><ele>183.79999999999998</ele><time>2026-03-22T10:43:39Z</time></trkpt><trkpt lat="44.426088757727676" lon="11.115344706484292"><ele>183.6</ele><time>2026-03-22T10:43:40Z</time></trkpt><trkpt lat="44.426035518292835" lon="11.115281866287798"><ele>183.4</ele><time>2026-03-22T10:43:41Z</time></trkpt><trkpt lat="44.42594354266315" lon="11.115193963019536"><ele>183.2</ele><time>2026-03-22T10:43:43Z</time></trkpt><trkpt lat="44.42584506846357" lon="11.11507977267715"><ele>183.0</ele><time>2026-03-22T10:43:45Z</time></trkpt><trkpt lat="44.42577620956363" lon="11.115015323904645"><ele>183.0</ele><time>2026-03-22T10:43:46Z</time></trkpt><trkpt lat="44.42569783973681" lon="11.114937526359675"><ele>183.0</ele><time>2026-03-22T10:43:47Z</time></trkpt><trkpt lat="44.42561700206974" lon="11.114849476169882"><ele>183.0</ele><time>2026-03-22T10:43:48Z</time></trkpt><trkpt lat="44.425532829210255" lon="11.114759519117339"><ele>183.0</ele><time>2026-03-22T10:43:49Z</time></trkpt><trkpt lat="44.42547167071199" lon="11.114683862596797"><ele>183.0</ele><time>2026-03-22T10:43:50Z</time></trkpt><trkpt lat="44.42541667916918" lon="11.114616518598982"><ele>184.0</ele><time>2026-03-22T10:43:51Z</time></trkpt><trkpt lat="44.42536214335561" lon="11.114545626699977"><ele>185.0</ele><time>2026-03-22T10:43:52Z</time></trkpt><trkpt lat="44.42529226010237" lon="11.114454146521117"><ele>186.0</ele><time>2026-03-22T10:43:53Z</time></trkpt><trkpt lat="44.425207190382885" lon="11.114356730958768"><ele>187.0</ele><time>2026-03-22T10:43:54Z</time></trkpt><trkpt lat="44.425112950386286" lon="11.114253556481538"><ele>188.0</ele><time>2026-03-22T10:43:55Z</time></trkpt><trkpt lat="44.42502359194984" lon="11.114157591502321"><ele>187.8</ele><time>2026-03-22T10:43:56Z</time></trkpt><trkpt lat="44.424939422026014" lon="11.11405370274838"><ele>187.60000000000002</ele><time>2026-03-22T10:43:57Z</time></trkpt><trkpt lat="44.424856728480975" lon="11.113944887524891"><ele>187.39999999999998</ele><time>2026-03-22T10:43:58Z</time></trkpt><trkpt lat="44.42477572460625" lon="11.113836280089737"><ele>187.2</ele><time>2026-03-22T10:43:59Z</time></trkpt><trkpt lat="44.42469488012358" lon="11.113731922145966"><ele>187.0</ele><time>2026-03-22T10:44:00Z</time></trkpt><trkpt lat="44.42461122172489" lon="11.113627720218965"><ele>187.2</ele><time>2026-03-22T10:44:01Z</time></trkpt><trkpt lat="44.424545604485594" lon="11.113538417664259"><ele>187.39999999999998</ele><time>2026-03-22T10:44:02Z</time></trkpt><trkpt lat="44.42449014731466" lon="11.113463924281977"><ele>187.60000000000002</ele><time>2026-03-22T10:44:03Z</time></trkpt><trkpt lat="44.424418364835056" lon="11.11338549422108"><ele>187.8</ele><time>2026-03-22T10:44:04Z</time></trkpt><trkpt lat="44.42434300894569" lon="11.1132890631136"><ele>188.0</ele><time>2026-03-22T10:44:05Z</time></trkpt><trkpt lat="44.424281764520515" lon="11.1131991643972"><ele>188.0</ele><time>2026-03-22T10:44:06Z</time></trkpt><trkpt lat="44.424223830429106" lon="11.113122176196374"><ele>188.0</ele><time>2026-03-22T10:44:07Z</time></trkpt><trkpt lat="44.42416987760883" lon="11.113064098381255"><ele>188.0</ele><time>2026-03-22T10:44:08Z</time></trkpt><trkpt lat="44.42410937225117" lon="11.11301738814932"><ele>188.0</ele><time>2026-03-22T10:44:09Z</time></trkpt><trkpt lat="44.42402917298801" lon="11.112942419665274"><ele>188.0</ele><time>2026-03-22T10:44:10Z</time></trkpt><trkpt lat="44.42394318974791" lon="11.112849780259307"><ele>188.0</ele><time>2026-03-22T10:44:11Z</time></trkpt><trkpt lat="44.42385266185929" lon="11.11275407933525"><ele>188.0</ele><time>2026-03-22T10:44:12Z</time></trkpt><trkpt lat="44.42376758559562" lon="11.11265506914772"><ele>188.0</ele><time>2026-03-22T10:44:13Z</time></trkpt><trkpt lat="44.42368409142808" lon="11.11255017949814"><ele>188.0</ele><time>2026-03-22T10:44:14Z</time></trkpt><trkpt lat="44.42359864713482" lon="11.112444245190472"><ele>188.0</ele><time>2026-03-22T10:44:15Z</time></trkpt><trkpt lat="44.42352364564298" lon="11.112349139242893"><ele>188.0</ele><time>2026-03-22T10:44:16Z</time></trkpt><trkpt lat="44.42345140854109" lon="11.112262010694444"><ele>188.0</ele><time>2026-03-22T10:44:17Z</time></trkpt><trkpt lat="44.42338000261418" lon="11.112170729302242"><ele>188.0</ele><time>2026-03-22T10:44:18Z</time></trkpt><trkpt lat="44.42330458006987" lon="11.112078154168216"><ele>188.0</ele><time>2026-03-22T10:44:19Z</time></trkpt><trkpt lat="44.42321689497306" lon="11.111981802511792"><ele>188.0</ele><time>2026-03-22T10:44:20Z</time></trkpt><trkpt lat="44.42312373741155" lon="11.111906347053521"><ele>188.0</ele><time>2026-03-22T10:44:21Z</time></trkpt><trkpt lat="44.42302245259814" lon="11.111846120255409"><ele>187.8</ele><time>2026-03-22T10:44:22Z</time></trkpt><trkpt lat="44.42292793573285" lon="11.111789891708689"><ele>187.60000000000002</ele><time>2026-03-22T10:44:23Z</time></trkpt><trkpt lat="44.42284375357029" lon="11.111729011890091"><ele>187.39999999999998</ele><time>2026-03-22T10:44:24Z</time></trkpt><trkpt lat="44.42275999088161" lon="11.111649477997839"><ele>187.2</ele><time>2026-03-22T10:44:25Z</time></trkpt><trkpt lat="44.4226755160396" lon="11.111542814534502"><ele>187.0</ele><time>2026-03-22T10:44:26Z</time></trkpt><trkpt lat="44.4225935420632" lon="11.111399046914128"><ele>187.0</ele><time>2026-03-22T10:44:27Z</time></trkpt><trkpt lat="44.42250859499331" lon="11.111218810303125"><ele>187.0</ele><time>2026-03-22T10:44:28Z</time></trkpt><trkpt lat="44.42241006339963" lon="11.111019316069621"><ele>187.0</ele><time>2026-03-22T10:44:29Z</time></trkpt><trkpt lat="44.42228933623227" lon="11.110824983427351"><ele>187.0</ele><time>2026-03-22T10:44:30Z</time></trkpt><trkpt lat="44.42215417727397" lon="11.11064449654409"><ele>187.0</ele><time>2026-03-22T10:44:31Z</time></trkpt><trkpt lat="44.42201411524402" lon="11.110487844865979"><ele>187.0</ele><time>2026-03-22T10:44:32Z</time></trkpt><trkpt lat="44.421883427807074" lon="11.110373497570729"><ele>187.75</ele><time>2026-03-22T10:44:33Z</time></trkpt><trkpt lat="44.42176575024843" lon="11.110265355186858"><ele>188.5</ele><time>2026-03-22T10:44:34Z</time></trkpt><trkpt lat="44.42165866588104" lon="11.110148550753188"><ele>189.25</ele><time>2026-03-22T10:44:35Z</time></trkpt><trkpt lat="44.421552100482536" lon="11.110027702123375"><ele>190.0</ele><time>2026-03-22T10:44:36Z</time></trkpt><trkpt lat="44.42146097054332" lon="11.109916032151519"><ele>189.8</ele><time>2026-03-22T10:44:37Z</time></trkpt><trkpt lat="44.4213832388884" lon="11.109815468376844"><ele>189.6</ele><time>2026-03-22T10:44:38Z</time></trkpt><trkpt lat="44.42131252222547" lon="11.109724630581054"><ele>189.39999999999998</ele><time>2026-03-22T10:44:39Z</time></trkpt><trkpt lat="44.42125009209711" lon="11.109642770305955"><ele>189.2</ele><time>2026-03-22T10:44:40Z</time></trkpt><trkpt lat="44.42119155874604" lon="11.10955826323474"><ele>189.0</ele><time>2026-03-22T10:44:41Z</time></trkpt><trkpt lat="44.421131907595566" lon="11.109467532711214"><ele>189.5</ele><time>2026-03-22T10:44:42Z</time></trkpt><trkpt lat="44.42106480691407" lon="11.109365883011419"><ele>190.0</ele><time>2026-03-22T10:44:43Z</time></trkpt><trkpt lat="44.42098448052331" lon="11.10925207758738"><ele>190.5</ele><time>2026-03-22T10:44:44Z</time></trkpt><trkpt lat="44.42088958512948" lon="11.109137422154108"><ele>191.0</ele><time>2026-03-22T10:44:45Z</time></trkpt><trkpt lat="44.42079266679472" lon="11.109016411177388"><ele>191.0</ele><time>2026-03-22T10:44:46Z</time></trkpt><trkpt lat="44.42070946082785" lon="11.108913546009797"><ele>191.0</ele><time>2026-03-22T10:44:47Z</time></trkpt><trkpt lat="44.42063384575411" lon="11.108820844220947"><ele>191.0</ele><time>2026-03-22T10:44:48Z</time></trkpt><trkpt lat="44.420551065317575" lon="11.108722300576245"><ele>191.0</ele><time>2026-03-22T10:44:49Z</time></trkpt><trkpt lat="44.42047294862614" lon="11.108621223948521"><ele>191.0</ele><time>2026-03-22T10:44:50Z</time></trkpt><trkpt lat="44.42040201188537" lon="11.108526353079256"><ele>191.25</ele><time>2026-03-22T10:44:51Z</time></trkpt><trkpt lat="44.42031668429296" lon="11.108412170173306"><ele>191.5</ele><time>2026-03-22T10:44:52Z</time></trkpt><trkpt lat="44.420232102622975" lon="11.108294601182255"><ele>191.75</ele><time>2026-03-22T10:44:53Z</time></trkpt><trkpt lat="44.42016066698969" lon="11.10818318781511"><ele>192.0</ele><time>2026-03-22T10:44:54Z</time></trkpt><trkpt lat="44.420091602102126" lon="11.108064424473959"><ele>192.0</ele><time>2026-03-22T10:44:55Z</time></trkpt><trkpt lat="44.42002169978879" lon="11.107937292764088"><ele>192.0</ele><time>2026-03-22T10:44:56Z</time></trkpt><trkpt lat="44.419955538629175" lon="11.107809867170825"><ele>192.0</ele><time>2026-03-22T10:44:57Z</time></trkpt><trkpt lat="44.419889167996345" lon="11.107690798677847"><ele>192.0</ele><time>2026-03-22T10:44:58Z</time></trkpt><trkpt lat="44.41982635223794" lon="11.107586858777179"><ele>192.0</ele><time>2026-03-22T10:44:59Z</time></trkpt><trkpt lat="44.41976499035272" lon="11.107491584755099"><ele>192.0</ele><time>2026-03-22T10:45:00Z</time></trkpt><trkpt lat="44.41970702099084" lon="11.107402159958731"><ele>192.0</ele><time>2026-03-22T10:45:01Z</time></trkpt><trkpt lat="44.41964744040785" lon="11.107309021469794"><ele>192.0</ele><time>2026-03-22T10:45:02Z</time></trkpt><trkpt lat="44.4195859161224" lon="11.107219817447248"><ele>192.0</ele><time>2026-03-22T10:45:03Z</time></trkpt><trkpt lat="44.41953176080775" lon="11.107149118694693"><ele>192.0</ele><time>2026-03-22T10:45:04Z</time></trkpt><trkpt lat="44.419470242346" lon="11.107042008471854"><ele>192.0</ele><time>2026-03-22T10:45:06Z</time></trkpt><trkpt lat="44.41942572479694" lon="11.10695175778415"><ele>192.0</ele><time>2026-03-22T10:45:08Z</time></trkpt><trkpt lat="44.41940529404794" lon="11.106770033422256"><ele>192.0</ele><time>2026-03-22T10:45:10Z</time></trkpt><trkpt lat="44.419418467785434" lon="11.106653754239582"><ele>192.0</ele><time>2026-03-22T10:45:11Z</time></trkpt><trkpt lat="44.41946865215573" lon="11.106552273276067"><ele>192.0</ele><time>2026-03-22T10:45:12Z</time></trkpt><trkpt lat="44.419502457115534" lon="11.10647244704651"><ele>192.0</ele><time>2026-03-22T10:45:13Z</time></trkpt><trkpt lat="44.41955538757563" lon="11.106340890484255"><ele>191.99999999999997</ele><time>2026-03-22T10:45:15Z</time></trkpt><trkpt lat="44.41958032949175" lon="11.10625237827173"><ele>192.0</ele><time>2026-03-22T10:45:17Z</time></trkpt><trkpt lat="44.419607664453274" lon="11.106155508423575"><ele>192.0</ele><time>2026-03-22T10:45:19Z</time></trkpt><trkpt lat="44.41963114313567" lon="11.10607230465574"><ele>192.0</ele><time>2026-03-22T10:45:21Z</time></trkpt><trkpt lat="44.419564972888196" lon="11.106049624236974"><ele>192.0</ele><time>2026-03-22T10:45:45Z</time></trkpt><trkpt lat="44.419521574729124" lon="11.105950844875805"><ele>191.99999999999997</ele><time>2026-03-22T10:46:02Z</time></trkpt><trkpt lat="44.41947624141917" lon="11.105886637516178"><ele>192.0</ele><time>2026-03-22T10:46:06Z</time></trkpt><trkpt lat="44.419399928496055" lon="11.105820082190817"><ele>191.99999999999997</ele><time>2026-03-22T10:46:10Z</time></trkpt><trkpt lat="44.41933365824014" lon="11.105771167341478"><ele>192.0</ele><time>2026-03-22T10:46:13Z</time></trkpt><trkpt lat="44.419259474194384" lon="11.105722068506317"><ele>192.0</ele><time>2026-03-22T10:46:16Z</time></trkpt><trkpt lat="44.419201313958744" lon="11.105683574868541"><ele>192.0</ele><time>2026-03-22T10:46:19Z</time></trkpt><trkpt lat="44.4191365455555" lon="11.105640707575622"><ele>192.0</ele><time>2026-03-22T10:46:21Z</time></trkpt><trkpt lat="44.41907164452905" lon="11.105597752733422"><ele>191.99999999999997</ele><time>2026-03-22T10:46:25Z</time></trkpt><trkpt lat="44.41899872675752" lon="11.105549493197723"><ele>192.0</ele><time>2026-03-22T10:46:28Z</time></trkpt><trkpt lat="44.41893116696217" lon="11.1055124460931"><ele>192.14285714285714</ele><time>2026-03-22T10:46:31Z</time></trkpt><trkpt lat="44.41886785695025" lon="11.105475369331009"><ele>192.28571428571428</ele><time>2026-03-22T10:46:35Z</time></trkpt><trkpt lat="44.418808102824336" lon="11.105440375033004"><ele>192.42857142857144</ele><time>2026-03-22T10:46:39Z</time></trkpt><trkpt lat="44.41873999299411" lon="11.105400487471865"><ele>192.57142857142856</ele><time>2026-03-22T10:46:43Z</time></trkpt><trkpt lat="44.41866461786889" lon="11.105356344981471"><ele>192.71428571428572</ele><time>2026-03-22T10:46:50Z</time></trkpt><trkpt lat="44.4186055270341" lon="11.1053218656605"><ele>192.85714285714286</ele><time>2026-03-22T10:46:55Z</time></trkpt><trkpt lat="44.41854681821153" lon="11.105287676769537"><ele>193.0</ele><time>2026-03-22T10:46:59Z</time></trkpt><trkpt lat="44.41848329701331" lon="11.105250685455898"><ele>193.00000000000003</ele><time>2026-03-22T10:47:04Z</time></trkpt><trkpt lat="44.418421283178695" lon="11.105214571867512"><ele>193.0</ele><time>2026-03-22T10:47:09Z</time></trkpt><trkpt lat="44.41835946427589" lon="11.10517857208148"><ele>193.0</ele><time>2026-03-22T10:47:13Z</time></trkpt><trkpt lat="44.418300058041545" lon="11.10514122141691"><ele>193.0</ele><time>2026-03-22T10:47:18Z</time></trkpt><trkpt lat="44.4182253293805" lon="11.105090162579513"><ele>193.0</ele><time>2026-03-22T10:47:21Z</time></trkpt><trkpt lat="44.41816459341715" lon="11.105046585700808"><ele>193.00000000000003</ele><time>2026-03-22T10:47:24Z</time></trkpt><trkpt lat="44.418101300870994" lon="11.105001248067515"><ele>193.0</ele><time>2026-03-22T10:47:43Z</time></trkpt><trkpt lat="44.41803740125751" lon="11.104958836034234"><ele>193.2857142857143</ele><time>2026-03-22T10:47:48Z</time></trkpt><trkpt lat="44.41797932083147" lon="11.104920286418"><ele>193.57142857142858</ele><time>2026-03-22T10:47:54Z</time></trkpt><trkpt lat="44.417914327640595" lon="11.104877378603797"><ele>193.85714285714286</ele><time>2026-03-22T10:48:00Z</time></trkpt><trkpt lat="44.41785304280704" lon="11.10483705171707"><ele>194.14285714285717</ele><time>2026-03-22T10:48:05Z</time></trkpt><trkpt lat="44.417770230624456" lon="11.104775504608416"><ele>194.42857142857142</ele><time>2026-03-22T10:48:32Z</time></trkpt><trkpt lat="44.41770337838094" lon="11.104762767150552"><ele>194.71428571428572</ele><time>2026-03-22T10:48:36Z</time></trkpt><trkpt lat="44.41763464126136" lon="11.104753625786707"><ele>195.0</ele><time>2026-03-22T10:48:48Z</time></trkpt><trkpt lat="44.41756905367536" lon="11.104762578356459"><ele>195.0</ele><time>2026-03-22T10:49:13Z</time></trkpt><trkpt lat="44.41749839326993" lon="11.1047771683652"><ele>195.0</ele><time>2026-03-22T10:49:20Z</time></trkpt><trkpt lat="44.417428186843615" lon="11.104791664587367"><ele>195.0</ele><time>2026-03-22T10:49:24Z</time></trkpt><trkpt lat="44.41733142950148" lon="11.104806315602133"><ele>195.0</ele><time>2026-03-22T10:49:39Z</time></trkpt><trkpt lat="44.41725026282507" lon="11.104804686169562"><ele>195.0</ele><time>2026-03-22T10:49:43Z</time></trkpt><trkpt lat="44.417159580617614" lon="11.104785964476124"><ele>195.0</ele><time>2026-03-22T10:49:45Z</time></trkpt><trkpt lat="44.417097513789614" lon="11.104761677168266"><ele>195.57142857142856</ele><time>2026-03-22T10:49:48Z</time></trkpt><trkpt lat="44.41703499237008" lon="11.104734052913662"><ele>196.14285714285714</ele><time>2026-03-22T10:49:52Z</time></trkpt><trkpt lat="44.416963789772005" lon="11.10470259295566"><ele>196.71428571428572</ele><time>2026-03-22T10:49:55Z</time></trkpt><trkpt lat="44.41689596410274" lon="11.10467226131577"><ele>197.28571428571428</ele><time>2026-03-22T10:49:57Z</time></trkpt><trkpt lat="44.41681743691067" lon="11.104636597328353"><ele>197.85714285714286</ele><time>2026-03-22T10:50:00Z</time></trkpt><trkpt lat="44.41675715474483" lon="11.104608491390781"><ele>198.42857142857142</ele><time>2026-03-22T10:50:07Z</time></trkpt><trkpt lat="44.41668841533142" lon="11.104575413782111"><ele>199.0</ele><time>2026-03-22T10:50:10Z</time></trkpt><trkpt lat="44.41662745603145" lon="11.104545326564704"><ele>198.99999999999997</ele><time>2026-03-22T10:50:17Z</time></trkpt><trkpt lat="44.41656692472648" lon="11.104514979379575"><ele>199.0</ele><time>2026-03-22T10:50:20Z</time></trkpt><trkpt lat="44.41649886003743" lon="11.104480855381789"><ele>199.0</ele><time>2026-03-22T10:50:24Z</time></trkpt><trkpt lat="44.416433401745934" lon="11.104448038072174"><ele>199.0</ele><time>2026-03-22T10:50:27Z</time></trkpt><trkpt lat="44.41635747240827" lon="11.104410356296182"><ele>199.0</ele><time>2026-03-22T10:50:31Z</time></trkpt><trkpt lat="44.41629604325834" lon="11.104381876815989"><ele>198.99999999999997</ele><time>2026-03-22T10:50:41Z</time></trkpt><trkpt lat="44.41622928879628" lon="11.104350928413483"><ele>199.0</ele><time>2026-03-22T10:50:51Z</time></trkpt><trkpt lat="44.416161955736065" lon="11.104319711773224"><ele>199.14285714285714</ele><time>2026-03-22T10:50:59Z</time></trkpt><trkpt lat="44.41610006257372" lon="11.104291017147908"><ele>199.28571428571428</ele><time>2026-03-22T10:51:08Z</time></trkpt><trkpt lat="44.416035096329374" lon="11.104261031301322"><ele>199.42857142857144</ele><time>2026-03-22T10:51:12Z</time></trkpt><trkpt lat="44.41595321748547" lon="11.104223455150835"><ele>199.57142857142856</ele><time>2026-03-22T10:51:15Z</time></trkpt><trkpt lat="44.415881589862714" lon="11.104190583570094"><ele>199.71428571428572</ele><time>2026-03-22T10:51:22Z</time></trkpt><trkpt lat="44.415818642808944" lon="11.104161695684471"><ele>199.85714285714286</ele><time>2026-03-22T10:51:27Z</time></trkpt><trkpt lat="44.415755004194594" lon="11.104132490430372"><ele>200.0</ele><time>2026-03-22T10:51:32Z</time></trkpt><trkpt lat="44.415695036376015" lon="11.104104969794728"><ele>200.14285714285717</ele><time>2026-03-22T10:51:35Z</time></trkpt><trkpt lat="44.41562425195227" lon="11.104072485147778"><ele>200.28571428571428</ele><time>2026-03-22T10:51:40Z</time></trkpt><trkpt lat="44.4155601054886" lon="11.104043539862275"><ele>200.42857142857144</ele><time>2026-03-22T10:51:47Z</time></trkpt><trkpt lat="44.41553067869778" lon="11.10395336197009"><ele>200.57142857142858</ele><time>2026-03-22T10:51:51Z</time></trkpt><trkpt lat="44.415454726067104" lon="11.103996349295185"><ele>200.71428571428572</ele><time>2026-03-22T10:52:00Z</time></trkpt><trkpt lat="44.41539079765575" lon="11.103967721200357"><ele>200.85714285714286</ele><time>2026-03-22T10:52:14Z</time></trkpt><trkpt lat="44.41532002027986" lon="11.10393602595974"><ele>201.0</ele><time>2026-03-22T10:53:11Z</time></trkpt><trkpt lat="44.41525979929879" lon="11.10390877105494"><ele>201.0</ele><time>2026-03-22T10:53:24Z</time></trkpt><trkpt lat="44.4151954800834" lon="11.103878751028738"><ele>201.0</ele><time>2026-03-22T10:53:33Z</time></trkpt><trkpt lat="44.415244639094965" lon="11.10357810045355"><ele>201.0</ele><time>2026-03-22T10:53:49Z</time></trkpt><trkpt lat="44.41534946469012" lon="11.103099886641848"><ele>200.83333333333334</ele><time>2026-03-22T10:57:01Z</time></trkpt><trkpt lat="44.41533719245598" lon="11.103011831094658"><ele>200.66666666666669</ele><time>2026-03-22T10:58:07Z</time></trkpt><trkpt lat="44.415306416757694" lon="11.102922287653655"><ele>200.5</ele><time>2026-03-22T10:58:16Z</time></trkpt><trkpt lat="44.415268189488245" lon="11.102851886220412"><ele>200.33333333333334</ele><time>2026-03-22T10:58:23Z</time></trkpt><trkpt lat="44.415263620354615" lon="11.102740094267398"><ele>200.16666666666669</ele><time>2026-03-22T11:01:17.999Z</time></trkpt><trkpt lat="44.41529405921475" lon="11.10259441310469"><ele>200.0</ele><time>2026-03-22T11:03:44.999Z</time></trkpt><trkpt lat="44.41523508258761" lon="11.102526753543435"><ele>200.00000000000003</ele><time>2026-03-22T11:04:19.999Z</time></trkpt><trkpt lat="44.4151850756612" lon="11.102427511794176"><ele>200.0</ele><time>2026-03-22T11:04:22.999Z</time></trkpt><trkpt lat="44.41516807268456" lon="11.102337744706114"><ele>200.0</ele><time>2026-03-22T11:04:26.999Z</time></trkpt><trkpt lat="44.415213962085375" lon="11.102270846975495"><ele>200.0</ele><time>2026-03-22T11:04:29.999Z</time></trkpt><trkpt lat="44.41518815816773" lon="11.10217146335944"><ele>200.00000000000003</ele><time>2026-03-22T11:04:35.999Z</time></trkpt><trkpt lat="44.415229978807105" lon="11.102095204736994"><ele>200.0</ele><time>2026-03-22T11:04:39.999Z</time></trkpt><trkpt lat="44.41544167611435" lon="11.102018325393034"><ele>200.0</ele><time>2026-03-22T11:04:44.999Z</time></trkpt><trkpt lat="44.41547428009147" lon="11.101913943240685"><ele>200.0</ele><time>2026-03-22T11:04:46.999Z</time></trkpt><trkpt lat="44.41550587250745" lon="11.101824762163414"><ele>200.0</ele><time>2026-03-22T11:04:48.999Z</time></trkpt><trkpt lat="44.41554204008055" lon="11.10172307323385"><ele>200.0</ele><time>2026-03-22T11:04:51.999Z</time></trkpt><trkpt lat="44.41530764960255" lon="11.101507357445215"><ele>199.8</ele><time>2026-03-22T11:04:54.999Z</time></trkpt><trkpt lat="44.41524018811428" lon="11.101426936690993"><ele>199.6</ele><time>2026-03-22T11:04:56.999Z</time></trkpt><trkpt lat="44.415182903954005" lon="11.101348624871157"><ele>199.39999999999998</ele><time>2026-03-22T11:04:58.999Z</time></trkpt><trkpt lat="44.41514263441539" lon="11.101274973125474"><ele>199.2</ele><time>2026-03-22T11:05:00.999Z</time></trkpt><trkpt lat="44.415054066134964" lon="11.101189440144827"><ele>199.0</ele><time>2026-03-22T11:05:02.999Z</time></trkpt><trkpt lat="44.41495995817649" lon="11.101089650863685"><ele>198.99999999999997</ele><time>2026-03-22T11:05:04.999Z</time></trkpt><trkpt lat="44.414870465215074" lon="11.100974091871153"><ele>199.0</ele><time>2026-03-22T11:05:06.999Z</time></trkpt><trkpt lat="44.41482022163739" lon="11.100911332711753"><ele>199.0</ele><time>2026-03-22T11:05:07.999Z</time></trkpt><trkpt lat="44.41476741804098" lon="11.10085492858337"><ele>199.0</ele><time>2026-03-22T11:05:08.999Z</time></trkpt><trkpt lat="44.41472108646372" lon="11.100792704515209"><ele>198.99999999999997</ele><time>2026-03-22T11:05:09.999Z</time></trkpt><trkpt lat="44.41463074856075" lon="11.10066863846225"><ele>199.0</ele><time>2026-03-22T11:05:11.999Z</time></trkpt><trkpt lat="44.41454345297249" lon="11.100562341430956"><ele>199.66666666666666</ele><time>2026-03-22T11:05:13.999Z</time></trkpt><trkpt lat="44.41448038379402" lon="11.100492270280872"><ele>200.33333333333331</ele><time>2026-03-22T11:05:15.999Z</time></trkpt><trkpt lat="44.41441633948268" lon="11.100405460753368"><ele>201.0</ele><time>2026-03-22T11:05:17.999Z</time></trkpt><trkpt lat="44.414340184459704" lon="11.100324374481644"><ele>201.66666666666669</ele><time>2026-03-22T11:05:19.999Z</time></trkpt><trkpt lat="44.41427657080993" lon="11.100270870603804"><ele>202.33333333333334</ele><time>2026-03-22T11:05:21.999Z</time></trkpt><trkpt lat="44.4143234090336" lon="11.100179176447504"><ele>203.0</ele><time>2026-03-22T11:05:30.999Z</time></trkpt><trkpt lat="44.414345351478" lon="11.100041064181607"><ele>203.0</ele><time>2026-03-22T11:05:33.999Z</time></trkpt><trkpt lat="44.41442147867135" lon="11.099920527610077"><ele>203.0</ele><time>2026-03-22T11:05:35.999Z</time></trkpt><trkpt lat="44.41450518775045" lon="11.099774286770954"><ele>203.0</ele><time>2026-03-22T11:05:37.999Z</time></trkpt><trkpt lat="44.4145506606462" lon="11.099681936128894"><ele>203.0</ele><time>2026-03-22T11:05:38.999Z</time></trkpt><trkpt lat="44.414603946554635" lon="11.099592923915285"><ele>203.0</ele><time>2026-03-22T11:05:39.999Z</time></trkpt><trkpt lat="44.4146591358055" lon="11.09950474796919"><ele>204.33333333333334</ele><time>2026-03-22T11:05:40.999Z</time></trkpt><trkpt lat="44.41471942346718" lon="11.099421371587473"><ele>205.66666666666669</ele><time>2026-03-22T11:05:41.999Z</time></trkpt><trkpt lat="44.41478465773252" lon="11.099340724201973"><ele>207.0</ele><time>2026-03-22T11:05:42.999Z</time></trkpt><trkpt lat="44.414851381895936" lon="11.099267060475503"><ele>208.33333333333331</ele><time>2026-03-22T11:05:43.999Z</time></trkpt><trkpt lat="44.414936212583406" lon="11.099196847051251"><ele>209.66666666666666</ele><time>2026-03-22T11:05:44.999Z</time></trkpt><trkpt lat="44.41501252721756" lon="11.099131169287173"><ele>211.0</ele><time>2026-03-22T11:05:45.999Z</time></trkpt><trkpt lat="44.415098200701614" lon="11.099063894561379"><ele>211.99999999999997</ele><time>2026-03-22T11:05:46.999Z</time></trkpt><trkpt lat="44.41518963551555" lon="11.098994574476976"><ele>213.0</ele><time>2026-03-22T11:05:47.999Z</time></trkpt><trkpt lat="44.41525007558748" lon="11.098947156793479"><ele>214.0</ele><time>2026-03-22T11:05:48.999Z</time></trkpt><trkpt lat="44.41529650421532" lon="11.09888733470337"><ele>215.0</ele><time>2026-03-22T11:05:49.999Z</time></trkpt><trkpt lat="44.41535184529813" lon="11.098804654633456"><ele>215.99999999999997</ele><time>2026-03-22T11:05:50.999Z</time></trkpt><trkpt lat="44.4154094101874" lon="11.098706492282192"><ele>217.0</ele><time>2026-03-22T11:05:51.999Z</time></trkpt><trkpt lat="44.41547040262914" lon="11.098617698515651"><ele>217.83333333333331</ele><time>2026-03-22T11:05:52.999Z</time></trkpt><trkpt lat="44.4155123298119" lon="11.098536233437768"><ele>218.66666666666666</ele><time>2026-03-22T11:05:53.999Z</time></trkpt><trkpt lat="44.41553797510463" lon="11.098409599138643"><ele>219.5</ele><time>2026-03-22T11:05:55.999Z</time></trkpt><trkpt lat="44.415571932823035" lon="11.098334580101005"><ele>220.33333333333331</ele><time>2026-03-22T11:05:56.999Z</time></trkpt><trkpt lat="44.41560952577084" lon="11.098245791219243"><ele>221.16666666666666</ele><time>2026-03-22T11:05:57.999Z</time></trkpt><trkpt lat="44.415647138280754" lon="11.098129405773696"><ele>222.0</ele><time>2026-03-22T11:05:58.999Z</time></trkpt><trkpt lat="44.41569963131275" lon="11.098021494774702"><ele>223.2</ele><time>2026-03-22T11:05:59.999Z</time></trkpt><trkpt lat="44.41575240665474" lon="11.097916007082635"><ele>224.39999999999998</ele><time>2026-03-22T11:06:00.999Z</time></trkpt><trkpt lat="44.41579482709575" lon="11.097833752820932"><ele>225.60000000000002</ele><time>2026-03-22T11:06:01.999Z</time></trkpt><trkpt lat="44.41586965036902" lon="11.09767609189437"><ele>226.8</ele><time>2026-03-22T11:06:03.999Z</time></trkpt><trkpt lat="44.41590334548268" lon="11.097597517607333"><ele>228.0</ele><time>2026-03-22T11:06:04.999Z</time></trkpt><trkpt lat="44.41595038251067" lon="11.097483432095416"><ele>228.0</ele><time>2026-03-22T11:06:06.999Z</time></trkpt><trkpt lat="44.41598497302979" lon="11.097365065348134"><ele>228.0</ele><time>2026-03-22T11:06:08.999Z</time></trkpt><trkpt lat="44.41611732758486" lon="11.097466203370992"><ele>228.0</ele><time>2026-03-22T11:06:15.999Z</time></trkpt><trkpt lat="44.41617157534451" lon="11.09751951600334"><ele>228.0</ele><time>2026-03-22T11:06:16.999Z</time></trkpt><trkpt lat="44.4162383062259" lon="11.09758490667526"><ele>228.0</ele><time>2026-03-22T11:06:17.999Z</time></trkpt><trkpt lat="44.416313259590936" lon="11.097657243200347"><ele>228.75</ele><time>2026-03-22T11:06:18.999Z</time></trkpt><trkpt lat="44.416389013816044" lon="11.097730352519132"><ele>229.5</ele><time>2026-03-22T11:06:19.999Z</time></trkpt><trkpt lat="44.41645041505165" lon="11.097789609961767"><ele>230.25</ele><time>2026-03-22T11:06:20.999Z</time></trkpt><trkpt lat="44.416534446353175" lon="11.09787070612522"><ele>231.0</ele><time>2026-03-22T11:06:22.999Z</time></trkpt><trkpt lat="44.41663890543542" lon="11.09766333929058"><ele>231.0</ele><time>2026-03-22T11:06:25.999Z</time></trkpt><trkpt lat="44.41666606131219" lon="11.097571773971806"><ele>231.00000000000003</ele><time>2026-03-22T11:06:26.999Z</time></trkpt><trkpt lat="44.41671187155984" lon="11.097469227797196"><ele>231.00000000000003</ele><time>2026-03-22T11:06:27.999Z</time></trkpt><trkpt lat="44.416763878533274" lon="11.097355597111799"><ele>231.0</ele><time>2026-03-22T11:06:28.999Z</time></trkpt><trkpt lat="44.41682394204469" lon="11.097226734380072"><ele>231.0</ele><time>2026-03-22T11:06:29.999Z</time></trkpt><trkpt lat="44.41689406877919" lon="11.097095929403066"><ele>231.25</ele><time>2026-03-22T11:06:30.999Z</time></trkpt><trkpt lat="44.41697917396555" lon="11.096960232558155"><ele>231.5</ele><time>2026-03-22T11:06:31.999Z</time></trkpt><trkpt lat="44.41705735325817" lon="11.09682067881691"><ele>231.75</ele><time>2026-03-22T11:06:32.999Z</time></trkpt><trkpt lat="44.41714239184599" lon="11.09667382548193"><ele>232.0</ele><time>2026-03-22T11:06:33.999Z</time></trkpt><trkpt lat="44.41722527306825" lon="11.096520787125929"><ele>234.75</ele><time>2026-03-22T11:06:34.999Z</time></trkpt><trkpt lat="44.41730499244293" lon="11.096360085072229"><ele>237.5</ele><time>2026-03-22T11:06:35.999Z</time></trkpt><trkpt lat="44.417372095889775" lon="11.096214063530057"><ele>240.25</ele><time>2026-03-22T11:06:36.999Z</time></trkpt><trkpt lat="44.417435189123644" lon="11.096083326564399"><ele>243.0</ele><time>2026-03-22T11:06:37.999Z</time></trkpt><trkpt lat="44.41749695434136" lon="11.095953663966773"><ele>243.0</ele><time>2026-03-22T11:06:38.999Z</time></trkpt><trkpt lat="44.41755770114597" lon="11.095820004428026"><ele>243.0</ele><time>2026-03-22T11:06:39.999Z</time></trkpt><trkpt lat="44.41761095066335" lon="11.095698552809996"><ele>243.0</ele><time>2026-03-22T11:06:40.999Z</time></trkpt><trkpt lat="44.41765979987236" lon="11.095595177207107"><ele>243.0</ele><time>2026-03-22T11:06:41.999Z</time></trkpt><trkpt lat="44.41771374991626" lon="11.095513897546924"><ele>243.0</ele><time>2026-03-22T11:06:42.999Z</time></trkpt><trkpt lat="44.41777551655231" lon="11.095457649064885"><ele>245.0</ele><time>2026-03-22T11:06:43.999Z</time></trkpt><trkpt lat="44.4178530137495" lon="11.09540622086067"><ele>247.0</ele><time>2026-03-22T11:06:44.999Z</time></trkpt><trkpt lat="44.417938420614675" lon="11.095374811996088"><ele>249.0</ele><time>2026-03-22T11:06:45.999Z</time></trkpt><trkpt lat="44.41803776075227" lon="11.095395801951684"><ele>251.0</ele><time>2026-03-22T11:06:46.999Z</time></trkpt><trkpt lat="44.41815654021489" lon="11.095386254718466"><ele>253.0</ele><time>2026-03-22T11:06:47.999Z</time></trkpt><trkpt lat="44.41827857214644" lon="11.095344029071113"><ele>252.99999999999997</ele><time>2026-03-22T11:06:48.999Z</time></trkpt><trkpt lat="44.41837281111015" lon="11.095342545282953"><ele>253.0</ele><time>2026-03-22T11:06:49.999Z</time></trkpt><trkpt lat="44.41845182664128" lon="11.095335824312086"><ele>253.0</ele><time>2026-03-22T11:06:50.999Z</time></trkpt><trkpt lat="44.418527277885126" lon="11.095309850610905"><ele>253.0</ele><time>2026-03-22T11:06:51.999Z</time></trkpt><trkpt lat="44.41859464086889" lon="11.095259341881683"><ele>252.99999999999997</ele><time>2026-03-22T11:06:52.999Z</time></trkpt><trkpt lat="44.418633585684695" lon="11.095178347938367"><ele>253.0</ele><time>2026-03-22T11:06:53.999Z</time></trkpt><trkpt lat="44.41864796037939" lon="11.095062104008912"><ele>253.0</ele><time>2026-03-22T11:06:54.999Z</time></trkpt><trkpt lat="44.41864466711554" lon="11.094923622861959"><ele>253.0</ele><time>2026-03-22T11:06:55.999Z</time></trkpt><trkpt lat="44.4186470770258" lon="11.094776704432737"><ele>253.0</ele><time>2026-03-22T11:06:56.999Z</time></trkpt><trkpt lat="44.418656045632886" lon="11.094615153069077"><ele>253.0</ele><time>2026-03-22T11:06:57.999Z</time></trkpt><trkpt lat="44.418661346343015" lon="11.09447969257253"><ele>253.0</ele><time>2026-03-22T11:06:58.999Z</time></trkpt><trkpt lat="44.41868663663537" lon="11.094374451044109"><ele>255.60000000000002</ele><time>2026-03-22T11:06:59.999Z</time></trkpt><trkpt lat="44.41873743579586" lon="11.094285146554864"><ele>258.20000000000005</ele><time>2026-03-22T11:07:00.999Z</time></trkpt><trkpt lat="44.41881655250255" lon="11.094219186691106"><ele>260.8</ele><time>2026-03-22T11:07:01.999Z</time></trkpt><trkpt lat="44.41887706502518" lon="11.09411339251366"><ele>263.40000000000003</ele><time>2026-03-22T11:07:02.999Z</time></trkpt><trkpt lat="44.418940597581155" lon="11.094021477590692"><ele>266.0</ele><time>2026-03-22T11:07:03.999Z</time></trkpt><trkpt lat="44.418997192158706" lon="11.09392143905862"><ele>267.5</ele><time>2026-03-22T11:07:04.999Z</time></trkpt><trkpt lat="44.419054285999785" lon="11.09380759103024"><ele>269.0</ele><time>2026-03-22T11:07:05.999Z</time></trkpt><trkpt lat="44.419103253540705" lon="11.093696573577748"><ele>270.5</ele><time>2026-03-22T11:07:06.999Z</time></trkpt><trkpt lat="44.41912851632064" lon="11.09358317439293"><ele>272.0</ele><time>2026-03-22T11:07:07.999Z</time></trkpt><trkpt lat="44.41912628772207" lon="11.093469365399939"><ele>273.5</ele><time>2026-03-22T11:07:08.999Z</time></trkpt><trkpt lat="44.41909247183298" lon="11.093351569745725"><ele>275.0</ele><time>2026-03-22T11:07:09.999Z</time></trkpt><trkpt lat="44.419040585767235" lon="11.093232367522113"><ele>276.6</ele><time>2026-03-22T11:07:10.999Z</time></trkpt><trkpt lat="44.4189843214208" lon="11.093104981619717"><ele>278.2</ele><time>2026-03-22T11:07:11.999Z</time></trkpt><trkpt lat="44.418932911562564" lon="11.092998725605971"><ele>279.8</ele><time>2026-03-22T11:07:12.999Z</time></trkpt><trkpt lat="44.41888357738815" lon="11.092907185901005"><ele>281.4</ele><time>2026-03-22T11:07:13.999Z</time></trkpt><trkpt lat="44.41881212944215" lon="11.09283623338837"><ele>283.0</ele><time>2026-03-22T11:07:14.999Z</time></trkpt><trkpt lat="44.418733682494" lon="11.092796684344473"><ele>284.4</ele><time>2026-03-22T11:07:15.999Z</time></trkpt><trkpt lat="44.41864833956738" lon="11.09280174943196"><ele>285.8</ele><time>2026-03-22T11:07:16.999Z</time></trkpt><trkpt lat="44.41856204743141" lon="11.092831888763454"><ele>287.2</ele><time>2026-03-22T11:07:17.999Z</time></trkpt><trkpt lat="44.41849550656834" lon="11.092944788773657"><ele>288.6</ele><time>2026-03-22T11:07:18.999Z</time></trkpt><trkpt lat="44.41840590521679" lon="11.093020557733155"><ele>290.0</ele><time>2026-03-22T11:07:19.999Z</time></trkpt><trkpt lat="44.418313500674415" lon="11.093123679817666"><ele>290.0</ele><time>2026-03-22T11:07:20.999Z</time></trkpt><trkpt lat="44.41821419235949" lon="11.093233225664791"><ele>290.0</ele><time>2026-03-22T11:07:21.999Z</time></trkpt><trkpt lat="44.41811284207987" lon="11.093342613027907"><ele>290.0</ele><time>2026-03-22T11:07:22.999Z</time></trkpt><trkpt lat="44.41802750730318" lon="11.093432673209467"><ele>290.0</ele><time>2026-03-22T11:07:23.999Z</time></trkpt><trkpt lat="44.41795109051904" lon="11.093507071535782"><ele>289.8</ele><time>2026-03-22T11:07:24.999Z</time></trkpt><trkpt lat="44.41788175485224" lon="11.093555131882598"><ele>289.6</ele><time>2026-03-22T11:07:25.999Z</time></trkpt><trkpt lat="44.41776045561822" lon="11.09360827164823"><ele>289.4</ele><time>2026-03-22T11:07:27.999Z</time></trkpt><trkpt lat="44.41768702483169" lon="11.093585109570999"><ele>289.2</ele><time>2026-03-22T11:07:28.999Z</time></trkpt><trkpt lat="44.417618224304846" lon="11.093522761289151"><ele>289.0</ele><time>2026-03-22T11:07:29.999Z</time></trkpt><trkpt lat="44.41755169631643" lon="11.09343297693884"><ele>289.0</ele><time>2026-03-22T11:07:30.999Z</time></trkpt><trkpt lat="44.417479154431206" lon="11.093336449811776"><ele>289.0</ele><time>2026-03-22T11:07:31.999Z</time></trkpt><trkpt lat="44.41739577689492" lon="11.093238401166557"><ele>289.0</ele><time>2026-03-22T11:07:32.999Z</time></trkpt><trkpt lat="44.41729873327039" lon="11.093137747279492"><ele>289.0</ele><time>2026-03-22T11:07:33.999Z</time></trkpt><trkpt lat="44.41719612080334" lon="11.093036750108782"><ele>290.59999999999997</ele><time>2026-03-22T11:07:34.999Z</time></trkpt><trkpt lat="44.41711707225715" lon="11.092957140484133"><ele>292.2</ele><time>2026-03-22T11:07:35.999Z</time></trkpt><trkpt lat="44.417055157009486" lon="11.092872508154723"><ele>293.79999999999995</ele><time>2026-03-22T11:07:36.999Z</time></trkpt><trkpt lat="44.41701266756193" lon="11.092769350226549"><ele>295.4</ele><time>2026-03-22T11:07:37.999Z</time></trkpt><trkpt lat="44.41698458571391" lon="11.092634434421079"><ele>297.0</ele><time>2026-03-22T11:07:38.999Z</time></trkpt><trkpt lat="44.4169568051696" lon="11.092477302460285"><ele>300.0</ele><time>2026-03-22T11:07:39.999Z</time></trkpt><trkpt lat="44.416915495167316" lon="11.092304860310149"><ele>303.0</ele><time>2026-03-22T11:07:40.999Z</time></trkpt><trkpt lat="44.41685958198778" lon="11.09214660473213"><ele>306.0</ele><time>2026-03-22T11:07:41.999Z</time></trkpt><trkpt lat="44.41680437099034" lon="11.092028113159001"><ele>309.0</ele><time>2026-03-22T11:07:42.999Z</time></trkpt><trkpt lat="44.41676732908899" lon="11.09194107785876"><ele>312.0</ele><time>2026-03-22T11:07:43.999Z</time></trkpt><trkpt lat="44.416770981686305" lon="11.09181843055579"><ele>312.0</ele><time>2026-03-22T11:07:45.999Z</time></trkpt><trkpt lat="44.4168447327655" lon="11.091777964790467"><ele>312.0</ele><time>2026-03-22T11:07:47.999Z</time></trkpt><trkpt lat="44.416931881797524" lon="11.091914604869185"><ele>312.0</ele><time>2026-03-22T11:07:49.999Z</time></trkpt><trkpt lat="44.416999116083936" lon="11.092007782420657"><ele>312.0</ele><time>2026-03-22T11:07:50.999Z</time></trkpt><trkpt lat="44.4170753517591" lon="11.092113435438645"><ele>312.0</ele><time>2026-03-22T11:07:51.999Z</time></trkpt><trkpt lat="44.41716867815193" lon="11.092219400899593"><ele>312.8333333333333</ele><time>2026-03-22T11:07:52.999Z</time></trkpt><trkpt lat="44.41726055886715" lon="11.092275768675014"><ele>313.6666666666667</ele><time>2026-03-22T11:07:53.999Z</time></trkpt><trkpt lat="44.41733338902942" lon="11.09233817696109"><ele>314.5</ele><time>2026-03-22T11:07:54.999Z</time></trkpt><trkpt lat="44.41742529281345" lon="11.092317340261271"><ele>315.33333333333337</ele><time>2026-03-22T11:07:55.999Z</time></trkpt><trkpt lat="44.417500398633955" lon="11.092284572785752"><ele>316.1666666666667</ele><time>2026-03-22T11:07:56.999Z</time></trkpt><trkpt lat="44.41754903034164" lon="11.092213670481474"><ele>317.0</ele><time>2026-03-22T11:07:57.999Z</time></trkpt><trkpt lat="44.417589026465336" lon="11.092106130860952"><ele>317.0</ele><time>2026-03-22T11:07:58.999Z</time></trkpt><trkpt lat="44.4176203006045" lon="11.091976308698564"><ele>317.0</ele><time>2026-03-22T11:07:59.999Z</time></trkpt><trkpt lat="44.417650117693654" lon="11.091833471768359"><ele>317.0</ele><time>2026-03-22T11:08:00.999Z</time></trkpt><trkpt lat="44.417680357578746" lon="11.091669431586102"><ele>317.0</ele><time>2026-03-22T11:08:01.999Z</time></trkpt><trkpt lat="44.41770530092144" lon="11.09150385377949"><ele>317.0</ele><time>2026-03-22T11:08:02.999Z</time></trkpt><trkpt lat="44.41771762010504" lon="11.091374842112659"><ele>318.0</ele><time>2026-03-22T11:08:03.999Z</time></trkpt><trkpt lat="44.41771234089011" lon="11.091267500959916"><ele>319.0</ele><time>2026-03-22T11:08:04.999Z</time></trkpt><trkpt lat="44.417680579051336" lon="11.091181631929967"><ele>320.0</ele><time>2026-03-22T11:08:05.999Z</time></trkpt><trkpt lat="44.41761809624292" lon="11.091091294678504"><ele>321.0</ele><time>2026-03-22T11:08:06.999Z</time></trkpt><trkpt lat="44.417535556276086" lon="11.091009796559126"><ele>322.0</ele><time>2026-03-22T11:08:07.999Z</time></trkpt><trkpt lat="44.41743477676498" lon="11.090924251501955"><ele>322.0</ele><time>2026-03-22T11:08:08.999Z</time></trkpt><trkpt lat="44.41733189027986" lon="11.090835094848417"><ele>322.0</ele><time>2026-03-22T11:08:09.999Z</time></trkpt><trkpt lat="44.41722989931553" lon="11.090743156772556"><ele>322.0</ele><time>2026-03-22T11:08:10.999Z</time></trkpt><trkpt lat="44.41712169936082" lon="11.090640657040659"><ele>322.0</ele><time>2026-03-22T11:08:11.999Z</time></trkpt><trkpt lat="44.41700402486482" lon="11.090532598649252"><ele>322.25</ele><time>2026-03-22T11:08:12.999Z</time></trkpt><trkpt lat="44.41688652695969" lon="11.090423976572684"><ele>322.5</ele><time>2026-03-22T11:08:13.999Z</time></trkpt><trkpt lat="44.41677014652702" lon="11.090311170836486"><ele>322.75</ele><time>2026-03-22T11:08:14.999Z</time></trkpt><trkpt lat="44.41665215190839" lon="11.090190862277808"><ele>323.0</ele><time>2026-03-22T11:08:15.999Z</time></trkpt><trkpt lat="44.41653453160789" lon="11.09006492932539"><ele>323.0</ele><time>2026-03-22T11:08:16.999Z</time></trkpt><trkpt lat="44.41641274233897" lon="11.089931278596895"><ele>323.0</ele><time>2026-03-22T11:08:17.999Z</time></trkpt><trkpt lat="44.41629669202316" lon="11.089799235753084"><ele>323.0</ele><time>2026-03-22T11:08:18.999Z</time></trkpt><trkpt lat="44.41617432597647" lon="11.089657245185851"><ele>325.5</ele><time>2026-03-22T11:08:19.999Z</time></trkpt><trkpt lat="44.41605552454536" lon="11.089520601684324"><ele>328.0</ele><time>2026-03-22T11:08:20.999Z</time></trkpt><trkpt lat="44.415948742577505" lon="11.08940351279692"><ele>330.5</ele><time>2026-03-22T11:08:21.999Z</time></trkpt><trkpt lat="44.41585490534881" lon="11.089299778610505"><ele>333.0</ele><time>2026-03-22T11:08:22.999Z</time></trkpt><trkpt lat="44.41576242850878" lon="11.089189365433814"><ele>331.75</ele><time>2026-03-22T11:08:23.999Z</time></trkpt><trkpt lat="44.415678975349735" lon="11.08906704920213"><ele>330.5</ele><time>2026-03-22T11:08:24.999Z</time></trkpt><trkpt lat="44.415612602489595" lon="11.08893780045327"><ele>329.25</ele><time>2026-03-22T11:08:25.999Z</time></trkpt><trkpt lat="44.415560332173285" lon="11.088806135073492"><ele>328.0</ele><time>2026-03-22T11:08:26.999Z</time></trkpt><trkpt lat="44.41551382187284" lon="11.088659820404985"><ele>335.0</ele><time>2026-03-22T11:08:27.999Z</time></trkpt><trkpt lat="44.41546592494764" lon="11.088507441643852"><ele>342.0</ele><time>2026-03-22T11:08:28.999Z</time></trkpt><trkpt lat="44.41541791806489" lon="11.088352197536361"><ele>349.0</ele><time>2026-03-22T11:08:29.999Z</time></trkpt><trkpt lat="44.41538125381868" lon="11.088190901835185"><ele>356.0</ele><time>2026-03-22T11:08:30.999Z</time></trkpt><trkpt lat="44.4153563450969" lon="11.088018024033527"><ele>357.75</ele><time>2026-03-22T11:08:31.999Z</time></trkpt><trkpt lat="44.41533610636525" lon="11.087842519398794"><ele>359.5</ele><time>2026-03-22T11:08:32.999Z</time></trkpt><trkpt lat="44.41531727552687" lon="11.08766883066843"><ele>361.25</ele><time>2026-03-22T11:08:33.999Z</time></trkpt><trkpt lat="44.41529561665071" lon="11.087498613380065"><ele>363.0</ele><time>2026-03-22T11:08:34.999Z</time></trkpt><trkpt lat="44.415276923680636" lon="11.087348673872823"><ele>363.79999999999995</ele><time>2026-03-22T11:08:35.999Z</time></trkpt><trkpt lat="44.415257450543216" lon="11.087205622527087"><ele>364.6</ele><time>2026-03-22T11:08:36.999Z</time></trkpt><trkpt lat="44.41523390648101" lon="11.087059350340636"><ele>365.4</ele><time>2026-03-22T11:08:37.999Z</time></trkpt><trkpt lat="44.41521916959557" lon="11.08694088535978"><ele>366.20000000000005</ele><time>2026-03-22T11:08:38.999Z</time></trkpt><trkpt lat="44.415205092498326" lon="11.086814159775113"><ele>367.0</ele><time>2026-03-22T11:08:39.999Z</time></trkpt><trkpt lat="44.41519430371655" lon="11.086677075379416"><ele>369.3333333333333</ele><time>2026-03-22T11:08:40.999Z</time></trkpt><trkpt lat="44.41519986988002" lon="11.086550911339835"><ele>371.66666666666663</ele><time>2026-03-22T11:08:41.999Z</time></trkpt><trkpt lat="44.41521387647221" lon="11.086429725909328"><ele>374.0</ele><time>2026-03-22T11:08:42.999Z</time></trkpt><trkpt lat="44.415242981967545" lon="11.086316222482111"><ele>376.3333333333333</ele><time>2026-03-22T11:08:43.999Z</time></trkpt><trkpt lat="44.41528420008348" lon="11.08620544097695"><ele>378.6666666666667</ele><time>2026-03-22T11:08:44.999Z</time></trkpt><trkpt lat="44.4153388442812" lon="11.086095401797312"><ele>381.0</ele><time>2026-03-22T11:08:45.999Z</time></trkpt><trkpt lat="44.415395657653335" lon="11.08600372958559"><ele>381.0</ele><time>2026-03-22T11:08:46.999Z</time></trkpt><trkpt lat="44.41547172125237" lon="11.085923220654674"><ele>381.0</ele><time>2026-03-22T11:08:48.999Z</time></trkpt><trkpt lat="44.41550950399077" lon="11.08581195199245"><ele>381.0</ele><time>2026-03-22T11:09:01.999Z</time></trkpt><trkpt lat="44.41557403737642" lon="11.08573331194744"><ele>381.0</ele><time>2026-03-22T11:09:03.999Z</time></trkpt><trkpt lat="44.41564899046984" lon="11.085618715785387"><ele>381.0</ele><time>2026-03-22T11:09:05.999Z</time></trkpt><trkpt lat="44.41570532307712" lon="11.085514853783607"><ele>381.8</ele><time>2026-03-22T11:09:07.999Z</time></trkpt><trkpt lat="44.41573792677493" lon="11.08539396104379"><ele>382.6</ele><time>2026-03-22T11:09:09.999Z</time></trkpt><trkpt lat="44.415713079182275" lon="11.085256560244437"><ele>383.4</ele><time>2026-03-22T11:09:11.999Z</time></trkpt><trkpt lat="44.41561815454925" lon="11.085174575059698"><ele>384.2</ele><time>2026-03-22T11:09:13.999Z</time></trkpt><trkpt lat="44.415549342768315" lon="11.085150404128658"><ele>385.0</ele><time>2026-03-22T11:09:14.999Z</time></trkpt><trkpt lat="44.415431708066436" lon="11.08512575570751"><ele>385.0</ele><time>2026-03-22T11:09:16.999Z</time></trkpt><trkpt lat="44.41531180095088" lon="11.085118464685669"><ele>385.0</ele><time>2026-03-22T11:09:18.999Z</time></trkpt><trkpt lat="44.41519218261552" lon="11.085082269680882"><ele>385.0</ele><time>2026-03-22T11:09:20.999Z</time></trkpt><trkpt lat="44.415075188621444" lon="11.085048970390737"><ele>385.0</ele><time>2026-03-22T11:09:22.999Z</time></trkpt><trkpt lat="44.41500711816435" lon="11.085032544807463"><ele>385.0</ele><time>2026-03-22T11:09:23.999Z</time></trkpt><trkpt lat="44.41494445356316" lon="11.085016592203687"><ele>385.00000000000006</ele><time>2026-03-22T11:09:24.999Z</time></trkpt><trkpt lat="44.41482162366336" lon="11.084970889031995"><ele>385.0</ele><time>2026-03-22T11:09:26.999Z</time></trkpt><trkpt lat="44.41475303104839" lon="11.084950281737832"><ele>385.0</ele><time>2026-03-22T11:09:27.999Z</time></trkpt><trkpt lat="44.41468268795619" lon="11.084928424417305"><ele>385.0</ele><time>2026-03-22T11:09:28.999Z</time></trkpt><trkpt lat="44.414616455661736" lon="11.084926909330896"><ele>385.00000000000006</ele><time>2026-03-22T11:09:29.999Z</time></trkpt><trkpt lat="44.41454843201277" lon="11.084898110836367"><ele>385.0</ele><time>2026-03-22T11:09:30.999Z</time></trkpt><trkpt lat="44.41447640335489" lon="11.08487535514609"><ele>386.83333333333337</ele><time>2026-03-22T11:09:31.999Z</time></trkpt><trkpt lat="44.41440492439948" lon="11.08484097164188"><ele>388.6666666666667</ele><time>2026-03-22T11:09:32.999Z</time></trkpt><trkpt lat="44.41432794990464" lon="11.08480460349044"><ele>390.5</ele><time>2026-03-22T11:09:33.999Z</time></trkpt><trkpt lat="44.41424712912669" lon="11.08476770024585"><ele>392.33333333333337</ele><time>2026-03-22T11:09:34.999Z</time></trkpt><trkpt lat="44.41416993758927" lon="11.084726653298524"><ele>394.1666666666667</ele><time>2026-03-22T11:09:35.999Z</time></trkpt><trkpt lat="44.414089300000455" lon="11.084670340239569"><ele>396.0</ele><time>2026-03-22T11:09:36.999Z</time></trkpt><trkpt lat="44.41402679402879" lon="11.084619140693226"><ele>396.0</ele><time>2026-03-22T11:09:37.999Z</time></trkpt><trkpt lat="44.41396704011151" lon="11.084566939205098"><ele>396.0</ele><time>2026-03-22T11:09:38.999Z</time></trkpt><trkpt lat="44.41391011023376" lon="11.084515892104786"><ele>396.0</ele><time>2026-03-22T11:09:39.999Z</time></trkpt><trkpt lat="44.41380483081731" lon="11.084430709362762"><ele>396.0</ele><time>2026-03-22T11:09:41.999Z</time></trkpt><trkpt lat="44.41374754774909" lon="11.084383927779397"><ele>396.0</ele><time>2026-03-22T11:09:42.999Z</time></trkpt><trkpt lat="44.413684825077716" lon="11.084330633439446"><ele>396.0</ele><time>2026-03-22T11:09:43.999Z</time></trkpt><trkpt lat="44.41362070944837" lon="11.084270520441462"><ele>398.5</ele><time>2026-03-22T11:09:44.999Z</time></trkpt><trkpt lat="44.41356376439919" lon="11.084217360453197"><ele>401.0</ele><time>2026-03-22T11:09:45.999Z</time></trkpt><trkpt lat="44.41350476434898" lon="11.084171994915668"><ele>403.5</ele><time>2026-03-22T11:09:46.999Z</time></trkpt><trkpt lat="44.413448990165165" lon="11.084122842250586"><ele>406.0</ele><time>2026-03-22T11:09:47.999Z</time></trkpt><trkpt lat="44.41334185976708" lon="11.084036456934028"><ele>408.5</ele><time>2026-03-22T11:09:49.999Z</time></trkpt><trkpt lat="44.41328322690265" lon="11.084001917427479"><ele>411.0</ele><time>2026-03-22T11:09:50.999Z</time></trkpt><trkpt lat="44.41322360842146" lon="11.083972040469794"><ele>411.0</ele><time>2026-03-22T11:09:51.999Z</time></trkpt><trkpt lat="44.413160573014544" lon="11.083938401218385"><ele>411.0</ele><time>2026-03-22T11:09:52.999Z</time></trkpt><trkpt lat="44.41310425297943" lon="11.083887726214448"><ele>411.0</ele><time>2026-03-22T11:09:53.999Z</time></trkpt><trkpt lat="44.41304317637" lon="11.083849162605357"><ele>411.0</ele><time>2026-03-22T11:09:54.999Z</time></trkpt><trkpt lat="44.41298344787628" lon="11.083807637380948"><ele>411.0</ele><time>2026-03-22T11:09:55.999Z</time></trkpt><trkpt lat="44.412925219786885" lon="11.083762006572195"><ele>411.0</ele><time>2026-03-22T11:09:56.999Z</time></trkpt><trkpt lat="44.412869712055084" lon="11.083713948705553"><ele>411.0</ele><time>2026-03-22T11:09:57.999Z</time></trkpt><trkpt lat="44.41281024407778" lon="11.083663137095835"><ele>414.6666666666667</ele><time>2026-03-22T11:09:58.999Z</time></trkpt><trkpt lat="44.412749316754834" lon="11.08361104548089"><ele>418.33333333333337</ele><time>2026-03-22T11:09:59.999Z</time></trkpt><trkpt lat="44.4126860438862" lon="11.08356083183748"><ele>422.0</ele><time>2026-03-22T11:10:00.999Z</time></trkpt><trkpt lat="44.4126244411177" lon="11.083518623866292"><ele>425.6666666666667</ele><time>2026-03-22T11:10:01.999Z</time></trkpt><trkpt lat="44.412525621339235" lon="11.083481960171481"><ele>429.33333333333337</ele><time>2026-03-22T11:10:04Z</time></trkpt><trkpt lat="44.41243911456939" lon="11.083471713635927"><ele>433.0</ele><time>2026-03-22T11:10:06Z</time></trkpt><trkpt lat="44.412354686817636" lon="11.083381784512254"><ele>433.0</ele><time>2026-03-22T11:10:08Z</time></trkpt><trkpt lat="44.412287547871266" lon="11.08325223390783"><ele>432.99999999999994</ele><time>2026-03-22T11:10:10Z</time></trkpt><trkpt lat="44.41223283680348" lon="11.083125255043175"><ele>432.99999999999994</ele><time>2026-03-22T11:10:12Z</time></trkpt><trkpt lat="44.41217190621144" lon="11.08299429530927"><ele>433.0</ele><time>2026-03-22T11:10:14Z</time></trkpt><trkpt lat="44.412112729633144" lon="11.082893112638116"><ele>433.0</ele><time>2026-03-22T11:10:16Z</time></trkpt><trkpt lat="44.41206244388672" lon="11.082786312941955"><ele>433.0</ele><time>2026-03-22T11:10:18Z</time></trkpt><trkpt lat="44.412082693370145" lon="11.082691548412665"><ele>432.99999999999994</ele><time>2026-03-22T11:10:20Z</time></trkpt><trkpt lat="44.4121589940845" lon="11.082600883850814"><ele>432.99999999999994</ele><time>2026-03-22T11:10:22Z</time></trkpt><trkpt lat="44.41224684424218" lon="11.082483198045482"><ele>433.0</ele><time>2026-03-22T11:10:24Z</time></trkpt><trkpt lat="44.412262449477325" lon="11.082365058997778"><ele>433.0</ele><time>2026-03-22T11:10:26Z</time></trkpt><trkpt lat="44.41222186528578" lon="11.082263852685317"><ele>432.85714285714283</ele><time>2026-03-22T11:10:28Z</time></trkpt><trkpt lat="44.412165126179666" lon="11.08221157427439"><ele>432.7142857142857</ele><time>2026-03-22T11:10:35Z</time></trkpt><trkpt lat="44.412118200883604" lon="11.082149983914865"><ele>432.57142857142856</ele><time>2026-03-22T11:10:37Z</time></trkpt><trkpt lat="44.41205824608582" lon="11.082096569874164"><ele>432.42857142857144</ele><time>2026-03-22T11:10:39Z</time></trkpt><trkpt lat="44.41211911977185" lon="11.08215081967145"><ele>432.2857142857143</ele><time>2026-03-22T11:10:55Z</time></trkpt><trkpt lat="44.41219859805359" lon="11.082231473107159"><ele>432.1428571428571</ele><time>2026-03-22T11:10:58Z</time></trkpt><trkpt lat="44.41222959682449" lon="11.082316974853452"><ele>432.0</ele><time>2026-03-22T11:11:00Z</time></trkpt><trkpt lat="44.41228635071217" lon="11.082368770985381"><ele>432.0</ele><time>2026-03-22T11:11:02Z</time></trkpt><trkpt lat="44.41226438841837" lon="11.082231083479519"><ele>432.0</ele><time>2026-03-22T11:11:08Z</time></trkpt><trkpt lat="44.41219704517797" lon="11.082204323800099"><ele>432.0</ele><time>2026-03-22T11:11:12Z</time></trkpt><trkpt lat="44.412127240405866" lon="11.082129293962979"><ele>432.0</ele><time>2026-03-22T11:11:16Z</time></trkpt><trkpt lat="44.41205195831551" lon="11.082062005214405"><ele>432.0</ele><time>2026-03-22T11:11:19Z</time></trkpt><trkpt lat="44.41198536668829" lon="11.082010643932717"><ele>432.0</ele><time>2026-03-22T11:11:22Z</time></trkpt><trkpt lat="44.41194334557758" lon="11.081943881325893"><ele>432.0</ele><time>2026-03-22T11:11:25Z</time></trkpt><trkpt lat="44.412041097033466" lon="11.081603113174422"><ele>432.0</ele><time>2026-03-22T11:11:26Z</time></trkpt><trkpt lat="44.41205724590825" lon="11.081475383443296"><ele>432.0</ele><time>2026-03-22T11:11:28Z</time></trkpt><trkpt lat="44.41206856526097" lon="11.081346718520514"><ele>432.0</ele><time>2026-03-22T11:11:30Z</time></trkpt><trkpt lat="44.412095654072324" lon="11.081227702939385"><ele>429.6666666666667</ele><time>2026-03-22T11:11:32Z</time></trkpt><trkpt lat="44.41211867841" lon="11.081116700872906"><ele>427.33333333333337</ele><time>2026-03-22T11:11:34Z</time></trkpt><trkpt lat="44.41214363530066" lon="11.081017023593699"><ele>425.0</ele><time>2026-03-22T11:11:36Z</time></trkpt><trkpt lat="44.41216167852514" lon="11.08092625419046"><ele>422.6666666666667</ele><time>2026-03-22T11:11:38Z</time></trkpt><trkpt lat="44.41215269305288" lon="11.080812941152073"><ele>420.33333333333337</ele><time>2026-03-22T11:11:42Z</time></trkpt><trkpt lat="44.41212820848206" lon="11.080706387563332"><ele>418.0</ele><time>2026-03-22T11:11:45.999Z</time></trkpt><trkpt lat="44.41208944681317" lon="11.080632004794849"><ele>414.33333333333337</ele><time>2026-03-22T11:11:48.999Z</time></trkpt><trkpt lat="44.41201121427045" lon="11.080566533206143"><ele>410.6666666666667</ele><time>2026-03-22T11:11:51.999Z</time></trkpt><trkpt lat="44.41194969337118" lon="11.080500168836185"><ele>407.0</ele><time>2026-03-22T11:11:53.999Z</time></trkpt><trkpt lat="44.411878518859496" lon="11.080402704840182"><ele>403.33333333333337</ele><time>2026-03-22T11:11:57Z</time></trkpt><trkpt lat="44.411811355701204" lon="11.080337359484398"><ele>399.6666666666667</ele><time>2026-03-22T11:11:59Z</time></trkpt><trkpt lat="44.41174804703998" lon="11.080268551640748"><ele>396.0</ele><time>2026-03-22T11:12:01Z</time></trkpt><trkpt lat="44.411707702394565" lon="11.08019141454389"><ele>396.0</ele><time>2026-03-22T11:12:03Z</time></trkpt><trkpt lat="44.41167278198231" lon="11.08009730185194"><ele>396.0</ele><time>2026-03-22T11:12:05Z</time></trkpt><trkpt lat="44.41164827818015" lon="11.079975617108905"><ele>396.0</ele><time>2026-03-22T11:12:08Z</time></trkpt><trkpt lat="44.41161585540603" lon="11.079895488095614"><ele>396.0</ele><time>2026-03-22T11:12:10Z</time></trkpt><trkpt lat="44.41157931279145" lon="11.079781586858779"><ele>396.0</ele><time>2026-03-22T11:12:12Z</time></trkpt><trkpt lat="44.41154274983091" lon="11.079683844304137"><ele>396.0</ele><time>2026-03-22T11:12:14Z</time></trkpt><trkpt lat="44.411506947402955" lon="11.079578756269134"><ele>394.8</ele><time>2026-03-22T11:12:16Z</time></trkpt><trkpt lat="44.41146280968551" lon="11.07945918825838"><ele>393.6</ele><time>2026-03-22T11:12:18Z</time></trkpt><trkpt lat="44.41141980577308" lon="11.07933901792634"><ele>392.4</ele><time>2026-03-22T11:12:20Z</time></trkpt><trkpt lat="44.41138761795337" lon="11.079237580897189"><ele>391.2</ele><time>2026-03-22T11:12:22Z</time></trkpt><trkpt lat="44.411338659256735" lon="11.07911614761706"><ele>390.0</ele><time>2026-03-22T11:12:24Z</time></trkpt><trkpt lat="44.411287330479375" lon="11.078981989983482"><ele>390.0</ele><time>2026-03-22T11:12:26Z</time></trkpt><trkpt lat="44.411253404401" lon="11.078897160595059"><ele>390.0</ele><time>2026-03-22T11:12:28Z</time></trkpt><trkpt lat="44.41121828145835" lon="11.078821926967862"><ele>390.0</ele><time>2026-03-22T11:12:36Z</time></trkpt><trkpt lat="44.41117639525975" lon="11.078736674197065"><ele>390.0</ele><time>2026-03-22T11:23:52.999Z</time></trkpt><trkpt lat="44.41113914041834" lon="11.078661206002256"><ele>390.0</ele><time>2026-03-22T11:23:54.999Z</time></trkpt><trkpt lat="44.4110959768863" lon="11.078591195136696"><ele>390.0</ele><time>2026-03-22T11:23:56.999Z</time></trkpt><trkpt lat="44.411048005004155" lon="11.07851567549917"><ele>390.0</ele><time>2026-03-22T11:23:58.999Z</time></trkpt><trkpt lat="44.41099800105439" lon="11.078428301309179"><ele>390.0</ele><time>2026-03-22T11:24:00.999Z</time></trkpt><trkpt lat="44.41094142517769" lon="11.07834447589653"><ele>390.0</ele><time>2026-03-22T11:24:02.999Z</time></trkpt><trkpt lat="44.41088075236654" lon="11.078255314427526"><ele>390.0</ele><time>2026-03-22T11:24:04.999Z</time></trkpt><trkpt lat="44.41082723379508" lon="11.078179077332136"><ele>390.0</ele><time>2026-03-22T11:24:06.999Z</time></trkpt><trkpt lat="44.410759464007356" lon="11.078085680523634"><ele>390.0</ele><time>2026-03-22T11:24:08.999Z</time></trkpt><trkpt lat="44.41069462547107" lon="11.077978065793365"><ele>390.0</ele><time>2026-03-22T11:24:10.999Z</time></trkpt><trkpt lat="44.41063718790477" lon="11.077889230595606"><ele>389.0</ele><time>2026-03-22T11:24:12.999Z</time></trkpt><trkpt lat="44.410607167268815" lon="11.07780494491101"><ele>388.0</ele><time>2026-03-22T11:24:13.999Z</time></trkpt><trkpt lat="44.4105273765679" lon="11.077694236904465"><ele>387.0</ele><time>2026-03-22T11:24:15.999Z</time></trkpt><trkpt lat="44.41044664890603" lon="11.077597560156345"><ele>386.0</ele><time>2026-03-22T11:24:17.999Z</time></trkpt><trkpt lat="44.410400038536956" lon="11.077491070900416"><ele>385.0</ele><time>2026-03-22T11:24:19.999Z</time></trkpt><trkpt lat="44.410322010311255" lon="11.077378025070725"><ele>385.0</ele><time>2026-03-22T11:24:21.999Z</time></trkpt><trkpt lat="44.41027153003844" lon="11.077310489070104"><ele>385.0</ele><time>2026-03-22T11:24:22.999Z</time></trkpt><trkpt lat="44.410220873526754" lon="11.077247030764246"><ele>385.0</ele><time>2026-03-22T11:24:23.999Z</time></trkpt><trkpt lat="44.4101722922299" lon="11.07717155484166"><ele>385.0</ele><time>2026-03-22T11:24:24.999Z</time></trkpt><trkpt lat="44.41010088285664" lon="11.077124543649827"><ele>385.0</ele><time>2026-03-22T11:24:25.999Z</time></trkpt><trkpt lat="44.410030207030225" lon="11.077077776847556"><ele>385.0</ele><time>2026-03-22T11:24:26.999Z</time></trkpt><trkpt lat="44.40997036658898" lon="11.077046004853818"><ele>385.0</ele><time>2026-03-22T11:24:27.999Z</time></trkpt><trkpt lat="44.40987421942987" lon="11.076948607030454"><ele>385.0</ele><time>2026-03-22T11:24:29.999Z</time></trkpt><trkpt lat="44.40981790382356" lon="11.076904110525861"><ele>385.0</ele><time>2026-03-22T11:24:30.999Z</time></trkpt><trkpt lat="44.4097214770723" lon="11.076818430913168"><ele>385.0</ele><time>2026-03-22T11:24:33Z</time></trkpt><trkpt lat="44.40967104172333" lon="11.076672438637356"><ele>385.0</ele><time>2026-03-22T11:24:35Z</time></trkpt><trkpt lat="44.40964175402753" lon="11.076568925848434"><ele>385.0</ele><time>2026-03-22T11:24:36Z</time></trkpt><trkpt lat="44.40961445013474" lon="11.076469235434333"><ele>384.50000000000006</ele><time>2026-03-22T11:24:37Z</time></trkpt><trkpt lat="44.4095912661422" lon="11.076371391143882"><ele>384.0</ele><time>2026-03-22T11:24:38Z</time></trkpt><trkpt lat="44.40956774009151" lon="11.076277868161505"><ele>383.5</ele><time>2026-03-22T11:24:39Z</time></trkpt><trkpt lat="44.40954166719575" lon="11.07618805602586"><ele>383.0</ele><time>2026-03-22T11:24:40Z</time></trkpt><trkpt lat="44.40951582600502" lon="11.0760977866828"><ele>382.5</ele><time>2026-03-22T11:24:41Z</time></trkpt><trkpt lat="44.409473845093466" lon="11.075932886838046"><ele>382.0</ele><time>2026-03-22T11:24:43Z</time></trkpt><trkpt lat="44.40945052841792" lon="11.07584200810561"><ele>381.0</ele><time>2026-03-22T11:24:44Z</time></trkpt><trkpt lat="44.40942441030613" lon="11.075756417889322"><ele>380.0</ele><time>2026-03-22T11:24:45Z</time></trkpt><trkpt lat="44.40939955119646" lon="11.075612100140338"><ele>379.0</ele><time>2026-03-22T11:24:47Z</time></trkpt><trkpt lat="44.40938457479074" lon="11.075459027957981"><ele>378.0</ele><time>2026-03-22T11:24:49Z</time></trkpt><trkpt lat="44.40941005963222" lon="11.075295158518415"><ele>377.0</ele><time>2026-03-22T11:24:51Z</time></trkpt><trkpt lat="44.40941184856684" lon="11.075196734917402"><ele>376.99999999999994</ele><time>2026-03-22T11:24:52Z</time></trkpt><trkpt lat="44.40943104983943" lon="11.075100022387435"><ele>377.0</ele><time>2026-03-22T11:24:53Z</time></trkpt><trkpt lat="44.40945842555794" lon="11.075003850468354"><ele>377.0</ele><time>2026-03-22T11:24:54Z</time></trkpt><trkpt lat="44.40948800949831" lon="11.074917319169586"><ele>377.0</ele><time>2026-03-22T11:24:55Z</time></trkpt><trkpt lat="44.409530916599344" lon="11.074843364702458"><ele>377.0</ele><time>2026-03-22T11:24:56Z</time></trkpt><trkpt lat="44.409572473143754" lon="11.074766182740468"><ele>376.99999999999994</ele><time>2026-03-22T11:24:57Z</time></trkpt><trkpt lat="44.409620810000874" lon="11.074699548078604"><ele>377.0</ele><time>2026-03-22T11:24:58Z</time></trkpt><trkpt lat="44.40966181870258" lon="11.074596885701713"><ele>376.33333333333337</ele><time>2026-03-22T11:24:59Z</time></trkpt><trkpt lat="44.40972368382244" lon="11.074521567004052"><ele>375.6666666666667</ele><time>2026-03-22T11:25:00Z</time></trkpt><trkpt lat="44.40977363635366" lon="11.074443181809864"><ele>375.0</ele><time>2026-03-22T11:25:01Z</time></trkpt><trkpt lat="44.409824599469374" lon="11.07435188669036"><ele>374.3333333333333</ele><time>2026-03-22T11:25:02Z</time></trkpt><trkpt lat="44.40988083272315" lon="11.074259853276983"><ele>373.66666666666663</ele><time>2026-03-22T11:25:03Z</time></trkpt><trkpt lat="44.40993376417606" lon="11.074183313593936"><ele>373.0</ele><time>2026-03-22T11:25:04Z</time></trkpt><trkpt lat="44.4099764119731" lon="11.074103630551162"><ele>372.5</ele><time>2026-03-22T11:25:05Z</time></trkpt><trkpt lat="44.40998462512839" lon="11.074008926151471"><ele>372.0</ele><time>2026-03-22T11:25:06Z</time></trkpt><trkpt lat="44.40998817304556" lon="11.073830127269861"><ele>371.5</ele><time>2026-03-22T11:25:08.001Z</time></trkpt><trkpt lat="44.409969458247694" lon="11.073744543539044"><ele>371.0</ele><time>2026-03-22T11:25:09Z</time></trkpt><trkpt lat="44.4099611013276" lon="11.073656707566528"><ele>370.5</ele><time>2026-03-22T11:25:10Z</time></trkpt><trkpt lat="44.40999735226058" lon="11.07350367917757"><ele>370.0</ele><time>2026-03-22T11:25:12Z</time></trkpt><trkpt lat="44.4100211880497" lon="11.073421615216148"><ele>370.0</ele><time>2026-03-22T11:25:13Z</time></trkpt><trkpt lat="44.410067995299926" lon="11.073273882651893"><ele>370.0</ele><time>2026-03-22T11:25:15Z</time></trkpt><trkpt lat="44.41009552116472" lon="11.073156817098498"><ele>370.0</ele><time>2026-03-22T11:25:17Z</time></trkpt><trkpt lat="44.41010842271682" lon="11.073066960994083"><ele>370.0</ele><time>2026-03-22T11:25:19Z</time></trkpt><trkpt lat="44.41012528454695" lon="11.072976491080167"><ele>370.0</ele><time>2026-03-22T11:25:22Z</time></trkpt><trkpt lat="44.4101555763398" lon="11.072883404545726"><ele>370.0</ele><time>2026-03-22T11:25:33Z</time></trkpt><trkpt lat="44.41024952485717" lon="11.072971829450449"><ele>370.0</ele><time>2026-03-22T11:25:38Z</time></trkpt><trkpt lat="44.41031179410777" lon="11.073030517761376"><ele>370.0</ele><time>2026-03-22T11:25:40Z</time></trkpt><trkpt lat="44.410413536588884" lon="11.073122538293742"><ele>370.0</ele><time>2026-03-22T11:25:42Z</time></trkpt><trkpt lat="44.410482126316325" lon="11.073164195081175"><ele>370.0</ele><time>2026-03-22T11:25:43Z</time></trkpt><trkpt lat="44.41053676772958" lon="11.073224494264448"><ele>370.0</ele><time>2026-03-22T11:25:44Z</time></trkpt><trkpt lat="44.41058857544149" lon="11.073275889231795"><ele>370.0</ele><time>2026-03-22T11:25:45Z</time></trkpt><trkpt lat="44.4106750686843" lon="11.073362834672167"><ele>370.0</ele><time>2026-03-22T11:25:47Z</time></trkpt><trkpt lat="44.410752656480604" lon="11.073444268350816"><ele>370.0</ele><time>2026-03-22T11:25:49Z</time></trkpt><trkpt lat="44.4108177499216" lon="11.073508713379908"><ele>370.0</ele><time>2026-03-22T11:25:51Z</time></trkpt><trkpt lat="44.41089414905722" lon="11.073547062048448"><ele>370.0</ele><time>2026-03-22T11:25:53Z</time></trkpt><trkpt lat="44.41098170737387" lon="11.073546105034417"><ele>370.0</ele><time>2026-03-22T11:25:55Z</time></trkpt><trkpt lat="44.41106287502472" lon="11.07353910230754"><ele>370.0</ele><time>2026-03-22T11:25:57Z</time></trkpt><trkpt lat="44.4111511195461" lon="11.07352283046502"><ele>370.0</ele><time>2026-03-22T11:25:59Z</time></trkpt><trkpt lat="44.41122039855356" lon="11.07351464671693"><ele>370.0</ele><time>2026-03-22T11:26:01Z</time></trkpt><trkpt lat="44.411300838222246" lon="11.073547780805587"><ele>370.0</ele><time>2026-03-22T11:28:12Z</time></trkpt><trkpt lat="44.41137486277528" lon="11.07360826513233"><ele>370.0</ele><time>2026-03-22T11:28:14Z</time></trkpt><trkpt lat="44.41147092603692" lon="11.07369824141002"><ele>370.0</ele><time>2026-03-22T11:28:16Z</time></trkpt><trkpt lat="44.41152750638458" lon="11.073754538022063"><ele>370.0</ele><time>2026-03-22T11:28:17Z</time></trkpt><trkpt lat="44.41157854827665" lon="11.073807329095642"><ele>369.4</ele><time>2026-03-22T11:28:18Z</time></trkpt><trkpt lat="44.4116628669731" lon="11.073906035717709"><ele>368.8</ele><time>2026-03-22T11:28:20Z</time></trkpt><trkpt lat="44.411756438453885" lon="11.074019917519134"><ele>368.20000000000005</ele><time>2026-03-22T11:28:22Z</time></trkpt><trkpt lat="44.411837603806795" lon="11.074109691170468"><ele>367.6</ele><time>2026-03-22T11:28:24Z</time></trkpt><trkpt lat="44.41194451501287" lon="11.074153293596828"><ele>367.0</ele><time>2026-03-22T11:28:26Z</time></trkpt><trkpt lat="44.41203009093002" lon="11.07423816011789"><ele>367.40000000000003</ele><time>2026-03-22T11:28:28Z</time></trkpt><trkpt lat="44.412067299387544" lon="11.074316614548819"><ele>367.8</ele><time>2026-03-22T11:28:29Z</time></trkpt><trkpt lat="44.412163128822016" lon="11.074416445707856"><ele>368.2</ele><time>2026-03-22T11:28:31Z</time></trkpt><trkpt lat="44.412261755500886" lon="11.07445444718383"><ele>368.6</ele><time>2026-03-22T11:28:33Z</time></trkpt><trkpt lat="44.412335969874285" lon="11.0744732249117"><ele>369.0</ele><time>2026-03-22T11:28:35Z</time></trkpt><trkpt lat="44.41241748172768" lon="11.074510430883766"><ele>369.0</ele><time>2026-03-22T11:28:39Z</time></trkpt><trkpt lat="44.41244537872646" lon="11.074601216864856"><ele>369.0</ele><time>2026-03-22T11:28:40Z</time></trkpt><trkpt lat="44.41251132030657" lon="11.074651260705522"><ele>369.0</ele><time>2026-03-22T11:28:42Z</time></trkpt><trkpt lat="44.4125891062617" lon="11.074542466939064"><ele>369.0</ele><time>2026-03-22T11:28:45Z</time></trkpt><trkpt lat="44.41265052988013" lon="11.07449075772485"><ele>369.0</ele><time>2026-03-22T11:28:57Z</time></trkpt><trkpt lat="44.41265476619392" lon="11.074604356543642"><ele>369.0</ele><time>2026-03-22T11:29:14Z</time></trkpt><trkpt lat="44.41267925291907" lon="11.07469918570652"><ele>369.0</ele><time>2026-03-22T11:29:21Z</time></trkpt><trkpt lat="44.41270493397308" lon="11.074798640116366"><ele>369.0</ele><time>2026-03-22T11:29:24Z</time></trkpt><trkpt lat="44.41273550645124" lon="11.07491703744765"><ele>369.0</ele><time>2026-03-22T11:29:27Z</time></trkpt><trkpt lat="44.41276653918603" lon="11.07500130437773"><ele>369.0</ele><time>2026-03-22T11:29:29Z</time></trkpt><trkpt lat="44.412795935821386" lon="11.075086000576517"><ele>369.0</ele><time>2026-03-22T11:29:31Z</time></trkpt><trkpt lat="44.412842836826336" lon="11.075173479265633"><ele>369.0</ele><time>2026-03-22T11:29:33Z</time></trkpt><trkpt lat="44.41291440063473" lon="11.075185796863448"><ele>369.0</ele><time>2026-03-22T11:29:36Z</time></trkpt><trkpt lat="44.412841789332674" lon="11.07510831118014"><ele>369.0</ele><time>2026-03-22T11:29:50Z</time></trkpt><trkpt lat="44.412795148903314" lon="11.075039732192533"><ele>369.0</ele><time>2026-03-22T11:29:52Z</time></trkpt><trkpt lat="44.41276388530392" lon="11.074943114118128"><ele>369.0</ele><time>2026-03-22T11:29:54Z</time></trkpt><trkpt lat="44.41274508898288" lon="11.074850195830777"><ele>369.0</ele><time>2026-03-22T11:29:56Z</time></trkpt><trkpt lat="44.4127315511323" lon="11.074744093920481"><ele>369.0</ele><time>2026-03-22T11:29:58Z</time></trkpt><trkpt lat="44.41271376628246" lon="11.074639844707"><ele>369.0</ele><time>2026-03-22T11:30:00Z</time></trkpt><trkpt lat="44.41269211985089" lon="11.074512188834955"><ele>369.0</ele><time>2026-03-22T11:30:03Z</time></trkpt><trkpt lat="44.412544191898874" lon="11.074516357779508"><ele>369.0</ele><time>2026-03-22T11:30:08Z</time></trkpt><trkpt lat="44.412505749153816" lon="11.074586953900276"><ele>369.0</ele><time>2026-03-22T11:30:10Z</time></trkpt><trkpt lat="44.41245854395451" lon="11.074667815023346"><ele>369.0</ele><time>2026-03-22T11:30:13Z</time></trkpt><trkpt lat="44.412607185700985" lon="11.074953445592012"><ele>368.0</ele><time>2026-03-22T11:30:18Z</time></trkpt><trkpt lat="44.4126380396945" lon="11.075067464042199"><ele>367.0</ele><time>2026-03-22T11:30:21Z</time></trkpt><trkpt lat="44.41267322189127" lon="11.07516289247941"><ele>366.0</ele><time>2026-03-22T11:30:24Z</time></trkpt><trkpt lat="44.41272603279442" lon="11.075228661013742"><ele>365.0</ele><time>2026-03-22T11:30:40Z</time></trkpt><trkpt lat="44.41275424278281" lon="11.075329394837539"><ele>364.0</ele><time>2026-03-22T11:30:44.999Z</time></trkpt><trkpt lat="44.41279430234975" lon="11.075407648321283"><ele>363.0</ele><time>2026-03-22T11:30:47.999Z</time></trkpt><trkpt lat="44.412843030311954" lon="11.075487332400412"><ele>363.0</ele><time>2026-03-22T11:30:51Z</time></trkpt><trkpt lat="44.41290582100599" lon="11.075574652452222"><ele>363.0</ele><time>2026-03-22T11:30:54Z</time></trkpt><trkpt lat="44.41297201223838" lon="11.075635767091583"><ele>363.0</ele><time>2026-03-22T11:30:57Z</time></trkpt><trkpt lat="44.413033615525705" lon="11.075708981410992"><ele>363.0</ele><time>2026-03-22T11:31:00Z</time></trkpt><trkpt lat="44.413100800601036" lon="11.075796736811261"><ele>363.0</ele><time>2026-03-22T11:31:03Z</time></trkpt><trkpt lat="44.41315141212072" lon="11.075871599476816"><ele>363.0</ele><time>2026-03-22T11:31:06Z</time></trkpt><trkpt lat="44.41322204503033" lon="11.07595348062046"><ele>363.85714285714283</ele><time>2026-03-22T11:31:09Z</time></trkpt><trkpt lat="44.41327605178077" lon="11.076015255112692"><ele>364.7142857142857</ele><time>2026-03-22T11:31:12Z</time></trkpt><trkpt lat="44.413339036837684" lon="11.076071928322136"><ele>365.57142857142856</ele><time>2026-03-22T11:31:52Z</time></trkpt><trkpt lat="44.41337753541889" lon="11.076142094544403"><ele>366.42857142857144</ele><time>2026-03-22T11:31:55Z</time></trkpt><trkpt lat="44.413369868745" lon="11.076231276442067"><ele>367.2857142857143</ele><time>2026-03-22T11:32:04Z</time></trkpt><trkpt lat="44.41337235258812" lon="11.076319449508766"><ele>368.1428571428571</ele><time>2026-03-22T11:32:06Z</time></trkpt><trkpt lat="44.413401735650964" lon="11.076407252220358"><ele>369.0</ele><time>2026-03-22T11:32:09Z</time></trkpt><trkpt lat="44.41339652684075" lon="11.076515260595727"><ele>364.8333333333333</ele><time>2026-03-22T11:32:12Z</time></trkpt><trkpt lat="44.4133685246618" lon="11.076626301358655"><ele>360.6666666666667</ele><time>2026-03-22T11:32:15Z</time></trkpt><trkpt lat="44.41335714041274" lon="11.076748948512424"><ele>356.5</ele><time>2026-03-22T11:32:18Z</time></trkpt><trkpt lat="44.41336808422662" lon="11.07686523475674"><ele>352.33333333333337</ele><time>2026-03-22T11:32:21Z</time></trkpt><trkpt lat="44.41342065767186" lon="11.076931718891284"><ele>348.1666666666667</ele><time>2026-03-22T11:32:38.999Z</time></trkpt><trkpt lat="44.41346442176128" lon="11.077014959630365"><ele>344.0</ele><time>2026-03-22T11:32:40.999Z</time></trkpt><trkpt lat="44.41351595198498" lon="11.077110833772236"><ele>344.0</ele><time>2026-03-22T11:32:42.999Z</time></trkpt><trkpt lat="44.41353071820649" lon="11.077227280180704"><ele>344.0</ele><time>2026-03-22T11:32:44.999Z</time></trkpt><trkpt lat="44.41353542353677" lon="11.07734560083065"><ele>344.0</ele><time>2026-03-22T11:32:46.999Z</time></trkpt><trkpt lat="44.41352940851228" lon="11.07746807649682"><ele>344.0</ele><time>2026-03-22T11:32:48.999Z</time></trkpt><trkpt lat="44.41354102750265" lon="11.07756536450843"><ele>344.0</ele><time>2026-03-22T11:32:50.999Z</time></trkpt><trkpt lat="44.413569305391654" lon="11.077652039622249"><ele>344.0</ele><time>2026-03-22T11:32:52.999Z</time></trkpt><trkpt lat="44.413594274505414" lon="11.077746725935512"><ele>341.83333333333337</ele><time>2026-03-22T11:32:56Z</time></trkpt><trkpt lat="44.413594329615066" lon="11.077834989846313"><ele>339.6666666666667</ele><time>2026-03-22T11:33:06Z</time></trkpt><trkpt lat="44.413525933968295" lon="11.077864461913883"><ele>337.5</ele><time>2026-03-22T11:33:10Z</time></trkpt><trkpt lat="44.4135194426063" lon="11.077756078382052"><ele>335.3333333333333</ele><time>2026-03-22T11:33:18Z</time></trkpt><trkpt lat="44.41355734571219" lon="11.077678455679397"><ele>333.16666666666663</ele><time>2026-03-22T11:33:20Z</time></trkpt><trkpt lat="44.41354344888352" lon="11.077580376371507"><ele>331.0</ele><time>2026-03-22T11:33:22Z</time></trkpt><trkpt lat="44.41348648390095" lon="11.077445504184611"><ele>333.6</ele><time>2026-03-22T11:33:24Z</time></trkpt><trkpt lat="44.4135146810379" lon="11.077328514671628"><ele>336.20000000000005</ele><time>2026-03-22T11:33:27Z</time></trkpt><trkpt lat="44.413507959969095" lon="11.077182523725208"><ele>338.79999999999995</ele><time>2026-03-22T11:33:29Z</time></trkpt><trkpt lat="44.41346751709993" lon="11.077058576822418"><ele>341.4</ele><time>2026-03-22T11:33:31Z</time></trkpt><trkpt lat="44.413394646870735" lon="11.076928907332412"><ele>344.0</ele><time>2026-03-22T11:33:33Z</time></trkpt><trkpt lat="44.41334390515845" lon="11.076852779805753"><ele>344.0</ele><time>2026-03-22T11:33:35Z</time></trkpt><trkpt lat="44.41333249104766" lon="11.076751774699678"><ele>344.0</ele><time>2026-03-22T11:33:39Z</time></trkpt><trkpt lat="44.413336684301825" lon="11.076622367089549"><ele>344.0</ele><time>2026-03-22T11:33:42Z</time></trkpt><trkpt lat="44.41334287743525" lon="11.076508082220691"><ele>344.0</ele><time>2026-03-22T11:33:44Z</time></trkpt><trkpt lat="44.41333426983872" lon="11.07638521326797"><ele>344.0</ele><time>2026-03-22T11:33:46Z</time></trkpt><trkpt lat="44.413328527612116" lon="11.076290522714327"><ele>344.0</ele><time>2026-03-22T11:33:47Z</time></trkpt><trkpt lat="44.41334512014403" lon="11.07619320187901"><ele>348.1666666666667</ele><time>2026-03-22T11:33:49Z</time></trkpt><trkpt lat="44.41332859602952" lon="11.076089904828425"><ele>352.33333333333337</ele><time>2026-03-22T11:33:52Z</time></trkpt><trkpt lat="44.41326909682307" lon="11.076010569844636"><ele>356.5</ele><time>2026-03-22T11:33:54Z</time></trkpt><trkpt lat="44.413209837470085" lon="11.075950396282714"><ele>360.6666666666667</ele><time>2026-03-22T11:33:58Z</time></trkpt><trkpt lat="44.41314734130286" lon="11.07586491045914"><ele>364.8333333333333</ele><time>2026-03-22T11:34:01Z</time></trkpt><trkpt lat="44.413098903545034" lon="11.075792451262414"><ele>369.0</ele><time>2026-03-22T11:34:04Z</time></trkpt><trkpt lat="44.41304988302963" lon="11.07573348696594"><ele>368.0</ele><time>2026-03-22T11:34:06Z</time></trkpt><trkpt lat="44.412999634065194" lon="11.07566609943476"><ele>367.0</ele><time>2026-03-22T11:34:08Z</time></trkpt><trkpt lat="44.4129284573726" lon="11.07559781426198"><ele>366.0</ele><time>2026-03-22T11:34:10Z</time></trkpt><trkpt lat="44.412867311456246" lon="11.075537802196884"><ele>365.0</ele><time>2026-03-22T11:34:14Z</time></trkpt><trkpt lat="44.41281813688295" lon="11.075457075523538"><ele>364.0</ele><time>2026-03-22T11:34:16Z</time></trkpt><trkpt lat="44.41276516439911" lon="11.0753627853942"><ele>363.0</ele><time>2026-03-22T11:34:19Z</time></trkpt><trkpt lat="44.41271956125043" lon="11.07525391042568"><ele>363.0</ele><time>2026-03-22T11:34:22Z</time></trkpt><trkpt lat="44.412677370843355" lon="11.075153841452666"><ele>363.0</ele><time>2026-03-22T11:34:24Z</time></trkpt><trkpt lat="44.41263975535504" lon="11.07507329218455"><ele>363.0</ele><time>2026-03-22T11:34:26Z</time></trkpt><trkpt lat="44.4125985791592" lon="11.074978706003758"><ele>363.0</ele><time>2026-03-22T11:34:28Z</time></trkpt><trkpt lat="44.41255557268578" lon="11.07486131534012"><ele>363.0</ele><time>2026-03-22T11:34:30Z</time></trkpt><trkpt lat="44.412518737380545" lon="11.074783451136572"><ele>363.0</ele><time>2026-03-22T11:34:32Z</time></trkpt><trkpt lat="44.4127012832097" lon="11.074647446785383"><ele>364.5</ele><time>2026-03-22T11:34:33Z</time></trkpt><trkpt lat="44.41251432777517" lon="11.0745687140739"><ele>366.0</ele><time>2026-03-22T11:34:37Z</time></trkpt><trkpt lat="44.41247297603012" lon="11.074493200771393"><ele>367.5</ele><time>2026-03-22T11:34:45.999Z</time></trkpt><trkpt lat="44.412376041010155" lon="11.074423712182696"><ele>369.0</ele><time>2026-03-22T11:34:48.999Z</time></trkpt><trkpt lat="44.412242232699604" lon="11.074391548538655"><ele>368.6</ele><time>2026-03-22T11:34:50.999Z</time></trkpt><trkpt lat="44.41213729313741" lon="11.074340472045336"><ele>368.2</ele><time>2026-03-22T11:34:52.999Z</time></trkpt><trkpt lat="44.41206335859892" lon="11.074240011290076"><ele>367.8</ele><time>2026-03-22T11:34:54.999Z</time></trkpt><trkpt lat="44.41194499493496" lon="11.074145716380253"><ele>367.40000000000003</ele><time>2026-03-22T11:34:56.999Z</time></trkpt><trkpt lat="44.41189325213075" lon="11.074095511104323"><ele>367.0</ele><time>2026-03-22T11:34:57.999Z</time></trkpt><trkpt lat="44.41181043131637" lon="11.074043464275226"><ele>367.0</ele><time>2026-03-22T11:35:00Z</time></trkpt><trkpt lat="44.4117606907071" lon="11.073960963521651"><ele>367.0</ele><time>2026-03-22T11:35:01Z</time></trkpt><trkpt lat="44.41169757432942" lon="11.073872319613912"><ele>367.0</ele><time>2026-03-22T11:35:02Z</time></trkpt><trkpt lat="44.4116224715038" lon="11.07379707341288"><ele>367.0</ele><time>2026-03-22T11:35:03Z</time></trkpt><trkpt lat="44.41156428743244" lon="11.073725171678664"><ele>367.0</ele><time>2026-03-22T11:35:04Z</time></trkpt><trkpt lat="44.41145514970907" lon="11.07363476782211"><ele>367.0</ele><time>2026-03-22T11:35:06Z</time></trkpt><trkpt lat="44.41139764561895" lon="11.073581187115813"><ele>367.0</ele><time>2026-03-22T11:35:07Z</time></trkpt><trkpt lat="44.41130543847195" lon="11.073506470392225"><ele>367.0</ele><time>2026-03-22T11:35:09Z</time></trkpt><trkpt lat="44.411248810171685" lon="11.07346072035815"><ele>367.0</ele><time>2026-03-22T11:35:11Z</time></trkpt><trkpt lat="44.411160401294765" lon="11.073452475179316"><ele>367.0</ele><time>2026-03-22T11:35:16Z</time></trkpt><trkpt lat="44.411092383240465" lon="11.073462644967716"><ele>367.0</ele><time>2026-03-22T11:35:17Z</time></trkpt><trkpt lat="44.411018981610816" lon="11.07347859957042"><ele>367.5</ele><time>2026-03-22T11:35:18Z</time></trkpt><trkpt lat="44.41093803789472" lon="11.073491386882521"><ele>368.0</ele><time>2026-03-22T11:35:19Z</time></trkpt><trkpt lat="44.410869631027715" lon="11.073486086666117"><ele>368.5</ele><time>2026-03-22T11:35:20Z</time></trkpt><trkpt lat="44.41080855781381" lon="11.073457131456712"><ele>369.0</ele><time>2026-03-22T11:35:21Z</time></trkpt><trkpt lat="44.410728140854374" lon="11.073400694420872"><ele>369.5</ele><time>2026-03-22T11:35:22Z</time></trkpt><trkpt lat="44.410645580658304" lon="11.073308542612933"><ele>370.0</ele><time>2026-03-22T11:35:23Z</time></trkpt><trkpt lat="44.41055510517829" lon="11.073216549022787"><ele>369.16666666666663</ele><time>2026-03-22T11:35:24Z</time></trkpt><trkpt lat="44.410480367507475" lon="11.073143129490647"><ele>368.3333333333333</ele><time>2026-03-22T11:35:25Z</time></trkpt><trkpt lat="44.410419386042214" lon="11.073081101622428"><ele>367.5</ele><time>2026-03-22T11:35:26Z</time></trkpt><trkpt lat="44.410358867983774" lon="11.073018002087085"><ele>366.6666666666667</ele><time>2026-03-22T11:35:27Z</time></trkpt><trkpt lat="44.41029975183996" lon="11.07296274150661"><ele>365.83333333333337</ele><time>2026-03-22T11:35:28Z</time></trkpt><trkpt lat="44.41022119581548" lon="11.07289282463591"><ele>365.0</ele><time>2026-03-22T11:35:30Z</time></trkpt><trkpt lat="44.41027168174996" lon="11.072706146386986"><ele>365.0</ele><time>2026-03-22T11:35:35Z</time></trkpt><trkpt lat="44.41032748604661" lon="11.072615908043623"><ele>365.0</ele><time>2026-03-22T11:35:36Z</time></trkpt><trkpt lat="44.41039581025889" lon="11.07252641107785"><ele>365.0</ele><time>2026-03-22T11:35:37Z</time></trkpt><trkpt lat="44.41047019465778" lon="11.072431623202686"><ele>365.0</ele><time>2026-03-22T11:35:38Z</time></trkpt><trkpt lat="44.41055834188815" lon="11.072321274145011"><ele>365.0</ele><time>2026-03-22T11:35:39Z</time></trkpt><trkpt lat="44.41065552181914" lon="11.072210048954755"><ele>366.4</ele><time>2026-03-22T11:35:40Z</time></trkpt><trkpt lat="44.41075998756319" lon="11.072110313966645"><ele>367.8</ele><time>2026-03-22T11:35:41Z</time></trkpt><trkpt lat="44.410875697617364" lon="11.072040063178598"><ele>369.20000000000005</ele><time>2026-03-22T11:35:42Z</time></trkpt><trkpt lat="44.41097745668311" lon="11.072020151705315"><ele>370.6</ele><time>2026-03-22T11:35:43Z</time></trkpt><trkpt lat="44.411065543597935" lon="11.071992676278327"><ele>372.0</ele><time>2026-03-22T11:35:44Z</time></trkpt><trkpt lat="44.41114909623511" lon="11.071973146521744"><ele>372.0</ele><time>2026-03-22T11:35:45Z</time></trkpt><trkpt lat="44.4112401286386" lon="11.071955255833023"><ele>372.0</ele><time>2026-03-22T11:35:46Z</time></trkpt><trkpt lat="44.41133750252454" lon="11.071941855884228"><ele>372.0</ele><time>2026-03-22T11:35:47Z</time></trkpt><trkpt lat="44.41142972354154" lon="11.071943557787602"><ele>372.0</ele><time>2026-03-22T11:35:48Z</time></trkpt><trkpt lat="44.411531831647316" lon="11.071953505918211"><ele>372.0</ele><time>2026-03-22T11:35:49Z</time></trkpt><trkpt lat="44.411636610175094" lon="11.071971766359638"><ele>375.0</ele><time>2026-03-22T11:35:50Z</time></trkpt><trkpt lat="44.41174779300767" lon="11.07199402089848"><ele>378.0</ele><time>2026-03-22T11:35:51Z</time></trkpt><trkpt lat="44.41186236780747" lon="11.072005507688333"><ele>381.0</ele><time>2026-03-22T11:35:52Z</time></trkpt><trkpt lat="44.41197811870192" lon="11.072013884563106"><ele>384.0</ele><time>2026-03-22T11:35:53Z</time></trkpt><trkpt lat="44.412096784914176" lon="11.072025286426769"><ele>387.0</ele><time>2026-03-22T11:35:54Z</time></trkpt><trkpt lat="44.41222763858991" lon="11.072040637158043"><ele>390.0</ele><time>2026-03-22T11:35:55Z</time></trkpt><trkpt lat="44.41236583980424" lon="11.072060127464978"><ele>393.0</ele><time>2026-03-22T11:35:56Z</time></trkpt><trkpt lat="44.41250319305675" lon="11.072087323258765"><ele>396.0</ele><time>2026-03-22T11:35:57Z</time></trkpt><trkpt lat="44.41262913479006" lon="11.072122494417048"><ele>396.0</ele><time>2026-03-22T11:35:58Z</time></trkpt><trkpt lat="44.41271721074774" lon="11.072209336437096"><ele>396.0</ele><time>2026-03-22T11:35:59Z</time></trkpt><trkpt lat="44.412760552198975" lon="11.07231565925876"><ele>396.0</ele><time>2026-03-22T11:36:00Z</time></trkpt><trkpt lat="44.41281411243827" lon="11.072430193665957"><ele>396.0</ele><time>2026-03-22T11:36:01Z</time></trkpt><trkpt lat="44.412880348931715" lon="11.072559180143262"><ele>396.0</ele><time>2026-03-22T11:36:02Z</time></trkpt><trkpt lat="44.412951194322595" lon="11.072695210267701"><ele>398.4</ele><time>2026-03-22T11:36:03Z</time></trkpt><trkpt lat="44.41302548564926" lon="11.072835978662528"><ele>400.8</ele><time>2026-03-22T11:36:04Z</time></trkpt><trkpt lat="44.41309461277804" lon="11.072974087533401"><ele>403.2</ele><time>2026-03-22T11:36:05Z</time></trkpt><trkpt lat="44.413153514197084" lon="11.073083960847676"><ele>405.59999999999997</ele><time>2026-03-22T11:36:06Z</time></trkpt><trkpt lat="44.4132019792292" lon="11.07316799274344"><ele>408.0</ele><time>2026-03-22T11:36:07Z</time></trkpt><trkpt lat="44.413296326391844" lon="11.073264935922289"><ele>408.0</ele><time>2026-03-22T11:36:09Z</time></trkpt><trkpt lat="44.413363814082885" lon="11.073288353447628"><ele>408.0</ele><time>2026-03-22T11:36:10Z</time></trkpt><trkpt lat="44.41342817679241" lon="11.07331606994311"><ele>408.0</ele><time>2026-03-22T11:36:11Z</time></trkpt><trkpt lat="44.41349889243295" lon="11.073329607113202"><ele>408.0</ele><time>2026-03-22T11:36:12Z</time></trkpt><trkpt lat="44.41357420251775" lon="11.073292580310357"><ele>408.0</ele><time>2026-03-22T11:36:13Z</time></trkpt><trkpt lat="44.41364217359749" lon="11.073233791924457"><ele>408.0</ele><time>2026-03-22T11:36:14Z</time></trkpt><trkpt lat="44.41372532333098" lon="11.0731637983504"><ele>408.0</ele><time>2026-03-22T11:36:15Z</time></trkpt><trkpt lat="44.413814727190555" lon="11.073091419189968"><ele>408.0</ele><time>2026-03-22T11:36:16Z</time></trkpt><trkpt lat="44.41390326025611" lon="11.073056390680234"><ele>408.0</ele><time>2026-03-22T11:36:17Z</time></trkpt><trkpt lat="44.41399574819357" lon="11.072963989961307"><ele>408.0</ele><time>2026-03-22T11:36:19Z</time></trkpt><trkpt lat="44.414053101537306" lon="11.072899031193424"><ele>408.0</ele><time>2026-03-22T11:36:21Z</time></trkpt><trkpt lat="44.41411462023171" lon="11.07304869893895"><ele>408.4</ele><time>2026-03-22T11:36:23Z</time></trkpt><trkpt lat="44.41419609938887" lon="11.07317934307318"><ele>408.79999999999995</ele><time>2026-03-22T11:36:25Z</time></trkpt><trkpt lat="44.414244044792355" lon="11.073258017357471"><ele>409.2</ele><time>2026-03-22T11:36:26Z</time></trkpt><trkpt lat="44.41429251670435" lon="11.07334319831453"><ele>409.6</ele><time>2026-03-22T11:36:27Z</time></trkpt><trkpt lat="44.41432037447158" lon="11.073431276290995"><ele>410.0</ele><time>2026-03-22T11:36:28Z</time></trkpt><trkpt lat="44.41435528191783" lon="11.07360303226858"><ele>409.99999999999994</ele><time>2026-03-22T11:36:30Z</time></trkpt><trkpt lat="44.414335209139004" lon="11.073740622695396"><ele>410.0</ele><time>2026-03-22T11:36:32Z</time></trkpt><trkpt lat="44.414317620935336" lon="11.073829923119693"><ele>410.0</ele><time>2026-03-22T11:36:33Z</time></trkpt><trkpt lat="44.414292902703686" lon="11.073923541890167"><ele>410.0</ele><time>2026-03-22T11:36:34Z</time></trkpt><trkpt lat="44.4142648912701" lon="11.074035739146453"><ele>409.99999999999994</ele><time>2026-03-22T11:36:35Z</time></trkpt><trkpt lat="44.414233975264494" lon="11.074166347877227"><ele>410.0</ele><time>2026-03-22T11:36:36Z</time></trkpt><trkpt lat="44.4142032716914" lon="11.074294746983616"><ele>411.8</ele><time>2026-03-22T11:36:37Z</time></trkpt><trkpt lat="44.41417733099603" lon="11.074400480629844"><ele>413.6</ele><time>2026-03-22T11:36:38Z</time></trkpt><trkpt lat="44.41414994159345" lon="11.074553099573581"><ele>415.4</ele><time>2026-03-22T11:36:40Z</time></trkpt><trkpt lat="44.41414435248437" lon="11.07472209846316"><ele>417.2</ele><time>2026-03-22T11:36:42Z</time></trkpt><trkpt lat="44.414150427164664" lon="11.074814143773455"><ele>419.0</ele><time>2026-03-22T11:36:43Z</time></trkpt><trkpt lat="44.41416518658682" lon="11.074913477121195"><ele>419.16666666666663</ele><time>2026-03-22T11:36:44Z</time></trkpt><trkpt lat="44.414196387808005" lon="11.075045474420598"><ele>419.3333333333333</ele><time>2026-03-22T11:36:46Z</time></trkpt><trkpt lat="44.41423672424759" lon="11.075196399864947"><ele>419.5</ele><time>2026-03-22T11:36:48Z</time></trkpt><trkpt lat="44.41427069565445" lon="11.075288364958201"><ele>419.66666666666663</ele><time>2026-03-22T11:36:49Z</time></trkpt><trkpt lat="44.41431279299712" lon="11.075383140036038"><ele>419.8333333333333</ele><time>2026-03-22T11:36:50Z</time></trkpt><trkpt lat="44.41436760285787" lon="11.075460093288525"><ele>420.0</ele><time>2026-03-22T11:36:50.999Z</time></trkpt><trkpt lat="44.414402930556435" lon="11.075537573412436"><ele>420.0</ele><time>2026-03-22T11:36:51.999Z</time></trkpt><trkpt lat="44.41444237269792" lon="11.075612463704552"><ele>420.0</ele><time>2026-03-22T11:36:52.999Z</time></trkpt><trkpt lat="44.41454485545064" lon="11.075702808066833"><ele>420.0</ele><time>2026-03-22T11:36:54.999Z</time></trkpt><trkpt lat="44.41464870894147" lon="11.075787434349635"><ele>420.0</ele><time>2026-03-22T11:36:56.999Z</time></trkpt><trkpt lat="44.414726806306454" lon="11.075844816140721"><ele>420.0</ele><time>2026-03-22T11:36:57.999Z</time></trkpt><trkpt lat="44.41480073721545" lon="11.075894934837285"><ele>420.0</ele><time>2026-03-22T11:36:58.999Z</time></trkpt><trkpt lat="44.41490699697078" lon="11.075952299227364"><ele>420.0</ele><time>2026-03-22T11:37:00.999Z</time></trkpt><trkpt lat="44.41498235316732" lon="11.07597903934763"><ele>420.0</ele><time>2026-03-22T11:37:02.999Z</time></trkpt><trkpt lat="44.41502857744574" lon="11.075899902184474"><ele>420.0</ele><time>2026-03-22T11:38:11Z</time></trkpt><trkpt lat="44.415008344909076" lon="11.075792251264124"><ele>420.0</ele><time>2026-03-22T11:38:13Z</time></trkpt><trkpt lat="44.41498047226027" lon="11.075692335122682"><ele>420.0</ele><time>2026-03-22T11:38:14Z</time></trkpt><trkpt lat="44.414940115624155" lon="11.075609609051012"><ele>420.0</ele><time>2026-03-22T11:38:15Z</time></trkpt><trkpt lat="44.41489498991932" lon="11.075538374738732"><ele>420.0</ele><time>2026-03-22T11:38:16Z</time></trkpt><trkpt lat="44.41485020126834" lon="11.07547437108182"><ele>420.0</ele><time>2026-03-22T11:38:17Z</time></trkpt><trkpt lat="44.41479673179113" lon="11.07540028824102"><ele>420.0</ele><time>2026-03-22T11:38:18Z</time></trkpt><trkpt lat="44.414747305277714" lon="11.075329378631517"><ele>420.0</ele><time>2026-03-22T11:38:19Z</time></trkpt><trkpt lat="44.41466842839844" lon="11.075211317365651"><ele>420.0</ele><time>2026-03-22T11:38:21Z</time></trkpt><trkpt lat="44.41460597287739" lon="11.075112051376117"><ele>420.0</ele><time>2026-03-22T11:38:23Z</time></trkpt><trkpt lat="44.41459428176117" lon="11.075002638589247"><ele>420.0</ele><time>2026-03-22T11:38:26Z</time></trkpt><trkpt lat="44.41454683413404" lon="11.07491559055422"><ele>420.0</ele><time>2026-03-22T11:38:28Z</time></trkpt><trkpt lat="44.41451490581959" lon="11.074830593617754"><ele>420.0</ele><time>2026-03-22T11:38:30Z</time></trkpt><trkpt lat="44.41448244412614" lon="11.074744176767188"><ele>420.0</ele><time>2026-03-22T11:38:32Z</time></trkpt><trkpt lat="44.41453614282338" lon="11.074663365674317"><ele>420.0</ele><time>2026-03-22T11:38:33Z</time></trkpt><trkpt lat="44.41446905958925" lon="11.074620367687697"><ele>420.0</ele><time>2026-03-22T11:38:36Z</time></trkpt><trkpt lat="44.41440375960777" lon="11.07460472161022"><ele>419.8333333333333</ele><time>2026-03-22T11:38:38Z</time></trkpt><trkpt lat="44.41431125619234" lon="11.074648702677855"><ele>419.66666666666663</ele><time>2026-03-22T11:38:41Z</time></trkpt><trkpt lat="44.41423685796869" lon="11.07465073447914"><ele>419.5</ele><time>2026-03-22T11:38:44Z</time></trkpt><trkpt lat="44.41417388169103" lon="11.074599487201894"><ele>419.3333333333333</ele><time>2026-03-22T11:38:47Z</time></trkpt><trkpt lat="44.41421839571884" lon="11.074447352839995"><ele>419.16666666666663</ele><time>2026-03-22T11:38:49Z</time></trkpt><trkpt lat="44.41425453206735" lon="11.074360509162094"><ele>419.0</ele><time>2026-03-22T11:38:50Z</time></trkpt><trkpt lat="44.41428961827253" lon="11.074251144331773"><ele>418.99999999999994</ele><time>2026-03-22T11:38:51Z</time></trkpt><trkpt lat="44.414321506626955" lon="11.074147856063275"><ele>419.0</ele><time>2026-03-22T11:38:52Z</time></trkpt><trkpt lat="44.41435099407742" lon="11.074052907516753"><ele>419.0</ele><time>2026-03-22T11:38:53Z</time></trkpt><trkpt lat="44.414385531420244" lon="11.07394932015083"><ele>419.0</ele><time>2026-03-22T11:38:53.999Z</time></trkpt><trkpt lat="44.41441187758391" lon="11.073844640311092"><ele>418.99999999999994</ele><time>2026-03-22T11:38:54.999Z</time></trkpt><trkpt lat="44.41442816390224" lon="11.073731932754516"><ele>419.0</ele><time>2026-03-22T11:38:55.999Z</time></trkpt><trkpt lat="44.41442866036106" lon="11.073626974474235"><ele>417.49999999999994</ele><time>2026-03-22T11:38:56.999Z</time></trkpt><trkpt lat="44.41441817578805" lon="11.073525876376399"><ele>416.0</ele><time>2026-03-22T11:38:57.999Z</time></trkpt><trkpt lat="44.41438961090278" lon="11.073410083728316"><ele>414.5</ele><time>2026-03-22T11:38:58.999Z</time></trkpt><trkpt lat="44.41434266323589" lon="11.073288160477471"><ele>413.0</ele><time>2026-03-22T11:38:59.999Z</time></trkpt><trkpt lat="44.41428745230114" lon="11.07318980635825"><ele>411.49999999999994</ele><time>2026-03-22T11:39:00.999Z</time></trkpt><trkpt lat="44.41423967910705" lon="11.073108334675117"><ele>410.0</ele><time>2026-03-22T11:39:01.999Z</time></trkpt><trkpt lat="44.41419977004286" lon="11.073035448110666"><ele>409.6</ele><time>2026-03-22T11:39:02.999Z</time></trkpt><trkpt lat="44.41410774107001" lon="11.072955648018617"><ele>409.2</ele><time>2026-03-22T11:39:04.999Z</time></trkpt><trkpt lat="44.41403847552839" lon="11.07297853386752"><ele>408.79999999999995</ele><time>2026-03-22T11:39:06.999Z</time></trkpt><trkpt lat="44.413966170522414" lon="11.073009542336525"><ele>408.4</ele><time>2026-03-22T11:39:07.999Z</time></trkpt><trkpt lat="44.41388277709014" lon="11.073067851046654"><ele>408.0</ele><time>2026-03-22T11:39:08.999Z</time></trkpt><trkpt lat="44.413757313214596" lon="11.07305421215283"><ele>408.0</ele><time>2026-03-22T11:39:10Z</time></trkpt><trkpt lat="44.41367136383295" lon="11.073128474610144"><ele>408.0</ele><time>2026-03-22T11:39:11Z</time></trkpt><trkpt lat="44.41359670168463" lon="11.073190150468852"><ele>408.0</ele><time>2026-03-22T11:39:12Z</time></trkpt><trkpt lat="44.41351945029188" lon="11.073242949490172"><ele>408.0</ele><time>2026-03-22T11:39:13Z</time></trkpt><trkpt lat="44.413449845063646" lon="11.073260078499027"><ele>408.0</ele><time>2026-03-22T11:39:14Z</time></trkpt><trkpt lat="44.413369518587324" lon="11.073274729065105"><ele>408.0</ele><time>2026-03-22T11:39:15Z</time></trkpt><trkpt lat="44.41328740405536" lon="11.073203743170534"><ele>408.0</ele><time>2026-03-22T11:39:16Z</time></trkpt><trkpt lat="44.41320801682092" lon="11.073088947628365"><ele>408.0</ele><time>2026-03-22T11:39:17Z</time></trkpt><trkpt lat="44.41314008665126" lon="11.07295616433775"><ele>408.0</ele><time>2026-03-22T11:39:18Z</time></trkpt><trkpt lat="44.41308866194487" lon="11.072830319250823"><ele>408.0</ele><time>2026-03-22T11:39:19Z</time></trkpt><trkpt lat="44.4130368859537" lon="11.072713304461043"><ele>408.0</ele><time>2026-03-22T11:39:20Z</time></trkpt><trkpt lat="44.41298315982708" lon="11.072600792416248"><ele>405.59999999999997</ele><time>2026-03-22T11:39:21Z</time></trkpt><trkpt lat="44.412920593718454" lon="11.07250472961829"><ele>403.2</ele><time>2026-03-22T11:39:22Z</time></trkpt><trkpt lat="44.412866589051625" lon="11.072403541992918"><ele>400.8</ele><time>2026-03-22T11:39:23Z</time></trkpt><trkpt lat="44.41281552338574" lon="11.072308236743272"><ele>398.4</ele><time>2026-03-22T11:39:24Z</time></trkpt><trkpt lat="44.41274345838153" lon="11.072202947856221"><ele>396.0</ele><time>2026-03-22T11:39:25Z</time></trkpt><trkpt lat="44.41264447909109" lon="11.072117627395727"><ele>396.0</ele><time>2026-03-22T11:39:26Z</time></trkpt><trkpt lat="44.412528897300106" lon="11.072040459915108"><ele>396.0</ele><time>2026-03-22T11:39:27Z</time></trkpt><trkpt lat="44.41238215197508" lon="11.072011002170445"><ele>396.0</ele><time>2026-03-22T11:39:28Z</time></trkpt><trkpt lat="44.412247590986716" lon="11.071989791710243"><ele>396.0</ele><time>2026-03-22T11:39:29Z</time></trkpt><trkpt lat="44.412123785998304" lon="11.071971307056174"><ele>393.0</ele><time>2026-03-22T11:39:30Z</time></trkpt><trkpt lat="44.41198675719358" lon="11.07195297170084"><ele>390.0</ele><time>2026-03-22T11:39:31Z</time></trkpt><trkpt lat="44.41184621715351" lon="11.071934166530061"><ele>387.0</ele><time>2026-03-22T11:39:32Z</time></trkpt><trkpt lat="44.411719093384875" lon="11.071917036728271"><ele>384.0</ele><time>2026-03-22T11:39:33Z</time></trkpt><trkpt lat="44.41160645176218" lon="11.071900709898381"><ele>384.0</ele><time>2026-03-22T11:39:34Z</time></trkpt><trkpt lat="44.41150570661366" lon="11.07188529893948"><ele>384.0</ele><time>2026-03-22T11:39:35Z</time></trkpt><trkpt lat="44.4114186345307" lon="11.071878485493801"><ele>384.0</ele><time>2026-03-22T11:39:36Z</time></trkpt><trkpt lat="44.411349554143264" lon="11.07187647827909"><ele>384.0</ele><time>2026-03-22T11:39:37Z</time></trkpt><trkpt lat="44.411254642024446" lon="11.071880538828477"><ele>384.0</ele><time>2026-03-22T11:39:39Z</time></trkpt><trkpt lat="44.411171424070005" lon="11.07180159451977"><ele>381.6</ele><time>2026-03-22T11:39:42Z</time></trkpt><trkpt lat="44.4111272191176" lon="11.071691199467327"><ele>379.2</ele><time>2026-03-22T11:39:43Z</time></trkpt><trkpt lat="44.41106725804914" lon="11.071531873852301"><ele>376.8</ele><time>2026-03-22T11:39:44Z</time></trkpt><trkpt lat="44.41101417345817" lon="11.071384748906388"><ele>374.40000000000003</ele><time>2026-03-22T11:39:45Z</time></trkpt><trkpt lat="44.41098008406571" lon="11.07127208006022"><ele>372.0</ele><time>2026-03-22T11:39:46Z</time></trkpt><trkpt lat="44.410959620429594" lon="11.07118282959167"><ele>371.1666666666667</ele><time>2026-03-22T11:39:47Z</time></trkpt><trkpt lat="44.41092781343911" lon="11.071057987792896"><ele>370.3333333333333</ele><time>2026-03-22T11:39:49Z</time></trkpt><trkpt lat="44.410935464446176" lon="11.070909674086073"><ele>369.5</ele><time>2026-03-22T11:39:51Z</time></trkpt><trkpt lat="44.41096669118949" lon="11.070829169404526"><ele>368.66666666666663</ele><time>2026-03-22T11:39:52Z</time></trkpt><trkpt lat="44.411023984831154" lon="11.070739912433922"><ele>367.8333333333333</ele><time>2026-03-22T11:39:53Z</time></trkpt><trkpt lat="44.4110611818015" lon="11.070644376446852"><ele>367.0</ele><time>2026-03-22T11:39:54Z</time></trkpt><trkpt lat="44.41107926063851" lon="11.070558714532675"><ele>366.5</ele><time>2026-03-22T11:39:55Z</time></trkpt><trkpt lat="44.411084012583316" lon="11.070461591366776"><ele>366.0</ele><time>2026-03-22T11:39:56Z</time></trkpt><trkpt lat="44.4110883769479" lon="11.070337263506406"><ele>365.5</ele><time>2026-03-22T11:39:57Z</time></trkpt><trkpt lat="44.411088801394406" lon="11.07019076817058"><ele>365.0</ele><time>2026-03-22T11:39:58Z</time></trkpt><trkpt lat="44.4110870042013" lon="11.070070712820856"><ele>364.5</ele><time>2026-03-22T11:39:59Z</time></trkpt><trkpt lat="44.41107712066401" lon="11.069970298631432"><ele>364.0</ele><time>2026-03-22T11:40:00Z</time></trkpt><trkpt lat="44.41105942467052" lon="11.06987236093642"><ele>365.0</ele><time>2026-03-22T11:40:01Z</time></trkpt><trkpt lat="44.41103248931469" lon="11.06973589380475"><ele>366.0</ele><time>2026-03-22T11:40:02Z</time></trkpt><trkpt lat="44.41098462724697" lon="11.069629776075285"><ele>367.0</ele><time>2026-03-22T11:40:03Z</time></trkpt><trkpt lat="44.41094838124035" lon="11.069545820782695"><ele>368.0</ele><time>2026-03-22T11:40:04Z</time></trkpt><trkpt lat="44.410900812016834" lon="11.069455741587918"><ele>369.0</ele><time>2026-03-22T11:40:05Z</time></trkpt><trkpt lat="44.41088262637135" lon="11.069364494285024"><ele>370.0</ele><time>2026-03-22T11:40:06Z</time></trkpt><trkpt lat="44.41088338560094" lon="11.069270178422023"><ele>370.0</ele><time>2026-03-22T11:40:07Z</time></trkpt><trkpt lat="44.41089715579542" lon="11.069176910703383"><ele>370.0</ele><time>2026-03-22T11:40:08Z</time></trkpt><trkpt lat="44.41091224200306" lon="11.069085718007424"><ele>370.0</ele><time>2026-03-22T11:40:09Z</time></trkpt><trkpt lat="44.41094444539652" lon="11.068943091658406"><ele>370.0</ele><time>2026-03-22T11:40:11Z</time></trkpt><trkpt lat="44.410967737844786" lon="11.068852879500602"><ele>370.0</ele><time>2026-03-22T11:40:19Z</time></trkpt><trkpt lat="44.41101158748119" lon="11.068699128848118"><ele>370.0</ele><time>2026-03-22T11:40:21Z</time></trkpt><trkpt lat="44.411066987404716" lon="11.068548957905751"><ele>370.0</ele><time>2026-03-22T11:40:23Z</time></trkpt><trkpt lat="44.411119528544276" lon="11.06844485349343"><ele>370.0</ele><time>2026-03-22T11:40:25Z</time></trkpt><trkpt lat="44.411171278667304" lon="11.068331311503464"><ele>370.0</ele><time>2026-03-22T11:40:27Z</time></trkpt><trkpt lat="44.41119715831418" lon="11.068222313154003"><ele>370.0</ele><time>2026-03-22T11:40:29Z</time></trkpt><trkpt lat="44.411201771448" lon="11.068086995481119"><ele>370.0</ele><time>2026-03-22T11:40:31Z</time></trkpt><trkpt lat="44.411182154126784" lon="11.06792860276183"><ele>371.0</ele><time>2026-03-22T11:40:33Z</time></trkpt><trkpt lat="44.41114081474734" lon="11.067784016785419"><ele>372.0</ele><time>2026-03-22T11:40:35Z</time></trkpt><trkpt lat="44.4111109471463" lon="11.067673182124674"><ele>373.0</ele><time>2026-03-22T11:40:37Z</time></trkpt><trkpt lat="44.411070685915035" lon="11.067569718477765"><ele>374.0</ele><time>2026-03-22T11:40:39Z</time></trkpt><trkpt lat="44.41104434913113" lon="11.067436705705504"><ele>375.0</ele><time>2026-03-22T11:40:41Z</time></trkpt><trkpt lat="44.41103383248582" lon="11.06728509612965"><ele>375.1666666666667</ele><time>2026-03-22T11:40:43Z</time></trkpt><trkpt lat="44.41103675821666" lon="11.06718233129368"><ele>375.3333333333333</ele><time>2026-03-22T11:40:45Z</time></trkpt><trkpt lat="44.4110407021552" lon="11.06708680105731"><ele>375.5</ele><time>2026-03-22T11:41:03.999Z</time></trkpt><trkpt lat="44.41104588592894" lon="11.066983753706893"><ele>375.66666666666663</ele><time>2026-03-22T11:41:05.999Z</time></trkpt><trkpt lat="44.41104328478877" lon="11.066848184890139"><ele>375.8333333333333</ele><time>2026-03-22T11:41:07.999Z</time></trkpt><trkpt lat="44.411073456560814" lon="11.066688791565586"><ele>376.0</ele><time>2026-03-22T11:41:09.999Z</time></trkpt><trkpt lat="44.41109950800733" lon="11.066601338310585"><ele>375.8333333333333</ele><time>2026-03-22T11:41:10.999Z</time></trkpt><trkpt lat="44.411130715848536" lon="11.066516882763176"><ele>375.66666666666663</ele><time>2026-03-22T11:41:11.999Z</time></trkpt><trkpt lat="44.4111917534916" lon="11.066394896270275"><ele>375.5</ele><time>2026-03-22T11:41:13.999Z</time></trkpt><trkpt lat="44.41124549053365" lon="11.06629363964913"><ele>375.3333333333333</ele><time>2026-03-22T11:41:16Z</time></trkpt><trkpt lat="44.411281776329666" lon="11.066220500356449"><ele>375.1666666666667</ele><time>2026-03-22T11:41:17Z</time></trkpt><trkpt lat="44.411345073303835" lon="11.066090068553077"><ele>375.0</ele><time>2026-03-22T11:41:19Z</time></trkpt><trkpt lat="44.41139947037349" lon="11.065975229908902"><ele>375.0</ele><time>2026-03-22T11:41:21Z</time></trkpt><trkpt lat="44.41144135306299" lon="11.065877686660839"><ele>375.0</ele><time>2026-03-22T11:41:23Z</time></trkpt><trkpt lat="44.411474037094294" lon="11.065785976987119"><ele>375.0</ele><time>2026-03-22T11:41:27Z</time></trkpt><trkpt lat="44.41150611896078" lon="11.065680264232125"><ele>375.0</ele><time>2026-03-22T11:42:04Z</time></trkpt><trkpt lat="44.41154035831253" lon="11.065565692979991"><ele>375.0</ele><time>2026-03-22T11:42:06Z</time></trkpt><trkpt lat="44.4115752619232" lon="11.065472228726165"><ele>375.0</ele><time>2026-03-22T11:42:08Z</time></trkpt><trkpt lat="44.41162798864034" lon="11.065356128871668"><ele>371.2</ele><time>2026-03-22T11:42:10Z</time></trkpt><trkpt lat="44.41169233618399" lon="11.06524365749311"><ele>367.4</ele><time>2026-03-22T11:42:12Z</time></trkpt><trkpt lat="44.411766101509514" lon="11.065152124297748"><ele>363.6</ele><time>2026-03-22T11:42:14Z</time></trkpt><trkpt lat="44.41185832776981" lon="11.06509502256418"><ele>359.8</ele><time>2026-03-22T11:42:16Z</time></trkpt><trkpt lat="44.41195343312444" lon="11.065092270120822"><ele>356.0</ele><time>2026-03-22T11:42:18Z</time></trkpt><trkpt lat="44.41205099822609" lon="11.065069290373671"><ele>356.0</ele><time>2026-03-22T11:42:20Z</time></trkpt><trkpt lat="44.41215091731445" lon="11.06500769342171"><ele>356.0</ele><time>2026-03-22T11:42:22Z</time></trkpt><trkpt lat="44.41219747687371" lon="11.064915673746869"><ele>356.0</ele><time>2026-03-22T11:42:24Z</time></trkpt><trkpt lat="44.412227852287636" lon="11.064805719704516"><ele>356.0</ele><time>2026-03-22T11:42:26Z</time></trkpt><trkpt lat="44.41223679132392" lon="11.064694891006576"><ele>356.0</ele><time>2026-03-22T11:42:28Z</time></trkpt><trkpt lat="44.41221578002678" lon="11.064555537478611"><ele>355.4</ele><time>2026-03-22T11:42:30Z</time></trkpt><trkpt lat="44.41222608372366" lon="11.064424159314978"><ele>354.8</ele><time>2026-03-22T11:42:32Z</time></trkpt><trkpt lat="44.41228201605955" lon="11.064298490706452"><ele>354.2</ele><time>2026-03-22T11:42:34Z</time></trkpt><trkpt lat="44.41233472695535" lon="11.064202079291746"><ele>353.59999999999997</ele><time>2026-03-22T11:42:36Z</time></trkpt><trkpt lat="44.412393409145764" lon="11.064095297878115"><ele>353.0</ele><time>2026-03-22T11:42:38Z</time></trkpt><trkpt lat="44.41244930311002" lon="11.063996693775332"><ele>350.79999999999995</ele><time>2026-03-22T11:42:40Z</time></trkpt><trkpt lat="44.41251169304548" lon="11.0638866316013"><ele>348.6</ele><time>2026-03-22T11:42:42Z</time></trkpt><trkpt lat="44.41257449515984" lon="11.063775844872369"><ele>346.4</ele><time>2026-03-22T11:42:44Z</time></trkpt><trkpt lat="44.41263901468104" lon="11.063662028537742"><ele>344.20000000000005</ele><time>2026-03-22T11:42:46Z</time></trkpt><trkpt lat="44.41275999959674" lon="11.063621818623142"><ele>342.0</ele><time>2026-03-22T11:42:48Z</time></trkpt><trkpt lat="44.41282193869476" lon="11.063536692142428"><ele>342.0</ele><time>2026-03-22T11:42:50Z</time></trkpt><trkpt lat="44.41287532519837" lon="11.063485969678654"><ele>342.0</ele><time>2026-03-22T11:42:52Z</time></trkpt><trkpt lat="44.412931961959295" lon="11.06343060437273"><ele>342.0</ele><time>2026-03-22T11:42:54Z</time></trkpt><trkpt lat="44.41301089595912" lon="11.063340030194862"><ele>342.0</ele><time>2026-03-22T11:42:56Z</time></trkpt><trkpt lat="44.413077432709144" lon="11.063211832742764"><ele>342.0</ele><time>2026-03-22T11:42:58Z</time></trkpt><trkpt lat="44.41312570593379" lon="11.063067845942365"><ele>339.20000000000005</ele><time>2026-03-22T11:43:00Z</time></trkpt><trkpt lat="44.41315724776548" lon="11.062937116013149"><ele>336.4</ele><time>2026-03-22T11:43:02Z</time></trkpt><trkpt lat="44.413183683010075" lon="11.062784444560412"><ele>333.6</ele><time>2026-03-22T11:43:04Z</time></trkpt><trkpt lat="44.41321470658262" lon="11.062626672930332"><ele>330.79999999999995</ele><time>2026-03-22T11:43:05.999Z</time></trkpt><trkpt lat="44.41323779564828" lon="11.062503781876785"><ele>328.0</ele><time>2026-03-22T11:43:07.999Z</time></trkpt><trkpt lat="44.41325396226162" lon="11.062417138206744"><ele>328.0</ele><time>2026-03-22T11:43:09.999Z</time></trkpt><trkpt lat="44.41329544734993" lon="11.06228003712394"><ele>328.0</ele><time>2026-03-22T11:43:11.999Z</time></trkpt><trkpt lat="44.41333860580184" lon="11.06213378164695"><ele>328.0</ele><time>2026-03-22T11:43:13.999Z</time></trkpt><trkpt lat="44.41339887580365" lon="11.061970776563884"><ele>328.0</ele><time>2026-03-22T11:43:15.999Z</time></trkpt><trkpt lat="44.413471123558104" lon="11.061816317652267"><ele>328.0</ele><time>2026-03-22T11:43:17.999Z</time></trkpt><trkpt lat="44.41351654273802" lon="11.061700359622096"><ele>328.0</ele><time>2026-03-22T11:43:18.999Z</time></trkpt><trkpt lat="44.41355078451936" lon="11.061592213520838"><ele>328.0</ele><time>2026-03-22T11:43:19.999Z</time></trkpt><trkpt lat="44.413581173188376" lon="11.061505165886125"><ele>328.0</ele><time>2026-03-22T11:43:21Z</time></trkpt><trkpt lat="44.413646607237084" lon="11.06135045870295"><ele>328.0</ele><time>2026-03-22T11:43:23Z</time></trkpt><trkpt lat="44.41368143564544" lon="11.06125603578378"><ele>327.2</ele><time>2026-03-22T11:43:24Z</time></trkpt><trkpt lat="44.41371405555087" lon="11.061162691504551"><ele>326.4</ele><time>2026-03-22T11:43:25Z</time></trkpt><trkpt lat="44.41376751183765" lon="11.061000611278752"><ele>325.59999999999997</ele><time>2026-03-22T11:43:27Z</time></trkpt><trkpt lat="44.413791445902724" lon="11.060905555040186"><ele>324.79999999999995</ele><time>2026-03-22T11:43:28Z</time></trkpt><trkpt lat="44.41381313904986" lon="11.060759477548677"><ele>324.0</ele><time>2026-03-22T11:43:30Z</time></trkpt><trkpt lat="44.41382077324595" lon="11.060654771527467"><ele>322.0</ele><time>2026-03-22T11:43:32Z</time></trkpt><trkpt lat="44.41383354175986" lon="11.060561378612626"><ele>320.0</ele><time>2026-03-22T11:43:34Z</time></trkpt><trkpt lat="44.41385337109148" lon="11.060460198213935"><ele>318.0</ele><time>2026-03-22T11:43:36Z</time></trkpt><trkpt lat="44.41388086339498" lon="11.060314921634026"><ele>316.0</ele><time>2026-03-22T11:43:38Z</time></trkpt><trkpt lat="44.41390199285949" lon="11.060192036809028"><ele>314.0</ele><time>2026-03-22T11:43:40Z</time></trkpt><trkpt lat="44.41390152493264" lon="11.060075459891957"><ele>312.0</ele><time>2026-03-22T11:43:42Z</time></trkpt><trkpt lat="44.413901456163565" lon="11.059945249486901"><ele>311.2857142857143</ele><time>2026-03-22T11:43:44Z</time></trkpt><trkpt lat="44.41390819674783" lon="11.059856967424622"><ele>310.57142857142856</ele><time>2026-03-22T11:43:45Z</time></trkpt><trkpt lat="44.41392003548707" lon="11.059727452398551"><ele>309.85714285714283</ele><time>2026-03-22T11:43:47Z</time></trkpt><trkpt lat="44.413955708673235" lon="11.059639194095988"><ele>309.1428571428571</ele><time>2026-03-22T11:43:49Z</time></trkpt><trkpt lat="44.41400189290317" lon="11.05956765892007"><ele>308.42857142857144</ele><time>2026-03-22T11:43:52Z</time></trkpt><trkpt lat="44.41405975077793" lon="11.059511821931032"><ele>307.71428571428567</ele><time>2026-03-22T11:44:06Z</time></trkpt><trkpt lat="44.414124373791886" lon="11.059459767815678"><ele>307.0</ele><time>2026-03-22T11:44:09Z</time></trkpt><trkpt lat="44.41423387462585" lon="11.059384944524613"><ele>307.0</ele><time>2026-03-22T11:44:11Z</time></trkpt><trkpt lat="44.41433133687176" lon="11.05932135007556"><ele>307.0</ele><time>2026-03-22T11:44:13Z</time></trkpt><trkpt lat="44.41439380934221" lon="11.059296606442357"><ele>307.0</ele><time>2026-03-22T11:44:15Z</time></trkpt><trkpt lat="44.41445299424845" lon="11.059159581224415"><ele>307.0</ele><time>2026-03-22T11:44:17Z</time></trkpt><trkpt lat="44.41448640011589" lon="11.059025665971058"><ele>307.0</ele><time>2026-03-22T11:44:18Z</time></trkpt><trkpt lat="44.41452171907703" lon="11.058929816246529"><ele>306.3333333333333</ele><time>2026-03-22T11:44:19Z</time></trkpt><trkpt lat="44.41455910884657" lon="11.058842753323972"><ele>305.66666666666663</ele><time>2026-03-22T11:44:20Z</time></trkpt><trkpt lat="44.4145478248032" lon="11.058741038374475"><ele>305.0</ele><time>2026-03-22T11:44:21Z</time></trkpt><trkpt lat="44.41458598056057" lon="11.058650236462935"><ele>304.3333333333333</ele><time>2026-03-22T11:44:22Z</time></trkpt><trkpt lat="44.41464285762816" lon="11.058510762180026"><ele>303.6666666666667</ele><time>2026-03-22T11:44:24Z</time></trkpt><trkpt lat="44.41468699074481" lon="11.058396765357836"><ele>303.0</ele><time>2026-03-22T11:44:26Z</time></trkpt><trkpt lat="44.41470204746886" lon="11.058306128378085"><ele>299.4</ele><time>2026-03-22T11:44:28Z</time></trkpt><trkpt lat="44.41475219848818" lon="11.058204930451925"><ele>295.8</ele><time>2026-03-22T11:44:30Z</time></trkpt><trkpt lat="44.41483046329106" lon="11.058094523579351"><ele>292.2</ele><time>2026-03-22T11:44:32Z</time></trkpt><trkpt lat="44.414904132977796" lon="11.0580076099305"><ele>288.6</ele><time>2026-03-22T11:44:34Z</time></trkpt><trkpt lat="44.41501101735224" lon="11.05793981503023"><ele>285.0</ele><time>2026-03-22T11:44:36Z</time></trkpt><trkpt lat="44.41512915866036" lon="11.057884991263913"><ele>285.0</ele><time>2026-03-22T11:44:38Z</time></trkpt><trkpt lat="44.415239937025916" lon="11.057810489586437"><ele>285.0</ele><time>2026-03-22T11:44:40Z</time></trkpt><trkpt lat="44.41535931053362" lon="11.0577136212278"><ele>285.0</ele><time>2026-03-22T11:44:42Z</time></trkpt><trkpt lat="44.41540746253439" lon="11.057649676278208"><ele>285.0</ele><time>2026-03-22T11:44:43Z</time></trkpt><trkpt lat="44.41545303500058" lon="11.057569198468231"><ele>285.0</ele><time>2026-03-22T11:44:44Z</time></trkpt><trkpt lat="44.41551167509105" lon="11.057425217291208"><ele>283.0</ele><time>2026-03-22T11:44:46Z</time></trkpt><trkpt lat="44.41556998040944" lon="11.057285802643618"><ele>281.0</ele><time>2026-03-22T11:44:48Z</time></trkpt><trkpt lat="44.415631291110785" lon="11.05713612372293"><ele>279.0</ele><time>2026-03-22T11:44:50Z</time></trkpt><trkpt lat="44.41570222980813" lon="11.056998497928856"><ele>277.0</ele><time>2026-03-22T11:44:52Z</time></trkpt><trkpt lat="44.41573583982883" lon="11.056922630671885"><ele>275.0</ele><time>2026-03-22T11:44:53Z</time></trkpt><trkpt lat="44.41579713713761" lon="11.056784739142685"><ele>275.0</ele><time>2026-03-22T11:44:55Z</time></trkpt><trkpt lat="44.41585279883636" lon="11.056675550152871"><ele>275.0</ele><time>2026-03-22T11:44:56.999Z</time></trkpt><trkpt lat="44.41587274521302" lon="11.056579522142922"><ele>275.0</ele><time>2026-03-22T11:44:58.999Z</time></trkpt><trkpt lat="44.41586627358864" lon="11.056472190513"><ele>275.0</ele><time>2026-03-22T11:45:07.999Z</time></trkpt><trkpt lat="44.41587206065285" lon="11.056381081756221"><ele>275.0</ele><time>2026-03-22T11:45:11.999Z</time></trkpt><trkpt lat="44.41588327898106" lon="11.056264597662295"><ele>275.0</ele><time>2026-03-22T11:45:20.999Z</time></trkpt><trkpt lat="44.41587947761372" lon="11.056158431668027"><ele>272.83333333333337</ele><time>2026-03-22T11:45:22.999Z</time></trkpt><trkpt lat="44.41586286024307" lon="11.056050743730813"><ele>270.6666666666667</ele><time>2026-03-22T11:45:24.999Z</time></trkpt><trkpt lat="44.41583968165277" lon="11.055937129391554"><ele>268.5</ele><time>2026-03-22T11:45:27Z</time></trkpt><trkpt lat="44.41582018329471" lon="11.055824537632475"><ele>266.3333333333333</ele><time>2026-03-22T11:45:29Z</time></trkpt><trkpt lat="44.415800169203386" lon="11.05570780677303"><ele>264.16666666666663</ele><time>2026-03-22T11:45:31Z</time></trkpt><trkpt lat="44.41578245707823" lon="11.055594161815256"><ele>262.0</ele><time>2026-03-22T11:45:33Z</time></trkpt><trkpt lat="44.41576308896356" lon="11.055470202799116"><ele>257.25</ele><time>2026-03-22T11:45:35Z</time></trkpt><trkpt lat="44.41573486354615" lon="11.055320566960575"><ele>252.5</ele><time>2026-03-22T11:45:37Z</time></trkpt><trkpt lat="44.41570947669042" lon="11.055156456015258"><ele>247.75</ele><time>2026-03-22T11:45:39Z</time></trkpt><trkpt lat="44.41568309307345" lon="11.054991579441356"><ele>243.0</ele><time>2026-03-22T11:45:41Z</time></trkpt><trkpt lat="44.41565881953808" lon="11.054845293416212"><ele>240.2</ele><time>2026-03-22T11:45:43Z</time></trkpt><trkpt lat="44.41563412712587" lon="11.05469042607154"><ele>237.4</ele><time>2026-03-22T11:45:45Z</time></trkpt><trkpt lat="44.41561288862375" lon="11.054524710342774"><ele>234.59999999999997</ele><time>2026-03-22T11:45:47Z</time></trkpt><trkpt lat="44.415598271497" lon="11.054408963421396"><ele>231.79999999999998</ele><time>2026-03-22T11:45:49Z</time></trkpt><trkpt lat="44.415564644749836" lon="11.054332119971841"><ele>229.0</ele><time>2026-03-22T11:45:51Z</time></trkpt><trkpt lat="44.415490259443196" lon="11.054311648941853"><ele>229.39999999999998</ele><time>2026-03-22T11:45:53Z</time></trkpt><trkpt lat="44.415408248600365" lon="11.054277338688586"><ele>229.79999999999998</ele><time>2026-03-22T11:45:55Z</time></trkpt><trkpt lat="44.41534620463613" lon="11.05417658192121"><ele>230.20000000000002</ele><time>2026-03-22T11:45:57Z</time></trkpt><trkpt lat="44.41535005927526" lon="11.05405967959808"><ele>230.60000000000002</ele><time>2026-03-22T11:46:00Z</time></trkpt><trkpt lat="44.41540855783119" lon="11.05397789874158"><ele>231.0</ele><time>2026-03-22T11:46:03Z</time></trkpt><trkpt lat="44.41553315034237" lon="11.053933256669334"><ele>230.14285714285714</ele><time>2026-03-22T11:46:05Z</time></trkpt><trkpt lat="44.41558356972844" lon="11.053875172942812"><ele>229.28571428571428</ele><time>2026-03-22T11:46:06Z</time></trkpt><trkpt lat="44.41561734886033" lon="11.0537833439504"><ele>228.42857142857144</ele><time>2026-03-22T11:46:07Z</time></trkpt><trkpt lat="44.41562220792139" lon="11.053694474067791"><ele>227.57142857142858</ele><time>2026-03-22T11:46:08Z</time></trkpt><trkpt lat="44.41563589141908" lon="11.053608003941287"><ele>226.71428571428572</ele><time>2026-03-22T11:46:09Z</time></trkpt><trkpt lat="44.415655233161225" lon="11.053521601645086"><ele>225.8571428571429</ele><time>2026-03-22T11:46:10Z</time></trkpt><trkpt lat="44.415694525530036" lon="11.053429862211434"><ele>225.00000000000003</ele><time>2026-03-22T11:46:11Z</time></trkpt><trkpt lat="44.415726160639316" lon="11.053351212795269"><ele>226.8</ele><time>2026-03-22T11:46:12Z</time></trkpt><trkpt lat="44.41583820673093" lon="11.053269338344704"><ele>228.6</ele><time>2026-03-22T11:46:14Z</time></trkpt><trkpt lat="44.41591878017725" lon="11.053257421056225"><ele>230.39999999999998</ele><time>2026-03-22T11:46:15Z</time></trkpt><trkpt lat="44.416015024461835" lon="11.05325432360213"><ele>232.2</ele><time>2026-03-22T11:46:16Z</time></trkpt><trkpt lat="44.41611279097948" lon="11.053252083777743"><ele>234.0</ele><time>2026-03-22T11:46:17Z</time></trkpt><trkpt lat="44.41619962162579" lon="11.05324798482028"><ele>234.0</ele><time>2026-03-22T11:46:18Z</time></trkpt><trkpt lat="44.4162776460029" lon="11.053249904728723"><ele>234.0</ele><time>2026-03-22T11:46:19Z</time></trkpt><trkpt lat="44.41634865285451" lon="11.053256363084467"><ele>234.0</ele><time>2026-03-22T11:46:20Z</time></trkpt><trkpt lat="44.41641496731903" lon="11.053262048453325"><ele>234.0</ele><time>2026-03-22T11:46:21Z</time></trkpt><trkpt lat="44.416519526041526" lon="11.053280136418117"><ele>234.0</ele><time>2026-03-22T11:46:23Z</time></trkpt><trkpt lat="44.41659908033593" lon="11.053268513708836"><ele>234.0</ele><time>2026-03-22T11:46:26Z</time></trkpt><trkpt lat="44.4165548131562" lon="11.053029302947767"><ele>234.0</ele><time>2026-03-22T11:46:31Z</time></trkpt><trkpt lat="44.41648483362252" lon="11.052985871039265"><ele>234.0</ele><time>2026-03-22T11:46:32Z</time></trkpt><trkpt lat="44.416409017706265" lon="11.052929198580195"><ele>234.0</ele><time>2026-03-22T11:46:33Z</time></trkpt><trkpt lat="44.41632413264552" lon="11.052888807879365"><ele>234.0</ele><time>2026-03-22T11:46:34Z</time></trkpt><trkpt lat="44.416237456975814" lon="11.052850401148557"><ele>234.0</ele><time>2026-03-22T11:46:35Z</time></trkpt><trkpt lat="44.416141840242744" lon="11.052808032448713"><ele>234.0</ele><time>2026-03-22T11:46:36Z</time></trkpt><trkpt lat="44.4160433259391" lon="11.052761177311307"><ele>234.0</ele><time>2026-03-22T11:46:37Z</time></trkpt><trkpt lat="44.4159490102208" lon="11.052734204630164"><ele>233.99999999999997</ele><time>2026-03-22T11:46:38Z</time></trkpt><trkpt lat="44.41588013554156" lon="11.052659072922701"><ele>233.99999999999997</ele><time>2026-03-22T11:46:39Z</time></trkpt><trkpt lat="44.41582172342092" lon="11.05256335119644"><ele>234.0</ele><time>2026-03-22T11:46:40Z</time></trkpt><trkpt lat="44.415767118733484" lon="11.052449270949781"><ele>234.0</ele><time>2026-03-22T11:46:41Z</time></trkpt><trkpt lat="44.415713915047085" lon="11.052319800221914"><ele>236.39999999999998</ele><time>2026-03-22T11:46:42Z</time></trkpt><trkpt lat="44.4156632322036" lon="11.052187028447996"><ele>238.79999999999998</ele><time>2026-03-22T11:46:43Z</time></trkpt><trkpt lat="44.4156001851973" lon="11.052059085909118"><ele>241.20000000000002</ele><time>2026-03-22T11:46:44Z</time></trkpt><trkpt lat="44.41555328043504" lon="11.051909926953558"><ele>243.60000000000002</ele><time>2026-03-22T11:46:45Z</time></trkpt><trkpt lat="44.41551860585137" lon="11.051767404171393"><ele>246.0</ele><time>2026-03-22T11:46:46Z</time></trkpt><trkpt lat="44.415496831503816" lon="11.051643561424932"><ele>246.0</ele><time>2026-03-22T11:46:47Z</time></trkpt><trkpt lat="44.415492838261684" lon="11.051500137975069"><ele>246.00000000000003</ele><time>2026-03-22T11:46:48Z</time></trkpt><trkpt lat="44.4155054886348" lon="11.05136424224428"><ele>246.00000000000003</ele><time>2026-03-22T11:46:49Z</time></trkpt><trkpt lat="44.41550922085393" lon="11.051275229897053"><ele>246.0</ele><time>2026-03-22T11:46:50Z</time></trkpt><trkpt lat="44.41550525520961" lon="11.051161866853885"><ele>246.0</ele><time>2026-03-22T11:46:52Z</time></trkpt><trkpt lat="44.41540357699126" lon="11.051067288810899"><ele>249.4</ele><time>2026-03-22T11:46:53.999Z</time></trkpt><trkpt lat="44.41531842026406" lon="11.051034301101476"><ele>252.8</ele><time>2026-03-22T11:46:54.999Z</time></trkpt><trkpt lat="44.415221618977355" lon="11.051005758178883"><ele>256.20000000000005</ele><time>2026-03-22T11:46:55.999Z</time></trkpt><trkpt lat="44.41512686731814" lon="11.050979725313361"><ele>259.6</ele><time>2026-03-22T11:46:56.999Z</time></trkpt><trkpt lat="44.415034638266896" lon="11.050942992503112"><ele>263.0</ele><time>2026-03-22T11:46:57.999Z</time></trkpt><trkpt lat="44.41493474947475" lon="11.050891926225862"><ele>263.0</ele><time>2026-03-22T11:46:58.999Z</time></trkpt><trkpt lat="44.414826538343135" lon="11.050828592293717"><ele>263.0</ele><time>2026-03-22T11:46:59.999Z</time></trkpt><trkpt lat="44.41471753886612" lon="11.050766214718731"><ele>263.0</ele><time>2026-03-22T11:47:00.999Z</time></trkpt><trkpt lat="44.41461821573128" lon="11.050679846032079"><ele>263.0</ele><time>2026-03-22T11:47:01.999Z</time></trkpt><trkpt lat="44.41452151575618" lon="11.050597126090898"><ele>266.2</ele><time>2026-03-22T11:47:02.999Z</time></trkpt><trkpt lat="44.41442699167564" lon="11.050532267947652"><ele>269.4</ele><time>2026-03-22T11:47:03.999Z</time></trkpt><trkpt lat="44.414341968102974" lon="11.050461975909993"><ele>272.59999999999997</ele><time>2026-03-22T11:47:04.999Z</time></trkpt><trkpt lat="44.41426777455789" lon="11.050433690372365"><ele>275.8</ele><time>2026-03-22T11:47:05.999Z</time></trkpt><trkpt lat="44.41420396434881" lon="11.050423069770218"><ele>279.0</ele><time>2026-03-22T11:47:06.999Z</time></trkpt><trkpt lat="44.41407783320966" lon="11.050469636808224"><ele>279.0</ele><time>2026-03-22T11:47:08.999Z</time></trkpt><trkpt lat="44.41401440023607" lon="11.050520857206395"><ele>279.0</ele><time>2026-03-22T11:47:09.999Z</time></trkpt><trkpt lat="44.41395165436959" lon="11.050573121872903"><ele>279.0</ele><time>2026-03-22T11:47:10.999Z</time></trkpt><trkpt lat="44.413879514637586" lon="11.050629915797705"><ele>279.0</ele><time>2026-03-22T11:47:11.999Z</time></trkpt><trkpt lat="44.413803993156726" lon="11.050691108389294"><ele>279.0</ele><time>2026-03-22T11:47:12.999Z</time></trkpt><trkpt lat="44.413732523753914" lon="11.050749774786533"><ele>279.0</ele><time>2026-03-22T11:47:13.999Z</time></trkpt><trkpt lat="44.41365430368187" lon="11.050811530182173"><ele>281.5</ele><time>2026-03-22T11:47:14.999Z</time></trkpt><trkpt lat="44.41357513391443" lon="11.050871973883986"><ele>284.0</ele><time>2026-03-22T11:47:15.999Z</time></trkpt><trkpt lat="44.41348979872057" lon="11.050934922162776"><ele>286.5</ele><time>2026-03-22T11:47:16.999Z</time></trkpt><trkpt lat="44.41339681934799" lon="11.051000555914218"><ele>289.0</ele><time>2026-03-22T11:47:17.999Z</time></trkpt><trkpt lat="44.41331541638463" lon="11.051051459693593"><ele>291.5</ele><time>2026-03-22T11:47:18.999Z</time></trkpt><trkpt lat="44.413254351680465" lon="11.051086500283386"><ele>294.0</ele><time>2026-03-22T11:47:19.999Z</time></trkpt><trkpt lat="44.41318891292479" lon="11.051117089075966"><ele>294.0</ele><time>2026-03-22T11:47:20.999Z</time></trkpt><trkpt lat="44.4131151972904" lon="11.051133181187437"><ele>294.0</ele><time>2026-03-22T11:47:21.999Z</time></trkpt><trkpt lat="44.4130302823104" lon="11.051129515599998"><ele>294.0</ele><time>2026-03-22T11:47:22.999Z</time></trkpt><trkpt lat="44.41293538371676" lon="11.051115456725615"><ele>294.0</ele><time>2026-03-22T11:47:23.999Z</time></trkpt><trkpt lat="44.41283264419581" lon="11.05109220487772"><ele>294.0</ele><time>2026-03-22T11:47:24.999Z</time></trkpt><trkpt lat="44.412715552798666" lon="11.051062164093143"><ele>297.2</ele><time>2026-03-22T11:47:25.999Z</time></trkpt><trkpt lat="44.41261130367676" lon="11.051034431372326"><ele>300.4</ele><time>2026-03-22T11:47:26.999Z</time></trkpt><trkpt lat="44.41252229630415" lon="11.051002027002843"><ele>303.6</ele><time>2026-03-22T11:47:27.999Z</time></trkpt><trkpt lat="44.41244331449393" lon="11.050944786347436"><ele>306.8</ele><time>2026-03-22T11:47:28.999Z</time></trkpt><trkpt lat="44.4123483021023" lon="11.050869989221392"><ele>310.0</ele><time>2026-03-22T11:47:29.999Z</time></trkpt><trkpt lat="44.412219522754775" lon="11.050819976791386"><ele>312.4</ele><time>2026-03-22T11:47:30.999Z</time></trkpt><trkpt lat="44.412077247433245" lon="11.050810903527221"><ele>314.8</ele><time>2026-03-22T11:47:32Z</time></trkpt><trkpt lat="44.41197786140262" lon="11.050802289492845"><ele>317.20000000000005</ele><time>2026-03-22T11:47:33Z</time></trkpt><trkpt lat="44.41189207411394" lon="11.050786762341998"><ele>319.6</ele><time>2026-03-22T11:47:34Z</time></trkpt><trkpt lat="44.41180297728995" lon="11.050757223829494"><ele>322.0</ele><time>2026-03-22T11:47:35Z</time></trkpt><trkpt lat="44.411700618246556" lon="11.050715645248445"><ele>324.25</ele><time>2026-03-22T11:47:36Z</time></trkpt><trkpt lat="44.41160075842235" lon="11.050625927131055"><ele>326.5</ele><time>2026-03-22T11:47:37Z</time></trkpt><trkpt lat="44.41149064346291" lon="11.05053163386193"><ele>328.75</ele><time>2026-03-22T11:47:38Z</time></trkpt><trkpt lat="44.41137851791768" lon="11.050453914370864"><ele>331.0</ele><time>2026-03-22T11:47:39Z</time></trkpt><trkpt lat="44.411295508351934" lon="11.050390752959991"><ele>333.0</ele><time>2026-03-22T11:47:40Z</time></trkpt><trkpt lat="44.41123596373745" lon="11.050344387907254"><ele>335.0</ele><time>2026-03-22T11:47:41Z</time></trkpt><trkpt lat="44.41117310042746" lon="11.050297980382796"><ele>337.0</ele><time>2026-03-22T11:47:42Z</time></trkpt><trkpt lat="44.411098281803525" lon="11.05023372621393"><ele>339.0</ele><time>2026-03-22T11:47:43Z</time></trkpt><trkpt lat="44.41102860086596" lon="11.050152252607107"><ele>341.0</ele><time>2026-03-22T11:47:44Z</time></trkpt><trkpt lat="44.410968113425255" lon="11.050055290663252"><ele>343.0</ele><time>2026-03-22T11:47:45Z</time></trkpt><trkpt lat="44.41090229715802" lon="11.049963729812376"><ele>342.5</ele><time>2026-03-22T11:47:46Z</time></trkpt><trkpt lat="44.41081965911328" lon="11.049887156499178"><ele>342.0</ele><time>2026-03-22T11:47:47Z</time></trkpt><trkpt lat="44.41071381350443" lon="11.049817326198394"><ele>341.5</ele><time>2026-03-22T11:47:48Z</time></trkpt><trkpt lat="44.410601938097166" lon="11.049723395285643"><ele>341.0</ele><time>2026-03-22T11:47:49Z</time></trkpt><trkpt lat="44.41048365940279" lon="11.049671403546215"><ele>344.75</ele><time>2026-03-22T11:47:50Z</time></trkpt><trkpt lat="44.41037506553636" lon="11.049577363189528"><ele>348.5</ele><time>2026-03-22T11:47:51Z</time></trkpt><trkpt lat="44.410244162048066" lon="11.049510963569075"><ele>352.25</ele><time>2026-03-22T11:47:52Z</time></trkpt><trkpt lat="44.410136833051546" lon="11.049429334852963"><ele>356.0</ele><time>2026-03-22T11:47:53Z</time></trkpt><trkpt lat="44.41005897936773" lon="11.049362808323322"><ele>356.0</ele><time>2026-03-22T11:47:54Z</time></trkpt><trkpt lat="44.41000046482905" lon="11.049307141910601"><ele>356.0</ele><time>2026-03-22T11:47:55Z</time></trkpt><trkpt lat="44.4099528126648" lon="11.049248093157365"><ele>356.0</ele><time>2026-03-22T11:47:56Z</time></trkpt><trkpt lat="44.40991357504235" lon="11.049173976412106"><ele>356.0</ele><time>2026-03-22T11:47:57Z</time></trkpt><trkpt lat="44.40985973760516" lon="11.049085859997286"><ele>356.0</ele><time>2026-03-22T11:47:59Z</time></trkpt><trkpt lat="44.409771892847665" lon="11.049017927671516"><ele>356.0</ele><time>2026-03-22T11:48:01Z</time></trkpt><trkpt lat="44.409684656198415" lon="11.048941693115104"><ele>356.33333333333337</ele><time>2026-03-22T11:48:03Z</time></trkpt><trkpt lat="44.40960389730128" lon="11.0489096492129"><ele>356.6666666666667</ele><time>2026-03-22T11:48:05Z</time></trkpt><trkpt lat="44.40953182142996" lon="11.048889301745042"><ele>357.0</ele><time>2026-03-22T11:48:07Z</time></trkpt><trkpt lat="44.40946184942126" lon="11.048879868623741"><ele>357.3333333333333</ele><time>2026-03-22T11:48:09Z</time></trkpt><trkpt lat="44.40934433705161" lon="11.048867908494953"><ele>357.66666666666663</ele><time>2026-03-22T11:48:11Z</time></trkpt><trkpt lat="44.409270248495204" lon="11.048884114093163"><ele>358.0</ele><time>2026-03-22T11:48:12Z</time></trkpt><trkpt lat="44.40914203503085" lon="11.048941513173201"><ele>358.0</ele><time>2026-03-22T11:48:14Z</time></trkpt><trkpt lat="44.40908798668059" lon="11.049067048668874"><ele>358.0</ele><time>2026-03-22T11:48:15Z</time></trkpt><trkpt lat="44.40906801719331" lon="11.049201791602634"><ele>358.0</ele><time>2026-03-22T11:48:16Z</time></trkpt><trkpt lat="44.4090522398049" lon="11.049320485604103"><ele>358.0</ele><time>2026-03-22T11:48:17Z</time></trkpt><trkpt lat="44.409040147483914" lon="11.049449719680817"><ele>358.0</ele><time>2026-03-22T11:48:18Z</time></trkpt><trkpt lat="44.4090299901972" lon="11.049571100860605"><ele>359.4</ele><time>2026-03-22T11:48:19Z</time></trkpt><trkpt lat="44.409024033937925" lon="11.049682011592576"><ele>360.79999999999995</ele><time>2026-03-22T11:48:20Z</time></trkpt><trkpt lat="44.40902314172378" lon="11.049850675281071"><ele>362.2</ele><time>2026-03-22T11:48:22Z</time></trkpt><trkpt lat="44.40901377739416" lon="11.04999977469926"><ele>363.6</ele><time>2026-03-22T11:48:24Z</time></trkpt><trkpt lat="44.40898091895665" lon="11.050099607374774"><ele>365.0</ele><time>2026-03-22T11:48:26Z</time></trkpt><trkpt lat="44.408912311452475" lon="11.050184173976994"><ele>365.0</ele><time>2026-03-22T11:48:28Z</time></trkpt><trkpt lat="44.408860450350815" lon="11.050259807172697"><ele>365.0</ele><time>2026-03-22T11:48:29Z</time></trkpt><trkpt lat="44.40881539433061" lon="11.050324243834716"><ele>365.0</ele><time>2026-03-22T11:48:30Z</time></trkpt><trkpt lat="44.40873328776449" lon="11.050443605383592"><ele>365.0</ele><time>2026-03-22T11:48:32Z</time></trkpt><trkpt lat="44.40866157918437" lon="11.050571486103454"><ele>365.0</ele><time>2026-03-22T11:48:34Z</time></trkpt><trkpt lat="44.40862207725526" lon="11.050661845342853"><ele>365.0</ele><time>2026-03-22T11:48:35Z</time></trkpt><trkpt lat="44.408600991314174" lon="11.050864991104199"><ele>364.8</ele><time>2026-03-22T11:48:37Z</time></trkpt><trkpt lat="44.40858281094697" lon="11.051004780236124"><ele>364.6</ele><time>2026-03-22T11:48:39Z</time></trkpt><trkpt lat="44.40854215982097" lon="11.051094484317174"><ele>364.4</ele><time>2026-03-22T11:48:41Z</time></trkpt><trkpt lat="44.40846885714293" lon="11.051194465990466"><ele>364.2</ele><time>2026-03-22T11:48:43Z</time></trkpt><trkpt lat="44.40836116338288" lon="11.051268764794102"><ele>364.0</ele><time>2026-03-22T11:48:45Z</time></trkpt><trkpt lat="44.40830660158118" lon="11.051319513215237"><ele>364.0</ele><time>2026-03-22T11:48:46Z</time></trkpt><trkpt lat="44.40825327323313" lon="11.051379931319762"><ele>364.0</ele><time>2026-03-22T11:48:47Z</time></trkpt><trkpt lat="44.40819075738962" lon="11.051463654304992"><ele>364.0</ele><time>2026-03-22T11:48:48Z</time></trkpt><trkpt lat="44.40811758714432" lon="11.051560499191675"><ele>364.0</ele><time>2026-03-22T11:48:49Z</time></trkpt><trkpt lat="44.40802988592072" lon="11.051633738326798"><ele>364.0</ele><time>2026-03-22T11:48:50.999Z</time></trkpt><trkpt lat="44.40790643453595" lon="11.051704514531014"><ele>363.66666666666663</ele><time>2026-03-22T11:48:52.999Z</time></trkpt><trkpt lat="44.407840046467136" lon="11.051730833365859"><ele>363.3333333333333</ele><time>2026-03-22T11:48:53.999Z</time></trkpt><trkpt lat="44.40776221368827" lon="11.051755979536344"><ele>363.0</ele><time>2026-03-22T11:48:54.999Z</time></trkpt><trkpt lat="44.40766395822905" lon="11.05177759982272"><ele>362.6666666666667</ele><time>2026-03-22T11:48:55.999Z</time></trkpt><trkpt lat="44.40758020204071" lon="11.051802914802796"><ele>362.33333333333337</ele><time>2026-03-22T11:48:56.999Z</time></trkpt><trkpt lat="44.407477527767746" lon="11.051861171073952"><ele>362.0</ele><time>2026-03-22T11:48:57.999Z</time></trkpt><trkpt lat="44.407360458171624" lon="11.05194647725235"><ele>362.0</ele><time>2026-03-22T11:48:58.999Z</time></trkpt><trkpt lat="44.407259203543056" lon="11.052015567333543"><ele>362.0</ele><time>2026-03-22T11:48:59.999Z</time></trkpt><trkpt lat="44.407170952468825" lon="11.05206666522392"><ele>362.0</ele><time>2026-03-22T11:49:00.999Z</time></trkpt><trkpt lat="44.40707532152772" lon="11.052108783555898"><ele>362.0</ele><time>2026-03-22T11:49:01.999Z</time></trkpt><trkpt lat="44.406983282361544" lon="11.052137301498398"><ele>362.0</ele><time>2026-03-22T11:49:02.999Z</time></trkpt><trkpt lat="44.40691380286182" lon="11.052150067786917"><ele>364.8</ele><time>2026-03-22T11:49:03.999Z</time></trkpt><trkpt lat="44.40685039963625" lon="11.052158654648657"><ele>367.6</ele><time>2026-03-22T11:49:04.999Z</time></trkpt><trkpt lat="44.406719229053856" lon="11.05215763342"><ele>370.40000000000003</ele><time>2026-03-22T11:49:06.999Z</time></trkpt><trkpt lat="44.406640335011076" lon="11.052155031574678"><ele>373.20000000000005</ele><time>2026-03-22T11:49:07.999Z</time></trkpt><trkpt lat="44.40655881384053" lon="11.052171132654534"><ele>376.0</ele><time>2026-03-22T11:49:08.999Z</time></trkpt><trkpt lat="44.406462058852654" lon="11.052253672142296"><ele>376.0</ele><time>2026-03-22T11:49:09.999Z</time></trkpt><trkpt lat="44.40639413466592" lon="11.052371764157606"><ele>376.0</ele><time>2026-03-22T11:49:10.999Z</time></trkpt><trkpt lat="44.40632002328074" lon="11.052454432002893"><ele>376.0</ele><time>2026-03-22T11:49:12.999Z</time></trkpt><trkpt lat="44.40618200530758" lon="11.052500656989174"><ele>376.0</ele><time>2026-03-22T11:49:14.999Z</time></trkpt><trkpt lat="44.40608165565794" lon="11.052497954940684"><ele>376.0</ele><time>2026-03-22T11:49:15.999Z</time></trkpt><trkpt lat="44.40600926507033" lon="11.052495292306961"><ele>375.20000000000005</ele><time>2026-03-22T11:49:16.999Z</time></trkpt><trkpt lat="44.40588698310653" lon="11.05248680028074"><ele>374.40000000000003</ele><time>2026-03-22T11:49:18.999Z</time></trkpt><trkpt lat="44.405797821163965" lon="11.052454930669558"><ele>373.6</ele><time>2026-03-22T11:49:19.999Z</time></trkpt><trkpt lat="44.405700152538735" lon="11.052396911777771"><ele>372.8</ele><time>2026-03-22T11:49:20.999Z</time></trkpt><trkpt lat="44.4056177113366" lon="11.052348580594595"><ele>372.0</ele><time>2026-03-22T11:49:21.999Z</time></trkpt><trkpt lat="44.40553624005294" lon="11.052299449040008"><ele>374.8333333333333</ele><time>2026-03-22T11:49:22.999Z</time></trkpt><trkpt lat="44.405457570734924" lon="11.05225740625894"><ele>377.66666666666663</ele><time>2026-03-22T11:49:23.999Z</time></trkpt><trkpt lat="44.40537900045738" lon="11.052230516056634"><ele>380.5</ele><time>2026-03-22T11:49:24.999Z</time></trkpt><trkpt lat="44.40530437557079" lon="11.05222444030128"><ele>383.3333333333333</ele><time>2026-03-22T11:49:25.999Z</time></trkpt><trkpt lat="44.4052206920571" lon="11.052228454121122"><ele>386.16666666666663</ele><time>2026-03-22T11:49:26.999Z</time></trkpt><trkpt lat="44.405137957917" lon="11.052233186377537"><ele>389.0</ele><time>2026-03-22T11:49:27.999Z</time></trkpt><trkpt lat="44.40506110987138" lon="11.052239055070805"><ele>389.0</ele><time>2026-03-22T11:49:28.999Z</time></trkpt><trkpt lat="44.40498097734299" lon="11.052245174608805"><ele>389.0</ele><time>2026-03-22T11:49:29.999Z</time></trkpt><trkpt lat="44.404909362481504" lon="11.052250643657933"><ele>389.0</ele><time>2026-03-22T11:49:30.999Z</time></trkpt><trkpt lat="44.4048424107294" lon="11.052255756602403"><ele>389.0</ele><time>2026-03-22T11:49:31.999Z</time></trkpt><trkpt lat="44.404775467183875" lon="11.052260868926421"><ele>389.0</ele><time>2026-03-22T11:49:32.999Z</time></trkpt><trkpt lat="44.40470128239118" lon="11.052266534261982"><ele>389.0</ele><time>2026-03-22T11:49:33.999Z</time></trkpt><trkpt lat="44.404633872552026" lon="11.052273079987158"><ele>389.0</ele><time>2026-03-22T11:49:34.999Z</time></trkpt><trkpt lat="44.40453223059525" lon="11.052291057930754"><ele>389.16666666666663</ele><time>2026-03-22T11:49:36.999Z</time></trkpt><trkpt lat="44.40446900189862" lon="11.052301361396987"><ele>389.3333333333333</ele><time>2026-03-22T11:49:52Z</time></trkpt><trkpt lat="44.40439582634595" lon="11.052228727098665"><ele>389.5</ele><time>2026-03-22T11:49:58Z</time></trkpt><trkpt lat="44.40436937867888" lon="11.052120785038163"><ele>389.66666666666663</ele><time>2026-03-22T11:50:00Z</time></trkpt><trkpt lat="44.40430440855683" lon="11.052044552056515"><ele>389.8333333333333</ele><time>2026-03-22T11:50:02Z</time></trkpt><trkpt lat="44.40423687027588" lon="11.05194169282166"><ele>390.0</ele><time>2026-03-22T11:50:04Z</time></trkpt><trkpt lat="44.404186445901225" lon="11.051886511750379"><ele>390.0</ele><time>2026-03-22T11:50:05Z</time></trkpt><trkpt lat="44.40412738974568" lon="11.051829483601775"><ele>390.0</ele><time>2026-03-22T11:50:06Z</time></trkpt><trkpt lat="44.40405796226568" lon="11.05179111475803"><ele>390.0</ele><time>2026-03-22T11:50:07Z</time></trkpt><trkpt lat="44.403994772016304" lon="11.051647916401718"><ele>390.0</ele><time>2026-03-22T11:50:09Z</time></trkpt><trkpt lat="44.403929449556635" lon="11.051499554459689"><ele>390.0</ele><time>2026-03-22T11:50:11Z</time></trkpt><trkpt lat="44.40386815475194" lon="11.051390823938668"><ele>392.8333333333333</ele><time>2026-03-22T11:50:13Z</time></trkpt><trkpt lat="44.40379650539109" lon="11.051268982364213"><ele>395.66666666666663</ele><time>2026-03-22T11:50:15Z</time></trkpt><trkpt lat="44.40375095999764" lon="11.05113035901802"><ele>398.5</ele><time>2026-03-22T11:50:17Z</time></trkpt><trkpt lat="44.40374842336152" lon="11.051028208032525"><ele>401.3333333333333</ele><time>2026-03-22T11:50:18Z</time></trkpt><trkpt lat="44.40374926036905" lon="11.05093836841366"><ele>404.16666666666663</ele><time>2026-03-22T11:50:19Z</time></trkpt><trkpt lat="44.403754045418424" lon="11.050847587358218"><ele>407.0</ele><time>2026-03-22T11:50:20Z</time></trkpt><trkpt lat="44.40376625656574" lon="11.050734658839056"><ele>408.66666666666663</ele><time>2026-03-22T11:50:21Z</time></trkpt><trkpt lat="44.40379464433583" lon="11.050582050506156"><ele>410.3333333333333</ele><time>2026-03-22T11:50:23Z</time></trkpt><trkpt lat="44.40382568059307" lon="11.05049847170332"><ele>412.0</ele><time>2026-03-22T11:50:24Z</time></trkpt><trkpt lat="44.403857264172395" lon="11.050421386382194"><ele>413.66666666666663</ele><time>2026-03-22T11:50:25Z</time></trkpt><trkpt lat="44.403892968426824" lon="11.05033297653486"><ele>415.3333333333333</ele><time>2026-03-22T11:50:26Z</time></trkpt><trkpt lat="44.40392566355572" lon="11.05022344196977"><ele>417.0</ele><time>2026-03-22T11:50:28Z</time></trkpt><trkpt lat="44.40394101808313" lon="11.050137787928747"><ele>417.25</ele><time>2026-03-22T11:50:30Z</time></trkpt><trkpt lat="44.40396022646433" lon="11.050029280720036"><ele>417.5</ele><time>2026-03-22T11:50:32Z</time></trkpt><trkpt lat="44.40402049082111" lon="11.049935812135036"><ele>417.75</ele><time>2026-03-22T11:50:34Z</time></trkpt><trkpt lat="44.404062536143826" lon="11.049846106479318"><ele>418.0</ele><time>2026-03-22T11:50:36Z</time></trkpt><trkpt lat="44.40434900090354" lon="11.049948012533362"><ele>417.1666666666667</ele><time>2026-03-22T11:50:37Z</time></trkpt><trkpt lat="44.40443128707442" lon="11.04991551730094"><ele>416.33333333333337</ele><time>2026-03-22T11:50:38Z</time></trkpt><trkpt lat="44.40450254492162" lon="11.049884766310075"><ele>415.5</ele><time>2026-03-22T11:50:39Z</time></trkpt><trkpt lat="44.40456580911183" lon="11.049867394447366"><ele>414.66666666666663</ele><time>2026-03-22T11:50:40Z</time></trkpt><trkpt lat="44.40469392780496" lon="11.049846197477363"><ele>413.8333333333333</ele><time>2026-03-22T11:50:42Z</time></trkpt><trkpt lat="44.40476260732188" lon="11.049837500292373"><ele>413.0</ele><time>2026-03-22T11:50:43Z</time></trkpt><trkpt lat="44.40486579266197" lon="11.049813836924061"><ele>412.99999999999994</ele><time>2026-03-22T11:50:45Z</time></trkpt><trkpt lat="44.40498397409" lon="11.049793389928634"><ele>413.0</ele><time>2026-03-22T11:50:46.999Z</time></trkpt><trkpt lat="44.40504826897092" lon="11.049797585698553"><ele>413.0</ele><time>2026-03-22T11:50:47.999Z</time></trkpt><trkpt lat="44.40512659705896" lon="11.049753376360425"><ele>413.0</ele><time>2026-03-22T11:50:50.999Z</time></trkpt><trkpt lat="44.405178155900316" lon="11.049686797246931"><ele>412.99999999999994</ele><time>2026-03-22T11:50:52.999Z</time></trkpt><trkpt lat="44.40525082117025" lon="11.04962192464905"><ele>413.0</ele><time>2026-03-22T11:50:54.999Z</time></trkpt><trkpt lat="44.40529243789174" lon="11.04954836028737"><ele>412.99999999999994</ele><time>2026-03-22T11:50:56.999Z</time></trkpt><trkpt lat="44.40533584317503" lon="11.04948024216563"><ele>413.0</ele><time>2026-03-22T11:50:58.999Z</time></trkpt><trkpt lat="44.40540708369472" lon="11.049419967851325"><ele>413.0</ele><time>2026-03-22T11:51:02.999Z</time></trkpt><trkpt lat="44.40548959463842" lon="11.04938678861589"><ele>413.0</ele><time>2026-03-22T11:51:04.999Z</time></trkpt><trkpt lat="44.40557578951712" lon="11.04935966668264"><ele>412.99999999999994</ele><time>2026-03-22T11:51:06.999Z</time></trkpt><trkpt lat="44.40565541787098" lon="11.049328652106817"><ele>413.0</ele><time>2026-03-22T11:51:08.999Z</time></trkpt><trkpt lat="44.405758890415385" lon="11.049309068696575"><ele>414.16666666666663</ele><time>2026-03-22T11:51:10.999Z</time></trkpt><trkpt lat="44.40583494548905" lon="11.049277477205132"><ele>415.3333333333333</ele><time>2026-03-22T11:51:12.999Z</time></trkpt><trkpt lat="44.40590172159857" lon="11.049221547762597"><ele>416.5</ele><time>2026-03-22T11:51:14.999Z</time></trkpt><trkpt lat="44.40597922929482" lon="11.049186116584574"><ele>417.66666666666663</ele><time>2026-03-22T11:51:16.999Z</time></trkpt><trkpt lat="44.40606640880686" lon="11.049158691120782"><ele>418.8333333333333</ele><time>2026-03-22T11:51:18.999Z</time></trkpt><trkpt lat="44.40614530370727" lon="11.049175488839921"><ele>420.0</ele><time>2026-03-22T11:51:20.999Z</time></trkpt><trkpt lat="44.40621577403842" lon="11.049243252371198"><ele>420.0</ele><time>2026-03-22T11:51:22.999Z</time></trkpt><trkpt lat="44.406273651948304" lon="11.049278079718935"><ele>420.0</ele><time>2026-03-22T11:51:54Z</time></trkpt><trkpt lat="44.40635742233999" lon="11.049327672038597"><ele>420.0</ele><time>2026-03-22T11:51:57Z</time></trkpt><trkpt lat="44.406437437538195" lon="11.049360632594261"><ele>420.0</ele><time>2026-03-22T11:51:59Z</time></trkpt><trkpt lat="44.40654532515769" lon="11.049437283629578"><ele>420.0</ele><time>2026-03-22T11:52:05Z</time></trkpt><trkpt lat="44.406619746913854" lon="11.049490623288548"><ele>420.0</ele><time>2026-03-22T11:52:08Z</time></trkpt><trkpt lat="44.40668851037823" lon="11.04953600642794"><ele>420.6666666666667</ele><time>2026-03-22T11:52:11Z</time></trkpt><trkpt lat="44.406760318971024" lon="11.049549182733964"><ele>421.33333333333337</ele><time>2026-03-22T11:52:14Z</time></trkpt><trkpt lat="44.40682397763517" lon="11.049539517919909"><ele>422.0</ele><time>2026-03-22T11:52:17Z</time></trkpt><trkpt lat="44.40691035808996" lon="11.049541580996488"><ele>422.6666666666667</ele><time>2026-03-22T11:52:20Z</time></trkpt><trkpt lat="44.40699481941938" lon="11.049542435474406"><ele>423.33333333333337</ele><time>2026-03-22T11:52:23Z</time></trkpt><trkpt lat="44.40706821786471" lon="11.049551700425225"><ele>424.0</ele><time>2026-03-22T11:52:26Z</time></trkpt><trkpt lat="44.407142908446545" lon="11.049548504747213"><ele>424.00000000000006</ele><time>2026-03-22T11:52:29Z</time></trkpt><trkpt lat="44.407199090069284" lon="11.049498848144749"><ele>424.0</ele><time>2026-03-22T11:52:32Z</time></trkpt><trkpt lat="44.40721383409266" lon="11.049409419716099"><ele>424.0</ele><time>2026-03-22T11:52:39Z</time></trkpt><trkpt lat="44.40716264361507" lon="11.049353131491358"><ele>424.0</ele><time>2026-03-22T11:52:41Z</time></trkpt><trkpt lat="44.40708042180084" lon="11.049355302494373"><ele>424.00000000000006</ele><time>2026-03-22T11:52:43Z</time></trkpt><trkpt lat="44.40697791409964" lon="11.049348268461591"><ele>424.0</ele><time>2026-03-22T11:52:45Z</time></trkpt><trkpt lat="44.406864427211694" lon="11.049336943130871"><ele>424.00000000000006</ele><time>2026-03-22T11:52:47Z</time></trkpt><trkpt lat="44.40673855678623" lon="11.049299576830938"><ele>424.0</ele><time>2026-03-22T11:52:48.999Z</time></trkpt><trkpt lat="44.40666116514881" lon="11.049267321263814"><ele>424.0</ele><time>2026-03-22T11:52:50.999Z</time></trkpt><trkpt lat="44.40660112476684" lon="11.04920846916542"><ele>424.0</ele><time>2026-03-22T11:52:58.999Z</time></trkpt><trkpt lat="44.40654511696672" lon="11.049253419730887"><ele>424.00000000000006</ele><time>2026-03-22T11:54:29Z</time></trkpt><trkpt lat="44.40661753500283" lon="11.049341064120254"><ele>424.0</ele><time>2026-03-22T11:54:32Z</time></trkpt><trkpt lat="44.40669421497554" lon="11.049366721793078"><ele>424.00000000000006</ele><time>2026-03-22T11:54:34Z</time></trkpt><trkpt lat="44.4067635231528" lon="11.049383114522982"><ele>424.0</ele><time>2026-03-22T11:54:36Z</time></trkpt><trkpt lat="44.406837375980984" lon="11.049392040070298"><ele>424.0</ele><time>2026-03-22T11:54:38Z</time></trkpt><trkpt lat="44.406920102730524" lon="11.049396689232886"><ele>424.0</ele><time>2026-03-22T11:54:40Z</time></trkpt><trkpt lat="44.407008966492555" lon="11.04940477904411"><ele>424.00000000000006</ele><time>2026-03-22T11:54:42Z</time></trkpt><trkpt lat="44.407106751188806" lon="11.049417615016557"><ele>424.0</ele><time>2026-03-22T11:54:43.999Z</time></trkpt><trkpt lat="44.40718994423084" lon="11.049434014134189"><ele>424.0</ele><time>2026-03-22T11:54:45.999Z</time></trkpt><trkpt lat="44.40726285020849" lon="11.049450408253595"><ele>424.0</ele><time>2026-03-22T11:54:48.999Z</time></trkpt><trkpt lat="44.4073079146463" lon="11.049365242891467"><ele>424.0</ele><time>2026-03-22T11:54:53.999Z</time></trkpt><trkpt lat="44.407247774927384" lon="11.049289914025293"><ele>424.0</ele><time>2026-03-22T11:54:56.999Z</time></trkpt><trkpt lat="44.407179536796576" lon="11.049290184972852"><ele>424.0</ele><time>2026-03-22T11:54:58.999Z</time></trkpt><trkpt lat="44.40714854601718" lon="11.049374596383315"><ele>424.0</ele><time>2026-03-22T11:55:00.999Z</time></trkpt><trkpt lat="44.407178323800295" lon="11.049466475874452"><ele>424.0</ele><time>2026-03-22T11:55:02.999Z</time></trkpt><trkpt lat="44.40720836996099" lon="11.049558620760195"><ele>421.2857142857143</ele><time>2026-03-22T11:55:07.999Z</time></trkpt><trkpt lat="44.40727412942619" lon="11.04956468338977"><ele>418.57142857142856</ele><time>2026-03-22T11:55:18.999Z</time></trkpt><trkpt lat="44.407349395019246" lon="11.049548673011486"><ele>415.85714285714283</ele><time>2026-03-22T11:55:29.999Z</time></trkpt><trkpt lat="44.4074225627516" lon="11.049521068452094"><ele>413.1428571428571</ele><time>2026-03-22T11:55:39.999Z</time></trkpt><trkpt lat="44.40749935258293" lon="11.049503325659773"><ele>410.42857142857144</ele><time>2026-03-22T11:55:48.999Z</time></trkpt><trkpt lat="44.407564202382964" lon="11.049482521834198"><ele>407.71428571428567</ele><time>2026-03-22T11:55:52.999Z</time></trkpt><trkpt lat="44.40762449611703" lon="11.04945660637761"><ele>405.0</ele><time>2026-03-22T11:56:03Z</time></trkpt><trkpt lat="44.407692034358455" lon="11.04944109911156"><ele>404.99999999999994</ele><time>2026-03-22T11:56:12Z</time></trkpt><trkpt lat="44.40775813011305" lon="11.049443975072098"><ele>405.0</ele><time>2026-03-22T11:56:16Z</time></trkpt><trkpt lat="44.407830232339535" lon="11.049430166779803"><ele>405.0</ele><time>2026-03-22T11:56:48.999Z</time></trkpt><trkpt lat="44.40789403421401" lon="11.049441488020616"><ele>405.0</ele><time>2026-03-22T11:56:53.999Z</time></trkpt><trkpt lat="44.40795706948339" lon="11.049436795777842"><ele>405.0</ele><time>2026-03-22T11:56:58.999Z</time></trkpt><trkpt lat="44.40802853487858" lon="11.049415917806268"><ele>404.99999999999994</ele><time>2026-03-22T11:58:27Z</time></trkpt><trkpt lat="44.408082508245386" lon="11.04949559431819"><ele>405.0</ele><time>2026-03-22T11:59:14.999Z</time></trkpt><trkpt lat="44.40815062539914" lon="11.049539884873159"><ele>402.57142857142856</ele><time>2026-03-22T11:59:30.999Z</time></trkpt><trkpt lat="44.408232121537054" lon="11.049539337855231"><ele>400.1428571428571</ele><time>2026-03-22T11:59:36.999Z</time></trkpt><trkpt lat="44.40829541851031" lon="11.04954377186961"><ele>397.71428571428567</ele><time>2026-03-22T11:59:43.999Z</time></trkpt><trkpt lat="44.40836291877144" lon="11.049537794751723"><ele>395.2857142857143</ele><time>2026-03-22T11:59:48.999Z</time></trkpt><trkpt lat="44.40843563819827" lon="11.049520708830855"><ele>392.8571428571429</ele><time>2026-03-22T11:59:55.999Z</time></trkpt><trkpt lat="44.408497380159375" lon="11.049480314047319"><ele>390.4285714285714</ele><time>2026-03-22T11:59:58.999Z</time></trkpt><trkpt lat="44.4085549220074" lon="11.049444478368919"><ele>388.0</ele><time>2026-03-22T12:00:05.999Z</time></trkpt><trkpt lat="44.40861426577848" lon="11.049405747893648"><ele>388.0</ele><time>2026-03-22T12:00:09Z</time></trkpt><trkpt lat="44.40867527109975" lon="11.049362495168166"><ele>388.0</ele><time>2026-03-22T12:00:13Z</time></trkpt><trkpt lat="44.40873596581953" lon="11.049308849967524"><ele>388.0</ele><time>2026-03-22T12:00:17Z</time></trkpt><trkpt lat="44.40880563423005" lon="11.049256332512536"><ele>388.0</ele><time>2026-03-22T12:00:21Z</time></trkpt><trkpt lat="44.408860050359834" lon="11.049193573473246"><ele>388.0</ele><time>2026-03-22T12:00:26Z</time></trkpt><trkpt lat="44.40892595624637" lon="11.049128164136627"><ele>388.0</ele><time>2026-03-22T12:00:32Z</time></trkpt><trkpt lat="44.408980017651444" lon="11.049082293554475"><ele>388.0</ele><time>2026-03-22T12:00:36Z</time></trkpt><trkpt lat="44.40904166061809" lon="11.049038132329278"><ele>383.00000000000006</ele><time>2026-03-22T12:00:41Z</time></trkpt><trkpt lat="44.409108854158035" lon="11.049071932643399"><ele>378.0</ele><time>2026-03-22T12:00:47.999Z</time></trkpt><trkpt lat="44.40918510510834" lon="11.049045316806808"><ele>373.0</ele><time>2026-03-22T12:00:51.999Z</time></trkpt><trkpt lat="44.4092091140002" lon="11.048963431240512"><ele>368.0</ele><time>2026-03-22T12:00:53.999Z</time></trkpt><trkpt lat="44.40928233834611" lon="11.048925179437633"><ele>363.0</ele><time>2026-03-22T12:01:01.999Z</time></trkpt><trkpt lat="44.409354283180356" lon="11.048951957687734"><ele>358.0</ele><time>2026-03-22T12:01:03.999Z</time></trkpt><trkpt lat="44.40945473634495" lon="11.048951124899837"><ele>358.0</ele><time>2026-03-22T12:01:06.999Z</time></trkpt><trkpt lat="44.40951969987668" lon="11.048947035327195"><ele>358.0</ele><time>2026-03-22T12:01:07.999Z</time></trkpt><trkpt lat="44.40958692393765" lon="11.048955217051166"><ele>358.0</ele><time>2026-03-22T12:01:08.999Z</time></trkpt><trkpt lat="44.4096661415584" lon="11.048981081927467"><ele>358.0</ele><time>2026-03-22T12:01:09.999Z</time></trkpt><trkpt lat="44.409767915424354" lon="11.049057725871803"><ele>358.0</ele><time>2026-03-22T12:01:11.999Z</time></trkpt><trkpt lat="44.40985074617244" lon="11.049157864660701"><ele>358.0</ele><time>2026-03-22T12:01:13.999Z</time></trkpt><trkpt lat="44.4099184279652" lon="11.049268860591578"><ele>357.59999999999997</ele><time>2026-03-22T12:01:15.999Z</time></trkpt><trkpt lat="44.409989232255676" lon="11.04933851490527"><ele>357.2</ele><time>2026-03-22T12:01:16.999Z</time></trkpt><trkpt lat="44.4100759282412" lon="11.049394855931494"><ele>356.8</ele><time>2026-03-22T12:01:17.999Z</time></trkpt><trkpt lat="44.41015542025924" lon="11.0494606700785"><ele>356.4</ele><time>2026-03-22T12:01:18.999Z</time></trkpt><trkpt lat="44.41024209209331" lon="11.049516430924335"><ele>356.0</ele><time>2026-03-22T12:01:19.999Z</time></trkpt><trkpt lat="44.41032843143895" lon="11.049582563925634"><ele>356.0</ele><time>2026-03-22T12:01:20.999Z</time></trkpt><trkpt lat="44.41041347521377" lon="11.049644075043338"><ele>356.0</ele><time>2026-03-22T12:01:21.999Z</time></trkpt><trkpt lat="44.410502002039095" lon="11.049704464696076"><ele>356.0</ele><time>2026-03-22T12:01:22.999Z</time></trkpt><trkpt lat="44.41058803733769" lon="11.049757402210345"><ele>356.0</ele><time>2026-03-22T12:01:23.999Z</time></trkpt><trkpt lat="44.41067261911294" lon="11.049810254693092"><ele>356.0</ele><time>2026-03-22T12:01:24.999Z</time></trkpt><trkpt lat="44.410759153590995" lon="11.049868470833358"><ele>353.83333333333337</ele><time>2026-03-22T12:01:25.999Z</time></trkpt><trkpt lat="44.410826742507396" lon="11.049946901353746"><ele>351.6666666666667</ele><time>2026-03-22T12:01:26.999Z</time></trkpt><trkpt lat="44.41088720866484" lon="11.050018413940261"><ele>349.5</ele><time>2026-03-22T12:01:27.999Z</time></trkpt><trkpt lat="44.410939054463476" lon="11.0500995447999"><ele>347.3333333333333</ele><time>2026-03-22T12:01:28.999Z</time></trkpt><trkpt lat="44.410998309797925" lon="11.050174331934576"><ele>345.16666666666663</ele><time>2026-03-22T12:01:29.999Z</time></trkpt><trkpt lat="44.41107487632406" lon="11.050229604499819"><ele>343.0</ele><time>2026-03-22T12:01:30.999Z</time></trkpt><trkpt lat="44.41114628688072" lon="11.050303756898371"><ele>343.0</ele><time>2026-03-22T12:01:31.999Z</time></trkpt><trkpt lat="44.41122208059455" lon="11.050361115295104"><ele>343.0</ele><time>2026-03-22T12:01:32.999Z</time></trkpt><trkpt lat="44.41130013743311" lon="11.050414263835043"><ele>343.0</ele><time>2026-03-22T12:01:33.999Z</time></trkpt><trkpt lat="44.41137714021177" lon="11.050469476882308"><ele>343.0</ele><time>2026-03-22T12:01:34.999Z</time></trkpt><trkpt lat="44.41145422371971" lon="11.0505309698465"><ele>343.0</ele><time>2026-03-22T12:01:35.999Z</time></trkpt><trkpt lat="44.411535702387134" lon="11.050595159980428"><ele>343.0</ele><time>2026-03-22T12:01:36.999Z</time></trkpt><trkpt lat="44.41161427498679" lon="11.05065792261506"><ele>341.0</ele><time>2026-03-22T12:01:37.999Z</time></trkpt><trkpt lat="44.41169082249727" lon="11.050715542936379"><ele>339.0</ele><time>2026-03-22T12:01:38.999Z</time></trkpt><trkpt lat="44.41176658799048" lon="11.050776838148188"><ele>337.0</ele><time>2026-03-22T12:01:39.999Z</time></trkpt><trkpt lat="44.411842404999" lon="11.050831387187301"><ele>335.0</ele><time>2026-03-22T12:01:40.999Z</time></trkpt><trkpt lat="44.41192831406598" lon="11.050868471290695"><ele>333.0</ele><time>2026-03-22T12:01:41.999Z</time></trkpt><trkpt lat="44.41201895700234" lon="11.050878464537584"><ele>331.0</ele><time>2026-03-22T12:01:42.999Z</time></trkpt><trkpt lat="44.41212085062383" lon="11.050874167378277"><ele>326.8</ele><time>2026-03-22T12:01:43.999Z</time></trkpt><trkpt lat="44.41221979031662" lon="11.050879132893606"><ele>322.6</ele><time>2026-03-22T12:01:44.999Z</time></trkpt><trkpt lat="44.41230677611119" lon="11.050901954753481"><ele>318.4</ele><time>2026-03-22T12:01:45.999Z</time></trkpt><trkpt lat="44.412393772879504" lon="11.050933208998405"><ele>314.2</ele><time>2026-03-22T12:01:46.999Z</time></trkpt><trkpt lat="44.41246026056463" lon="11.05101400628828"><ele>310.0</ele><time>2026-03-22T12:01:47.999Z</time></trkpt><trkpt lat="44.4125468120834" lon="11.051047253236707"><ele>310.0</ele><time>2026-03-22T12:01:48.999Z</time></trkpt><trkpt lat="44.41263984715121" lon="11.051105399388463"><ele>310.0</ele><time>2026-03-22T12:01:49.999Z</time></trkpt><trkpt lat="44.41273436238729" lon="11.051135835955785"><ele>310.0</ele><time>2026-03-22T12:01:50.999Z</time></trkpt><trkpt lat="44.412831961104686" lon="11.051157036808451"><ele>310.0</ele><time>2026-03-22T12:01:51.999Z</time></trkpt><trkpt lat="44.412929421372986" lon="11.051177758059419"><ele>310.0</ele><time>2026-03-22T12:01:52.999Z</time></trkpt><trkpt lat="44.41302416202175" lon="11.051195978896237"><ele>307.3333333333333</ele><time>2026-03-22T12:01:53.999Z</time></trkpt><trkpt lat="44.41310797795371" lon="11.051207119914018"><ele>304.66666666666663</ele><time>2026-03-22T12:01:54.999Z</time></trkpt><trkpt lat="44.4131871818564" lon="11.051211433670973"><ele>302.0</ele><time>2026-03-22T12:01:55.999Z</time></trkpt><trkpt lat="44.41325876413421" lon="11.05116895501968"><ele>299.3333333333333</ele><time>2026-03-22T12:01:56.999Z</time></trkpt><trkpt lat="44.41332314919139" lon="11.051122549415823"><ele>296.6666666666667</ele><time>2026-03-22T12:01:57.999Z</time></trkpt><trkpt lat="44.41339266323622" lon="11.051081537770122"><ele>294.0</ele><time>2026-03-22T12:01:58.999Z</time></trkpt><trkpt lat="44.413464420812026" lon="11.051032002725066"><ele>294.0</ele><time>2026-03-22T12:01:59.999Z</time></trkpt><trkpt lat="44.41353871633806" lon="11.050978067936612"><ele>294.0</ele><time>2026-03-22T12:02:00.999Z</time></trkpt><trkpt lat="44.41361406896415" lon="11.05092191543903"><ele>294.0</ele><time>2026-03-22T12:02:01.999Z</time></trkpt><trkpt lat="44.41368860198805" lon="11.050864552947145"><ele>294.0</ele><time>2026-03-22T12:02:02.999Z</time></trkpt><trkpt lat="44.41376584416327" lon="11.050803267228787"><ele>294.0</ele><time>2026-03-22T12:02:03.999Z</time></trkpt><trkpt lat="44.41384802988578" lon="11.05073580410794"><ele>294.0</ele><time>2026-03-22T12:02:04.999Z</time></trkpt><trkpt lat="44.41393140768568" lon="11.05066906799365"><ele>291.5</ele><time>2026-03-22T12:02:05.999Z</time></trkpt><trkpt lat="44.41400822941131" lon="11.050607263542224"><ele>289.0</ele><time>2026-03-22T12:02:06.999Z</time></trkpt><trkpt lat="44.41408009350773" lon="11.050547145990555"><ele>286.5</ele><time>2026-03-22T12:02:07.999Z</time></trkpt><trkpt lat="44.414160561423905" lon="11.050516924006967"><ele>284.0</ele><time>2026-03-22T12:02:08.999Z</time></trkpt><trkpt lat="44.41423480675954" lon="11.050479673321155"><ele>281.5</ele><time>2026-03-22T12:02:09.999Z</time></trkpt><trkpt lat="44.41430933438522" lon="11.050467984591421"><ele>279.0</ele><time>2026-03-22T12:02:10.999Z</time></trkpt><trkpt lat="44.41437059081044" lon="11.050523248860042"><ele>279.0</ele><time>2026-03-22T12:02:11.999Z</time></trkpt><trkpt lat="44.414454255718255" lon="11.050582572336298"><ele>279.0</ele><time>2026-03-22T12:02:13Z</time></trkpt><trkpt lat="44.414543123046016" lon="11.050653210082556"><ele>279.0</ele><time>2026-03-22T12:02:14Z</time></trkpt><trkpt lat="44.414622873701575" lon="11.050724646446902"><ele>279.0</ele><time>2026-03-22T12:02:15Z</time></trkpt><trkpt lat="44.414703025417296" lon="11.050792092952229"><ele>279.0</ele><time>2026-03-22T12:02:16Z</time></trkpt><trkpt lat="44.414790735780954" lon="11.0508344721223"><ele>275.8</ele><time>2026-03-22T12:02:17Z</time></trkpt><trkpt lat="44.41487105044524" lon="11.050895926315395"><ele>272.59999999999997</ele><time>2026-03-22T12:02:18Z</time></trkpt><trkpt lat="44.41495560230982" lon="11.050947320086697"><ele>269.4</ele><time>2026-03-22T12:02:19Z</time></trkpt><trkpt lat="44.41504414774241" lon="11.050993231035875"><ele>266.2</ele><time>2026-03-22T12:02:20Z</time></trkpt><trkpt lat="44.41513875723223" lon="11.05103690556344"><ele>263.0</ele><time>2026-03-22T12:02:21Z</time></trkpt><trkpt lat="44.41523291872749" lon="11.051070710596768"><ele>263.0</ele><time>2026-03-22T12:02:22Z</time></trkpt><trkpt lat="44.41532261575248" lon="11.051088345112552"><ele>263.0</ele><time>2026-03-22T12:02:23Z</time></trkpt><trkpt lat="44.41540421665544" lon="11.051102018201314"><ele>263.0</ele><time>2026-03-22T12:02:24Z</time></trkpt><trkpt lat="44.41546966228333" lon="11.051126973501333"><ele>263.0</ele><time>2026-03-22T12:02:25Z</time></trkpt><trkpt lat="44.41550831135324" lon="11.05119690463837"><ele>263.0</ele><time>2026-03-22T12:02:26Z</time></trkpt><trkpt lat="44.415460319037564" lon="11.051336194570016"><ele>263.0</ele><time>2026-03-22T12:02:28Z</time></trkpt><trkpt lat="44.415449393893454" lon="11.051438031176586"><ele>263.0</ele><time>2026-03-22T12:02:29Z</time></trkpt><trkpt lat="44.41544303071586" lon="11.05155623629391"><ele>263.0</ele><time>2026-03-22T12:02:30Z</time></trkpt><trkpt lat="44.415445037066746" lon="11.051670020364881"><ele>263.0</ele><time>2026-03-22T12:02:31Z</time></trkpt><trkpt lat="44.41547481449731" lon="11.051810465537628"><ele>263.0</ele><time>2026-03-22T12:02:32Z</time></trkpt><trkpt lat="44.41550778565778" lon="11.051941496667535"><ele>263.0</ele><time>2026-03-22T12:02:33Z</time></trkpt><trkpt lat="44.415550392492364" lon="11.052075369386102"><ele>259.6</ele><time>2026-03-22T12:02:34Z</time></trkpt><trkpt lat="44.41559883635294" lon="11.05220249871383"><ele>256.20000000000005</ele><time>2026-03-22T12:02:35Z</time></trkpt><trkpt lat="44.41564759710225" lon="11.052320188874104"><ele>252.8</ele><time>2026-03-22T12:02:36Z</time></trkpt><trkpt lat="44.41569908503077" lon="11.052436755915851"><ele>249.4</ele><time>2026-03-22T12:02:37Z</time></trkpt><trkpt lat="44.415754871205976" lon="11.052552754398379"><ele>246.0</ele><time>2026-03-22T12:02:38Z</time></trkpt><trkpt lat="44.41582815338898" lon="11.052661652955196"><ele>243.60000000000002</ele><time>2026-03-22T12:02:39Z</time></trkpt><trkpt lat="44.41592190291812" lon="11.052732740462405"><ele>241.20000000000002</ele><time>2026-03-22T12:02:40Z</time></trkpt><trkpt lat="44.41600997005751" lon="11.052806550126878"><ele>238.79999999999998</ele><time>2026-03-22T12:02:41Z</time></trkpt><trkpt lat="44.41610723212129" lon="11.052852057458642"><ele>236.39999999999998</ele><time>2026-03-22T12:02:42Z</time></trkpt><trkpt lat="44.4162027989018" lon="11.052886187227273"><ele>234.0</ele><time>2026-03-22T12:02:43Z</time></trkpt><trkpt lat="44.41628657479704" lon="11.052919834151249"><ele>232.33333333333334</ele><time>2026-03-22T12:02:44Z</time></trkpt><trkpt lat="44.41636379365828" lon="11.052951561085655"><ele>230.66666666666669</ele><time>2026-03-22T12:02:45Z</time></trkpt><trkpt lat="44.41643280862233" lon="11.052984116350986"><ele>229.0</ele><time>2026-03-22T12:02:45.999Z</time></trkpt><trkpt lat="44.41649635349259" lon="11.053013282797398"><ele>227.33333333333334</ele><time>2026-03-22T12:02:46.999Z</time></trkpt><trkpt lat="44.4165657149198" lon="11.053110660498518"><ele>225.66666666666669</ele><time>2026-03-22T12:02:48.999Z</time></trkpt><trkpt lat="44.416508729699245" lon="11.053189024749765"><ele>224.0</ele><time>2026-03-22T12:02:50.999Z</time></trkpt><trkpt lat="44.41651642869335" lon="11.053286313946636"><ele>224.0</ele><time>2026-03-22T12:02:53.999Z</time></trkpt><trkpt lat="44.416685864207274" lon="11.053269163703902"><ele>223.99999999999997</ele><time>2026-03-22T12:02:54.999Z</time></trkpt><trkpt lat="44.41678066057664" lon="11.053262889789218"><ele>223.99999999999997</ele><time>2026-03-22T12:02:56.999Z</time></trkpt><trkpt lat="44.41685069779753" lon="11.053255666380533"><ele>224.0</ele><time>2026-03-22T12:02:59.999Z</time></trkpt><trkpt lat="44.41693386851924" lon="11.053236895397482"><ele>224.0</ele><time>2026-03-22T12:03:19.999Z</time></trkpt><trkpt lat="44.4169994853086" lon="11.053216364979795"><ele>224.0</ele><time>2026-03-22T12:03:21.999Z</time></trkpt><trkpt lat="44.417116755710964" lon="11.05318175882741"><ele>223.99999999999997</ele><time>2026-03-22T12:03:23.999Z</time></trkpt><trkpt lat="44.4172377669061" lon="11.053147918426948"><ele>223.99999999999997</ele><time>2026-03-22T12:03:25.999Z</time></trkpt><trkpt lat="44.4173481761008" lon="11.053152766244969"><ele>224.0</ele><time>2026-03-22T12:03:27.999Z</time></trkpt><trkpt lat="44.417436717552015" lon="11.053163891218366"><ele>224.0</ele><time>2026-03-22T12:03:29.999Z</time></trkpt><trkpt lat="44.41763176504641" lon="11.053250401884707"><ele>223.28571428571428</ele><time>2026-03-22T12:03:31.999Z</time></trkpt><trkpt lat="44.41769580321144" lon="11.053299498606732"><ele>222.57142857142856</ele><time>2026-03-22T12:03:33.999Z</time></trkpt><trkpt lat="44.417749564779996" lon="11.05334674874542"><ele>221.85714285714286</ele><time>2026-03-22T12:03:35.999Z</time></trkpt><trkpt lat="44.41780516153726" lon="11.053397459703726"><ele>221.14285714285714</ele><time>2026-03-22T12:03:37.999Z</time></trkpt><trkpt lat="44.41787316919385" lon="11.053459490747736"><ele>220.42857142857142</ele><time>2026-03-22T12:03:39.999Z</time></trkpt><trkpt lat="44.41794964166842" lon="11.053529242611273"><ele>219.71428571428572</ele><time>2026-03-22T12:03:41.999Z</time></trkpt><trkpt lat="44.418009778047434" lon="11.053584094340923"><ele>219.0</ele><time>2026-03-22T12:03:43.999Z</time></trkpt><trkpt lat="44.418084928864104" lon="11.053652435293042"><ele>218.33333333333334</ele><time>2026-03-22T12:03:45.999Z</time></trkpt><trkpt lat="44.418157965032094" lon="11.053716559805316"><ele>217.66666666666669</ele><time>2026-03-22T12:03:47.999Z</time></trkpt><trkpt lat="44.41824021969095" lon="11.053791737569105"><ele>217.0</ele><time>2026-03-22T12:03:49.999Z</time></trkpt><trkpt lat="44.41830460805251" lon="11.053854837168652"><ele>216.33333333333334</ele><time>2026-03-22T12:03:51.999Z</time></trkpt><trkpt lat="44.418370088974285" lon="11.053920912872115"><ele>215.66666666666669</ele><time>2026-03-22T12:03:53.999Z</time></trkpt><trkpt lat="44.418426080933834" lon="11.053979644405404"><ele>215.0</ele><time>2026-03-22T12:03:55.999Z</time></trkpt><trkpt lat="44.41848310925853" lon="11.054045125279774"><ele>215.0</ele><time>2026-03-22T12:03:58.999Z</time></trkpt><trkpt lat="44.41853252737116" lon="11.05410761864872"><ele>215.0</ele><time>2026-03-22T12:04:01.999Z</time></trkpt><trkpt lat="44.41858173577957" lon="11.054171006286607"><ele>215.0</ele><time>2026-03-22T12:04:03.999Z</time></trkpt><trkpt lat="44.41862962678954" lon="11.05423316561595"><ele>215.0</ele><time>2026-03-22T12:04:05.999Z</time></trkpt><trkpt lat="44.418679154421895" lon="11.05429744712118"><ele>215.0</ele><time>2026-03-22T12:04:07.999Z</time></trkpt><trkpt lat="44.4187516595749" lon="11.05440387827958"><ele>215.0</ele><time>2026-03-22T12:04:09.999Z</time></trkpt><trkpt lat="44.418801973992316" lon="11.054459564444121"><ele>215.0</ele><time>2026-03-22T12:04:10.999Z</time></trkpt><trkpt lat="44.41886550949569" lon="11.054527886568357"><ele>215.00000000000003</ele><time>2026-03-22T12:04:11.999Z</time></trkpt><trkpt lat="44.4189486375236" lon="11.054608387864345"><ele>215.0</ele><time>2026-03-22T12:04:13.999Z</time></trkpt><trkpt lat="44.41902773546243" lon="11.054677785321248"><ele>215.0</ele><time>2026-03-22T12:04:15.999Z</time></trkpt><trkpt lat="44.4190884066781" lon="11.054726301885403"><ele>215.0</ele><time>2026-03-22T12:04:17.999Z</time></trkpt><trkpt lat="44.41916460297376" lon="11.054785012431335"><ele>215.00000000000003</ele><time>2026-03-22T12:04:21Z</time></trkpt><trkpt lat="44.41923771827045" lon="11.054842272552529"><ele>215.0</ele><time>2026-03-22T12:04:23Z</time></trkpt><trkpt lat="44.419318647810876" lon="11.054900794371125"><ele>215.33333333333334</ele><time>2026-03-22T12:04:25Z</time></trkpt><trkpt lat="44.419409904620736" lon="11.05496597613836"><ele>215.66666666666669</ele><time>2026-03-22T12:04:27Z</time></trkpt><trkpt lat="44.419474595068735" lon="11.05500990949876"><ele>216.0</ele><time>2026-03-22T12:04:28Z</time></trkpt><trkpt lat="44.41974698326385" lon="11.054276354696565"><ele>216.0</ele><time>2026-03-22T12:04:31Z</time></trkpt><trkpt lat="44.41979327576367" lon="11.054188171883057"><ele>216.00000000000003</ele><time>2026-03-22T12:04:32Z</time></trkpt><trkpt lat="44.41983993855278" lon="11.054120598619242"><ele>216.00000000000003</ele><time>2026-03-22T12:04:33Z</time></trkpt><trkpt lat="44.41989050860152" lon="11.054046803684981"><ele>216.0</ele><time>2026-03-22T12:04:35Z</time></trkpt><trkpt lat="44.41998096516946" lon="11.054047057366546"><ele>216.0</ele><time>2026-03-22T12:04:45.999Z</time></trkpt><trkpt lat="44.4200966534869" lon="11.054174248812842"><ele>216.0</ele><time>2026-03-22T12:04:47.999Z</time></trkpt><trkpt lat="44.420176587435414" lon="11.054267101513412"><ele>216.00000000000003</ele><time>2026-03-22T12:04:48.999Z</time></trkpt><trkpt lat="44.420274065851984" lon="11.05436134238091"><ele>216.00000000000003</ele><time>2026-03-22T12:04:49.999Z</time></trkpt><trkpt lat="44.4203626712658" lon="11.05444521282064"><ele>216.0</ele><time>2026-03-22T12:04:50.999Z</time></trkpt><trkpt lat="44.42043838584222" lon="11.054523467649695"><ele>216.0</ele><time>2026-03-22T12:04:51.999Z</time></trkpt><trkpt lat="44.42050554834273" lon="11.054593362816181"><ele>215.8</ele><time>2026-03-22T12:04:52.999Z</time></trkpt><trkpt lat="44.42056687439533" lon="11.054654008480206"><ele>215.60000000000002</ele><time>2026-03-22T12:04:53.999Z</time></trkpt><trkpt lat="44.420643012737656" lon="11.054730855126987"><ele>215.4</ele><time>2026-03-22T12:04:54.999Z</time></trkpt><trkpt lat="44.420741468314844" lon="11.054819474391445"><ele>215.2</ele><time>2026-03-22T12:04:55.999Z</time></trkpt><trkpt lat="44.42082471739985" lon="11.05489784662051"><ele>215.0</ele><time>2026-03-22T12:04:56.999Z</time></trkpt><trkpt lat="44.42090403352361" lon="11.054980177878141"><ele>215.0</ele><time>2026-03-22T12:04:57.999Z</time></trkpt><trkpt lat="44.42098627203047" lon="11.055058716957232"><ele>215.0</ele><time>2026-03-22T12:04:58.999Z</time></trkpt><trkpt lat="44.42105631275152" lon="11.055126634435307"><ele>215.0</ele><time>2026-03-22T12:04:59.999Z</time></trkpt><trkpt lat="44.42107511466086" lon="11.055233269500999"><ele>215.0</ele><time>2026-03-22T12:05:00.999Z</time></trkpt><trkpt lat="44.421143223067034" lon="11.055356970151077"><ele>215.0</ele><time>2026-03-22T12:05:02.999Z</time></trkpt><trkpt lat="44.42118997200332" lon="11.055450354511228"><ele>215.0</ele><time>2026-03-22T12:05:03.999Z</time></trkpt><trkpt lat="44.4212476579441" lon="11.055576059766542"><ele>215.0</ele><time>2026-03-22T12:05:04.999Z</time></trkpt><trkpt lat="44.42131005138552" lon="11.055708422208603"><ele>215.0</ele><time>2026-03-22T12:05:05.999Z</time></trkpt><trkpt lat="44.42136310146468" lon="11.055817356562788"><ele>215.0</ele><time>2026-03-22T12:05:06.999Z</time></trkpt><trkpt lat="44.42140888037539" lon="11.055911360784284"><ele>215.0</ele><time>2026-03-22T12:05:07.999Z</time></trkpt><trkpt lat="44.42146687230375" lon="11.056016808283013"><ele>213.75</ele><time>2026-03-22T12:05:08.999Z</time></trkpt><trkpt lat="44.4215400170829" lon="11.056128931877746"><ele>212.5</ele><time>2026-03-22T12:05:09.999Z</time></trkpt><trkpt lat="44.42163542047151" lon="11.056243063318632"><ele>211.25</ele><time>2026-03-22T12:05:10.999Z</time></trkpt><trkpt lat="44.421753213926024" lon="11.056377428872322"><ele>210.0</ele><time>2026-03-22T12:05:11.999Z</time></trkpt><trkpt lat="44.42186624862053" lon="11.056504531178282"><ele>210.25</ele><time>2026-03-22T12:05:12.999Z</time></trkpt><trkpt lat="44.42197866094659" lon="11.056633195341657"><ele>210.5</ele><time>2026-03-22T12:05:13.999Z</time></trkpt><trkpt lat="44.42208827663056" lon="11.056759196317703"><ele>210.75</ele><time>2026-03-22T12:05:14.999Z</time></trkpt><trkpt lat="44.42218919506079" lon="11.056875199781679"><ele>211.0</ele><time>2026-03-22T12:05:15.999Z</time></trkpt><trkpt lat="44.422280968602124" lon="11.056980691738362"><ele>211.0</ele><time>2026-03-22T12:05:16.999Z</time></trkpt><trkpt lat="44.42236851565044" lon="11.057081350952561"><ele>211.0</ele><time>2026-03-22T12:05:17.999Z</time></trkpt><trkpt lat="44.422466008613426" lon="11.057193669014632"><ele>211.0</ele><time>2026-03-22T12:05:18.999Z</time></trkpt><trkpt lat="44.42256179437138" lon="11.057304020181842"><ele>211.0</ele><time>2026-03-22T12:05:19.999Z</time></trkpt><trkpt lat="44.422654619687066" lon="11.05740971989092"><ele>210.75</ele><time>2026-03-22T12:05:20.999Z</time></trkpt><trkpt lat="44.422756252598866" lon="11.057524814295439"><ele>210.5</ele><time>2026-03-22T12:05:21.999Z</time></trkpt><trkpt lat="44.42285942484297" lon="11.05764165200202"><ele>210.25</ele><time>2026-03-22T12:05:22.999Z</time></trkpt><trkpt lat="44.42295939826283" lon="11.057754854574446"><ele>210.0</ele><time>2026-03-22T12:05:23.999Z</time></trkpt><trkpt lat="44.42306512785621" lon="11.057875086846348"><ele>209.25</ele><time>2026-03-22T12:05:24.999Z</time></trkpt><trkpt lat="44.423176740866104" lon="11.058002009691318"><ele>208.5</ele><time>2026-03-22T12:05:25.999Z</time></trkpt><trkpt lat="44.42327989956711" lon="11.058119318664456"><ele>207.75</ele><time>2026-03-22T12:05:26.999Z</time></trkpt><trkpt lat="44.42337406390794" lon="11.058226399306923"><ele>207.0</ele><time>2026-03-22T12:05:27.999Z</time></trkpt><trkpt lat="44.42346445795156" lon="11.058329192661333"><ele>207.0</ele><time>2026-03-22T12:05:28.999Z</time></trkpt><trkpt lat="44.42355314515742" lon="11.058431366111265"><ele>207.0</ele><time>2026-03-22T12:05:29.999Z</time></trkpt><trkpt lat="44.42364359105904" lon="11.058536022891142"><ele>207.0</ele><time>2026-03-22T12:05:30.999Z</time></trkpt><trkpt lat="44.42373287435533" lon="11.058639334666323"><ele>207.0</ele><time>2026-03-22T12:05:31.999Z</time></trkpt><trkpt lat="44.423821267473315" lon="11.058736556351244"><ele>207.0</ele><time>2026-03-22T12:05:32.999Z</time></trkpt><trkpt lat="44.42391480096295" lon="11.058794032588416"><ele>207.0</ele><time>2026-03-22T12:05:33.999Z</time></trkpt><trkpt lat="44.423996910646046" lon="11.058857501128907"><ele>207.0</ele><time>2026-03-22T12:05:34.999Z</time></trkpt><trkpt lat="44.42408731499564" lon="11.058887491303112"><ele>207.0</ele><time>2026-03-22T12:05:35.999Z</time></trkpt><trkpt lat="44.424195310430676" lon="11.058888503821686"><ele>207.0</ele><time>2026-03-22T12:05:36.999Z</time></trkpt><trkpt lat="44.42431611970819" lon="11.058859020738497"><ele>207.0</ele><time>2026-03-22T12:05:37.999Z</time></trkpt><trkpt lat="44.42444707382927" lon="11.058800874908751"><ele>207.0</ele><time>2026-03-22T12:05:38.999Z</time></trkpt><trkpt lat="44.42459173616925" lon="11.058720799600188"><ele>207.0</ele><time>2026-03-22T12:05:39.999Z</time></trkpt><trkpt lat="44.42475184333898" lon="11.0586325720871"><ele>207.66666666666669</ele><time>2026-03-22T12:05:40.999Z</time></trkpt><trkpt lat="44.42492042232599" lon="11.058540924667758"><ele>208.33333333333334</ele><time>2026-03-22T12:05:41.999Z</time></trkpt><trkpt lat="44.425070470815456" lon="11.058464829521869"><ele>209.0</ele><time>2026-03-22T12:05:42.999Z</time></trkpt><trkpt lat="44.425196692547225" lon="11.058397149593391"><ele>209.0</ele><time>2026-03-22T12:05:43.999Z</time></trkpt><trkpt lat="44.42531160200819" lon="11.058338368464877"><ele>209.0</ele><time>2026-03-22T12:05:44.999Z</time></trkpt><trkpt lat="44.425412022696364" lon="11.058290827952577"><ele>209.0</ele><time>2026-03-22T12:05:45.999Z</time></trkpt><trkpt lat="44.42551191331107" lon="11.05824476181887"><ele>209.0</ele><time>2026-03-22T12:05:46.999Z</time></trkpt><trkpt lat="44.42562309257008" lon="11.058195862386597"><ele>211.5</ele><time>2026-03-22T12:05:47.999Z</time></trkpt><trkpt lat="44.42573786229707" lon="11.05815618021629"><ele>214.0</ele><time>2026-03-22T12:05:48.999Z</time></trkpt><trkpt lat="44.425862596050266" lon="11.058129486446745"><ele>216.5</ele><time>2026-03-22T12:05:49.999Z</time></trkpt><trkpt lat="44.425999994587045" lon="11.058101973112024"><ele>219.0</ele><time>2026-03-22T12:05:50.999Z</time></trkpt><trkpt lat="44.42612585995799" lon="11.058084931915214"><ele>219.0</ele><time>2026-03-22T12:05:51.999Z</time></trkpt><trkpt lat="44.426244720649755" lon="11.058081482551625"><ele>219.0</ele><time>2026-03-22T12:05:52.999Z</time></trkpt><trkpt lat="44.42635953284651" lon="11.058086024570814"><ele>219.0</ele><time>2026-03-22T12:05:53.999Z</time></trkpt><trkpt lat="44.42647861194555" lon="11.05810102198755"><ele>219.0</ele><time>2026-03-22T12:05:54.999Z</time></trkpt><trkpt lat="44.426595234295824" lon="11.058129846319813"><ele>219.75</ele><time>2026-03-22T12:05:55.999Z</time></trkpt><trkpt lat="44.42671389482445" lon="11.05816181381581"><ele>220.5</ele><time>2026-03-22T12:05:56.999Z</time></trkpt><trkpt lat="44.42682944436662" lon="11.058189624730979"><ele>221.25</ele><time>2026-03-22T12:05:57.999Z</time></trkpt><trkpt lat="44.42694309936196" lon="11.058219139999451"><ele>222.0</ele><time>2026-03-22T12:05:58.999Z</time></trkpt><trkpt lat="44.42705663107455" lon="11.058246341621919"><ele>223.0</ele><time>2026-03-22T12:05:59.999Z</time></trkpt><trkpt lat="44.42717045025284" lon="11.058262997522858"><ele>224.0</ele><time>2026-03-22T12:06:00.999Z</time></trkpt><trkpt lat="44.42728762462271" lon="11.058268079007844"><ele>225.0</ele><time>2026-03-22T12:06:01.999Z</time></trkpt><trkpt lat="44.42740409682106" lon="11.058259799736993"><ele>226.0</ele><time>2026-03-22T12:06:02.999Z</time></trkpt><trkpt lat="44.427523023000155" lon="11.05824738882492"><ele>226.0</ele><time>2026-03-22T12:06:03.999Z</time></trkpt><trkpt lat="44.42764474094211" lon="11.058235903171703"><ele>226.0</ele><time>2026-03-22T12:06:04.999Z</time></trkpt><trkpt lat="44.42776696116932" lon="11.058231641708893"><ele>226.0</ele><time>2026-03-22T12:06:05.999Z</time></trkpt><trkpt lat="44.42789703620161" lon="11.058229897387276"><ele>226.0</ele><time>2026-03-22T12:06:06.999Z</time></trkpt><trkpt lat="44.428025537782204" lon="11.058226780830447"><ele>227.0</ele><time>2026-03-22T12:06:07.999Z</time></trkpt><trkpt lat="44.42813992046616" lon="11.058226354112383"><ele>228.0</ele><time>2026-03-22T12:06:08.999Z</time></trkpt><trkpt lat="44.42824885151508" lon="11.058229266204016"><ele>229.0</ele><time>2026-03-22T12:06:09.999Z</time></trkpt><trkpt lat="44.428367208835425" lon="11.058242790504506"><ele>230.0</ele><time>2026-03-22T12:06:10.999Z</time></trkpt><trkpt lat="44.428496831313154" lon="11.058283705263138"><ele>227.25</ele><time>2026-03-22T12:06:11.999Z</time></trkpt><trkpt lat="44.42863546163003" lon="11.058343241615432"><ele>224.5</ele><time>2026-03-22T12:06:12.999Z</time></trkpt><trkpt lat="44.42877066483856" lon="11.05840844431836"><ele>221.75</ele><time>2026-03-22T12:06:13.999Z</time></trkpt><trkpt lat="44.42888752220515" lon="11.058464788053039"><ele>219.0</ele><time>2026-03-22T12:06:14.999Z</time></trkpt><trkpt lat="44.42899842702067" lon="11.058516145409659"><ele>219.0</ele><time>2026-03-22T12:06:15.999Z</time></trkpt><trkpt lat="44.42912475964704" lon="11.058575323459314"><ele>219.0</ele><time>2026-03-22T12:06:16.999Z</time></trkpt><trkpt lat="44.42927628234527" lon="11.058646303793855"><ele>219.0</ele><time>2026-03-22T12:06:17.999Z</time></trkpt><trkpt lat="44.429427507108784" lon="11.058720784141284"><ele>219.0</ele><time>2026-03-22T12:06:18.999Z</time></trkpt><trkpt lat="44.42956161058565" lon="11.058784834799873"><ele>219.0</ele><time>2026-03-22T12:06:19.999Z</time></trkpt><trkpt lat="44.42968985152711" lon="11.05884293987885"><ele>219.0</ele><time>2026-03-22T12:06:20.999Z</time></trkpt><trkpt lat="44.429838816436074" lon="11.058906985939302"><ele>219.0</ele><time>2026-03-22T12:06:21.999Z</time></trkpt><trkpt lat="44.429991242863295" lon="11.058981672699444"><ele>218.75</ele><time>2026-03-22T12:06:22.999Z</time></trkpt><trkpt lat="44.43013657122798" lon="11.059055349415338"><ele>218.5</ele><time>2026-03-22T12:06:23.999Z</time></trkpt><trkpt lat="44.43027657434026" lon="11.059124729393606"><ele>218.25</ele><time>2026-03-22T12:06:25Z</time></trkpt><trkpt lat="44.43041128582197" lon="11.059188364750913"><ele>218.0</ele><time>2026-03-22T12:06:26Z</time></trkpt><trkpt lat="44.43053829192433" lon="11.059241693857581"><ele>218.0</ele><time>2026-03-22T12:06:27Z</time></trkpt><trkpt lat="44.43067456967883" lon="11.059298564986582"><ele>218.0</ele><time>2026-03-22T12:06:28Z</time></trkpt><trkpt lat="44.43081595782316" lon="11.059366363159489"><ele>218.0</ele><time>2026-03-22T12:06:29Z</time></trkpt><trkpt lat="44.43094913620554" lon="11.059434542333621"><ele>218.0</ele><time>2026-03-22T12:06:30Z</time></trkpt><trkpt lat="44.43109846880136" lon="11.059507197503395"><ele>218.0</ele><time>2026-03-22T12:06:31Z</time></trkpt><trkpt lat="44.431276765526725" lon="11.059577934049866"><ele>218.0</ele><time>2026-03-22T12:06:32Z</time></trkpt><trkpt lat="44.43145376341437" lon="11.059641497978777"><ele>218.0</ele><time>2026-03-22T12:06:33Z</time></trkpt><trkpt lat="44.43160869346585" lon="11.059694745408594"><ele>219.5</ele><time>2026-03-22T12:06:34Z</time></trkpt><trkpt lat="44.43175583893053" lon="11.059748180936856"><ele>221.0</ele><time>2026-03-22T12:06:35Z</time></trkpt><trkpt lat="44.43190063068877" lon="11.059788889807612"><ele>222.5</ele><time>2026-03-22T12:06:36Z</time></trkpt><trkpt lat="44.43203474564738" lon="11.059819280734919"><ele>224.0</ele><time>2026-03-22T12:06:37Z</time></trkpt><trkpt lat="44.4321611578185" lon="11.05984791455286"><ele>224.0</ele><time>2026-03-22T12:06:38Z</time></trkpt><trkpt lat="44.43229029723445" lon="11.05987974988387"><ele>224.0</ele><time>2026-03-22T12:06:39Z</time></trkpt><trkpt lat="44.4324358406889" lon="11.059926103387218"><ele>224.0</ele><time>2026-03-22T12:06:40Z</time></trkpt><trkpt lat="44.432578924360435" lon="11.059986705909745"><ele>224.0</ele><time>2026-03-22T12:06:41Z</time></trkpt><trkpt lat="44.43271305085458" lon="11.060045797663149"><ele>220.5</ele><time>2026-03-22T12:06:41.999Z</time></trkpt><trkpt lat="44.43284464307242" lon="11.060095320054334"><ele>217.0</ele><time>2026-03-22T12:06:42.999Z</time></trkpt><trkpt lat="44.43298723361877" lon="11.06014575213596"><ele>213.5</ele><time>2026-03-22T12:06:43.999Z</time></trkpt><trkpt lat="44.43312290839749" lon="11.060192240729142"><ele>210.0</ele><time>2026-03-22T12:06:44.999Z</time></trkpt><trkpt lat="44.43325747875539" lon="11.060230190696963"><ele>210.0</ele><time>2026-03-22T12:06:45.999Z</time></trkpt><trkpt lat="44.43340641768438" lon="11.060258136306981"><ele>210.0</ele><time>2026-03-22T12:06:46.999Z</time></trkpt><trkpt lat="44.43357567482646" lon="11.060281806722415"><ele>210.0</ele><time>2026-03-22T12:06:47.999Z</time></trkpt><trkpt lat="44.43374659007388" lon="11.060311795163068"><ele>208.75</ele><time>2026-03-22T12:06:48.999Z</time></trkpt><trkpt lat="44.43388999862086" lon="11.060341447291826"><ele>207.5</ele><time>2026-03-22T12:06:49.999Z</time></trkpt><trkpt lat="44.43403102787653" lon="11.06036751416171"><ele>206.25</ele><time>2026-03-22T12:06:50.999Z</time></trkpt><trkpt lat="44.43415935952343" lon="11.060394635441417"><ele>205.0</ele><time>2026-03-22T12:06:51.999Z</time></trkpt><trkpt lat="44.43428277812355" lon="11.06043500065681"><ele>205.0</ele><time>2026-03-22T12:06:52.999Z</time></trkpt><trkpt lat="44.434394682236025" lon="11.060479847166143"><ele>205.0</ele><time>2026-03-22T12:06:53.999Z</time></trkpt><trkpt lat="44.434496169849815" lon="11.060524858743324"><ele>205.0</ele><time>2026-03-22T12:06:54.999Z</time></trkpt><trkpt lat="44.43458422913494" lon="11.060573444963431"><ele>205.0</ele><time>2026-03-22T12:06:55.999Z</time></trkpt><trkpt lat="44.43466020211985" lon="11.060638676210143"><ele>205.0</ele><time>2026-03-22T12:06:56.999Z</time></trkpt><trkpt lat="44.43472530678486" lon="11.06071752675924"><ele>203.66666666666666</ele><time>2026-03-22T12:06:57.999Z</time></trkpt><trkpt lat="44.43477926423743" lon="11.060804863095603"><ele>202.33333333333331</ele><time>2026-03-22T12:06:58.999Z</time></trkpt><trkpt lat="44.43484683999261" lon="11.060904584469073"><ele>201.0</ele><time>2026-03-22T12:06:59.999Z</time></trkpt><trkpt lat="44.434909884624744" lon="11.060988235035516"><ele>199.66666666666669</ele><time>2026-03-22T12:07:00.999Z</time></trkpt><trkpt lat="44.43497156199494" lon="11.061038483982536"><ele>198.33333333333334</ele><time>2026-03-22T12:07:01.999Z</time></trkpt><trkpt lat="44.43503464169779" lon="11.061056073437129"><ele>197.0</ele><time>2026-03-22T12:07:02.999Z</time></trkpt><trkpt lat="44.43512643426543" lon="11.061006013075149"><ele>197.0</ele><time>2026-03-22T12:07:04.999Z</time></trkpt><trkpt lat="44.43515263266536" lon="11.060879437775272"><ele>197.0</ele><time>2026-03-22T12:07:06.999Z</time></trkpt><trkpt lat="44.43510629952481" lon="11.060760122173546"><ele>197.0</ele><time>2026-03-22T12:07:08.999Z</time></trkpt><trkpt lat="44.43498871782788" lon="11.060702489647595"><ele>197.0</ele><time>2026-03-22T12:07:10.999Z</time></trkpt><trkpt lat="44.43492966224682" lon="11.060671800119147"><ele>197.0</ele><time>2026-03-22T12:07:11.999Z</time></trkpt><trkpt lat="44.43485373135604" lon="11.060691078410551"><ele>197.39999999999998</ele><time>2026-03-22T12:07:12.999Z</time></trkpt><trkpt lat="44.43476346575914" lon="11.06062190907891"><ele>197.79999999999998</ele><time>2026-03-22T12:07:14.999Z</time></trkpt><trkpt lat="44.434751268225604" lon="11.060410361649375"><ele>198.2</ele><time>2026-03-22T12:07:18.999Z</time></trkpt><trkpt lat="44.43477488472727" lon="11.060324704155159"><ele>198.6</ele><time>2026-03-22T12:07:19.999Z</time></trkpt><trkpt lat="44.434805529626914" lon="11.060213930319406"><ele>199.0</ele><time>2026-03-22T12:07:20.999Z</time></trkpt><trkpt lat="44.43483308907946" lon="11.060087087074796"><ele>198.75</ele><time>2026-03-22T12:07:21.999Z</time></trkpt><trkpt lat="44.43483881817109" lon="11.059928574878732"><ele>198.5</ele><time>2026-03-22T12:07:22.999Z</time></trkpt><trkpt lat="44.43482804672565" lon="11.059766207783339"><ele>198.25</ele><time>2026-03-22T12:07:23.999Z</time></trkpt><trkpt lat="44.434798167418116" lon="11.059598695945628"><ele>198.0</ele><time>2026-03-22T12:07:24.999Z</time></trkpt><trkpt lat="44.434764821024835" lon="11.059451883113537"><ele>198.0</ele><time>2026-03-22T12:07:25.999Z</time></trkpt><trkpt lat="44.434746545221984" lon="11.059331121871711"><ele>198.0</ele><time>2026-03-22T12:07:26.999Z</time></trkpt><trkpt lat="44.43468247196182" lon="11.059241391669797"><ele>198.0</ele><time>2026-03-22T12:07:27.999Z</time></trkpt><trkpt lat="44.43460646979166" lon="11.059141490096364"><ele>198.0</ele><time>2026-03-22T12:07:28.999Z</time></trkpt><trkpt lat="44.434496912252015" lon="11.05907099698047"><ele>198.0</ele><time>2026-03-22T12:07:29.999Z</time></trkpt><trkpt lat="44.43438688217986" lon="11.059016831157765"><ele>200.0</ele><time>2026-03-22T12:07:30.999Z</time></trkpt><trkpt lat="44.43427366951158" lon="11.058960242945815"><ele>202.0</ele><time>2026-03-22T12:07:31.999Z</time></trkpt><trkpt lat="44.4341533240543" lon="11.05889820630524"><ele>204.0</ele><time>2026-03-22T12:07:32.999Z</time></trkpt><trkpt lat="44.43403375580862" lon="11.058829787440406"><ele>206.0</ele><time>2026-03-22T12:07:33.999Z</time></trkpt><trkpt lat="44.43391235476959" lon="11.058757110119249"><ele>212.0</ele><time>2026-03-22T12:07:34.999Z</time></trkpt><trkpt lat="44.43379532460383" lon="11.058684504204944"><ele>218.0</ele><time>2026-03-22T12:07:35.999Z</time></trkpt><trkpt lat="44.433666254183194" lon="11.058616916849266"><ele>224.0</ele><time>2026-03-22T12:07:36.999Z</time></trkpt><trkpt lat="44.43352750045984" lon="11.058569018447766"><ele>230.0</ele><time>2026-03-22T12:07:37.999Z</time></trkpt><trkpt lat="44.433390574696915" lon="11.058501470390976"><ele>230.0</ele><time>2026-03-22T12:07:38.999Z</time></trkpt><trkpt lat="44.433266011102255" lon="11.058442200846605"><ele>230.0</ele><time>2026-03-22T12:07:39.999Z</time></trkpt><trkpt lat="44.43314327779612" lon="11.05837831048972"><ele>230.0</ele><time>2026-03-22T12:07:40.999Z</time></trkpt><trkpt lat="44.433025990598615" lon="11.058308310464394"><ele>230.0</ele><time>2026-03-22T12:07:41.999Z</time></trkpt><trkpt lat="44.43290950061418" lon="11.058235764065104"><ele>231.25</ele><time>2026-03-22T12:07:42.999Z</time></trkpt><trkpt lat="44.4328048044046" lon="11.058171252517543"><ele>232.5</ele><time>2026-03-22T12:07:43.999Z</time></trkpt><trkpt lat="44.43271057873137" lon="11.058105543458"><ele>233.75</ele><time>2026-03-22T12:07:44.999Z</time></trkpt><trkpt lat="44.43260687677276" lon="11.058032689333924"><ele>235.0</ele><time>2026-03-22T12:07:45.999Z</time></trkpt><trkpt lat="44.43249555958038" lon="11.05795915412167"><ele>235.0</ele><time>2026-03-22T12:07:46.999Z</time></trkpt><trkpt lat="44.43239607598474" lon="11.057898515700925"><ele>235.0</ele><time>2026-03-22T12:07:47.999Z</time></trkpt><trkpt lat="44.4322979168537" lon="11.057838170519052"><ele>235.0</ele><time>2026-03-22T12:07:48.999Z</time></trkpt><trkpt lat="44.43220444853511" lon="11.057772444987961"><ele>235.0</ele><time>2026-03-22T12:07:49.999Z</time></trkpt><trkpt lat="44.43209985271463" lon="11.05769727740683"><ele>235.0</ele><time>2026-03-22T12:07:50.999Z</time></trkpt><trkpt lat="44.43199089803967" lon="11.05762448423004"><ele>236.25</ele><time>2026-03-22T12:07:52Z</time></trkpt><trkpt lat="44.43187356596413" lon="11.057521715893014"><ele>237.5</ele><time>2026-03-22T12:07:53Z</time></trkpt><trkpt lat="44.43175049843299" lon="11.057432427988475"><ele>238.75</ele><time>2026-03-22T12:07:54Z</time></trkpt><trkpt lat="44.43164485111758" lon="11.05736329597149"><ele>240.0</ele><time>2026-03-22T12:07:55Z</time></trkpt><trkpt lat="44.43155459735837" lon="11.05729461024288"><ele>240.0</ele><time>2026-03-22T12:07:56Z</time></trkpt><trkpt lat="44.43146025242058" lon="11.057229028448814"><ele>240.0</ele><time>2026-03-22T12:07:57Z</time></trkpt><trkpt lat="44.43135938192756" lon="11.05715454941301"><ele>240.0</ele><time>2026-03-22T12:07:58Z</time></trkpt><trkpt lat="44.43125713811684" lon="11.057082233114988"><ele>240.0</ele><time>2026-03-22T12:07:59Z</time></trkpt><trkpt lat="44.4311552893593" lon="11.057018231835102"><ele>240.0</ele><time>2026-03-22T12:08:00Z</time></trkpt><trkpt lat="44.43107007063679" lon="11.056961287725393"><ele>243.0</ele><time>2026-03-22T12:08:01Z</time></trkpt><trkpt lat="44.43099081781897" lon="11.056904945600962"><ele>246.0</ele><time>2026-03-22T12:08:02Z</time></trkpt><trkpt lat="44.43091211822647" lon="11.056847889188985"><ele>249.0</ele><time>2026-03-22T12:08:03Z</time></trkpt><trkpt lat="44.430815026093526" lon="11.05677701064847"><ele>252.0</ele><time>2026-03-22T12:08:04Z</time></trkpt><trkpt lat="44.430695330638926" lon="11.056699804420166"><ele>255.0</ele><time>2026-03-22T12:08:05Z</time></trkpt><trkpt lat="44.430579648328184" lon="11.056620169026372"><ele>254.8</ele><time>2026-03-22T12:08:06Z</time></trkpt><trkpt lat="44.43048377367492" lon="11.056548266632804"><ele>254.6</ele><time>2026-03-22T12:08:07Z</time></trkpt><trkpt lat="44.430404304195434" lon="11.056466145503697"><ele>254.39999999999998</ele><time>2026-03-22T12:08:08Z</time></trkpt><trkpt lat="44.430336911566904" lon="11.056364774353671"><ele>254.2</ele><time>2026-03-22T12:08:09Z</time></trkpt><trkpt lat="44.43027597896634" lon="11.056259011846402"><ele>254.0</ele><time>2026-03-22T12:08:10Z</time></trkpt><trkpt lat="44.43023909148238" lon="11.056172705992125"><ele>255.79999999999998</ele><time>2026-03-22T12:08:11Z</time></trkpt><trkpt lat="44.4302034551193" lon="11.056084424038719"><ele>257.59999999999997</ele><time>2026-03-22T12:08:12Z</time></trkpt><trkpt lat="44.4301527177167" lon="11.055992953496355"><ele>259.4</ele><time>2026-03-22T12:08:13Z</time></trkpt><trkpt lat="44.430082891858355" lon="11.055898393575218"><ele>261.2</ele><time>2026-03-22T12:08:14Z</time></trkpt><trkpt lat="44.42999638307236" lon="11.055812677716945"><ele>263.0</ele><time>2026-03-22T12:08:15Z</time></trkpt><trkpt lat="44.42990984606285" lon="11.05574479011674"><ele>263.0</ele><time>2026-03-22T12:08:16Z</time></trkpt><trkpt lat="44.42982997307807" lon="11.0556946324446"><ele>263.0</ele><time>2026-03-22T12:08:17Z</time></trkpt><trkpt lat="44.42975167584525" lon="11.055627352756776"><ele>263.0</ele><time>2026-03-22T12:08:18Z</time></trkpt><trkpt lat="44.42966130330186" lon="11.055576398033388"><ele>263.0</ele><time>2026-03-22T12:08:19Z</time></trkpt><trkpt lat="44.42958252532347" lon="11.055531431785413"><ele>263.0</ele><time>2026-03-22T12:08:20Z</time></trkpt><trkpt lat="44.42950872511865" lon="11.055486952880164"><ele>263.0</ele><time>2026-03-22T12:08:21Z</time></trkpt><trkpt lat="44.42943853136598" lon="11.055441885295954"><ele>265.4</ele><time>2026-03-22T12:08:22Z</time></trkpt><trkpt lat="44.42935716164565" lon="11.055387756500146"><ele>267.8</ele><time>2026-03-22T12:08:23Z</time></trkpt><trkpt lat="44.42926958860625" lon="11.055327816674346"><ele>270.2</ele><time>2026-03-22T12:08:24Z</time></trkpt><trkpt lat="44.42918706146846" lon="11.055269107334665"><ele>272.6</ele><time>2026-03-22T12:08:25Z</time></trkpt><trkpt lat="44.429105739372154" lon="11.05521091312896"><ele>275.0</ele><time>2026-03-22T12:08:26Z</time></trkpt><trkpt lat="44.42901860716165" lon="11.055166400202387"><ele>275.0</ele><time>2026-03-22T12:08:27Z</time></trkpt><trkpt lat="44.42894041860004" lon="11.055104336734313"><ele>275.0</ele><time>2026-03-22T12:08:28Z</time></trkpt><trkpt lat="44.42886818766003" lon="11.055045944936124"><ele>275.0</ele><time>2026-03-22T12:08:29Z</time></trkpt><trkpt lat="44.4288077158302" lon="11.05498564935893"><ele>275.0</ele><time>2026-03-22T12:08:30Z</time></trkpt><trkpt lat="44.42874877168668" lon="11.05492246430901"><ele>275.0</ele><time>2026-03-22T12:08:31Z</time></trkpt><trkpt lat="44.428696831060634" lon="11.0548438332322"><ele>275.0</ele><time>2026-03-22T12:08:32Z</time></trkpt><trkpt lat="44.42866122387107" lon="11.054750721293326"><ele>279.0</ele><time>2026-03-22T12:08:33Z</time></trkpt><trkpt lat="44.42860858464193" lon="11.054665532207283"><ele>283.0</ele><time>2026-03-22T12:08:34Z</time></trkpt><trkpt lat="44.428586514197185" lon="11.054542614397647"><ele>287.0</ele><time>2026-03-22T12:08:35Z</time></trkpt><trkpt lat="44.42858288440773" lon="11.05440721811842"><ele>291.0</ele><time>2026-03-22T12:08:36Z</time></trkpt><trkpt lat="44.42858791506726" lon="11.05427097584845"><ele>295.0</ele><time>2026-03-22T12:08:37Z</time></trkpt><trkpt lat="44.42859766126177" lon="11.054135425915039"><ele>294.8333333333333</ele><time>2026-03-22T12:08:38Z</time></trkpt><trkpt lat="44.42860288279744" lon="11.054026410252305"><ele>294.66666666666663</ele><time>2026-03-22T12:08:39Z</time></trkpt><trkpt lat="44.42860136443709" lon="11.053910125497522"><ele>294.5</ele><time>2026-03-22T12:08:40Z</time></trkpt><trkpt lat="44.42859354253414" lon="11.053818979329522"><ele>294.3333333333333</ele><time>2026-03-22T12:08:41Z</time></trkpt><trkpt lat="44.42857679300555" lon="11.053720300131024"><ele>294.1666666666667</ele><time>2026-03-22T12:08:42Z</time></trkpt><trkpt lat="44.42855172326946" lon="11.053629534053604"><ele>294.0</ele><time>2026-03-22T12:08:43Z</time></trkpt><trkpt lat="44.42851536277193" lon="11.053526828963543"><ele>294.0</ele><time>2026-03-22T12:08:44Z</time></trkpt><trkpt lat="44.428464598001526" lon="11.05341315616002"><ele>294.0</ele><time>2026-03-22T12:08:45Z</time></trkpt><trkpt lat="44.42842264893469" lon="11.05330892741216"><ele>294.0</ele><time>2026-03-22T12:08:46Z</time></trkpt><trkpt lat="44.42836498365341" lon="11.053256709529606"><ele>294.0</ele><time>2026-03-22T12:08:47Z</time></trkpt><trkpt lat="44.42831773271357" lon="11.053178158749814"><ele>294.0</ele><time>2026-03-22T12:08:48Z</time></trkpt><trkpt lat="44.428244065611004" lon="11.053133882423335"><ele>294.0</ele><time>2026-03-22T12:08:49Z</time></trkpt><trkpt lat="44.42816280108339" lon="11.053109793561017"><ele>295.6666666666667</ele><time>2026-03-22T12:08:50Z</time></trkpt><trkpt lat="44.428061314798896" lon="11.05306802073045"><ele>297.3333333333333</ele><time>2026-03-22T12:08:51Z</time></trkpt><trkpt lat="44.42796660664322" lon="11.053067549707793"><ele>299.0</ele><time>2026-03-22T12:08:52Z</time></trkpt><trkpt lat="44.42787496142129" lon="11.053079513763056"><ele>300.66666666666663</ele><time>2026-03-22T12:08:53Z</time></trkpt><trkpt lat="44.42779919130961" lon="11.053091279601574"><ele>302.3333333333333</ele><time>2026-03-22T12:08:54Z</time></trkpt><trkpt lat="44.42773245419474" lon="11.053104272717517"><ele>304.0</ele><time>2026-03-22T12:08:55Z</time></trkpt><trkpt lat="44.42766002927912" lon="11.053119882367675"><ele>304.0</ele><time>2026-03-22T12:08:56Z</time></trkpt><trkpt lat="44.42757101825507" lon="11.053134024345187"><ele>304.0</ele><time>2026-03-22T12:08:58Z</time></trkpt><trkpt lat="44.42749786124932" lon="11.053139671904294"><ele>304.0</ele><time>2026-03-22T12:09:00Z</time></trkpt><trkpt lat="44.42744775210318" lon="11.052995526329298"><ele>304.0</ele><time>2026-03-22T12:09:02Z</time></trkpt><trkpt lat="44.427399091720176" lon="11.052885922295944"><ele>304.0</ele><time>2026-03-22T12:09:04Z</time></trkpt><trkpt lat="44.42734059339951" lon="11.052781343444098"><ele>304.0</ele><time>2026-03-22T12:09:06Z</time></trkpt><trkpt lat="44.42729155456303" lon="11.052619966816554"><ele>304.0</ele><time>2026-03-22T12:09:08Z</time></trkpt><trkpt lat="44.42721174526779" lon="11.05250707052214"><ele>304.0</ele><time>2026-03-22T12:09:10Z</time></trkpt><trkpt lat="44.42715577612991" lon="11.052418408459758"><ele>304.0</ele><time>2026-03-22T12:09:12Z</time></trkpt><trkpt lat="44.42706051232375" lon="11.052350724510726"><ele>304.0</ele><time>2026-03-22T12:09:14Z</time></trkpt><trkpt lat="44.426959798823916" lon="11.052242087060582"><ele>303.59999999999997</ele><time>2026-03-22T12:09:16Z</time></trkpt><trkpt lat="44.42688946781214" lon="11.052210572962448"><ele>303.2</ele><time>2026-03-22T12:09:17Z</time></trkpt><trkpt lat="44.42679747398171" lon="11.052109396625935"><ele>302.79999999999995</ele><time>2026-03-22T12:09:19Z</time></trkpt><trkpt lat="44.42674060484364" lon="11.052053224169747"><ele>302.4</ele><time>2026-03-22T12:09:20Z</time></trkpt><trkpt lat="44.42663730206703" lon="11.051944326312583"><ele>302.0</ele><time>2026-03-22T12:09:22Z</time></trkpt><trkpt lat="44.4265866568538" lon="11.051884175544656"><ele>302.0</ele><time>2026-03-22T12:09:23Z</time></trkpt><trkpt lat="44.42653026433181" lon="11.051817712656193"><ele>302.0</ele><time>2026-03-22T12:09:24Z</time></trkpt><trkpt lat="44.42647004940332" lon="11.051748092705472"><ele>302.0</ele><time>2026-03-22T12:09:25Z</time></trkpt><trkpt lat="44.426413971129456" lon="11.051692278322594"><ele>302.0</ele><time>2026-03-22T12:09:26Z</time></trkpt><trkpt lat="44.426364169104566" lon="11.051619498134743"><ele>302.0</ele><time>2026-03-22T12:09:27Z</time></trkpt><trkpt lat="44.42626326396343" lon="11.051515805407972"><ele>302.0</ele><time>2026-03-22T12:09:29Z</time></trkpt><trkpt lat="44.42618925112762" lon="11.051472489557266"><ele>304.1666666666667</ele><time>2026-03-22T12:09:30Z</time></trkpt><trkpt lat="44.42614117218418" lon="11.051411914987067"><ele>306.33333333333337</ele><time>2026-03-22T12:09:31Z</time></trkpt><trkpt lat="44.42607188383115" lon="11.05134760647139"><ele>308.5</ele><time>2026-03-22T12:09:33Z</time></trkpt><trkpt lat="44.42601317585632" lon="11.051273624912676"><ele>310.6666666666667</ele><time>2026-03-22T12:09:36Z</time></trkpt><trkpt lat="44.42593748791966" lon="11.051200864126043"><ele>312.8333333333333</ele><time>2026-03-22T12:09:38Z</time></trkpt><trkpt lat="44.42585752546387" lon="11.051113575679134"><ele>315.0</ele><time>2026-03-22T12:09:40Z</time></trkpt><trkpt lat="44.42580704388959" lon="11.051051227996396"><ele>315.0</ele><time>2026-03-22T12:09:41Z</time></trkpt><trkpt lat="44.42574861722688" lon="11.050983868013567"><ele>315.0</ele><time>2026-03-22T12:09:42Z</time></trkpt><trkpt lat="44.42568812874109" lon="11.0509207667545"><ele>315.0</ele><time>2026-03-22T12:09:43Z</time></trkpt><trkpt lat="44.42562591619029" lon="11.050850000312126"><ele>315.0</ele><time>2026-03-22T12:09:44Z</time></trkpt><trkpt lat="44.42557371390553" lon="11.050775178714481"><ele>315.0</ele><time>2026-03-22T12:09:45Z</time></trkpt><trkpt lat="44.42551566115697" lon="11.050701670049802"><ele>315.0</ele><time>2026-03-22T12:09:46Z</time></trkpt><trkpt lat="44.425466371418075" lon="11.050618976408735"><ele>316.14285714285717</ele><time>2026-03-22T12:09:47Z</time></trkpt><trkpt lat="44.42541787357016" lon="11.05054231116433"><ele>317.2857142857143</ele><time>2026-03-22T12:09:48Z</time></trkpt><trkpt lat="44.42536602503513" lon="11.050468079116158"><ele>318.42857142857144</ele><time>2026-03-22T12:09:49Z</time></trkpt><trkpt lat="44.425317736090854" lon="11.050397210495456"><ele>319.57142857142856</ele><time>2026-03-22T12:09:50Z</time></trkpt><trkpt lat="44.42527237949581" lon="11.050329760961006"><ele>320.7142857142857</ele><time>2026-03-22T12:09:51Z</time></trkpt><trkpt lat="44.42521941313219" lon="11.050262285680265"><ele>321.8571428571429</ele><time>2026-03-22T12:09:52Z</time></trkpt><trkpt lat="44.42516531126181" lon="11.050204046853091"><ele>323.0</ele><time>2026-03-22T12:09:53Z</time></trkpt><trkpt lat="44.425106991891624" lon="11.05015216992756"><ele>323.0</ele><time>2026-03-22T12:09:54Z</time></trkpt><trkpt lat="44.42505990810885" lon="11.05008443492099"><ele>323.0</ele><time>2026-03-22T12:09:55Z</time></trkpt><trkpt lat="44.424954194668175" lon="11.050011998213506"><ele>323.0</ele><time>2026-03-22T12:09:57Z</time></trkpt><trkpt lat="44.42483848016173" lon="11.049964666676729"><ele>323.0</ele><time>2026-03-22T12:09:59Z</time></trkpt><trkpt lat="44.42474168163468" lon="11.049950362744898"><ele>323.0</ele><time>2026-03-22T12:10:01Z</time></trkpt><trkpt lat="44.42467000611215" lon="11.049958226176297"><ele>323.0</ele><time>2026-03-22T12:10:03Z</time></trkpt><trkpt lat="44.42459079839479" lon="11.049974031355422"><ele>323.0</ele><time>2026-03-22T12:10:06Z</time></trkpt><trkpt lat="44.42463598631138" lon="11.050118888644374"><ele>323.0</ele><time>2026-03-22T12:10:20Z</time></trkpt><trkpt lat="44.42471844642434" lon="11.050063413371856"><ele>323.0</ele><time>2026-03-22T12:10:22Z</time></trkpt><trkpt lat="44.42480641792866" lon="11.050049556813043"><ele>323.0</ele><time>2026-03-22T12:10:24Z</time></trkpt><trkpt lat="44.42481794158305" lon="11.049961590452195"><ele>323.0</ele><time>2026-03-22T12:13:31Z</time></trkpt><trkpt lat="44.42475251493911" lon="11.049890502147749"><ele>324.6666666666667</ele><time>2026-03-22T12:13:33Z</time></trkpt><trkpt lat="44.4247054018803" lon="11.049821326404608"><ele>326.33333333333337</ele><time>2026-03-22T12:13:35Z</time></trkpt><trkpt lat="44.424655166030405" lon="11.049728637619381"><ele>328.0</ele><time>2026-03-22T12:13:37Z</time></trkpt><trkpt lat="44.424608625238015" lon="11.049633363468498"><ele>329.6666666666667</ele><time>2026-03-22T12:13:39Z</time></trkpt><trkpt lat="44.424575550077435" lon="11.049528473227806"><ele>331.3333333333333</ele><time>2026-03-22T12:13:43Z</time></trkpt><trkpt lat="44.42453948234288" lon="11.04943863308904"><ele>333.0</ele><time>2026-03-22T12:13:47Z</time></trkpt><trkpt lat="44.42449474752626" lon="11.049336409352343"><ele>333.0</ele><time>2026-03-22T12:13:49Z</time></trkpt><trkpt lat="44.42442015093697" lon="11.049209083799985"><ele>333.0</ele><time>2026-03-22T12:13:51Z</time></trkpt><trkpt lat="44.42436790776109" lon="11.04911154090876"><ele>333.0</ele><time>2026-03-22T12:13:53Z</time></trkpt><trkpt lat="44.42432269386318" lon="11.049032389576007"><ele>333.0</ele><time>2026-03-22T12:13:55Z</time></trkpt><trkpt lat="44.42426858438224" lon="11.04891047333683"><ele>333.0</ele><time>2026-03-22T12:13:57Z</time></trkpt><trkpt lat="44.424204580394985" lon="11.048778361999565"><ele>333.79999999999995</ele><time>2026-03-22T12:13:59Z</time></trkpt><trkpt lat="44.42416706547058" lon="11.048697891851388"><ele>334.6</ele><time>2026-03-22T12:14:00Z</time></trkpt><trkpt lat="44.42411220373675" lon="11.048575467641589"><ele>335.4</ele><time>2026-03-22T12:14:02Z</time></trkpt><trkpt lat="44.42406151868847" lon="11.048451509449785"><ele>336.20000000000005</ele><time>2026-03-22T12:14:04Z</time></trkpt><trkpt lat="44.424011688257316" lon="11.048292290384756"><ele>337.0</ele><time>2026-03-22T12:14:06Z</time></trkpt><trkpt lat="44.42400325686549" lon="11.048160980171186"><ele>337.0</ele><time>2026-03-22T12:14:08Z</time></trkpt><trkpt lat="44.42402841404194" lon="11.048060337031394"><ele>337.0</ele><time>2026-03-22T12:14:10Z</time></trkpt><trkpt lat="44.42409393250765" lon="11.048060325817973"><ele>337.0</ele><time>2026-03-22T12:14:14Z</time></trkpt><trkpt lat="44.42416482334538" lon="11.04812329275469"><ele>337.0</ele><time>2026-03-22T12:14:35Z</time></trkpt><trkpt lat="44.42422482462679" lon="11.04818725216753"><ele>337.0</ele><time>2026-03-22T12:14:37Z</time></trkpt><trkpt lat="44.42430254101175" lon="11.0482448277849"><ele>337.0</ele><time>2026-03-22T12:14:39Z</time></trkpt><trkpt lat="44.4243809271186" lon="11.048292677938829"><ele>338.6</ele><time>2026-03-22T12:14:41Z</time></trkpt><trkpt lat="44.424452909582385" lon="11.04834033737547"><ele>340.20000000000005</ele><time>2026-03-22T12:14:43Z</time></trkpt><trkpt lat="44.42457373659412" lon="11.048404765737095"><ele>341.8</ele><time>2026-03-22T12:14:45Z</time></trkpt><trkpt lat="44.42462906949405" lon="11.048447011036767"><ele>343.4</ele><time>2026-03-22T12:14:46Z</time></trkpt><trkpt lat="44.424740325961885" lon="11.048521445108507"><ele>345.0</ele><time>2026-03-22T12:14:48Z</time></trkpt><trkpt lat="44.424797945579655" lon="11.04855748300978"><ele>345.0</ele><time>2026-03-22T12:14:49Z</time></trkpt><trkpt lat="44.42485812088149" lon="11.048584524004914"><ele>345.0</ele><time>2026-03-22T12:14:50Z</time></trkpt><trkpt lat="44.42494982373806" lon="11.048641294157134"><ele>345.0</ele><time>2026-03-22T12:14:52Z</time></trkpt><trkpt lat="44.42504849651925" lon="11.048688805597497"><ele>345.0</ele><time>2026-03-22T12:14:55Z</time></trkpt><trkpt lat="44.42510795930031" lon="11.048740071213832"><ele>345.0</ele><time>2026-03-22T12:14:58Z</time></trkpt><trkpt lat="44.42517211540279" lon="11.048719791175191"><ele>345.0</ele><time>2026-03-22T12:24:00Z</time></trkpt><trkpt lat="44.425107487019545" lon="11.04865937485796"><ele>345.0</ele><time>2026-03-22T12:24:03Z</time></trkpt><trkpt lat="44.42502523352161" lon="11.048643565052881"><ele>345.0</ele><time>2026-03-22T12:24:05Z</time></trkpt><trkpt lat="44.42494686116157" lon="11.048617467797802"><ele>345.0</ele><time>2026-03-22T12:24:07Z</time></trkpt><trkpt lat="44.42487408207409" lon="11.04857362921284"><ele>345.0</ele><time>2026-03-22T12:24:09Z</time></trkpt><trkpt lat="44.42481246065044" lon="11.048543511944976"><ele>345.0</ele><time>2026-03-22T12:24:11Z</time></trkpt><trkpt lat="44.42473003560874" lon="11.0484914979914"><ele>345.0</ele><time>2026-03-22T12:24:13Z</time></trkpt><trkpt lat="44.42465581158762" lon="11.048446908789913"><ele>345.0</ele><time>2026-03-22T12:24:15Z</time></trkpt><trkpt lat="44.424558611670264" lon="11.048389497847484"><ele>345.0</ele><time>2026-03-22T12:24:17Z</time></trkpt><trkpt lat="44.42446045717799" lon="11.04833537716547"><ele>345.0</ele><time>2026-03-22T12:24:19Z</time></trkpt><trkpt lat="44.424360075454565" lon="11.048274669528483"><ele>345.0</ele><time>2026-03-22T12:24:21Z</time></trkpt><trkpt lat="44.42426985008168" lon="11.048218016259481"><ele>345.0</ele><time>2026-03-22T12:24:23Z</time></trkpt><trkpt lat="44.42418858090416" lon="11.048172491878056"><ele>343.6666666666667</ele><time>2026-03-22T12:24:25Z</time></trkpt><trkpt lat="44.42411953901147" lon="11.048103884851841"><ele>342.3333333333333</ele><time>2026-03-22T12:24:28Z</time></trkpt><trkpt lat="44.42405712878267" lon="11.048036636782331"><ele>341.0</ele><time>2026-03-22T12:24:31Z</time></trkpt><trkpt lat="44.42400961500504" lon="11.047938263218974"><ele>339.66666666666663</ele><time>2026-03-22T12:24:34Z</time></trkpt><trkpt lat="44.42396561897147" lon="11.047871792585093"><ele>338.3333333333333</ele><time>2026-03-22T12:24:38Z</time></trkpt><trkpt lat="44.42391329082986" lon="11.047803721581483"><ele>337.0</ele><time>2026-03-22T12:24:42Z</time></trkpt><trkpt lat="44.423870636682736" lon="11.047707660484445"><ele>337.0</ele><time>2026-03-22T12:24:47Z</time></trkpt><trkpt lat="44.423829155804924" lon="11.047616099304198"><ele>337.0</ele><time>2026-03-22T12:24:50Z</time></trkpt><trkpt lat="44.4237999353618" lon="11.047536331827118"><ele>337.0</ele><time>2026-03-22T12:24:54.999Z</time></trkpt><trkpt lat="44.423717566587456" lon="11.04748404849624"><ele>337.0</ele><time>2026-03-22T12:24:58.999Z</time></trkpt><trkpt lat="44.4235697323076" lon="11.04736300798751"><ele>337.0</ele><time>2026-03-22T12:25:00.999Z</time></trkpt><trkpt lat="44.42350937718188" lon="11.047298031461672"><ele>335.5714285714286</ele><time>2026-03-22T12:25:04.999Z</time></trkpt><trkpt lat="44.42344642160938" lon="11.047223332400657"><ele>334.14285714285717</ele><time>2026-03-22T12:25:08.999Z</time></trkpt><trkpt lat="44.423394110863214" lon="11.047167741278182"><ele>332.7142857142857</ele><time>2026-03-22T12:25:11.999Z</time></trkpt><trkpt lat="44.42332090284103" lon="11.047151872023175"><ele>331.28571428571433</ele><time>2026-03-22T12:25:14.999Z</time></trkpt><trkpt lat="44.42336433076582" lon="11.047225011940732"><ele>329.8571428571429</ele><time>2026-03-22T12:25:16Z</time></trkpt><trkpt lat="44.423330458991686" lon="11.047137998216307"><ele>328.42857142857144</ele><time>2026-03-22T12:25:22Z</time></trkpt><trkpt lat="44.42331771614327" lon="11.04703013552947"><ele>327.0</ele><time>2026-03-22T12:25:28Z</time></trkpt><trkpt lat="44.4233087014018" lon="11.046932037204925"><ele>327.0</ele><time>2026-03-22T12:25:33Z</time></trkpt><trkpt lat="44.42327988430022" lon="11.046843884225837"><ele>327.0</ele><time>2026-03-22T12:25:37Z</time></trkpt><trkpt lat="44.42328749371918" lon="11.046728753960013"><ele>327.0</ele><time>2026-03-22T12:25:41Z</time></trkpt><trkpt lat="44.42323411537886" lon="11.046626547438688"><ele>327.0</ele><time>2026-03-22T12:25:44Z</time></trkpt><trkpt lat="44.42317391858036" lon="11.046549983767187"><ele>327.0</ele><time>2026-03-22T12:25:46Z</time></trkpt><trkpt lat="44.42311672506156" lon="11.04647500990927"><ele>327.0</ele><time>2026-03-22T12:25:48Z</time></trkpt><trkpt lat="44.42306240282361" lon="11.046407042491415"><ele>325.1666666666667</ele><time>2026-03-22T12:25:50Z</time></trkpt><trkpt lat="44.42300676615943" lon="11.046322737253583"><ele>323.3333333333333</ele><time>2026-03-22T12:25:52Z</time></trkpt><trkpt lat="44.42295440114105" lon="11.046238983864313"><ele>321.5</ele><time>2026-03-22T12:25:54Z</time></trkpt><trkpt lat="44.42289728523545" lon="11.046163363650265"><ele>319.66666666666663</ele><time>2026-03-22T12:25:56Z</time></trkpt><trkpt lat="44.42284996687449" lon="11.046099518412776"><ele>317.8333333333333</ele><time>2026-03-22T12:25:58Z</time></trkpt><trkpt lat="44.422787568413284" lon="11.046055636217213"><ele>316.0</ele><time>2026-03-22T12:26:00Z</time></trkpt><trkpt lat="44.42270230061825" lon="11.046083942740456"><ele>316.0</ele><time>2026-03-22T12:26:02Z</time></trkpt><trkpt lat="44.422610500430636" lon="11.046102835759944"><ele>316.0</ele><time>2026-03-22T12:26:04Z</time></trkpt><trkpt lat="44.4225337905078" lon="11.0461268484066"><ele>316.0</ele><time>2026-03-22T12:26:06Z</time></trkpt><trkpt lat="44.422453576635576" lon="11.046118964713482"><ele>316.0</ele><time>2026-03-22T12:26:08Z</time></trkpt><trkpt lat="44.4223589069544" lon="11.046105003212173"><ele>316.0</ele><time>2026-03-22T12:26:10Z</time></trkpt><trkpt lat="44.42226880039202" lon="11.046102018472052"><ele>316.0</ele><time>2026-03-22T12:26:12Z</time></trkpt><trkpt lat="44.42217042224516" lon="11.04611100546188"><ele>316.0</ele><time>2026-03-22T12:26:14Z</time></trkpt><trkpt lat="44.42209753912501" lon="11.046090353240766"><ele>316.0</ele><time>2026-03-22T12:26:16Z</time></trkpt><trkpt lat="44.42200637400401" lon="11.046029278898574"><ele>316.0</ele><time>2026-03-22T12:26:18Z</time></trkpt><trkpt lat="44.421931658711735" lon="11.045988666692441"><ele>316.0</ele><time>2026-03-22T12:26:19Z</time></trkpt><trkpt lat="44.421845255878885" lon="11.045887736774826"><ele>316.0</ele><time>2026-03-22T12:26:20Z</time></trkpt><trkpt lat="44.42173491569037" lon="11.045831915864557"><ele>316.0</ele><time>2026-03-22T12:26:21Z</time></trkpt><trkpt lat="44.42163264282341" lon="11.045805231749917"><ele>316.0</ele><time>2026-03-22T12:26:22Z</time></trkpt><trkpt lat="44.42154534850765" lon="11.045783231488793"><ele>316.0</ele><time>2026-03-22T12:26:23Z</time></trkpt><trkpt lat="44.42147853226435" lon="11.045761337018002"><ele>316.0</ele><time>2026-03-22T12:26:24Z</time></trkpt><trkpt lat="44.421420205548316" lon="11.045724726503401"><ele>316.0</ele><time>2026-03-22T12:26:25Z</time></trkpt><trkpt lat="44.42134332732805" lon="11.045650355264716"><ele>316.0</ele><time>2026-03-22T12:26:26Z</time></trkpt><trkpt lat="44.421266137703796" lon="11.04555191614587"><ele>315.6</ele><time>2026-03-22T12:26:27Z</time></trkpt><trkpt lat="44.42120560411246" lon="11.045474703236994"><ele>315.20000000000005</ele><time>2026-03-22T12:26:28Z</time></trkpt><trkpt lat="44.421129219378585" lon="11.045371536715056"><ele>314.79999999999995</ele><time>2026-03-22T12:26:30Z</time></trkpt><trkpt lat="44.42103884623048" lon="11.045243207059078"><ele>314.4</ele><time>2026-03-22T12:26:32Z</time></trkpt><trkpt lat="44.42098929415688" lon="11.045118071659816"><ele>314.0</ele><time>2026-03-22T12:26:33Z</time></trkpt><trkpt lat="44.420949396214425" lon="11.044958807422912"><ele>314.0</ele><time>2026-03-22T12:26:34Z</time></trkpt><trkpt lat="44.42090866761899" lon="11.0447875968924"><ele>314.0</ele><time>2026-03-22T12:26:35Z</time></trkpt><trkpt lat="44.42086818422413" lon="11.044625987613708"><ele>314.0</ele><time>2026-03-22T12:26:36Z</time></trkpt><trkpt lat="44.420827737081574" lon="11.044486940119246"><ele>314.0</ele><time>2026-03-22T12:26:37Z</time></trkpt><trkpt lat="44.420782239179886" lon="11.044347169535616"><ele>314.0</ele><time>2026-03-22T12:26:38Z</time></trkpt><trkpt lat="44.42072539240469" lon="11.044202035579833"><ele>314.0</ele><time>2026-03-22T12:26:39Z</time></trkpt><trkpt lat="44.42064843333883" lon="11.044044437884791"><ele>314.0</ele><time>2026-03-22T12:26:40Z</time></trkpt><trkpt lat="44.42057587023368" lon="11.04390951380387"><ele>314.0</ele><time>2026-03-22T12:26:41Z</time></trkpt><trkpt lat="44.42049173102711" lon="11.043840244314545"><ele>315.6666666666667</ele><time>2026-03-22T12:26:42Z</time></trkpt><trkpt lat="44.42042728852973" lon="11.043753888970338"><ele>317.33333333333337</ele><time>2026-03-22T12:26:43Z</time></trkpt><trkpt lat="44.42037935090445" lon="11.0436854703239"><ele>319.0</ele><time>2026-03-22T12:26:44Z</time></trkpt><trkpt lat="44.42032218071963" lon="11.04361440305198"><ele>320.6666666666667</ele><time>2026-03-22T12:26:45Z</time></trkpt><trkpt lat="44.42026253116465" lon="11.043537936269846"><ele>322.3333333333333</ele><time>2026-03-22T12:26:46Z</time></trkpt><trkpt lat="44.42020914162318" lon="11.043458369975708"><ele>324.0</ele><time>2026-03-22T12:26:47Z</time></trkpt><trkpt lat="44.42014986554614" lon="11.04338408252706"><ele>324.0</ele><time>2026-03-22T12:26:48Z</time></trkpt><trkpt lat="44.420095846361555" lon="11.043301542928525"><ele>324.0</ele><time>2026-03-22T12:26:49Z</time></trkpt><trkpt lat="44.420009903783225" lon="11.043241578402945"><ele>324.0</ele><time>2026-03-22T12:26:50Z</time></trkpt><trkpt lat="44.419947592868226" lon="11.04317212666265"><ele>324.0</ele><time>2026-03-22T12:26:51Z</time></trkpt><trkpt lat="44.4198882975608" lon="11.043120401538506"><ele>324.0</ele><time>2026-03-22T12:26:52Z</time></trkpt><trkpt lat="44.41983120378964" lon="11.043070596928297"><ele>324.0</ele><time>2026-03-22T12:26:53Z</time></trkpt><trkpt lat="44.41973913986036" lon="11.042988438512843"><ele>321.2</ele><time>2026-03-22T12:26:55Z</time></trkpt><trkpt lat="44.419651553771274" lon="11.042924137543084"><ele>318.4</ele><time>2026-03-22T12:26:57Z</time></trkpt><trkpt lat="44.41957546262656" lon="11.04281715050582"><ele>315.6</ele><time>2026-03-22T12:26:59Z</time></trkpt><trkpt lat="44.419485852033596" lon="11.04271060688439"><ele>312.8</ele><time>2026-03-22T12:27:01Z</time></trkpt><trkpt lat="44.41944516040325" lon="11.042640786948548"><ele>310.0</ele><time>2026-03-22T12:27:02Z</time></trkpt><trkpt lat="44.4193911470811" lon="11.04255650796938"><ele>309.6</ele><time>2026-03-22T12:27:03Z</time></trkpt><trkpt lat="44.419329214055196" lon="11.042460609473066"><ele>309.2</ele><time>2026-03-22T12:27:04Z</time></trkpt><trkpt lat="44.41927515309725" lon="11.042377430042544"><ele>308.8</ele><time>2026-03-22T12:27:05Z</time></trkpt><trkpt lat="44.41921657072041" lon="11.042285203167314"><ele>308.4</ele><time>2026-03-22T12:27:06Z</time></trkpt><trkpt lat="44.41914784187103" lon="11.042177081162718"><ele>308.0</ele><time>2026-03-22T12:27:07Z</time></trkpt><trkpt lat="44.41908694068192" lon="11.042081124615391"><ele>308.0</ele><time>2026-03-22T12:27:08Z</time></trkpt><trkpt lat="44.41903715268222" lon="11.041997520823843"><ele>308.0</ele><time>2026-03-22T12:27:09Z</time></trkpt><trkpt lat="44.418987048565434" lon="11.04191614017335"><ele>308.0</ele><time>2026-03-22T12:27:10Z</time></trkpt><trkpt lat="44.418926033567764" lon="11.041817844536057"><ele>308.0</ele><time>2026-03-22T12:27:11Z</time></trkpt><trkpt lat="44.41884559029332" lon="11.041689115508294"><ele>308.0</ele><time>2026-03-22T12:27:12Z</time></trkpt><trkpt lat="44.418772981031616" lon="11.041570327833545"><ele>308.8</ele><time>2026-03-22T12:27:13Z</time></trkpt><trkpt lat="44.41871172692433" lon="11.041474075507404"><ele>309.6</ele><time>2026-03-22T12:27:14Z</time></trkpt><trkpt lat="44.41864866013179" lon="11.041356897383475"><ele>310.4</ele><time>2026-03-22T12:27:15Z</time></trkpt><trkpt lat="44.418581236835806" lon="11.041239719912424"><ele>311.2</ele><time>2026-03-22T12:27:16Z</time></trkpt><trkpt lat="44.41852426746307" lon="11.041143869608561"><ele>312.0</ele><time>2026-03-22T12:27:17Z</time></trkpt><trkpt lat="44.41847813320555" lon="11.04106648200121"><ele>312.0</ele><time>2026-03-22T12:27:18Z</time></trkpt><trkpt lat="44.418436439037954" lon="11.041000190248814"><ele>312.0</ele><time>2026-03-22T12:27:19Z</time></trkpt><trkpt lat="44.418368138842304" lon="11.040874038868663"><ele>312.0</ele><time>2026-03-22T12:27:21Z</time></trkpt><trkpt lat="44.41833200412297" lon="11.040765122137694"><ele>312.0</ele><time>2026-03-22T12:27:22Z</time></trkpt><trkpt lat="44.41829306251088" lon="11.040651524934486"><ele>312.0</ele><time>2026-03-22T12:27:23Z</time></trkpt><trkpt lat="44.41824410115365" lon="11.040517347649715"><ele>312.0</ele><time>2026-03-22T12:27:24Z</time></trkpt><trkpt lat="44.41819585904076" lon="11.040354296243432"><ele>312.0</ele><time>2026-03-22T12:27:25Z</time></trkpt><trkpt lat="44.418135464510115" lon="11.040164368838218"><ele>312.0</ele><time>2026-03-22T12:27:26Z</time></trkpt><trkpt lat="44.41806354043364" lon="11.039951781698212"><ele>312.0</ele><time>2026-03-22T12:27:27Z</time></trkpt><trkpt lat="44.41799094563033" lon="11.039748502116545"><ele>311.8</ele><time>2026-03-22T12:27:28Z</time></trkpt><trkpt lat="44.41793427062799" lon="11.039586597710704"><ele>311.6</ele><time>2026-03-22T12:27:29Z</time></trkpt><trkpt lat="44.41785954119893" lon="11.039457375551606"><ele>311.40000000000003</ele><time>2026-03-22T12:27:30Z</time></trkpt><trkpt lat="44.417816313880174" lon="11.039334969091362"><ele>311.2</ele><time>2026-03-22T12:27:31Z</time></trkpt><trkpt lat="44.41778393583424" lon="11.039210403146825"><ele>311.0</ele><time>2026-03-22T12:27:32Z</time></trkpt><trkpt lat="44.41774964836247" lon="11.039109290636183"><ele>312.6666666666667</ele><time>2026-03-22T12:27:33Z</time></trkpt><trkpt lat="44.417712075064735" lon="11.039013130796581"><ele>314.33333333333337</ele><time>2026-03-22T12:27:34Z</time></trkpt><trkpt lat="44.41768107933644" lon="11.038915841903224"><ele>316.0</ele><time>2026-03-22T12:27:35Z</time></trkpt><trkpt lat="44.417643896513916" lon="11.038805213302886"><ele>317.6666666666667</ele><time>2026-03-22T12:27:36Z</time></trkpt><trkpt lat="44.41760446731683" lon="11.03868674916199"><ele>319.3333333333333</ele><time>2026-03-22T12:27:37Z</time></trkpt><trkpt lat="44.41755720573934" lon="11.038545313781984"><ele>321.0</ele><time>2026-03-22T12:27:38Z</time></trkpt><trkpt lat="44.4175085155691" lon="11.038402561422473"><ele>322.0</ele><time>2026-03-22T12:27:39Z</time></trkpt><trkpt lat="44.41745766416307" lon="11.038251615708997"><ele>323.0</ele><time>2026-03-22T12:27:40Z</time></trkpt><trkpt lat="44.41741642026957" lon="11.038088746248553"><ele>324.0</ele><time>2026-03-22T12:27:41Z</time></trkpt><trkpt lat="44.41738075614768" lon="11.037949999107893"><ele>325.0</ele><time>2026-03-22T12:27:42Z</time></trkpt><trkpt lat="44.4173448822378" lon="11.037813503769994"><ele>325.0</ele><time>2026-03-22T12:27:43Z</time></trkpt><trkpt lat="44.41730410799433" lon="11.037673148926373"><ele>325.0</ele><time>2026-03-22T12:27:44Z</time></trkpt><trkpt lat="44.4172609288922" lon="11.03754752111876"><ele>325.0</ele><time>2026-03-22T12:27:45Z</time></trkpt><trkpt lat="44.41721976624092" lon="11.037445935959315"><ele>325.0</ele><time>2026-03-22T12:27:46Z</time></trkpt><trkpt lat="44.417169562537055" lon="11.037331938995617"><ele>325.0</ele><time>2026-03-22T12:27:47Z</time></trkpt><trkpt lat="44.41714411453383" lon="11.037244064236036"><ele>324.8333333333333</ele><time>2026-03-22T12:27:48Z</time></trkpt><trkpt lat="44.41711839183512" lon="11.037158146730272"><ele>324.66666666666663</ele><time>2026-03-22T12:27:49Z</time></trkpt><trkpt lat="44.41708462875226" lon="11.037063281501416"><ele>324.5</ele><time>2026-03-22T12:27:50Z</time></trkpt><trkpt lat="44.41705648794855" lon="11.036978532875155"><ele>324.3333333333333</ele><time>2026-03-22T12:27:51Z</time></trkpt><trkpt lat="44.41700291653142" lon="11.03681998392641"><ele>324.1666666666667</ele><time>2026-03-22T12:27:53Z</time></trkpt><trkpt lat="44.41696136409788" lon="11.036704073035603"><ele>324.0</ele><time>2026-03-22T12:27:55Z</time></trkpt><trkpt lat="44.41694080784603" lon="11.036600923923453"><ele>324.0</ele><time>2026-03-22T12:27:57Z</time></trkpt><trkpt lat="44.41687219870169" lon="11.036437409799998"><ele>324.0</ele><time>2026-03-22T12:27:59Z</time></trkpt><trkpt lat="44.416813046200836" lon="11.036340938039388"><ele>324.0</ele><time>2026-03-22T12:28:00Z</time></trkpt><trkpt lat="44.41674231527405" lon="11.036248680429006"><ele>324.0</ele><time>2026-03-22T12:28:01Z</time></trkpt><trkpt lat="44.41666510311271" lon="11.036163472331179"><ele>324.0</ele><time>2026-03-22T12:28:02Z</time></trkpt><trkpt lat="44.41658956714786" lon="11.036088351232314"><ele>324.0</ele><time>2026-03-22T12:28:03Z</time></trkpt><trkpt lat="44.41652083406799" lon="11.036025488432257"><ele>324.0</ele><time>2026-03-22T12:28:04Z</time></trkpt><trkpt lat="44.41645354956241" lon="11.035963950711604"><ele>324.0</ele><time>2026-03-22T12:28:05Z</time></trkpt><trkpt lat="44.416388917030126" lon="11.035906217157965"><ele>324.0</ele><time>2026-03-22T12:28:06Z</time></trkpt><trkpt lat="44.416327733540385" lon="11.035853326478737"><ele>324.0</ele><time>2026-03-22T12:28:07Z</time></trkpt><trkpt lat="44.4162712290187" lon="11.035804539679017"><ele>324.0</ele><time>2026-03-22T12:28:08Z</time></trkpt><trkpt lat="44.41620718259206" lon="11.035751498368288"><ele>323.5</ele><time>2026-03-22T12:28:09Z</time></trkpt><trkpt lat="44.4161485531437" lon="11.035705664678492"><ele>323.0</ele><time>2026-03-22T12:28:10Z</time></trkpt><trkpt lat="44.416054894145354" lon="11.035634253402957"><ele>322.5</ele><time>2026-03-22T12:28:12Z</time></trkpt><trkpt lat="44.41598172923921" lon="11.035576842173663"><ele>322.0</ele><time>2026-03-22T12:28:19Z</time></trkpt><trkpt lat="44.41591040540681" lon="11.03551079820326"><ele>321.5</ele><time>2026-03-22T12:28:22Z</time></trkpt><trkpt lat="44.4158584469519" lon="11.035458510796625"><ele>321.0</ele><time>2026-03-22T12:28:25Z</time></trkpt><trkpt lat="44.41578770634976" lon="11.035399690475794"><ele>320.99999999999994</ele><time>2026-03-22T12:28:28Z</time></trkpt><trkpt lat="44.41573114127189" lon="11.035360975527597"><ele>321.0</ele><time>2026-03-22T12:28:30Z</time></trkpt><trkpt lat="44.41572935892325" lon="11.035267514737068"><ele>321.0</ele><time>2026-03-22T12:28:33Z</time></trkpt><trkpt lat="44.41566977408892" lon="11.035301045555492"><ele>321.0</ele><time>2026-03-22T12:28:36Z</time></trkpt><trkpt lat="44.41569566253755" lon="11.035411456223091"><ele>321.0</ele><time>2026-03-22T12:28:38Z</time></trkpt><trkpt lat="44.415730984173784" lon="11.035500177966535"><ele>320.99999999999994</ele><time>2026-03-22T12:28:39Z</time></trkpt><trkpt lat="44.41576228179563" lon="11.035590795670588"><ele>321.0</ele><time>2026-03-22T12:28:40Z</time></trkpt><trkpt lat="44.41579932495223" lon="11.035701732306757"><ele>321.25</ele><time>2026-03-22T12:28:41Z</time></trkpt><trkpt lat="44.41584197085912" lon="11.035825503267233"><ele>321.5</ele><time>2026-03-22T12:28:42Z</time></trkpt><trkpt lat="44.415881687738626" lon="11.035946818595992"><ele>321.75</ele><time>2026-03-22T12:28:43Z</time></trkpt><trkpt lat="44.41593881741196" lon="11.03608936580213"><ele>322.0</ele><time>2026-03-22T12:28:44Z</time></trkpt><trkpt lat="44.41600663048485" lon="11.036293066569511"><ele>322.0</ele><time>2026-03-22T12:28:45Z</time></trkpt><trkpt lat="44.416126032249814" lon="11.036512083469423"><ele>322.0</ele><time>2026-03-22T12:28:46Z</time></trkpt><trkpt lat="44.41622404814234" lon="11.036647844913176"><ele>322.0</ele><time>2026-03-22T12:28:47Z</time></trkpt><trkpt lat="44.416295415648705" lon="11.036738187935448"><ele>322.0</ele><time>2026-03-22T12:28:48Z</time></trkpt><trkpt lat="44.41634884278217" lon="11.036811175101022"><ele>322.5</ele><time>2026-03-22T12:28:49Z</time></trkpt><trkpt lat="44.416398868968315" lon="11.036884524654377"><ele>323.0</ele><time>2026-03-22T12:28:50Z</time></trkpt><trkpt lat="44.416438696485066" lon="11.036978717469772"><ele>323.5</ele><time>2026-03-22T12:28:52Z</time></trkpt><trkpt lat="44.416468002688916" lon="11.037058337388189"><ele>324.0</ele><time>2026-03-22T12:28:53Z</time></trkpt><trkpt lat="44.41725124002761" lon="11.037455507352169"><ele>324.2</ele><time>2026-03-22T12:29:00Z</time></trkpt><trkpt lat="44.417289346969135" lon="11.037568076667576"><ele>324.4</ele><time>2026-03-22T12:29:01Z</time></trkpt><trkpt lat="44.41733069754393" lon="11.037666582423405"><ele>324.6</ele><time>2026-03-22T12:29:02Z</time></trkpt><trkpt lat="44.417308110488015" lon="11.03779223763238"><ele>324.8</ele><time>2026-03-22T12:29:03Z</time></trkpt><trkpt lat="44.41734041324692" lon="11.037926925105765"><ele>325.0</ele><time>2026-03-22T12:29:04Z</time></trkpt><trkpt lat="44.41738388106262" lon="11.03810012941204"><ele>325.0</ele><time>2026-03-22T12:29:05Z</time></trkpt><trkpt lat="44.41742376802856" lon="11.038234323949897"><ele>325.0</ele><time>2026-03-22T12:29:06Z</time></trkpt><trkpt lat="44.41747120669616" lon="11.038378746351437"><ele>325.0</ele><time>2026-03-22T12:29:07Z</time></trkpt><trkpt lat="44.41751984875533" lon="11.038523427705814"><ele>325.0</ele><time>2026-03-22T12:29:08Z</time></trkpt><trkpt lat="44.41756547701072" lon="11.03865732775812"><ele>325.0</ele><time>2026-03-22T12:29:09Z</time></trkpt><trkpt lat="44.41760922576012" lon="11.038785346568075"><ele>324.2</ele><time>2026-03-22T12:29:10Z</time></trkpt><trkpt lat="44.417652032781646" lon="11.038910610131747"><ele>323.4</ele><time>2026-03-22T12:29:11Z</time></trkpt><trkpt lat="44.41769422588295" lon="11.039034076924622"><ele>322.6</ele><time>2026-03-22T12:29:12Z</time></trkpt><trkpt lat="44.41773692151438" lon="11.03915901440536"><ele>321.8</ele><time>2026-03-22T12:29:13Z</time></trkpt><trkpt lat="44.417781878670446" lon="11.039290569958514"><ele>321.0</ele><time>2026-03-22T12:29:14Z</time></trkpt><trkpt lat="44.41782309906227" lon="11.039410870211338"><ele>319.2</ele><time>2026-03-22T12:29:15Z</time></trkpt><trkpt lat="44.41786228813551" lon="11.03952396059347"><ele>317.40000000000003</ele><time>2026-03-22T12:29:16Z</time></trkpt><trkpt lat="44.41791192505695" lon="11.039664504725431"><ele>315.6</ele><time>2026-03-22T12:29:17Z</time></trkpt><trkpt lat="44.41798032717935" lon="11.039840942267096"><ele>313.8</ele><time>2026-03-22T12:29:19Z</time></trkpt><trkpt lat="44.41802066839826" lon="11.039955076168262"><ele>312.0</ele><time>2026-03-22T12:29:20Z</time></trkpt><trkpt lat="44.4180637735398" lon="11.040086867742227"><ele>312.0</ele><time>2026-03-22T12:29:21Z</time></trkpt><trkpt lat="44.41810968227321" lon="11.04022423473672"><ele>312.0</ele><time>2026-03-22T12:29:22Z</time></trkpt><trkpt lat="44.41815874628048" lon="11.040375746362155"><ele>312.0</ele><time>2026-03-22T12:29:23Z</time></trkpt><trkpt lat="44.41820288464939" lon="11.040509475111842"><ele>312.0</ele><time>2026-03-22T12:29:24Z</time></trkpt><trkpt lat="44.41823614230095" lon="11.040613856991847"><ele>312.0</ele><time>2026-03-22T12:29:25Z</time></trkpt><trkpt lat="44.41827101145969" lon="11.04071746280486"><ele>312.0</ele><time>2026-03-22T12:29:26Z</time></trkpt><trkpt lat="44.41834258648326" lon="11.040883661129456"><ele>312.0</ele><time>2026-03-22T12:29:29Z</time></trkpt><trkpt lat="44.41839793623698" lon="11.040982224219233"><ele>312.0</ele><time>2026-03-22T12:29:40Z</time></trkpt><trkpt lat="44.41847929918025" lon="11.041120906450107"><ele>312.0</ele><time>2026-03-22T12:29:42Z</time></trkpt><trkpt lat="44.41853818803923" lon="11.041221281809419"><ele>312.0</ele><time>2026-03-22T12:29:43Z</time></trkpt><trkpt lat="44.41860255631163" lon="11.04133135868626"><ele>312.0</ele><time>2026-03-22T12:29:44Z</time></trkpt><trkpt lat="44.41867391815085" lon="11.04145377316853"><ele>312.0</ele><time>2026-03-22T12:29:45Z</time></trkpt><trkpt lat="44.418746644323654" lon="11.041576766928388"><ele>312.0</ele><time>2026-03-22T12:29:46Z</time></trkpt><trkpt lat="44.41881952207712" lon="11.04169449989544"><ele>312.0</ele><time>2026-03-22T12:29:47Z</time></trkpt><trkpt lat="44.41889817847099" lon="11.041808633811193"><ele>311.2</ele><time>2026-03-22T12:29:48Z</time></trkpt><trkpt lat="44.41896372718243" lon="11.04192621312896"><ele>310.4</ele><time>2026-03-22T12:29:49Z</time></trkpt><trkpt lat="44.41902489606876" lon="11.042026841209696"><ele>309.6</ele><time>2026-03-22T12:29:50Z</time></trkpt><trkpt lat="44.41908730357038" lon="11.042129454814278"><ele>308.8</ele><time>2026-03-22T12:29:51Z</time></trkpt><trkpt lat="44.41917012917668" lon="11.042228117053414"><ele>308.0</ele><time>2026-03-22T12:29:52Z</time></trkpt><trkpt lat="44.41923284818662" lon="11.042361553873688"><ele>308.5</ele><time>2026-03-22T12:29:53Z</time></trkpt><trkpt lat="44.41930641181308" lon="11.042477444018756"><ele>309.0</ele><time>2026-03-22T12:29:54Z</time></trkpt><trkpt lat="44.41937804676634" lon="11.042588842835944"><ele>309.5</ele><time>2026-03-22T12:29:55Z</time></trkpt><trkpt lat="44.41945282885732" lon="11.042705135542096"><ele>310.0</ele><time>2026-03-22T12:29:56Z</time></trkpt><trkpt lat="44.41954613325581" lon="11.042815697605056"><ele>310.0</ele><time>2026-03-22T12:29:57Z</time></trkpt><trkpt lat="44.41962018749449" lon="11.042930613184835"><ele>310.0</ele><time>2026-03-22T12:29:58Z</time></trkpt><trkpt lat="44.41969852044204" lon="11.043000241832118"><ele>310.0</ele><time>2026-03-22T12:29:59Z</time></trkpt><trkpt lat="44.4197760729159" lon="11.043084758541958"><ele>310.0</ele><time>2026-03-22T12:30:00Z</time></trkpt><trkpt lat="44.41987391336948" lon="11.043150039578645"><ele>310.0</ele><time>2026-03-22T12:30:01Z</time></trkpt><trkpt lat="44.419973406459086" lon="11.043233339315316"><ele>312.8</ele><time>2026-03-22T12:30:02Z</time></trkpt><trkpt lat="44.42006172558495" lon="11.043346766520415"><ele>315.6</ele><time>2026-03-22T12:30:03Z</time></trkpt><trkpt lat="44.42014175906133" lon="11.04341106431549"><ele>318.4</ele><time>2026-03-22T12:30:04Z</time></trkpt><trkpt lat="44.420199175580926" lon="11.043486111580433"><ele>321.2</ele><time>2026-03-22T12:30:05Z</time></trkpt><trkpt lat="44.42026073574507" lon="11.043574264076604"><ele>324.0</ele><time>2026-03-22T12:30:06Z</time></trkpt><trkpt lat="44.42033848366783" lon="11.043657525178343"><ele>324.0</ele><time>2026-03-22T12:30:07Z</time></trkpt><trkpt lat="44.42040565317094" lon="11.043740867799695"><ele>324.0</ele><time>2026-03-22T12:30:08Z</time></trkpt><trkpt lat="44.420462710286074" lon="11.043813619517659"><ele>324.0</ele><time>2026-03-22T12:30:09Z</time></trkpt><trkpt lat="44.42051441759078" lon="11.04387817819047"><ele>324.0</ele><time>2026-03-22T12:30:10Z</time></trkpt><trkpt lat="44.4205599194636" lon="11.043975593697235"><ele>324.0</ele><time>2026-03-22T12:30:11Z</time></trkpt><trkpt lat="44.42062418461358" lon="11.044076302507861"><ele>324.0</ele><time>2026-03-22T12:30:12Z</time></trkpt><trkpt lat="44.42066891539712" lon="11.044167749456845"><ele>322.0</ele><time>2026-03-22T12:30:13Z</time></trkpt><trkpt lat="44.42071793245856" lon="11.044271726255879"><ele>320.0</ele><time>2026-03-22T12:30:14Z</time></trkpt><trkpt lat="44.42076326436811" lon="11.044399521991297"><ele>318.0</ele><time>2026-03-22T12:30:15Z</time></trkpt><trkpt lat="44.42080765633061" lon="11.04453920148738"><ele>316.0</ele><time>2026-03-22T12:30:16Z</time></trkpt><trkpt lat="44.420846611064555" lon="11.044677770601554"><ele>314.0</ele><time>2026-03-22T12:30:17Z</time></trkpt><trkpt lat="44.42087512779515" lon="11.044794360053928"><ele>314.0</ele><time>2026-03-22T12:30:18Z</time></trkpt><trkpt lat="44.42091008158325" lon="11.044936374854338"><ele>314.0</ele><time>2026-03-22T12:30:19Z</time></trkpt><trkpt lat="44.42094834801636" lon="11.045102293789082"><ele>314.0</ele><time>2026-03-22T12:30:20Z</time></trkpt><trkpt lat="44.42099569452479" lon="11.04524062305133"><ele>314.0</ele><time>2026-03-22T12:30:21Z</time></trkpt><trkpt lat="44.42105309448046" lon="11.045339976954319"><ele>314.0</ele><time>2026-03-22T12:30:22Z</time></trkpt><trkpt lat="44.42111888303523" lon="11.045397147374185"><ele>314.0</ele><time>2026-03-22T12:30:23Z</time></trkpt><trkpt lat="44.42116948400512" lon="11.045477966949194"><ele>314.0</ele><time>2026-03-22T12:30:24Z</time></trkpt><trkpt lat="44.42123058354181" lon="11.045546466119808"><ele>314.0</ele><time>2026-03-22T12:30:25Z</time></trkpt><trkpt lat="44.42129761354524" lon="11.045620596186948"><ele>314.0</ele><time>2026-03-22T12:30:26Z</time></trkpt><trkpt lat="44.42135675417655" lon="11.045691171765206"><ele>314.0</ele><time>2026-03-22T12:30:27Z</time></trkpt><trkpt lat="44.421409651659594" lon="11.04576166483659"><ele>314.0</ele><time>2026-03-22T12:30:28Z</time></trkpt><trkpt lat="44.421462143140815" lon="11.045820827286557"><ele>314.4</ele><time>2026-03-22T12:30:29Z</time></trkpt><trkpt lat="44.421526755898626" lon="11.045841769910997"><ele>314.79999999999995</ele><time>2026-03-22T12:30:30Z</time></trkpt><trkpt lat="44.421656312037264" lon="11.045854409879448"><ele>315.20000000000005</ele><time>2026-03-22T12:30:32Z</time></trkpt><trkpt lat="44.42177207891204" lon="11.045899641939354"><ele>315.6</ele><time>2026-03-22T12:30:34Z</time></trkpt><trkpt lat="44.42187901313946" lon="11.045979574910202"><ele>316.0</ele><time>2026-03-22T12:30:36Z</time></trkpt><trkpt lat="44.421987733426974" lon="11.046034843957736"><ele>316.0</ele><time>2026-03-22T12:30:38Z</time></trkpt><trkpt lat="44.42207838585219" lon="11.046058389004084"><ele>316.0</ele><time>2026-03-22T12:30:40Z</time></trkpt><trkpt lat="44.42214356632448" lon="11.046068497306226"><ele>316.0</ele><time>2026-03-22T12:30:43Z</time></trkpt><trkpt lat="44.42224253429161" lon="11.045925321573304"><ele>316.0</ele><time>2026-03-22T12:30:46Z</time></trkpt><trkpt lat="44.4223374386999" lon="11.045845957692503"><ele>316.0</ele><time>2026-03-22T12:30:48Z</time></trkpt><trkpt lat="44.42242431306469" lon="11.045759654979095"><ele>311.6</ele><time>2026-03-22T12:30:50Z</time></trkpt><trkpt lat="44.422515118382016" lon="11.045679769300762"><ele>307.20000000000005</ele><time>2026-03-22T12:30:52Z</time></trkpt><trkpt lat="44.422597386746084" lon="11.045607282939043"><ele>302.79999999999995</ele><time>2026-03-22T12:30:54Z</time></trkpt><trkpt lat="44.422686637947976" lon="11.045576919934446"><ele>298.4</ele><time>2026-03-22T12:30:56Z</time></trkpt><trkpt lat="44.422791918061115" lon="11.045557158991503"><ele>294.0</ele><time>2026-03-22T12:30:58Z</time></trkpt><trkpt lat="44.422857758684465" lon="11.045528331451024"><ele>294.0</ele><time>2026-03-22T12:30:59Z</time></trkpt><trkpt lat="44.42295987106145" lon="11.045446961880076"><ele>294.0</ele><time>2026-03-22T12:31:01Z</time></trkpt><trkpt lat="44.42305043450442" lon="11.045396570246089"><ele>294.0</ele><time>2026-03-22T12:31:03Z</time></trkpt><trkpt lat="44.423145710027946" lon="11.045404430076054"><ele>294.0</ele><time>2026-03-22T12:31:05Z</time></trkpt><trkpt lat="44.42323123400656" lon="11.045453942972998"><ele>294.0</ele><time>2026-03-22T12:31:07Z</time></trkpt><trkpt lat="44.423293398892746" lon="11.045509454120692"><ele>293.6666666666667</ele><time>2026-03-22T12:31:09Z</time></trkpt><trkpt lat="44.42335887759076" lon="11.045576295670035"><ele>293.3333333333333</ele><time>2026-03-22T12:31:11Z</time></trkpt><trkpt lat="44.42343648232247" lon="11.045648361351978"><ele>293.0</ele><time>2026-03-22T12:31:13Z</time></trkpt><trkpt lat="44.423493806622375" lon="11.04568535561453"><ele>292.66666666666663</ele><time>2026-03-22T12:31:15Z</time></trkpt><trkpt lat="44.42342762585266" lon="11.045617423424767"><ele>292.3333333333333</ele><time>2026-03-22T12:31:45Z</time></trkpt><trkpt lat="44.42335855925374" lon="11.045560982001893"><ele>292.0</ele><time>2026-03-22T12:31:53Z</time></trkpt><trkpt lat="44.42325311558586" lon="11.04546426360144"><ele>292.0</ele><time>2026-03-22T12:31:55Z</time></trkpt><trkpt lat="44.42319873403748" lon="11.045419711816814"><ele>292.0</ele><time>2026-03-22T12:31:56Z</time></trkpt><trkpt lat="44.4231024954979" lon="11.04537502964595"><ele>292.0</ele><time>2026-03-22T12:31:58Z</time></trkpt><trkpt lat="44.42300501509798" lon="11.045384716298601"><ele>292.0</ele><time>2026-03-22T12:32:00Z</time></trkpt><trkpt lat="44.42290101015873" lon="11.045468683006845"><ele>292.0</ele><time>2026-03-22T12:32:02Z</time></trkpt><trkpt lat="44.422826101897414" lon="11.045515249834986"><ele>292.3333333333333</ele><time>2026-03-22T12:32:03Z</time></trkpt><trkpt lat="44.42275097621694" lon="11.045555046256261"><ele>292.66666666666663</ele><time>2026-03-22T12:32:04Z</time></trkpt><trkpt lat="44.42268293496657" lon="11.045568833940008"><ele>293.0</ele><time>2026-03-22T12:32:05Z</time></trkpt><trkpt lat="44.42261812394713" lon="11.045579442968727"><ele>293.3333333333333</ele><time>2026-03-22T12:32:06Z</time></trkpt><trkpt lat="44.42255796001795" lon="11.04560955314678"><ele>293.6666666666667</ele><time>2026-03-22T12:32:07Z</time></trkpt><trkpt lat="44.42244433870482" lon="11.045716748996782"><ele>294.0</ele><time>2026-03-22T12:32:09Z</time></trkpt><trkpt lat="44.42236141609589" lon="11.045783674609622"><ele>297.6666666666667</ele><time>2026-03-22T12:32:10Z</time></trkpt><trkpt lat="44.422281960597616" lon="11.045856054725386"><ele>301.3333333333333</ele><time>2026-03-22T12:32:11Z</time></trkpt><trkpt lat="44.422229799333806" lon="11.045912305248281"><ele>305.0</ele><time>2026-03-22T12:32:12Z</time></trkpt><trkpt lat="44.42217462425071" lon="11.045971266203031"><ele>308.66666666666663</ele><time>2026-03-22T12:32:13Z</time></trkpt><trkpt lat="44.422110160952066" lon="11.04604772567747"><ele>312.3333333333333</ele><time>2026-03-22T12:32:15Z</time></trkpt><trkpt lat="44.422033177177596" lon="11.04604277631173"><ele>316.0</ele><time>2026-03-22T12:32:17Z</time></trkpt><trkpt lat="44.421997409079594" lon="11.045966760769465"><ele>316.0</ele><time>2026-03-22T12:32:18Z</time></trkpt><trkpt lat="44.42193254511305" lon="11.045933072768696"><ele>316.0</ele><time>2026-03-22T12:32:19Z</time></trkpt><trkpt lat="44.421862205781615" lon="11.045896541852025"><ele>316.0</ele><time>2026-03-22T12:32:20Z</time></trkpt><trkpt lat="44.42178720732886" lon="11.045857808803092"><ele>316.0</ele><time>2026-03-22T12:32:21Z</time></trkpt><trkpt lat="44.42170213563854" lon="11.045821419543014"><ele>316.0</ele><time>2026-03-22T12:32:22Z</time></trkpt><trkpt lat="44.42160522656977" lon="11.045800012486815"><ele>316.0</ele><time>2026-03-22T12:32:23Z</time></trkpt><trkpt lat="44.42151794103621" lon="11.04577555327631"><ele>315.66666666666663</ele><time>2026-03-22T12:32:24Z</time></trkpt><trkpt lat="44.421453449010585" lon="11.045748568400063"><ele>315.3333333333333</ele><time>2026-03-22T12:32:25Z</time></trkpt><trkpt lat="44.42138530274858" lon="11.04569586386911"><ele>315.0</ele><time>2026-03-22T12:32:26Z</time></trkpt><trkpt lat="44.42131479822933" lon="11.045600004984255"><ele>314.6666666666667</ele><time>2026-03-22T12:32:27Z</time></trkpt><trkpt lat="44.421243150048305" lon="11.045509024405195"><ele>314.33333333333337</ele><time>2026-03-22T12:32:28Z</time></trkpt><trkpt lat="44.42118238339311" lon="11.045430704979571"><ele>314.0</ele><time>2026-03-22T12:32:29Z</time></trkpt><trkpt lat="44.4211337669708" lon="11.045361067681196"><ele>314.0</ele><time>2026-03-22T12:32:30Z</time></trkpt><trkpt lat="44.421070421223874" lon="11.045292267842667"><ele>314.0</ele><time>2026-03-22T12:32:31Z</time></trkpt><trkpt lat="44.42102036960328" lon="11.045203716410045"><ele>314.0</ele><time>2026-03-22T12:32:32Z</time></trkpt><trkpt lat="44.42097209906792" lon="11.04506080291974"><ele>314.0</ele><time>2026-03-22T12:32:33Z</time></trkpt><trkpt lat="44.420935358518584" lon="11.044896040420964"><ele>314.0</ele><time>2026-03-22T12:32:34Z</time></trkpt><trkpt lat="44.4208934473835" lon="11.044725758997549"><ele>314.0</ele><time>2026-03-22T12:32:35Z</time></trkpt><trkpt lat="44.4208552390973" lon="11.04457817169091"><ele>314.0</ele><time>2026-03-22T12:32:36Z</time></trkpt><trkpt lat="44.42080801199506" lon="11.044423962435985"><ele>314.0</ele><time>2026-03-22T12:32:37Z</time></trkpt><trkpt lat="44.42075825108871" lon="11.0442824927511"><ele>314.0</ele><time>2026-03-22T12:32:38Z</time></trkpt><trkpt lat="44.42070895080771" lon="11.044168136301227"><ele>314.0</ele><time>2026-03-22T12:32:39Z</time></trkpt><trkpt lat="44.42064816430966" lon="11.0440440157725"><ele>313.2</ele><time>2026-03-22T12:32:40Z</time></trkpt><trkpt lat="44.4205756758252" lon="11.043903769418403"><ele>312.4</ele><time>2026-03-22T12:32:41Z</time></trkpt><trkpt lat="44.42050324882353" lon="11.043811547731506"><ele>311.6</ele><time>2026-03-22T12:32:42Z</time></trkpt><trkpt lat="44.42043839540053" lon="11.04374313049969"><ele>310.8</ele><time>2026-03-22T12:32:43Z</time></trkpt><trkpt lat="44.42037920065717" lon="11.043681659105076"><ele>310.0</ele><time>2026-03-22T12:32:44Z</time></trkpt><trkpt lat="44.42031488200257" lon="11.04360215764985"><ele>310.0</ele><time>2026-03-22T12:32:45Z</time></trkpt><trkpt lat="44.42025308023705" lon="11.043525181778847"><ele>310.0</ele><time>2026-03-22T12:32:46Z</time></trkpt><trkpt lat="44.42019752043603" lon="11.04344052760619"><ele>310.0</ele><time>2026-03-22T12:32:47Z</time></trkpt><trkpt lat="44.42012763755813" lon="11.043354668386591"><ele>310.0</ele><time>2026-03-22T12:32:48Z</time></trkpt><trkpt lat="44.42005686128631" lon="11.043276550759877"><ele>310.0</ele><time>2026-03-22T12:32:49Z</time></trkpt><trkpt lat="44.41999796747968" lon="11.043215640164354"><ele>310.0</ele><time>2026-03-22T12:32:50Z</time></trkpt><trkpt lat="44.41993693215593" lon="11.043162826957435"><ele>310.0</ele><time>2026-03-22T12:32:51Z</time></trkpt><trkpt lat="44.41987826181761" lon="11.043111647028802"><ele>310.0</ele><time>2026-03-22T12:32:52Z</time></trkpt><trkpt lat="44.419824178262594" lon="11.043064468336832"><ele>310.0</ele><time>2026-03-22T12:32:53Z</time></trkpt><trkpt lat="44.419738675978415" lon="11.04298799480822"><ele>310.0</ele><time>2026-03-22T12:32:55Z</time></trkpt><trkpt lat="44.4196510612496" lon="11.042923323281121"><ele>310.0</ele><time>2026-03-22T12:32:57Z</time></trkpt><trkpt lat="44.41957320461196" lon="11.0428095245848"><ele>310.0</ele><time>2026-03-22T12:32:59Z</time></trkpt><trkpt lat="44.41948761510104" lon="11.042705966878547"><ele>310.0</ele><time>2026-03-22T12:33:01Z</time></trkpt><trkpt lat="44.41944535346807" lon="11.04263408431194"><ele>310.0</ele><time>2026-03-22T12:33:02Z</time></trkpt><trkpt lat="44.419398160466066" lon="11.0425666528441"><ele>310.0</ele><time>2026-03-22T12:33:03Z</time></trkpt><trkpt lat="44.419350025889436" lon="11.042487822340025"><ele>310.0</ele><time>2026-03-22T12:33:04Z</time></trkpt><trkpt lat="44.419293472521495" lon="11.042400229632042"><ele>310.0</ele><time>2026-03-22T12:33:05Z</time></trkpt><trkpt lat="44.4192270877634" lon="11.042301614101463"><ele>310.0</ele><time>2026-03-22T12:33:06Z</time></trkpt><trkpt lat="44.419173403298934" lon="11.042217265359296"><ele>309.66666666666663</ele><time>2026-03-22T12:33:07Z</time></trkpt><trkpt lat="44.41912278788606" lon="11.042141851785148"><ele>309.3333333333333</ele><time>2026-03-22T12:33:08Z</time></trkpt><trkpt lat="44.41906488688296" lon="11.0420376482937"><ele>309.0</ele><time>2026-03-22T12:33:09Z</time></trkpt><trkpt lat="44.41900344312885" lon="11.041940948511991"><ele>308.6666666666667</ele><time>2026-03-22T12:33:10Z</time></trkpt><trkpt lat="44.41895066558378" lon="11.041853187767588"><ele>308.33333333333337</ele><time>2026-03-22T12:33:11Z</time></trkpt><trkpt lat="44.418890916134394" lon="11.041762051841559"><ele>308.0</ele><time>2026-03-22T12:33:12Z</time></trkpt><trkpt lat="44.41882519760371" lon="11.041654313694732"><ele>308.8</ele><time>2026-03-22T12:33:13Z</time></trkpt><trkpt lat="44.418753868283474" lon="11.041547904946011"><ele>309.6</ele><time>2026-03-22T12:33:14Z</time></trkpt><trkpt lat="44.418684069710196" lon="11.041416500563848"><ele>310.4</ele><time>2026-03-22T12:33:15Z</time></trkpt><trkpt lat="44.41862007247166" lon="11.041302824878022"><ele>311.2</ele><time>2026-03-22T12:33:16Z</time></trkpt><trkpt lat="44.41856344250697" lon="11.04120948308786"><ele>312.0</ele><time>2026-03-22T12:33:17Z</time></trkpt><trkpt lat="44.41851491955908" lon="11.041127690703185"><ele>312.0</ele><time>2026-03-22T12:33:18Z</time></trkpt><trkpt lat="44.41847230445581" lon="11.04105166047785"><ele>312.0</ele><time>2026-03-22T12:33:19Z</time></trkpt><trkpt lat="44.41838381191639" lon="11.040911535014665"><ele>312.0</ele><time>2026-03-22T12:33:21Z</time></trkpt><trkpt lat="44.4183452863536" lon="11.040821817483401"><ele>312.0</ele><time>2026-03-22T12:33:22Z</time></trkpt><trkpt lat="44.41832186248727" lon="11.040733513449075"><ele>312.0</ele><time>2026-03-22T12:33:23Z</time></trkpt><trkpt lat="44.418266836000214" lon="11.040578995277517"><ele>312.0</ele><time>2026-03-22T12:33:25Z</time></trkpt><trkpt lat="44.41823839487607" lon="11.04047764135101"><ele>312.0</ele><time>2026-03-22T12:33:26Z</time></trkpt><trkpt lat="44.41818973819223" lon="11.04038437426395"><ele>312.0</ele><time>2026-03-22T12:33:27Z</time></trkpt><trkpt lat="44.41814900762156" lon="11.040258689381153"><ele>312.0</ele><time>2026-03-22T12:33:28Z</time></trkpt><trkpt lat="44.41811039303816" lon="11.040138062039134"><ele>312.0</ele><time>2026-03-22T12:33:29Z</time></trkpt><trkpt lat="44.418068625425285" lon="11.040009963040063"><ele>311.75</ele><time>2026-03-22T12:33:30Z</time></trkpt><trkpt lat="44.41803214006587" lon="11.039847645377224"><ele>311.5</ele><time>2026-03-22T12:33:31Z</time></trkpt><trkpt lat="44.41796233820494" lon="11.03970173655595"><ele>311.25</ele><time>2026-03-22T12:33:32Z</time></trkpt><trkpt lat="44.41791351234685" lon="11.039564465234156"><ele>311.0</ele><time>2026-03-22T12:33:33Z</time></trkpt><trkpt lat="44.41788214457907" lon="11.039423649258584"><ele>311.0</ele><time>2026-03-22T12:33:34Z</time></trkpt><trkpt lat="44.41781818425592" lon="11.039288869072951"><ele>311.0</ele><time>2026-03-22T12:33:35Z</time></trkpt><trkpt lat="44.41776769967881" lon="11.039141139283503"><ele>311.0</ele><time>2026-03-22T12:33:36Z</time></trkpt><trkpt lat="44.41773063115719" lon="11.038983232717754"><ele>311.0</ele><time>2026-03-22T12:33:37Z</time></trkpt><trkpt lat="44.41767095826154" lon="11.038858051204624"><ele>313.5</ele><time>2026-03-22T12:33:38Z</time></trkpt><trkpt lat="44.41761993117997" lon="11.038708734048361"><ele>316.0</ele><time>2026-03-22T12:33:39Z</time></trkpt><trkpt lat="44.417559657565356" lon="11.038532446543648"><ele>318.5</ele><time>2026-03-22T12:33:40Z</time></trkpt><trkpt lat="44.41749550925191" lon="11.038341642641617"><ele>321.0</ele><time>2026-03-22T12:33:41Z</time></trkpt><trkpt lat="44.417442455335305" lon="11.038176631446676"><ele>322.0</ele><time>2026-03-22T12:33:42Z</time></trkpt><trkpt lat="44.41739787220222" lon="11.038021626339308"><ele>323.0</ele><time>2026-03-22T12:33:43Z</time></trkpt><trkpt lat="44.41735620001922" lon="11.037844409845613"><ele>324.0</ele><time>2026-03-22T12:33:44Z</time></trkpt><trkpt lat="44.41731470315352" lon="11.037684998363458"><ele>325.0</ele><time>2026-03-22T12:33:45Z</time></trkpt><trkpt lat="44.41726181981198" lon="11.037528947792401"><ele>325.2</ele><time>2026-03-22T12:33:46Z</time></trkpt><trkpt lat="44.417201278632746" lon="11.037370224063842"><ele>325.4</ele><time>2026-03-22T12:33:47Z</time></trkpt><trkpt lat="44.41715477802318" lon="11.03723757592057"><ele>325.6</ele><time>2026-03-22T12:33:48Z</time></trkpt><trkpt lat="44.41711481650739" lon="11.03711684489001"><ele>325.8</ele><time>2026-03-22T12:33:49Z</time></trkpt><trkpt lat="44.41707020492403" lon="11.03698075494427"><ele>326.0</ele><time>2026-03-22T12:33:50Z</time></trkpt><trkpt lat="44.41702803903663" lon="11.036854579555337"><ele>325.6666666666667</ele><time>2026-03-22T12:33:51Z</time></trkpt><trkpt lat="44.4169985660852" lon="11.036767092469326"><ele>325.33333333333337</ele><time>2026-03-22T12:33:52Z</time></trkpt><trkpt lat="44.41696737977452" lon="11.036674519413388"><ele>325.0</ele><time>2026-03-22T12:33:53Z</time></trkpt><trkpt lat="44.41692936810751" lon="11.036569707107889"><ele>324.6666666666667</ele><time>2026-03-22T12:33:54Z</time></trkpt><trkpt lat="44.41688348081622" lon="11.036462179214752"><ele>324.3333333333333</ele><time>2026-03-22T12:33:55Z</time></trkpt><trkpt lat="44.41682869841701" lon="11.036352034393582"><ele>324.0</ele><time>2026-03-22T12:33:56Z</time></trkpt><trkpt lat="44.416743412729794" lon="11.036254990404174"><ele>324.0</ele><time>2026-03-22T12:33:57Z</time></trkpt><trkpt lat="44.41664199652658" lon="11.036164501073426"><ele>324.0</ele><time>2026-03-22T12:33:58Z</time></trkpt><trkpt lat="44.41655814374494" lon="11.0360835246634"><ele>324.0</ele><time>2026-03-22T12:33:59Z</time></trkpt><trkpt lat="44.4164925764307" lon="11.035999644317663"><ele>324.0</ele><time>2026-03-22T12:34:00Z</time></trkpt><trkpt lat="44.41641990988748" lon="11.035956367576592"><ele>324.0</ele><time>2026-03-22T12:34:01Z</time></trkpt><trkpt lat="44.41636686364566" lon="11.035887147882375"><ele>323.6</ele><time>2026-03-22T12:34:02Z</time></trkpt><trkpt lat="44.416304839825884" lon="11.035833559599507"><ele>323.2</ele><time>2026-03-22T12:34:03Z</time></trkpt><trkpt lat="44.416191161320995" lon="11.035764281536238"><ele>322.8</ele><time>2026-03-22T12:34:05Z</time></trkpt><trkpt lat="44.41610366795469" lon="11.035671443075813"><ele>322.40000000000003</ele><time>2026-03-22T12:34:07Z</time></trkpt><trkpt lat="44.41601064722761" lon="11.035625836628707"><ele>322.0</ele><time>2026-03-22T12:34:09Z</time></trkpt><trkpt lat="44.41593813465719" lon="11.035556986179177"><ele>321.8333333333333</ele><time>2026-03-22T12:34:11Z</time></trkpt><trkpt lat="44.41587578504868" lon="11.03549116631989"><ele>321.66666666666663</ele><time>2026-03-22T12:34:13Z</time></trkpt><trkpt lat="44.41579975877407" lon="11.035403817249382"><ele>321.5</ele><time>2026-03-22T12:34:15Z</time></trkpt><trkpt lat="44.415739395066076" lon="11.035357360013881"><ele>321.3333333333333</ele><time>2026-03-22T12:34:16Z</time></trkpt><trkpt lat="44.415691785249166" lon="11.035263742822043"><ele>321.1666666666667</ele><time>2026-03-22T12:34:17Z</time></trkpt><trkpt lat="44.41563068815323" lon="11.035155808059962"><ele>321.0</ele><time>2026-03-22T12:34:18Z</time></trkpt><trkpt lat="44.415561445848944" lon="11.035053969195143"><ele>323.75</ele><time>2026-03-22T12:34:19Z</time></trkpt><trkpt lat="44.41547540211951" lon="11.034936130763779"><ele>326.5</ele><time>2026-03-22T12:34:20Z</time></trkpt><trkpt lat="44.415387383688795" lon="11.034816215855827"><ele>329.25</ele><time>2026-03-22T12:34:21Z</time></trkpt><trkpt lat="44.415296979620805" lon="11.034690408383854"><ele>332.0</ele><time>2026-03-22T12:34:22Z</time></trkpt><trkpt lat="44.41520090441905" lon="11.034553526826512"><ele>332.0</ele><time>2026-03-22T12:34:23Z</time></trkpt><trkpt lat="44.41509928566445" lon="11.03441205027814"><ele>332.0</ele><time>2026-03-22T12:34:24Z</time></trkpt><trkpt lat="44.415004883595614" lon="11.034277477116893"><ele>332.0</ele><time>2026-03-22T12:34:25Z</time></trkpt><trkpt lat="44.4149172012242" lon="11.03414952718712"><ele>332.0</ele><time>2026-03-22T12:34:26Z</time></trkpt><trkpt lat="44.41483302350986" lon="11.03402324509224"><ele>330.5</ele><time>2026-03-22T12:34:27Z</time></trkpt><trkpt lat="44.41475014576889" lon="11.033900244950816"><ele>329.0</ele><time>2026-03-22T12:34:28Z</time></trkpt><trkpt lat="44.414664125151894" lon="11.033783863894936"><ele>327.5</ele><time>2026-03-22T12:34:29Z</time></trkpt><trkpt lat="44.41456586269246" lon="11.03365579174429"><ele>326.0</ele><time>2026-03-22T12:34:30Z</time></trkpt><trkpt lat="44.41448145787719" lon="11.033539358251211"><ele>328.0</ele><time>2026-03-22T12:34:31Z</time></trkpt><trkpt lat="44.41440942764626" lon="11.033434412904642"><ele>330.0</ele><time>2026-03-22T12:34:32Z</time></trkpt><trkpt lat="44.41433826910921" lon="11.033337283969736"><ele>332.0</ele><time>2026-03-22T12:34:33Z</time></trkpt><trkpt lat="44.41424936863271" lon="11.033247872883358"><ele>334.0</ele><time>2026-03-22T12:34:34Z</time></trkpt><trkpt lat="44.414143033284546" lon="11.03316439597442"><ele>336.0</ele><time>2026-03-22T12:34:35Z</time></trkpt><trkpt lat="44.41403271793864" lon="11.03305647834618"><ele>336.0</ele><time>2026-03-22T12:34:36Z</time></trkpt><trkpt lat="44.413893083471706" lon="11.032998693872182"><ele>336.0</ele><time>2026-03-22T12:34:37Z</time></trkpt><trkpt lat="44.41376778202672" lon="11.032963906434738"><ele>336.0</ele><time>2026-03-22T12:34:38Z</time></trkpt><trkpt lat="44.413663923235795" lon="11.032937801015343"><ele>336.0</ele><time>2026-03-22T12:34:39Z</time></trkpt><trkpt lat="44.41357560980241" lon="11.032905834924527"><ele>339.5</ele><time>2026-03-22T12:34:40Z</time></trkpt><trkpt lat="44.4134816267129" lon="11.03285747451382"><ele>343.0</ele><time>2026-03-22T12:34:41Z</time></trkpt><trkpt lat="44.413403246687416" lon="11.03273398542403"><ele>346.5</ele><time>2026-03-22T12:34:42Z</time></trkpt><trkpt lat="44.413337853773236" lon="11.032589040685954"><ele>350.0</ele><time>2026-03-22T12:34:43Z</time></trkpt><trkpt lat="44.41327810713451" lon="11.032428657795217"><ele>350.2</ele><time>2026-03-22T12:34:44Z</time></trkpt><trkpt lat="44.41321568574937" lon="11.032279424718153"><ele>350.4</ele><time>2026-03-22T12:34:45Z</time></trkpt><trkpt lat="44.4131623913113" lon="11.032159396985936"><ele>350.6</ele><time>2026-03-22T12:34:46Z</time></trkpt><trkpt lat="44.413114203739106" lon="11.032047224248737"><ele>350.8</ele><time>2026-03-22T12:34:47Z</time></trkpt><trkpt lat="44.41305811509521" lon="11.031912893462254"><ele>351.0</ele><time>2026-03-22T12:34:48Z</time></trkpt><trkpt lat="44.41300480457233" lon="11.031772534259536"><ele>354.20000000000005</ele><time>2026-03-22T12:34:49Z</time></trkpt><trkpt lat="44.41295677007446" lon="11.031639356729444"><ele>357.40000000000003</ele><time>2026-03-22T12:34:50Z</time></trkpt><trkpt lat="44.41291674512955" lon="11.031509574815967"><ele>360.6</ele><time>2026-03-22T12:34:51Z</time></trkpt><trkpt lat="44.412880088914775" lon="11.031387870622225"><ele>363.8</ele><time>2026-03-22T12:34:52Z</time></trkpt><trkpt lat="44.412843092720095" lon="11.031265801001318"><ele>367.0</ele><time>2026-03-22T12:34:53Z</time></trkpt><trkpt lat="44.41280593185616" lon="11.031129027203258"><ele>367.0</ele><time>2026-03-22T12:34:54Z</time></trkpt><trkpt lat="44.41277339568179" lon="11.030997668526755"><ele>367.0</ele><time>2026-03-22T12:34:55Z</time></trkpt><trkpt lat="44.41274914048566" lon="11.030883359178977"><ele>367.0</ele><time>2026-03-22T12:34:56Z</time></trkpt><trkpt lat="44.41272106191978" lon="11.030766578223313"><ele>367.0</ele><time>2026-03-22T12:34:57Z</time></trkpt><trkpt lat="44.41270401367951" lon="11.030643541136477"><ele>367.0</ele><time>2026-03-22T12:34:58Z</time></trkpt><trkpt lat="44.41270834334199" lon="11.030509473768959"><ele>368.40000000000003</ele><time>2026-03-22T12:34:59Z</time></trkpt><trkpt lat="44.41271149858596" lon="11.030358367534992"><ele>369.8</ele><time>2026-03-22T12:35:00Z</time></trkpt><trkpt lat="44.412740399941846" lon="11.030214616714552"><ele>371.2</ele><time>2026-03-22T12:35:01Z</time></trkpt><trkpt lat="44.412761857217774" lon="11.03011710129283"><ele>372.6</ele><time>2026-03-22T12:35:02Z</time></trkpt><trkpt lat="44.41278909058266" lon="11.030033030685217"><ele>374.0</ele><time>2026-03-22T12:35:06Z</time></trkpt><trkpt lat="44.41289617100575" lon="11.030064030232532"><ele>370.25</ele><time>2026-03-22T12:35:07Z</time></trkpt><trkpt lat="44.412992406874544" lon="11.030052451960124"><ele>366.5</ele><time>2026-03-22T12:35:09Z</time></trkpt><trkpt lat="44.41310795331464" lon="11.030022218726405"><ele>362.75</ele><time>2026-03-22T12:35:11Z</time></trkpt><trkpt lat="44.413196635409946" lon="11.029935172909957"><ele>359.0</ele><time>2026-03-22T12:35:13Z</time></trkpt><trkpt lat="44.4132708316173" lon="11.029752262993982"><ele>359.0</ele><time>2026-03-22T12:35:15Z</time></trkpt><trkpt lat="44.4133149949328" lon="11.029666339614973"><ele>359.0</ele><time>2026-03-22T12:35:16Z</time></trkpt><trkpt lat="44.41335408327192" lon="11.029594149519534"><ele>359.0</ele><time>2026-03-22T12:35:17Z</time></trkpt><trkpt lat="44.413407392764725" lon="11.029534878108665"><ele>359.0</ele><time>2026-03-22T12:35:18Z</time></trkpt><trkpt lat="44.41348704426557" lon="11.029517011955562"><ele>359.0</ele><time>2026-03-22T12:35:19Z</time></trkpt><trkpt lat="44.41358359353676" lon="11.029491664159506"><ele>359.0</ele><time>2026-03-22T12:35:20Z</time></trkpt><trkpt lat="44.41367938782605" lon="11.029463391898753"><ele>359.0</ele><time>2026-03-22T12:35:21Z</time></trkpt><trkpt lat="44.41375605030949" lon="11.029435513677958"><ele>359.0</ele><time>2026-03-22T12:35:22Z</time></trkpt><trkpt lat="44.4138142891508" lon="11.029316694742208"><ele>359.0</ele><time>2026-03-22T12:35:24Z</time></trkpt><trkpt lat="44.41386078755333" lon="11.029227292617758"><ele>359.0</ele><time>2026-03-22T12:35:25Z</time></trkpt><trkpt lat="44.41391659662202" lon="11.029100727722932"><ele>359.0</ele><time>2026-03-22T12:35:26Z</time></trkpt><trkpt lat="44.41397274834474" lon="11.028972497405531"><ele>355.0</ele><time>2026-03-22T12:35:27Z</time></trkpt><trkpt lat="44.4140565722394" lon="11.028851778759641"><ele>351.0</ele><time>2026-03-22T12:35:28Z</time></trkpt><trkpt lat="44.41414920098467" lon="11.028760052984904"><ele>347.0</ele><time>2026-03-22T12:35:29Z</time></trkpt><trkpt lat="44.41425918913484" lon="11.028667714237699"><ele>343.0</ele><time>2026-03-22T12:35:30Z</time></trkpt><trkpt lat="44.414357552400006" lon="11.028595338663475"><ele>343.0</ele><time>2026-03-22T12:35:30.999Z</time></trkpt><trkpt lat="44.414429324475286" lon="11.028533430928336"><ele>343.0</ele><time>2026-03-22T12:35:31.999Z</time></trkpt><trkpt lat="44.41448098725172" lon="11.028464026225999"><ele>343.0</ele><time>2026-03-22T12:35:32.999Z</time></trkpt><trkpt lat="44.41452272884825" lon="11.028304190946386"><ele>343.0</ele><time>2026-03-22T12:35:34.999Z</time></trkpt><trkpt lat="44.41453865253806" lon="11.028174707906249"><ele>343.0</ele><time>2026-03-22T12:35:35.999Z</time></trkpt><trkpt lat="44.4145638045827" lon="11.028042212204578"><ele>343.0</ele><time>2026-03-22T12:35:36.999Z</time></trkpt><trkpt lat="44.41461108589146" lon="11.027916763175444"><ele>343.0</ele><time>2026-03-22T12:35:37.999Z</time></trkpt><trkpt lat="44.414698485850444" lon="11.02780558306759"><ele>343.0</ele><time>2026-03-22T12:35:38.999Z</time></trkpt><trkpt lat="44.414806322805546" lon="11.02772996986988"><ele>343.0</ele><time>2026-03-22T12:35:39.999Z</time></trkpt><trkpt lat="44.41493387498759" lon="11.027665555677007"><ele>339.0</ele><time>2026-03-22T12:35:40.999Z</time></trkpt><trkpt lat="44.415045440975625" lon="11.027613804781819"><ele>335.0</ele><time>2026-03-22T12:35:41.999Z</time></trkpt><trkpt lat="44.41515584695328" lon="11.027567892008774"><ele>331.0</ele><time>2026-03-22T12:35:42.999Z</time></trkpt><trkpt lat="44.41525981987182" lon="11.027538658084001"><ele>327.0</ele><time>2026-03-22T12:35:43.999Z</time></trkpt><trkpt lat="44.415349172400866" lon="11.027518854011168"><ele>323.0</ele><time>2026-03-22T12:35:45Z</time></trkpt><trkpt lat="44.41542979479889" lon="11.027498451823048"><ele>320.0</ele><time>2026-03-22T12:35:46Z</time></trkpt><trkpt lat="44.41549471462831" lon="11.027478496983603"><ele>317.0</ele><time>2026-03-22T12:35:47Z</time></trkpt><trkpt lat="44.41556634054766" lon="11.027408106002163"><ele>314.0</ele><time>2026-03-22T12:35:49Z</time></trkpt><trkpt lat="44.41558838871871" lon="11.027249641025927"><ele>311.0</ele><time>2026-03-22T12:35:51Z</time></trkpt><trkpt lat="44.415579405796535" lon="11.027106891778542"><ele>308.0</ele><time>2026-03-22T12:35:52Z</time></trkpt><trkpt lat="44.41557551727191" lon="11.026966005022993"><ele>307.0</ele><time>2026-03-22T12:35:53Z</time></trkpt><trkpt lat="44.415539970640175" lon="11.02684528588688"><ele>306.0</ele><time>2026-03-22T12:35:54Z</time></trkpt><trkpt lat="44.415524107047965" lon="11.026734787428257"><ele>305.0</ele><time>2026-03-22T12:35:55Z</time></trkpt><trkpt lat="44.415517036281805" lon="11.026621174860717"><ele>304.0</ele><time>2026-03-22T12:35:56Z</time></trkpt><trkpt lat="44.41554282784421" lon="11.026501477141908"><ele>303.0</ele><time>2026-03-22T12:35:57Z</time></trkpt><trkpt lat="44.41560768071755" lon="11.026403921626718"><ele>302.0</ele><time>2026-03-22T12:35:58Z</time></trkpt><trkpt lat="44.4157086761034" lon="11.026337928665148"><ele>301.6</ele><time>2026-03-22T12:35:59Z</time></trkpt><trkpt lat="44.41581871435155" lon="11.026277687122485"><ele>301.2</ele><time>2026-03-22T12:36:00Z</time></trkpt><trkpt lat="44.41592029496972" lon="11.026222154880811"><ele>300.8</ele><time>2026-03-22T12:36:01Z</time></trkpt><trkpt lat="44.4160177046383" lon="11.026171687481552"><ele>300.4</ele><time>2026-03-22T12:36:02Z</time></trkpt><trkpt lat="44.41610931696992" lon="11.026129848960657"><ele>300.0</ele><time>2026-03-22T12:36:03Z</time></trkpt><trkpt lat="44.416201779210425" lon="11.026076498150843"><ele>300.0</ele><time>2026-03-22T12:36:04Z</time></trkpt><trkpt lat="44.416276842196105" lon="11.026021267307293"><ele>300.0</ele><time>2026-03-22T12:36:05Z</time></trkpt><trkpt lat="44.41631667847809" lon="11.025945024556727"><ele>300.0</ele><time>2026-03-22T12:36:06Z</time></trkpt><trkpt lat="44.41633796232124" lon="11.025856009311068"><ele>300.0</ele><time>2026-03-22T12:36:07Z</time></trkpt><trkpt lat="44.4163816921476" lon="11.025740412686124"><ele>300.0</ele><time>2026-03-22T12:36:08Z</time></trkpt><trkpt lat="44.41642982830935" lon="11.025651561947695"><ele>300.0</ele><time>2026-03-22T12:36:09Z</time></trkpt><trkpt lat="44.416511867513826" lon="11.025615522559333"><ele>300.1666666666667</ele><time>2026-03-22T12:36:10Z</time></trkpt><trkpt lat="44.41660252117477" lon="11.025672480418459"><ele>300.3333333333333</ele><time>2026-03-22T12:36:11Z</time></trkpt><trkpt lat="44.416668411552735" lon="11.025736693782344"><ele>300.5</ele><time>2026-03-22T12:36:12Z</time></trkpt><trkpt lat="44.41675550173149" lon="11.025769721935216"><ele>300.66666666666663</ele><time>2026-03-22T12:36:13Z</time></trkpt><trkpt lat="44.41683155068002" lon="11.025829595288478"><ele>300.8333333333333</ele><time>2026-03-22T12:36:14Z</time></trkpt><trkpt lat="44.4169112323423" lon="11.025882477036019"><ele>301.0</ele><time>2026-03-22T12:36:15Z</time></trkpt><trkpt lat="44.41699170575168" lon="11.025942494902809"><ele>301.0</ele><time>2026-03-22T12:36:16Z</time></trkpt><trkpt lat="44.41707732290067" lon="11.026000339743607"><ele>301.0</ele><time>2026-03-22T12:36:17Z</time></trkpt><trkpt lat="44.41717184144654" lon="11.026067084704549"><ele>301.0</ele><time>2026-03-22T12:36:18Z</time></trkpt><trkpt lat="44.417277472294366" lon="11.026070818565847"><ele>301.0</ele><time>2026-03-22T12:36:19Z</time></trkpt><trkpt lat="44.4173899885989" lon="11.026080759499056"><ele>301.0</ele><time>2026-03-22T12:36:20Z</time></trkpt><trkpt lat="44.41750900062458" lon="11.026128953598583"><ele>304.40000000000003</ele><time>2026-03-22T12:36:21Z</time></trkpt><trkpt lat="44.417625177896866" lon="11.02615993962635"><ele>307.8</ele><time>2026-03-22T12:36:22Z</time></trkpt><trkpt lat="44.417741626873486" lon="11.026214085686274"><ele>311.20000000000005</ele><time>2026-03-22T12:36:23Z</time></trkpt><trkpt lat="44.417835803597875" lon="11.02620742309901"><ele>314.6</ele><time>2026-03-22T12:36:24Z</time></trkpt><trkpt lat="44.41793527341553" lon="11.02621572746574"><ele>318.0</ele><time>2026-03-22T12:36:25Z</time></trkpt><trkpt lat="44.4180099929512" lon="11.026254106700772"><ele>318.6666666666667</ele><time>2026-03-22T12:36:26Z</time></trkpt><trkpt lat="44.41808587537491" lon="11.026275643553948"><ele>319.3333333333333</ele><time>2026-03-22T12:36:27Z</time></trkpt><trkpt lat="44.41817028842369" lon="11.026317244592981"><ele>320.0</ele><time>2026-03-22T12:36:28Z</time></trkpt><trkpt lat="44.418245380628896" lon="11.026362393404035"><ele>320.66666666666663</ele><time>2026-03-22T12:36:29Z</time></trkpt><trkpt lat="44.41829045290943" lon="11.026432502677544"><ele>321.3333333333333</ele><time>2026-03-22T12:36:30Z</time></trkpt><trkpt lat="44.418339678908914" lon="11.026489068205162"><ele>322.0</ele><time>2026-03-22T12:36:31Z</time></trkpt><trkpt lat="44.41842415091385" lon="11.026591781105505"><ele>322.0</ele><time>2026-03-22T12:36:33Z</time></trkpt><trkpt lat="44.41848722923631" lon="11.02667050050861"><ele>322.0</ele><time>2026-03-22T12:36:35Z</time></trkpt><trkpt lat="44.41854574333369" lon="11.02674621048251"><ele>322.0</ele><time>2026-03-22T12:36:38Z</time></trkpt><trkpt lat="44.41847578433283" lon="11.026655812763892"><ele>322.0</ele><time>2026-03-22T12:37:11Z</time></trkpt><trkpt lat="44.418427336685625" lon="11.026595660682299"><ele>322.0</ele><time>2026-03-22T12:37:13Z</time></trkpt><trkpt lat="44.41832993569225" lon="11.026477079747142"><ele>322.0</ele><time>2026-03-22T12:37:14.999Z</time></trkpt><trkpt lat="44.418265876380865" lon="11.026404100750819"><ele>322.0</ele><time>2026-03-22T12:37:15.999Z</time></trkpt><trkpt lat="44.418203286070266" lon="11.026308760313697"><ele>322.0</ele><time>2026-03-22T12:37:16.999Z</time></trkpt><trkpt lat="44.41812486445595" lon="11.026253487673978"><ele>322.0</ele><time>2026-03-22T12:37:17.999Z</time></trkpt><trkpt lat="44.41805471842344" lon="11.026219981192833"><ele>322.0</ele><time>2026-03-22T12:37:18.999Z</time></trkpt><trkpt lat="44.41798864070893" lon="11.02619531547104"><ele>322.0</ele><time>2026-03-22T12:37:19.999Z</time></trkpt><trkpt lat="44.417925856716955" lon="11.026144177952812"><ele>321.3333333333333</ele><time>2026-03-22T12:37:20.999Z</time></trkpt><trkpt lat="44.417834121640055" lon="11.02616922080585"><ele>320.66666666666663</ele><time>2026-03-22T12:37:21.999Z</time></trkpt><trkpt lat="44.41775140155738" lon="11.02617038884995"><ele>320.0</ele><time>2026-03-22T12:37:22.999Z</time></trkpt><trkpt lat="44.41766637559018" lon="11.026158045593835"><ele>319.3333333333333</ele><time>2026-03-22T12:37:23.999Z</time></trkpt><trkpt lat="44.417588492551126" lon="11.026088763620141"><ele>318.6666666666667</ele><time>2026-03-22T12:37:24.999Z</time></trkpt><trkpt lat="44.417509227598856" lon="11.02604731739112"><ele>318.0</ele><time>2026-03-22T12:37:25.999Z</time></trkpt><trkpt lat="44.41741893090106" lon="11.02601098179839"><ele>318.0</ele><time>2026-03-22T12:37:26.999Z</time></trkpt><trkpt lat="44.417320520278274" lon="11.02600218067252"><ele>318.0</ele><time>2026-03-22T12:37:27.999Z</time></trkpt><trkpt lat="44.41722504762219" lon="11.025989794212657"><ele>318.0</ele><time>2026-03-22T12:37:28.999Z</time></trkpt><trkpt lat="44.41713168903364" lon="11.025968102629891"><ele>318.0</ele><time>2026-03-22T12:37:29.999Z</time></trkpt><trkpt lat="44.417042600823336" lon="11.025928114833103"><ele>318.0</ele><time>2026-03-22T12:37:30.999Z</time></trkpt><trkpt lat="44.41694979894116" lon="11.025874943674932"><ele>316.8</ele><time>2026-03-22T12:37:31.999Z</time></trkpt><trkpt lat="44.41685725039539" lon="11.025812169118828"><ele>315.6</ele><time>2026-03-22T12:37:32.999Z</time></trkpt><trkpt lat="44.41676187676762" lon="11.025764591881716"><ele>314.4</ele><time>2026-03-22T12:37:33.999Z</time></trkpt><trkpt lat="44.41667820906151" lon="11.025703312049938"><ele>313.2</ele><time>2026-03-22T12:37:34.999Z</time></trkpt><trkpt lat="44.41660779249355" lon="11.025645988837999"><ele>312.0</ele><time>2026-03-22T12:37:35.999Z</time></trkpt><trkpt lat="44.41653749268933" lon="11.025631047833977"><ele>312.0</ele><time>2026-03-22T12:37:36.999Z</time></trkpt><trkpt lat="44.41647379124313" lon="11.025587508360768"><ele>312.0</ele><time>2026-03-22T12:37:37.999Z</time></trkpt><trkpt lat="44.41639486740621" lon="11.025602406066652"><ele>312.0</ele><time>2026-03-22T12:37:38.999Z</time></trkpt><trkpt lat="44.416319018377315" lon="11.025703298414085"><ele>312.0</ele><time>2026-03-22T12:37:39.999Z</time></trkpt><trkpt lat="44.41628915001577" lon="11.025836066418442"><ele>312.0</ele><time>2026-03-22T12:37:40.999Z</time></trkpt><trkpt lat="44.416260560818856" lon="11.025920178457786"><ele>312.0</ele><time>2026-03-22T12:37:41.999Z</time></trkpt><trkpt lat="44.41619887522814" lon="11.026011320056886"><ele>309.6</ele><time>2026-03-22T12:37:44Z</time></trkpt><trkpt lat="44.41613671117075" lon="11.026041168356075"><ele>307.2</ele><time>2026-03-22T12:37:45.999Z</time></trkpt><trkpt lat="44.41604334174645" lon="11.026086394557774"><ele>304.8</ele><time>2026-03-22T12:37:47.999Z</time></trkpt><trkpt lat="44.41593740428755" lon="11.026138293343683"><ele>302.4</ele><time>2026-03-22T12:37:50Z</time></trkpt><trkpt lat="44.415833783511346" lon="11.026194246605774"><ele>300.0</ele><time>2026-03-22T12:37:52Z</time></trkpt><trkpt lat="44.41572567222301" lon="11.02625481684336"><ele>300.0</ele><time>2026-03-22T12:37:54Z</time></trkpt><trkpt lat="44.41564790777204" lon="11.026300788792332"><ele>300.0</ele><time>2026-03-22T12:37:55Z</time></trkpt><trkpt lat="44.41556178256462" lon="11.026371033391586"><ele>300.0</ele><time>2026-03-22T12:37:56Z</time></trkpt><trkpt lat="44.41549463708786" lon="11.02646354044737"><ele>300.0</ele><time>2026-03-22T12:37:57Z</time></trkpt><trkpt lat="44.415458744721406" lon="11.026600038912797"><ele>300.0</ele><time>2026-03-22T12:37:58Z</time></trkpt><trkpt lat="44.41547123738625" lon="11.026758985731067"><ele>300.4</ele><time>2026-03-22T12:37:59Z</time></trkpt><trkpt lat="44.41550123454888" lon="11.026919088229903"><ele>300.8</ele><time>2026-03-22T12:38:00Z</time></trkpt><trkpt lat="44.415524497680394" lon="11.02707350210938"><ele>301.2</ele><time>2026-03-22T12:38:01Z</time></trkpt><trkpt lat="44.41553761878942" lon="11.027221770854068"><ele>301.6</ele><time>2026-03-22T12:38:02Z</time></trkpt><trkpt lat="44.415535339914705" lon="11.027324872818015"><ele>302.0</ele><time>2026-03-22T12:38:03Z</time></trkpt><trkpt lat="44.41548273517221" lon="11.027435129488966"><ele>306.75</ele><time>2026-03-22T12:38:05Z</time></trkpt><trkpt lat="44.415346184272636" lon="11.02744879174554"><ele>311.5</ele><time>2026-03-22T12:38:07Z</time></trkpt><trkpt lat="44.41525013117046" lon="11.027492035934761"><ele>316.25</ele><time>2026-03-22T12:38:08Z</time></trkpt><trkpt lat="44.4151377157988" lon="11.027502645742134"><ele>321.0</ele><time>2026-03-22T12:38:09Z</time></trkpt><trkpt lat="44.415019382311456" lon="11.027552460624914"><ele>321.5</ele><time>2026-03-22T12:38:10Z</time></trkpt><trkpt lat="44.41489570410701" lon="11.027609829872777"><ele>322.0</ele><time>2026-03-22T12:38:11Z</time></trkpt><trkpt lat="44.41477854140322" lon="11.027672117862172"><ele>322.5</ele><time>2026-03-22T12:38:12Z</time></trkpt><trkpt lat="44.414680258445635" lon="11.027741814276958"><ele>323.0</ele><time>2026-03-22T12:38:13Z</time></trkpt><trkpt lat="44.41460064961084" lon="11.027825049539839"><ele>327.0</ele><time>2026-03-22T12:38:14Z</time></trkpt><trkpt lat="44.41453297715906" lon="11.027936441197085"><ele>331.0</ele><time>2026-03-22T12:38:15Z</time></trkpt><trkpt lat="44.41451479109638" lon="11.02809812246216"><ele>335.0</ele><time>2026-03-22T12:38:16Z</time></trkpt><trkpt lat="44.41447913889183" lon="11.028245847507085"><ele>339.0</ele><time>2026-03-22T12:38:17Z</time></trkpt><trkpt lat="44.41446114763752" lon="11.02836315432584"><ele>343.0</ele><time>2026-03-22T12:38:18Z</time></trkpt><trkpt lat="44.414396216846114" lon="11.028503821129844"><ele>343.0</ele><time>2026-03-22T12:38:20Z</time></trkpt><trkpt lat="44.41432739290846" lon="11.028539505752136"><ele>343.0</ele><time>2026-03-22T12:38:21Z</time></trkpt><trkpt lat="44.41423889071336" lon="11.028603872160405"><ele>343.0</ele><time>2026-03-22T12:38:22Z</time></trkpt><trkpt lat="44.414140172443815" lon="11.028681567601959"><ele>343.0</ele><time>2026-03-22T12:38:23Z</time></trkpt><trkpt lat="44.41403643048837" lon="11.028787091166436"><ele>343.0</ele><time>2026-03-22T12:38:24Z</time></trkpt><trkpt lat="44.413942511290045" lon="11.0289124345815"><ele>343.0</ele><time>2026-03-22T12:38:25Z</time></trkpt><trkpt lat="44.41386989087291" lon="11.029074122067078"><ele>343.0</ele><time>2026-03-22T12:38:26Z</time></trkpt><trkpt lat="44.41380635047131" lon="11.029213993867321"><ele>343.0</ele><time>2026-03-22T12:38:27Z</time></trkpt><trkpt lat="44.41375269844989" lon="11.029303934105469"><ele>343.0</ele><time>2026-03-22T12:38:28Z</time></trkpt><trkpt lat="44.4136702626568" lon="11.029392347176032"><ele>343.0</ele><time>2026-03-22T12:38:30Z</time></trkpt><trkpt lat="44.41353781285612" lon="11.029429838769392"><ele>345.66666666666663</ele><time>2026-03-22T12:38:32Z</time></trkpt><trkpt lat="44.41344473649731" lon="11.02947935315555"><ele>348.3333333333333</ele><time>2026-03-22T12:38:33Z</time></trkpt><trkpt lat="44.41336254116098" lon="11.029508969314103"><ele>351.0</ele><time>2026-03-22T12:38:34Z</time></trkpt><trkpt lat="44.41330810514718" lon="11.029566203385812"><ele>353.6666666666667</ele><time>2026-03-22T12:38:35Z</time></trkpt><trkpt lat="44.41327582817778" lon="11.029654993339884"><ele>356.33333333333337</ele><time>2026-03-22T12:38:36Z</time></trkpt><trkpt lat="44.413216089239846" lon="11.029742735260262"><ele>359.0</ele><time>2026-03-22T12:38:37Z</time></trkpt><trkpt lat="44.41316657094522" lon="11.029854650727534"><ele>359.0</ele><time>2026-03-22T12:38:38Z</time></trkpt><trkpt lat="44.41312086621926" lon="11.029946735500284"><ele>359.0</ele><time>2026-03-22T12:38:39Z</time></trkpt><trkpt lat="44.41306011353536" lon="11.029984647600653"><ele>359.0</ele><time>2026-03-22T12:38:40Z</time></trkpt><trkpt lat="44.41298906761814" lon="11.029986719298659"><ele>359.0</ele><time>2026-03-22T12:38:41Z</time></trkpt><trkpt lat="44.41290795979358" lon="11.029987296824258"><ele>359.0</ele><time>2026-03-22T12:38:42Z</time></trkpt><trkpt lat="44.41283878331018" lon="11.029974779143227"><ele>359.0</ele><time>2026-03-22T12:38:43Z</time></trkpt><trkpt lat="44.41276078222231" lon="11.029958839794714"><ele>359.0</ele><time>2026-03-22T12:38:45Z</time></trkpt><trkpt lat="44.41266260560214" lon="11.030132879464572"><ele>360.6</ele><time>2026-03-22T12:38:47Z</time></trkpt><trkpt lat="44.412635341877746" lon="11.030256782794616"><ele>362.2</ele><time>2026-03-22T12:38:48Z</time></trkpt><trkpt lat="44.412611140863405" lon="11.030399333604443"><ele>363.8</ele><time>2026-03-22T12:38:49Z</time></trkpt><trkpt lat="44.41259857989299" lon="11.030551393386913"><ele>365.40000000000003</ele><time>2026-03-22T12:38:50Z</time></trkpt><trkpt lat="44.41261340550185" lon="11.030710579859742"><ele>367.0</ele><time>2026-03-22T12:38:51Z</time></trkpt><trkpt lat="44.412677873152134" lon="11.030864828162883"><ele>367.0</ele><time>2026-03-22T12:38:52Z</time></trkpt><trkpt lat="44.412714833545415" lon="11.031064271377796"><ele>367.0</ele><time>2026-03-22T12:38:53Z</time></trkpt><trkpt lat="44.412768461036855" lon="11.031268020121198"><ele>367.0</ele><time>2026-03-22T12:38:54Z</time></trkpt><trkpt lat="44.41283227983465" lon="11.031487670267005"><ele>362.66666666666663</ele><time>2026-03-22T12:38:55Z</time></trkpt><trkpt lat="44.41291830185247" lon="11.031687518908747"><ele>358.3333333333333</ele><time>2026-03-22T12:38:56Z</time></trkpt><trkpt lat="44.41297882161002" lon="11.031881247149482"><ele>354.0</ele><time>2026-03-22T12:38:57Z</time></trkpt><trkpt lat="44.41305083264365" lon="11.032059640490786"><ele>353.25</ele><time>2026-03-22T12:38:58Z</time></trkpt><trkpt lat="44.41312349793182" lon="11.032235242263548"><ele>352.5</ele><time>2026-03-22T12:38:59Z</time></trkpt><trkpt lat="44.41318944305263" lon="11.032401484464506"><ele>351.75</ele><time>2026-03-22T12:39:00Z</time></trkpt><trkpt lat="44.41325378552545" lon="11.032562077088443"><ele>351.0</ele><time>2026-03-22T12:39:01Z</time></trkpt><trkpt lat="44.41332616073286" lon="11.03269142742897"><ele>350.75</ele><time>2026-03-22T12:39:01.999Z</time></trkpt><trkpt lat="44.41339531545323" lon="11.032816182080685"><ele>350.5</ele><time>2026-03-22T12:39:02.999Z</time></trkpt><trkpt lat="44.41348339319456" lon="11.03291175200421"><ele>350.25</ele><time>2026-03-22T12:39:03.999Z</time></trkpt><trkpt lat="44.413582867013744" lon="11.032976248541212"><ele>350.0</ele><time>2026-03-22T12:39:04.999Z</time></trkpt><trkpt lat="44.4137017400535" lon="11.033014101275219"><ele>346.5</ele><time>2026-03-22T12:39:05.999Z</time></trkpt><trkpt lat="44.41382352407081" lon="11.033031245206603"><ele>343.0</ele><time>2026-03-22T12:39:06.999Z</time></trkpt><trkpt lat="44.413943770831786" lon="11.03306419717445"><ele>339.5</ele><time>2026-03-22T12:39:07.999Z</time></trkpt><trkpt lat="44.41406148259935" lon="11.03312475553929"><ele>336.0</ele><time>2026-03-22T12:39:08.999Z</time></trkpt><trkpt lat="44.41417949582266" lon="11.033217022763122"><ele>337.0</ele><time>2026-03-22T12:39:09.999Z</time></trkpt><trkpt lat="44.4142886316183" lon="11.033357335115639"><ele>338.0</ele><time>2026-03-22T12:39:10.999Z</time></trkpt><trkpt lat="44.41440886917254" lon="11.033516724038668"><ele>339.0</ele><time>2026-03-22T12:39:11.999Z</time></trkpt><trkpt lat="44.41454650063619" lon="11.033677454820713"><ele>336.6666666666667</ele><time>2026-03-22T12:39:12.999Z</time></trkpt><trkpt lat="44.414674937130286" lon="11.033866343412358"><ele>334.33333333333337</ele><time>2026-03-22T12:39:13.999Z</time></trkpt><trkpt lat="44.414793951397584" lon="11.03403981836805"><ele>332.0</ele><time>2026-03-22T12:39:14.999Z</time></trkpt><trkpt lat="44.414908004620685" lon="11.034205391216261"><ele>332.0</ele><time>2026-03-22T12:39:15.999Z</time></trkpt><trkpt lat="44.41501768184182" lon="11.034366703110408"><ele>332.0</ele><time>2026-03-22T12:39:16.999Z</time></trkpt><trkpt lat="44.41513191759149" lon="11.034525563050027"><ele>332.0</ele><time>2026-03-22T12:39:17.999Z</time></trkpt><trkpt lat="44.4152465214454" lon="11.03468554777102"><ele>332.0</ele><time>2026-03-22T12:39:18.999Z</time></trkpt><trkpt lat="44.415351903361326" lon="11.034838570791354"><ele>332.0</ele><time>2026-03-22T12:39:19.999Z</time></trkpt><trkpt lat="44.4154524315456" lon="11.034983006796226"><ele>332.0</ele><time>2026-03-22T12:39:20.999Z</time></trkpt><trkpt lat="44.4155519388136" lon="11.035114663096"><ele>332.0</ele><time>2026-03-22T12:39:21.999Z</time></trkpt><trkpt lat="44.41563265832262" lon="11.035281348622847"><ele>329.5</ele><time>2026-03-22T12:39:22.999Z</time></trkpt><trkpt lat="44.415706708915096" lon="11.03543743888331"><ele>327.0</ele><time>2026-03-22T12:39:23.999Z</time></trkpt><trkpt lat="44.415766038146124" lon="11.035605123134966"><ele>324.5</ele><time>2026-03-22T12:39:24.999Z</time></trkpt><trkpt lat="44.41583078727188" lon="11.035793046206278"><ele>322.0</ele><time>2026-03-22T12:39:25.999Z</time></trkpt><trkpt lat="44.415903557419355" lon="11.035964889743761"><ele>322.0</ele><time>2026-03-22T12:39:26.999Z</time></trkpt><trkpt lat="44.41596004239804" lon="11.036135081857404"><ele>322.0</ele><time>2026-03-22T12:39:27.999Z</time></trkpt><trkpt lat="44.41602246770311" lon="11.036292237460259"><ele>322.0</ele><time>2026-03-22T12:39:28.999Z</time></trkpt><trkpt lat="44.416092738733056" lon="11.036437974356737"><ele>322.0</ele><time>2026-03-22T12:39:29.999Z</time></trkpt><trkpt lat="44.41617570211466" lon="11.03656457886697"><ele>322.40000000000003</ele><time>2026-03-22T12:39:30.999Z</time></trkpt><trkpt lat="44.41626137687127" lon="11.036677033770246"><ele>322.8</ele><time>2026-03-22T12:39:31.999Z</time></trkpt><trkpt lat="44.416339317688895" lon="11.0367726471362"><ele>323.2</ele><time>2026-03-22T12:39:32.999Z</time></trkpt><trkpt lat="44.4163998130596" lon="11.036853509300496"><ele>323.6</ele><time>2026-03-22T12:39:33.999Z</time></trkpt><trkpt lat="44.41643672734915" lon="11.036940394277861"><ele>324.0</ele><time>2026-03-22T12:39:34.999Z</time></trkpt><trkpt lat="44.416424129002586" lon="11.037043622950206"><ele>324.0</ele><time>2026-03-22T12:39:35.999Z</time></trkpt><trkpt lat="44.41636678705595" lon="11.037160531683426"><ele>324.0</ele><time>2026-03-22T12:39:37.999Z</time></trkpt><trkpt lat="44.41630315923823" lon="11.037159366428101"><ele>324.0</ele><time>2026-03-22T12:39:38.999Z</time></trkpt><trkpt lat="44.41622379601526" lon="11.037092623424828"><ele>324.0</ele><time>2026-03-22T12:39:39.999Z</time></trkpt><trkpt lat="44.416148400511226" lon="11.036990156736875"><ele>324.0</ele><time>2026-03-22T12:39:40.999Z</time></trkpt><trkpt lat="44.41606414049304" lon="11.036850280679776"><ele>323.5</ele><time>2026-03-22T12:39:41.999Z</time></trkpt><trkpt lat="44.415973480404155" lon="11.03669522526098"><ele>323.0</ele><time>2026-03-22T12:39:42.999Z</time></trkpt><trkpt lat="44.41587463435688" lon="11.036538793833945"><ele>322.5</ele><time>2026-03-22T12:39:43.999Z</time></trkpt><trkpt lat="44.41578764437327" lon="11.036398247524689"><ele>322.0</ele><time>2026-03-22T12:39:44.999Z</time></trkpt><trkpt lat="44.415709328864885" lon="11.036269785335291"><ele>322.0</ele><time>2026-03-22T12:39:45.999Z</time></trkpt><trkpt lat="44.41562824384345" lon="11.036156034839657"><ele>322.0</ele><time>2026-03-22T12:39:46.999Z</time></trkpt><trkpt lat="44.41553697552519" lon="11.036072052102435"><ele>322.0</ele><time>2026-03-22T12:39:47.999Z</time></trkpt><trkpt lat="44.4154274190004" lon="11.03603767933544"><ele>322.0</ele><time>2026-03-22T12:39:48.999Z</time></trkpt><trkpt lat="44.415306572247246" lon="11.03603574117226"><ele>320.5</ele><time>2026-03-22T12:39:49.999Z</time></trkpt><trkpt lat="44.41517787660539" lon="11.036094897221984"><ele>319.0</ele><time>2026-03-22T12:39:50.999Z</time></trkpt><trkpt lat="44.41505348796582" lon="11.036162301765268"><ele>317.5</ele><time>2026-03-22T12:39:51.999Z</time></trkpt><trkpt lat="44.41494785530798" lon="11.036216131142792"><ele>316.0</ele><time>2026-03-22T12:39:52.999Z</time></trkpt><trkpt lat="44.414843856328424" lon="11.036238101879228"><ele>316.0</ele><time>2026-03-22T12:39:53.999Z</time></trkpt><trkpt lat="44.41473143202886" lon="11.036221080843028"><ele>316.0</ele><time>2026-03-22T12:39:54.999Z</time></trkpt><trkpt lat="44.41459478606549" lon="11.03617155980985"><ele>316.0</ele><time>2026-03-22T12:39:56Z</time></trkpt><trkpt lat="44.41444662907853" lon="11.036111257677703"><ele>316.0</ele><time>2026-03-22T12:39:57Z</time></trkpt><trkpt lat="44.41431995414638" lon="11.036025892969096"><ele>313.25</ele><time>2026-03-22T12:39:58Z</time></trkpt><trkpt lat="44.41419963299302" lon="11.03596392825598"><ele>310.5</ele><time>2026-03-22T12:39:59Z</time></trkpt><trkpt lat="44.41406293855785" lon="11.035926560277897"><ele>307.75</ele><time>2026-03-22T12:40:00Z</time></trkpt><trkpt lat="44.41392108073405" lon="11.035908791711853"><ele>305.0</ele><time>2026-03-22T12:40:01Z</time></trkpt><trkpt lat="44.41379335469485" lon="11.035887350834088"><ele>306.0</ele><time>2026-03-22T12:40:02Z</time></trkpt><trkpt lat="44.41367336378089" lon="11.035863379259446"><ele>307.0</ele><time>2026-03-22T12:40:03Z</time></trkpt><trkpt lat="44.41355817793998" lon="11.035815861550152"><ele>308.0</ele><time>2026-03-22T12:40:04Z</time></trkpt><trkpt lat="44.41341777562686" lon="11.03579855467581"><ele>309.0</ele><time>2026-03-22T12:40:05Z</time></trkpt><trkpt lat="44.413262276867755" lon="11.035816612734612"><ele>305.6666666666667</ele><time>2026-03-22T12:40:06Z</time></trkpt><trkpt lat="44.4131137788756" lon="11.035871892054846"><ele>302.33333333333337</ele><time>2026-03-22T12:40:07Z</time></trkpt><trkpt lat="44.41295003746715" lon="11.035939806949363"><ele>299.0</ele><time>2026-03-22T12:40:08Z</time></trkpt><trkpt lat="44.412788842382035" lon="11.036005805213263"><ele>297.6666666666667</ele><time>2026-03-22T12:40:09Z</time></trkpt><trkpt lat="44.412631380265594" lon="11.036066072345399"><ele>296.3333333333333</ele><time>2026-03-22T12:40:10Z</time></trkpt><trkpt lat="44.412485908393" lon="11.036109087631592"><ele>295.0</ele><time>2026-03-22T12:40:11Z</time></trkpt><trkpt lat="44.412343169846814" lon="11.03614746772911"><ele>295.0</ele><time>2026-03-22T12:40:12Z</time></trkpt><trkpt lat="44.4122037425862" lon="11.036181384677858"><ele>295.0</ele><time>2026-03-22T12:40:13Z</time></trkpt><trkpt lat="44.41207140875797" lon="11.0362088670018"><ele>295.0</ele><time>2026-03-22T12:40:14Z</time></trkpt><trkpt lat="44.41193000945527" lon="11.036226071067375"><ele>295.0</ele><time>2026-03-22T12:40:15Z</time></trkpt><trkpt lat="44.41179582060861" lon="11.036260416701477"><ele>294.5</ele><time>2026-03-22T12:40:16Z</time></trkpt><trkpt lat="44.4116697744328" lon="11.036284185793725"><ele>294.0</ele><time>2026-03-22T12:40:17Z</time></trkpt><trkpt lat="44.4115338590939" lon="11.03628810197313"><ele>293.5</ele><time>2026-03-22T12:40:18Z</time></trkpt><trkpt lat="44.41139845660058" lon="11.036273805677018"><ele>293.0</ele><time>2026-03-22T12:40:19Z</time></trkpt><trkpt lat="44.41126845907533" lon="11.036254248240427"><ele>291.25</ele><time>2026-03-22T12:40:20Z</time></trkpt><trkpt lat="44.41114267277416" lon="11.036244006811925"><ele>289.5</ele><time>2026-03-22T12:40:21Z</time></trkpt><trkpt lat="44.41101985097833" lon="11.036236813614789"><ele>287.75</ele><time>2026-03-22T12:40:22Z</time></trkpt><trkpt lat="44.41090412963105" lon="11.03623003626039"><ele>286.0</ele><time>2026-03-22T12:40:23Z</time></trkpt><trkpt lat="44.410789851619654" lon="11.03621901498605"><ele>286.0</ele><time>2026-03-22T12:40:24Z</time></trkpt><trkpt lat="44.41067954518596" lon="11.036195931478678"><ele>286.0</ele><time>2026-03-22T12:40:25Z</time></trkpt><trkpt lat="44.41056789264165" lon="11.036184055061552"><ele>286.0</ele><time>2026-03-22T12:40:26Z</time></trkpt><trkpt lat="44.410470582368994" lon="11.036137252155598"><ele>286.0</ele><time>2026-03-22T12:40:27Z</time></trkpt><trkpt lat="44.41037755142968" lon="11.036111209752685"><ele>286.0</ele><time>2026-03-22T12:40:28Z</time></trkpt><trkpt lat="44.41027995071727" lon="11.036111068545349"><ele>284.8</ele><time>2026-03-22T12:40:29Z</time></trkpt><trkpt lat="44.41019296166885" lon="11.03619759642205"><ele>283.6</ele><time>2026-03-22T12:40:30Z</time></trkpt><trkpt lat="44.41014272332866" lon="11.036309542972234"><ele>282.4</ele><time>2026-03-22T12:40:31Z</time></trkpt><trkpt lat="44.41012264699877" lon="11.036428156751947"><ele>281.2</ele><time>2026-03-22T12:40:32Z</time></trkpt><trkpt lat="44.410147152090985" lon="11.03654963985761"><ele>280.0</ele><time>2026-03-22T12:40:33Z</time></trkpt><trkpt lat="44.4102579659766" lon="11.036644708146627"><ele>279.0</ele><time>2026-03-22T12:40:34Z</time></trkpt><trkpt lat="44.410342592475374" lon="11.036773214724548"><ele>278.0</ele><time>2026-03-22T12:40:35Z</time></trkpt><trkpt lat="44.41043094337624" lon="11.036908889702808"><ele>277.0</ele><time>2026-03-22T12:40:36Z</time></trkpt><trkpt lat="44.41053541559004" lon="11.037038430206886"><ele>276.0</ele><time>2026-03-22T12:40:37Z</time></trkpt><trkpt lat="44.41064768802157" lon="11.037145923595695"><ele>276.0</ele><time>2026-03-22T12:40:38Z</time></trkpt><trkpt lat="44.410755412142656" lon="11.0372491449006"><ele>276.0</ele><time>2026-03-22T12:40:39Z</time></trkpt><trkpt lat="44.410858393621915" lon="11.037351069124055"><ele>276.0</ele><time>2026-03-22T12:40:40Z</time></trkpt><trkpt lat="44.41095966266993" lon="11.037450596495344"><ele>276.0</ele><time>2026-03-22T12:40:41Z</time></trkpt><trkpt lat="44.411052760528236" lon="11.037548470842845"><ele>273.6</ele><time>2026-03-22T12:40:42Z</time></trkpt><trkpt lat="44.41112425005988" lon="11.037667885424963"><ele>271.20000000000005</ele><time>2026-03-22T12:40:43Z</time></trkpt><trkpt lat="44.4111308079215" lon="11.037822196679548"><ele>268.79999999999995</ele><time>2026-03-22T12:40:44Z</time></trkpt><trkpt lat="44.41115312448461" lon="11.03796738392593"><ele>266.4</ele><time>2026-03-22T12:40:45Z</time></trkpt><trkpt lat="44.41115870805134" lon="11.038122611869822"><ele>264.0</ele><time>2026-03-22T12:40:46Z</time></trkpt><trkpt lat="44.411154046714856" lon="11.03828707995769"><ele>262.8</ele><time>2026-03-22T12:40:47Z</time></trkpt><trkpt lat="44.41113676241074" lon="11.038442688848633"><ele>261.59999999999997</ele><time>2026-03-22T12:40:48Z</time></trkpt><trkpt lat="44.411117527681725" lon="11.038593069676892"><ele>260.4</ele><time>2026-03-22T12:40:49Z</time></trkpt><trkpt lat="44.411098608418804" lon="11.038741920813637"><ele>259.2</ele><time>2026-03-22T12:40:50Z</time></trkpt><trkpt lat="44.41108335581476" lon="11.038882973633322"><ele>258.0</ele><time>2026-03-22T12:40:51Z</time></trkpt><trkpt lat="44.41107845204609" lon="11.039029426699685"><ele>257.25</ele><time>2026-03-22T12:40:52Z</time></trkpt><trkpt lat="44.411096599492154" lon="11.03919362305493"><ele>256.5</ele><time>2026-03-22T12:40:53Z</time></trkpt><trkpt lat="44.411155600254034" lon="11.039349664502202"><ele>255.75</ele><time>2026-03-22T12:40:53.999Z</time></trkpt><trkpt lat="44.411212209869305" lon="11.039496701566067"><ele>255.0</ele><time>2026-03-22T12:40:54.999Z</time></trkpt><trkpt lat="44.4112843100107" lon="11.03962905874056"><ele>256.0</ele><time>2026-03-22T12:40:55.999Z</time></trkpt><trkpt lat="44.411382533218465" lon="11.039759930451227"><ele>257.0</ele><time>2026-03-22T12:40:56.999Z</time></trkpt><trkpt lat="44.41150474776925" lon="11.03988693913751"><ele>258.0</ele><time>2026-03-22T12:40:57.999Z</time></trkpt><trkpt lat="44.41163092047166" lon="11.04001730809908"><ele>259.0</ele><time>2026-03-22T12:40:58.999Z</time></trkpt><trkpt lat="44.41176019118459" lon="11.040149825729413"><ele>256.3333333333333</ele><time>2026-03-22T12:40:59.999Z</time></trkpt><trkpt lat="44.41190322298073" lon="11.040292857270328"><ele>253.66666666666669</ele><time>2026-03-22T12:41:00.999Z</time></trkpt><trkpt lat="44.41205566438786" lon="11.040444943182045"><ele>251.0</ele><time>2026-03-22T12:41:01.999Z</time></trkpt><trkpt lat="44.412215496090376" lon="11.0406014458112"><ele>251.0</ele><time>2026-03-22T12:41:02.999Z</time></trkpt><trkpt lat="44.412355527997875" lon="11.040744237418602"><ele>251.0</ele><time>2026-03-22T12:41:03.999Z</time></trkpt><trkpt lat="44.41249634434192" lon="11.040893199075114"><ele>251.0</ele><time>2026-03-22T12:41:04.999Z</time></trkpt><trkpt lat="44.4126488878948" lon="11.04104569793683"><ele>249.33333333333334</ele><time>2026-03-22T12:41:05.999Z</time></trkpt><trkpt lat="44.41279037815034" lon="11.041188451586558"><ele>247.66666666666669</ele><time>2026-03-22T12:41:06.999Z</time></trkpt><trkpt lat="44.412933390499475" lon="11.041338331338265"><ele>246.0</ele><time>2026-03-22T12:41:07.999Z</time></trkpt><trkpt lat="44.41308572075375" lon="11.041497700304586"><ele>244.0</ele><time>2026-03-22T12:41:08.999Z</time></trkpt><trkpt lat="44.41322329705981" lon="11.041639512806617"><ele>242.0</ele><time>2026-03-22T12:41:09.999Z</time></trkpt><trkpt lat="44.413357174394434" lon="11.041779845414366"><ele>240.0</ele><time>2026-03-22T12:41:10.999Z</time></trkpt><trkpt lat="44.41349913490475" lon="11.041933476650732"><ele>240.0</ele><time>2026-03-22T12:41:11.999Z</time></trkpt><trkpt lat="44.4136411528286" lon="11.042082093871182"><ele>240.0</ele><time>2026-03-22T12:41:12.999Z</time></trkpt><trkpt lat="44.41377569826939" lon="11.042230318039923"><ele>240.0</ele><time>2026-03-22T12:41:13.999Z</time></trkpt><trkpt lat="44.4139058793218" lon="11.04237799452807"><ele>240.66666666666669</ele><time>2026-03-22T12:41:14.999Z</time></trkpt><trkpt lat="44.414027772368385" lon="11.042562551515271"><ele>241.33333333333334</ele><time>2026-03-22T12:41:15.999Z</time></trkpt><trkpt lat="44.414157541965565" lon="11.04276192234663"><ele>242.0</ele><time>2026-03-22T12:41:16.999Z</time></trkpt><trkpt lat="44.41428971042232" lon="11.042968661648818"><ele>242.0</ele><time>2026-03-22T12:41:17.999Z</time></trkpt><trkpt lat="44.41443003832204" lon="11.043156638856503"><ele>242.0</ele><time>2026-03-22T12:41:18.999Z</time></trkpt><trkpt lat="44.41456388900266" lon="11.043368578679972"><ele>242.0</ele><time>2026-03-22T12:41:19.999Z</time></trkpt><trkpt lat="44.414694685416364" lon="11.04360582314281"><ele>241.66666666666669</ele><time>2026-03-22T12:41:20.999Z</time></trkpt><trkpt lat="44.41483207972244" lon="11.043821089847645"><ele>241.33333333333331</ele><time>2026-03-22T12:41:21.999Z</time></trkpt><trkpt lat="44.41497796029641" lon="11.044015996248323"><ele>241.0</ele><time>2026-03-22T12:41:22.999Z</time></trkpt><trkpt lat="44.41510969115075" lon="11.044223185324613"><ele>241.0</ele><time>2026-03-22T12:41:23.999Z</time></trkpt><trkpt lat="44.41523488738511" lon="11.044452165494437"><ele>241.0</ele><time>2026-03-22T12:41:24.999Z</time></trkpt><trkpt lat="44.41537456912524" lon="11.044671001514468"><ele>241.0</ele><time>2026-03-22T12:41:25.999Z</time></trkpt><trkpt lat="44.41552520208732" lon="11.044906995486745"><ele>238.66666666666666</ele><time>2026-03-22T12:41:26.999Z</time></trkpt><trkpt lat="44.41568497996365" lon="11.045122623795327"><ele>236.33333333333331</ele><time>2026-03-22T12:41:27.999Z</time></trkpt><trkpt lat="44.415807227942395" lon="11.045348840652961"><ele>234.0</ele><time>2026-03-22T12:41:28.999Z</time></trkpt><trkpt lat="44.415929575117595" lon="11.04554051948857"><ele>234.0</ele><time>2026-03-22T12:41:29.999Z</time></trkpt><trkpt lat="44.41604439063735" lon="11.04572039855939"><ele>234.0</ele><time>2026-03-22T12:41:30.999Z</time></trkpt><trkpt lat="44.41615785896914" lon="11.04589816707894"><ele>234.0</ele><time>2026-03-22T12:41:31.999Z</time></trkpt><trkpt lat="44.41627549936376" lon="11.046083373328118"><ele>234.0</ele><time>2026-03-22T12:41:32.999Z</time></trkpt><trkpt lat="44.416386064736166" lon="11.046258353128245"><ele>234.0</ele><time>2026-03-22T12:41:33.999Z</time></trkpt><trkpt lat="44.41649560244384" lon="11.04642843603382"><ele>234.0</ele><time>2026-03-22T12:41:34.999Z</time></trkpt><trkpt lat="44.41660204253936" lon="11.046592840773275"><ele>233.33333333333331</ele><time>2026-03-22T12:41:35.999Z</time></trkpt><trkpt lat="44.416702145820544" lon="11.046759490437463"><ele>232.66666666666666</ele><time>2026-03-22T12:41:36.999Z</time></trkpt><trkpt lat="44.41678547195389" lon="11.046929030485172"><ele>232.0</ele><time>2026-03-22T12:41:37.999Z</time></trkpt><trkpt lat="44.41684903016025" lon="11.04712544167426"><ele>232.0</ele><time>2026-03-22T12:41:38.999Z</time></trkpt><trkpt lat="44.41690671022991" lon="11.047343000616507"><ele>232.0</ele><time>2026-03-22T12:41:39.999Z</time></trkpt><trkpt lat="44.41696603653335" lon="11.047557670229319"><ele>232.0</ele><time>2026-03-22T12:41:40.999Z</time></trkpt><trkpt lat="44.41703774155806" lon="11.047790179368763"><ele>232.0</ele><time>2026-03-22T12:41:41.999Z</time></trkpt><trkpt lat="44.41711233791202" lon="11.048017242922356"><ele>232.0</ele><time>2026-03-22T12:41:42.999Z</time></trkpt><trkpt lat="44.41717951054829" lon="11.048229401994046"><ele>232.0</ele><time>2026-03-22T12:41:43.999Z</time></trkpt><trkpt lat="44.4172415656976" lon="11.04843024359866"><ele>231.33333333333331</ele><time>2026-03-22T12:41:44.999Z</time></trkpt><trkpt lat="44.41730931679811" lon="11.048650769425322"><ele>230.66666666666669</ele><time>2026-03-22T12:41:45.999Z</time></trkpt><trkpt lat="44.417381533258265" lon="11.048880462468848"><ele>230.0</ele><time>2026-03-22T12:41:46.999Z</time></trkpt><trkpt lat="44.41745780680509" lon="11.049120069551591"><ele>228.66666666666669</ele><time>2026-03-22T12:41:47.999Z</time></trkpt><trkpt lat="44.41753086338109" lon="11.049345341773813"><ele>227.33333333333331</ele><time>2026-03-22T12:41:48.999Z</time></trkpt><trkpt lat="44.41761024038643" lon="11.049580686815759"><ele>226.0</ele><time>2026-03-22T12:41:49.999Z</time></trkpt><trkpt lat="44.41769426455755" lon="11.049823486107375"><ele>224.33333333333331</ele><time>2026-03-22T12:41:50.999Z</time></trkpt><trkpt lat="44.41777702644753" lon="11.050059295715075"><ele>222.66666666666669</ele><time>2026-03-22T12:41:51.999Z</time></trkpt><trkpt lat="44.417853117772665" lon="11.0502760997975"><ele>221.0</ele><time>2026-03-22T12:41:52.999Z</time></trkpt><trkpt lat="44.41792761150715" lon="11.050482286680692"><ele>221.66666666666669</ele><time>2026-03-22T12:41:53.999Z</time></trkpt><trkpt lat="44.4180032524969" lon="11.050690783533787"><ele>222.33333333333331</ele><time>2026-03-22T12:41:54.999Z</time></trkpt><trkpt lat="44.418080174287994" lon="11.050900500299646"><ele>223.0</ele><time>2026-03-22T12:41:55.999Z</time></trkpt><trkpt lat="44.41814760375962" lon="11.051089784078197"><ele>223.25</ele><time>2026-03-22T12:41:56.999Z</time></trkpt><trkpt lat="44.41821273672659" lon="11.051272621159715"><ele>223.5</ele><time>2026-03-22T12:41:57.999Z</time></trkpt><trkpt lat="44.41827806838173" lon="11.05145589716209"><ele>223.75</ele><time>2026-03-22T12:41:58.999Z</time></trkpt><trkpt lat="44.41834866693284" lon="11.051649198794898"><ele>224.0</ele><time>2026-03-22T12:41:59.999Z</time></trkpt><trkpt lat="44.41843069559027" lon="11.051812882793778"><ele>223.25</ele><time>2026-03-22T12:42:00.999Z</time></trkpt><trkpt lat="44.41850167052699" lon="11.051972627372292"><ele>222.5</ele><time>2026-03-22T12:42:02Z</time></trkpt><trkpt lat="44.418578201804486" lon="11.05214936839513"><ele>221.75</ele><time>2026-03-22T12:42:03Z</time></trkpt><trkpt lat="44.41868347854987" lon="11.052323926322886"><ele>221.0</ele><time>2026-03-22T12:42:04Z</time></trkpt><trkpt lat="44.41879129724392" lon="11.05249923793809"><ele>220.0</ele><time>2026-03-22T12:42:05Z</time></trkpt><trkpt lat="44.4189093109012" lon="11.052658991401861"><ele>219.0</ele><time>2026-03-22T12:42:06Z</time></trkpt><trkpt lat="44.41901234456817" lon="11.052827830663475"><ele>218.0</ele><time>2026-03-22T12:42:07Z</time></trkpt><trkpt lat="44.41911875623004" lon="11.052996554108354"><ele>218.0</ele><time>2026-03-22T12:42:08Z</time></trkpt><trkpt lat="44.41922433446192" lon="11.053164258116457"><ele>218.0</ele><time>2026-03-22T12:42:09Z</time></trkpt><trkpt lat="44.41932404999386" lon="11.053326565528138"><ele>218.0</ele><time>2026-03-22T12:42:10Z</time></trkpt><trkpt lat="44.41941515653497" lon="11.053478995877597"><ele>217.66666666666669</ele><time>2026-03-22T12:42:11Z</time></trkpt><trkpt lat="44.4195118737508" lon="11.053622171438022"><ele>217.33333333333331</ele><time>2026-03-22T12:42:12Z</time></trkpt><trkpt lat="44.419626398146114" lon="11.053767445288301"><ele>217.0</ele><time>2026-03-22T12:42:13Z</time></trkpt><trkpt lat="44.41975797902389" lon="11.053908341214974"><ele>216.75</ele><time>2026-03-22T12:42:14Z</time></trkpt><trkpt lat="44.41988829801914" lon="11.054039861077761"><ele>216.5</ele><time>2026-03-22T12:42:15Z</time></trkpt><trkpt lat="44.42000735948081" lon="11.054151260387862"><ele>216.25</ele><time>2026-03-22T12:42:16Z</time></trkpt><trkpt lat="44.42012115482108" lon="11.054253094271665"><ele>216.0</ele><time>2026-03-22T12:42:17Z</time></trkpt><trkpt lat="44.42023140077491" lon="11.054352855679298"><ele>216.0</ele><time>2026-03-22T12:42:18Z</time></trkpt><trkpt lat="44.42035447562346" lon="11.054466256827254"><ele>216.0</ele><time>2026-03-22T12:42:19Z</time></trkpt><trkpt lat="44.42048963426744" lon="11.054589794176563"><ele>216.0</ele><time>2026-03-22T12:42:20Z</time></trkpt><trkpt lat="44.42061823277816" lon="11.054719100924752"><ele>215.75</ele><time>2026-03-22T12:42:21Z</time></trkpt><trkpt lat="44.42073125196083" lon="11.054829351613659"><ele>215.5</ele><time>2026-03-22T12:42:22Z</time></trkpt><trkpt lat="44.4208404003126" lon="11.054925111782124"><ele>215.25</ele><time>2026-03-22T12:42:23Z</time></trkpt><trkpt lat="44.42094470588584" lon="11.055028949298245"><ele>215.0</ele><time>2026-03-22T12:42:24Z</time></trkpt><trkpt lat="44.421035397566065" lon="11.055172336889056"><ele>215.0</ele><time>2026-03-22T12:42:25Z</time></trkpt><trkpt lat="44.421133870226406" lon="11.055335165777096"><ele>215.0</ele><time>2026-03-22T12:42:26Z</time></trkpt><trkpt lat="44.42122339564135" lon="11.055523189021129"><ele>215.0</ele><time>2026-03-22T12:42:27Z</time></trkpt><trkpt lat="44.42131045657862" lon="11.055709254148944"><ele>213.33333333333334</ele><time>2026-03-22T12:42:28Z</time></trkpt><trkpt lat="44.421404854961295" lon="11.055903094424416"><ele>211.66666666666669</ele><time>2026-03-22T12:42:29Z</time></trkpt><trkpt lat="44.4215135209595" lon="11.056089134694476"><ele>210.0</ele><time>2026-03-22T12:42:30Z</time></trkpt><trkpt lat="44.4216558661582" lon="11.056254298518388"><ele>210.0</ele><time>2026-03-22T12:42:31Z</time></trkpt><trkpt lat="44.421804763012" lon="11.056416752886607"><ele>210.0</ele><time>2026-03-22T12:42:32Z</time></trkpt><trkpt lat="44.42195831241127" lon="11.056585187700067"><ele>210.0</ele><time>2026-03-22T12:42:33Z</time></trkpt><trkpt lat="44.42209339963129" lon="11.056741538045575"><ele>210.33333333333331</ele><time>2026-03-22T12:42:34Z</time></trkpt><trkpt lat="44.42222215967638" lon="11.056887612523148"><ele>210.66666666666666</ele><time>2026-03-22T12:42:35Z</time></trkpt><trkpt lat="44.422355163679384" lon="11.057043312888316"><ele>211.0</ele><time>2026-03-22T12:42:36Z</time></trkpt><trkpt lat="44.42249261363371" lon="11.05720236308988"><ele>211.0</ele><time>2026-03-22T12:42:37Z</time></trkpt><trkpt lat="44.42263289668448" lon="11.057358072367455"><ele>211.0</ele><time>2026-03-22T12:42:38Z</time></trkpt><trkpt lat="44.42276031573649" lon="11.057529415579195"><ele>211.0</ele><time>2026-03-22T12:42:39Z</time></trkpt><trkpt lat="44.42289679813026" lon="11.057683975385505"><ele>209.66666666666666</ele><time>2026-03-22T12:42:40Z</time></trkpt><trkpt lat="44.423042923892886" lon="11.057849837009567"><ele>208.33333333333331</ele><time>2026-03-22T12:42:41Z</time></trkpt><trkpt lat="44.42318565547891" lon="11.05801214696363"><ele>207.0</ele><time>2026-03-22T12:42:42Z</time></trkpt><trkpt lat="44.423316482586856" lon="11.058160919469865"><ele>207.0</ele><time>2026-03-22T12:42:43Z</time></trkpt><trkpt lat="44.42344552853871" lon="11.058278542969832"><ele>207.0</ele><time>2026-03-22T12:42:44Z</time></trkpt><trkpt lat="44.42355560148836" lon="11.05840589257857"><ele>207.0</ele><time>2026-03-22T12:42:45Z</time></trkpt><trkpt lat="44.42366048286443" lon="11.058528053537994"><ele>207.0</ele><time>2026-03-22T12:42:46Z</time></trkpt><trkpt lat="44.423760192915104" lon="11.058645446446782"><ele>207.0</ele><time>2026-03-22T12:42:47Z</time></trkpt><trkpt lat="44.423856000887" lon="11.058751157908617"><ele>207.0</ele><time>2026-03-22T12:42:48Z</time></trkpt><trkpt lat="44.42395434835607" lon="11.058834125200278"><ele>207.0</ele><time>2026-03-22T12:42:49Z</time></trkpt><trkpt lat="44.424066503795956" lon="11.058872292171454"><ele>207.0</ele><time>2026-03-22T12:42:50Z</time></trkpt><trkpt lat="44.42419224912729" lon="11.058868406910383"><ele>207.0</ele><time>2026-03-22T12:42:51Z</time></trkpt><trkpt lat="44.42432532815473" lon="11.058814491522487"><ele>207.0</ele><time>2026-03-22T12:42:51.999Z</time></trkpt><trkpt lat="44.42446294792939" lon="11.058729528622855"><ele>207.0</ele><time>2026-03-22T12:42:52.999Z</time></trkpt><trkpt lat="44.42461046101394" lon="11.058646614829474"><ele>207.0</ele><time>2026-03-22T12:42:53.999Z</time></trkpt><trkpt lat="44.424763302477366" lon="11.058566275508293"><ele>207.66666666666669</ele><time>2026-03-22T12:42:54.999Z</time></trkpt><trkpt lat="44.42492533033645" lon="11.058473677923995"><ele>208.33333333333334</ele><time>2026-03-22T12:42:55.999Z</time></trkpt><trkpt lat="44.42509378405685" lon="11.058384447438174"><ele>209.0</ele><time>2026-03-22T12:42:56.999Z</time></trkpt><trkpt lat="44.42524954335551" lon="11.058305851309791"><ele>212.0</ele><time>2026-03-22T12:42:57.999Z</time></trkpt><trkpt lat="44.42538618234022" lon="11.05824272183741"><ele>215.0</ele><time>2026-03-22T12:42:58.999Z</time></trkpt><trkpt lat="44.42552854325895" lon="11.0581861268431"><ele>218.0</ele><time>2026-03-22T12:42:59.999Z</time></trkpt><trkpt lat="44.425681364184456" lon="11.058128449316767"><ele>218.33333333333334</ele><time>2026-03-22T12:43:00.999Z</time></trkpt><trkpt lat="44.42584225100311" lon="11.058079712245855"><ele>218.66666666666669</ele><time>2026-03-22T12:43:01.999Z</time></trkpt><trkpt lat="44.426002762200675" lon="11.058050583803533"><ele>219.0</ele><time>2026-03-22T12:43:02.999Z</time></trkpt><trkpt lat="44.42616913858273" lon="11.058039233141157"><ele>220.0</ele><time>2026-03-22T12:43:03.999Z</time></trkpt><trkpt lat="44.426346181197935" lon="11.058047593855218"><ele>221.0</ele><time>2026-03-22T12:43:04.999Z</time></trkpt><trkpt lat="44.426526270885525" lon="11.058081698936336"><ele>222.0</ele><time>2026-03-22T12:43:05.999Z</time></trkpt><trkpt lat="44.42670703911165" lon="11.058133582521803"><ele>222.0</ele><time>2026-03-22T12:43:06.999Z</time></trkpt><trkpt lat="44.4269028258762" lon="11.05818537875779"><ele>222.0</ele><time>2026-03-22T12:43:07.999Z</time></trkpt><trkpt lat="44.42710400814976" lon="11.058218761907034"><ele>222.0</ele><time>2026-03-22T12:43:08.999Z</time></trkpt><trkpt lat="44.42731562297996" lon="11.058227248911473"><ele>223.33333333333331</ele><time>2026-03-22T12:43:09.999Z</time></trkpt><trkpt lat="44.42753661236736" lon="11.058215811096785"><ele>224.66666666666666</ele><time>2026-03-22T12:43:10.999Z</time></trkpt><trkpt lat="44.42773051651964" lon="11.05819568787359"><ele>226.0</ele><time>2026-03-22T12:43:11.999Z</time></trkpt><trkpt lat="44.42789817627765" lon="11.058186287570404"><ele>227.33333333333331</ele><time>2026-03-22T12:43:12.999Z</time></trkpt><trkpt lat="44.42806518328014" lon="11.058186703341322"><ele>228.66666666666669</ele><time>2026-03-22T12:43:13.999Z</time></trkpt><trkpt lat="44.42821753765305" lon="11.05818891523705"><ele>230.0</ele><time>2026-03-22T12:43:14.999Z</time></trkpt><trkpt lat="44.42836286331411" lon="11.058211094218994"><ele>230.0</ele><time>2026-03-22T12:43:15.999Z</time></trkpt><trkpt lat="44.428511941096254" lon="11.058267683277338"><ele>230.0</ele><time>2026-03-22T12:43:16.999Z</time></trkpt><trkpt lat="44.42867259216409" lon="11.058350793621786"><ele>230.0</ele><time>2026-03-22T12:43:17.999Z</time></trkpt><trkpt lat="44.42884833612525" lon="11.058434785667291"><ele>226.33333333333334</ele><time>2026-03-22T12:43:18.999Z</time></trkpt><trkpt lat="44.42903592693725" lon="11.058519394318852"><ele>222.66666666666669</ele><time>2026-03-22T12:43:19.999Z</time></trkpt><trkpt lat="44.429230697645686" lon="11.058610354040308"><ele>219.0</ele><time>2026-03-22T12:43:20.999Z</time></trkpt><trkpt lat="44.4294038759783" lon="11.058691013160855"><ele>219.0</ele><time>2026-03-22T12:43:21.999Z</time></trkpt><trkpt lat="44.42956400124376" lon="11.05877316043086"><ele>219.0</ele><time>2026-03-22T12:43:22.999Z</time></trkpt><trkpt lat="44.429715192662165" lon="11.05884275435316"><ele>219.0</ele><time>2026-03-22T12:43:23.999Z</time></trkpt><trkpt lat="44.429869960853416" lon="11.058910646250585"><ele>221.66666666666669</ele><time>2026-03-22T12:43:24.999Z</time></trkpt><trkpt lat="44.43004155707955" lon="11.058995691178392"><ele>224.33333333333334</ele><time>2026-03-22T12:43:25.999Z</time></trkpt><trkpt lat="44.43020287945606" lon="11.059075721183968"><ele>227.0</ele><time>2026-03-22T12:43:26.999Z</time></trkpt><trkpt lat="44.430359791726346" lon="11.059150465938341"><ele>224.0</ele><time>2026-03-22T12:43:27.999Z</time></trkpt><trkpt lat="44.43050405528547" lon="11.059218131251448"><ele>221.0</ele><time>2026-03-22T12:43:28.999Z</time></trkpt><trkpt lat="44.43064823407797" lon="11.059288179848915"><ele>218.0</ele><time>2026-03-22T12:43:29.999Z</time></trkpt><trkpt lat="44.43081413940405" lon="11.059357669002798"><ele>218.0</ele><time>2026-03-22T12:43:30.999Z</time></trkpt><trkpt lat="44.43099208128469" lon="11.059436423006924"><ele>218.0</ele><time>2026-03-22T12:43:31.999Z</time></trkpt><trkpt lat="44.43118267601968" lon="11.059520890581204"><ele>218.0</ele><time>2026-03-22T12:43:32.999Z</time></trkpt><trkpt lat="44.431392108224266" lon="11.059601171301818"><ele>220.0</ele><time>2026-03-22T12:43:33.999Z</time></trkpt><trkpt lat="44.43159983246212" lon="11.059668882537734"><ele>222.0</ele><time>2026-03-22T12:43:34.999Z</time></trkpt><trkpt lat="44.43178465539946" lon="11.059726453634376"><ele>224.0</ele><time>2026-03-22T12:43:35.999Z</time></trkpt><trkpt lat="44.431956302683034" lon="11.059777125780093"><ele>224.0</ele><time>2026-03-22T12:43:36.999Z</time></trkpt><trkpt lat="44.43211869320311" lon="11.059812443827383"><ele>224.0</ele><time>2026-03-22T12:43:37.999Z</time></trkpt><trkpt lat="44.432269594709986" lon="11.059848693049052"><ele>224.0</ele><time>2026-03-22T12:43:38.999Z</time></trkpt><trkpt lat="44.43243002341491" lon="11.059910705111333"><ele>219.0</ele><time>2026-03-22T12:43:39.999Z</time></trkpt><trkpt lat="44.43258995090766" lon="11.059978123145687"><ele>214.0</ele><time>2026-03-22T12:43:40.999Z</time></trkpt><trkpt lat="44.43273790495076" lon="11.06003565628268"><ele>209.0</ele><time>2026-03-22T12:43:41.999Z</time></trkpt><trkpt lat="44.4328805654653" lon="11.060086763163786"><ele>209.33333333333334</ele><time>2026-03-22T12:43:42.999Z</time></trkpt><trkpt lat="44.43303525327899" lon="11.06014245070836"><ele>209.66666666666669</ele><time>2026-03-22T12:43:43.999Z</time></trkpt><trkpt lat="44.433210931835546" lon="11.060194083589906"><ele>210.0</ele><time>2026-03-22T12:43:44.999Z</time></trkpt><trkpt lat="44.433395090635436" lon="11.060232518957687"><ele>210.0</ele><time>2026-03-22T12:43:45.999Z</time></trkpt><trkpt lat="44.43357318115343" lon="11.060255797616438"><ele>210.0</ele><time>2026-03-22T12:43:46.999Z</time></trkpt><trkpt lat="44.433738216207054" lon="11.060282711373844"><ele>210.0</ele><time>2026-03-22T12:43:47.999Z</time></trkpt><trkpt lat="44.433892225561806" lon="11.060315196027952"><ele>208.75</ele><time>2026-03-22T12:43:48.999Z</time></trkpt><trkpt lat="44.434041271504356" lon="11.060348118069182"><ele>207.5</ele><time>2026-03-22T12:43:49.999Z</time></trkpt><trkpt lat="44.43418541403909" lon="11.060379102870657"><ele>206.25</ele><time>2026-03-22T12:43:50.999Z</time></trkpt><trkpt lat="44.43432209312576" lon="11.06042065636257"><ele>205.0</ele><time>2026-03-22T12:43:51.999Z</time></trkpt><trkpt lat="44.43443238356389" lon="11.06047320098367"><ele>205.0</ele><time>2026-03-22T12:43:52.999Z</time></trkpt><trkpt lat="44.43452966286249" lon="11.06052691434207"><ele>205.0</ele><time>2026-03-22T12:43:53.999Z</time></trkpt><trkpt lat="44.43461190762513" lon="11.060589727608374"><ele>205.0</ele><time>2026-03-22T12:43:54.999Z</time></trkpt><trkpt lat="44.43468434496516" lon="11.060662494055652"><ele>205.0</ele><time>2026-03-22T12:43:55.999Z</time></trkpt><trkpt lat="44.43474779429324" lon="11.06075621592482"><ele>205.0</ele><time>2026-03-22T12:43:56.999Z</time></trkpt><trkpt lat="44.4348081095139" lon="11.060863547812684"><ele>203.99999999999997</ele><time>2026-03-22T12:43:57.999Z</time></trkpt><trkpt lat="44.434865631285916" lon="11.060946422938827"><ele>203.0</ele><time>2026-03-22T12:43:58.999Z</time></trkpt><trkpt lat="44.43492231111129" lon="11.061001241016374"><ele>202.0</ele><time>2026-03-22T12:43:59.999Z</time></trkpt><trkpt lat="44.43503803482671" lon="11.0610071647156"><ele>201.0</ele><time>2026-03-22T12:44:01.999Z</time></trkpt><trkpt lat="44.4351095005078" lon="11.060907417445732"><ele>199.99999999999997</ele><time>2026-03-22T12:44:03.999Z</time></trkpt><trkpt lat="44.43512001920417" lon="11.060820002844135"><ele>199.0</ele><time>2026-03-22T12:44:04.999Z</time></trkpt><trkpt lat="44.43510579417805" lon="11.06072117580234"><ele>199.0</ele><time>2026-03-22T12:44:05.999Z</time></trkpt><trkpt lat="44.4350597003644" lon="11.060589268876265"><ele>199.0</ele><time>2026-03-22T12:44:06.999Z</time></trkpt><trkpt lat="44.43501626699717" lon="11.060446618458812"><ele>199.0</ele><time>2026-03-22T12:44:08Z</time></trkpt><trkpt lat="44.43498427736923" lon="11.060267223511032"><ele>199.0</ele><time>2026-03-22T12:44:09Z</time></trkpt><trkpt lat="44.43497494314684" lon="11.060067621350958"><ele>198.66666666666666</ele><time>2026-03-22T12:44:10Z</time></trkpt><trkpt lat="44.434981578828214" lon="11.059850732212487"><ele>198.33333333333331</ele><time>2026-03-22T12:44:11Z</time></trkpt><trkpt lat="44.43499555366424" lon="11.059615115683725"><ele>198.0</ele><time>2026-03-22T12:44:12Z</time></trkpt><trkpt lat="44.43501243384028" lon="11.05938121518042"><ele>198.0</ele><time>2026-03-22T12:44:13Z</time></trkpt><trkpt lat="44.43503210671502" lon="11.059128325083888"><ele>198.0</ele><time>2026-03-22T12:44:14Z</time></trkpt><trkpt lat="44.435051288202914" lon="11.05886309614663"><ele>198.0</ele><time>2026-03-22T12:44:15Z</time></trkpt><trkpt lat="44.43506763091361" lon="11.058591877958758"><ele>196.66666666666669</ele><time>2026-03-22T12:44:16Z</time></trkpt><trkpt lat="44.43508243678597" lon="11.058302234200047"><ele>195.33333333333334</ele><time>2026-03-22T12:44:17Z</time></trkpt><trkpt lat="44.43509571934966" lon="11.058030046793231"><ele>194.0</ele><time>2026-03-22T12:44:18Z</time></trkpt><trkpt lat="44.435109234509234" lon="11.057779509789361"><ele>193.66666666666669</ele><time>2026-03-22T12:44:19Z</time></trkpt><trkpt lat="44.435124904738004" lon="11.057532203351983"><ele>193.33333333333331</ele><time>2026-03-22T12:44:20Z</time></trkpt><trkpt lat="44.435140546471786" lon="11.057271851781325"><ele>193.0</ele><time>2026-03-22T12:44:21Z</time></trkpt><trkpt lat="44.43515523195596" lon="11.056986654597212"><ele>192.66666666666666</ele><time>2026-03-22T12:44:22Z</time></trkpt><trkpt lat="44.43517021185782" lon="11.056689824137374"><ele>192.33333333333331</ele><time>2026-03-22T12:44:23Z</time></trkpt><trkpt lat="44.435188974023106" lon="11.056378985573813"><ele>192.0</ele><time>2026-03-22T12:44:24Z</time></trkpt><trkpt lat="44.43520715548735" lon="11.056070418862278"><ele>192.0</ele><time>2026-03-22T12:44:25Z</time></trkpt><trkpt lat="44.435223801448494" lon="11.055795393049445"><ele>192.0</ele><time>2026-03-22T12:44:26Z</time></trkpt><trkpt lat="44.43524176865947" lon="11.055516702930108"><ele>192.0</ele><time>2026-03-22T12:44:27Z</time></trkpt><trkpt lat="44.435259003197196" lon="11.055235333827536"><ele>191.66666666666666</ele><time>2026-03-22T12:44:28Z</time></trkpt><trkpt lat="44.43527504286504" lon="11.05497012279683"><ele>191.33333333333331</ele><time>2026-03-22T12:44:29Z</time></trkpt><trkpt lat="44.43528907933752" lon="11.054731459262438"><ele>191.0</ele><time>2026-03-22T12:44:30Z</time></trkpt><trkpt lat="44.43530106032054" lon="11.05449524645467"><ele>191.66666666666666</ele><time>2026-03-22T12:44:31Z</time></trkpt><trkpt lat="44.43531145901873" lon="11.054244037874321"><ele>192.33333333333331</ele><time>2026-03-22T12:44:32Z</time></trkpt><trkpt lat="44.43532267349062" lon="11.054006891794485"><ele>193.0</ele><time>2026-03-22T12:44:33Z</time></trkpt><trkpt lat="44.43533484381184" lon="11.053797603696312"><ele>193.0</ele><time>2026-03-22T12:44:34Z</time></trkpt><trkpt lat="44.435347836308935" lon="11.053593897163562"><ele>193.0</ele><time>2026-03-22T12:44:35Z</time></trkpt><trkpt lat="44.435358250683834" lon="11.053392147205628"><ele>193.0</ele><time>2026-03-22T12:44:36Z</time></trkpt><trkpt lat="44.435373827155765" lon="11.053179489970708"><ele>193.0</ele><time>2026-03-22T12:44:37Z</time></trkpt><trkpt lat="44.43540206132004" lon="11.052977849356461"><ele>191.75</ele><time>2026-03-22T12:44:38Z</time></trkpt><trkpt lat="44.43543692093432" lon="11.052797136499747"><ele>190.5</ele><time>2026-03-22T12:44:39Z</time></trkpt><trkpt lat="44.43548386336926" lon="11.052640456192357"><ele>189.25</ele><time>2026-03-22T12:44:40Z</time></trkpt><trkpt lat="44.43553746920698" lon="11.05249602742171"><ele>188.0</ele><time>2026-03-22T12:44:41Z</time></trkpt><trkpt lat="44.43559747034287" lon="11.052362192367706"><ele>187.4</ele><time>2026-03-22T12:44:42Z</time></trkpt><trkpt lat="44.435660229925396" lon="11.052229221576498"><ele>186.8</ele><time>2026-03-22T12:44:43Z</time></trkpt><trkpt lat="44.43572298886893" lon="11.052111973095485"><ele>186.2</ele><time>2026-03-22T12:44:44Z</time></trkpt><trkpt lat="44.43578540204236" lon="11.052011254208347"><ele>185.6</ele><time>2026-03-22T12:44:45Z</time></trkpt><trkpt lat="44.43584722818571" lon="11.051915486532101"><ele>185.0</ele><time>2026-03-22T12:44:46Z</time></trkpt><trkpt lat="44.435909479700214" lon="11.0518098299522"><ele>185.0</ele><time>2026-03-22T12:44:47Z</time></trkpt><trkpt lat="44.435979574155226" lon="11.051685081889307"><ele>185.0</ele><time>2026-03-22T12:44:47.999Z</time></trkpt><trkpt lat="44.4360585569833" lon="11.05154535611663"><ele>185.0</ele><time>2026-03-22T12:44:48.999Z</time></trkpt><trkpt lat="44.43614723236499" lon="11.05139562515042"><ele>185.0</ele><time>2026-03-22T12:44:49.999Z</time></trkpt><trkpt lat="44.436243707675345" lon="11.051230205612574"><ele>186.0</ele><time>2026-03-22T12:44:50.999Z</time></trkpt><trkpt lat="44.43633223427247" lon="11.0510751792817"><ele>187.0</ele><time>2026-03-22T12:44:51.999Z</time></trkpt><trkpt lat="44.43642144316326" lon="11.050933430634094"><ele>188.0</ele><time>2026-03-22T12:44:52.999Z</time></trkpt><trkpt lat="44.436518559263305" lon="11.05078024326293"><ele>189.0</ele><time>2026-03-22T12:44:53.999Z</time></trkpt><trkpt lat="44.43660747709935" lon="11.050638026767139"><ele>189.5</ele><time>2026-03-22T12:44:54.999Z</time></trkpt><trkpt lat="44.43669115957177" lon="11.05050168018"><ele>190.0</ele><time>2026-03-22T12:44:55.999Z</time></trkpt><trkpt lat="44.436768822186224" lon="11.050336571878983"><ele>190.5</ele><time>2026-03-22T12:44:56.999Z</time></trkpt><trkpt lat="44.43683544522698" lon="11.050137902105112"><ele>191.0</ele><time>2026-03-22T12:44:57.999Z</time></trkpt><trkpt lat="44.43690177564485" lon="11.049925913308655"><ele>191.0</ele><time>2026-03-22T12:44:58.999Z</time></trkpt><trkpt lat="44.436958998190924" lon="11.04970217132401"><ele>191.0</ele><time>2026-03-22T12:44:59.999Z</time></trkpt><trkpt lat="44.437021393942956" lon="11.049472853576138"><ele>191.0</ele><time>2026-03-22T12:45:00.999Z</time></trkpt><trkpt lat="44.43708307310182" lon="11.04923678621436"><ele>193.5</ele><time>2026-03-22T12:45:01.999Z</time></trkpt><trkpt lat="44.43713620909034" lon="11.049033589266463"><ele>196.0</ele><time>2026-03-22T12:45:02.999Z</time></trkpt><trkpt lat="44.43718398218124" lon="11.048852408588472"><ele>198.5</ele><time>2026-03-22T12:45:03.999Z</time></trkpt><trkpt lat="44.43722930082666" lon="11.048688799841363"><ele>201.0</ele><time>2026-03-22T12:45:04.999Z</time></trkpt><trkpt lat="44.4372700224884" lon="11.048527505780442"><ele>201.0</ele><time>2026-03-22T12:45:05.999Z</time></trkpt><trkpt lat="44.43731458832189" lon="11.048366201426145"><ele>201.0</ele><time>2026-03-22T12:45:06.999Z</time></trkpt><trkpt lat="44.43735659933662" lon="11.04818175081364"><ele>201.0</ele><time>2026-03-22T12:45:07.999Z</time></trkpt><trkpt lat="44.43740389805319" lon="11.048005918918332"><ele>201.0</ele><time>2026-03-22T12:45:08.999Z</time></trkpt><trkpt lat="44.43744271004044" lon="11.047814127860866"><ele>201.25</ele><time>2026-03-22T12:45:09.999Z</time></trkpt><trkpt lat="44.4374687390158" lon="11.047615425263766"><ele>201.5</ele><time>2026-03-22T12:45:10.999Z</time></trkpt><trkpt lat="44.43749181127842" lon="11.047410396479009"><ele>201.75</ele><time>2026-03-22T12:45:11.999Z</time></trkpt><trkpt lat="44.437511149126074" lon="11.04719477408139"><ele>202.0</ele><time>2026-03-22T12:45:12.999Z</time></trkpt><trkpt lat="44.437530755132045" lon="11.046969333991255"><ele>202.0</ele><time>2026-03-22T12:45:13.999Z</time></trkpt><trkpt lat="44.437548249687936" lon="11.046745575386938"><ele>202.0</ele><time>2026-03-22T12:45:14.999Z</time></trkpt><trkpt lat="44.43755460467024" lon="11.046502270155335"><ele>202.0</ele><time>2026-03-22T12:45:15.999Z</time></trkpt><trkpt lat="44.43755098734526" lon="11.04625432354657"><ele>203.0</ele><time>2026-03-22T12:45:16.999Z</time></trkpt><trkpt lat="44.43754802371946" lon="11.045997789415713"><ele>204.0</ele><time>2026-03-22T12:45:17.999Z</time></trkpt><trkpt lat="44.437547667503125" lon="11.04572751410248"><ele>205.0</ele><time>2026-03-22T12:45:18.999Z</time></trkpt><trkpt lat="44.43755291930872" lon="11.045469915799039"><ele>207.0</ele><time>2026-03-22T12:45:19.999Z</time></trkpt><trkpt lat="44.43755908240552" lon="11.045243264643867"><ele>209.0</ele><time>2026-03-22T12:45:20.999Z</time></trkpt><trkpt lat="44.43757015908045" lon="11.045017364737943"><ele>211.0</ele><time>2026-03-22T12:45:21.999Z</time></trkpt><trkpt lat="44.437590273670686" lon="11.044778962735938"><ele>211.66666666666666</ele><time>2026-03-22T12:45:22.999Z</time></trkpt><trkpt lat="44.437619764685266" lon="11.04453730001732"><ele>212.33333333333331</ele><time>2026-03-22T12:45:23.999Z</time></trkpt><trkpt lat="44.43766550799893" lon="11.044294698276694"><ele>213.0</ele><time>2026-03-22T12:45:24.999Z</time></trkpt><trkpt lat="44.43772379504322" lon="11.044053941276761"><ele>214.0</ele><time>2026-03-22T12:45:25.999Z</time></trkpt><trkpt lat="44.43778892759094" lon="11.04381403731223"><ele>215.0</ele><time>2026-03-22T12:45:26.999Z</time></trkpt><trkpt lat="44.4378569022535" lon="11.043581904502416"><ele>216.0</ele><time>2026-03-22T12:45:27.999Z</time></trkpt><trkpt lat="44.43791247126448" lon="11.043372975903191"><ele>217.8</ele><time>2026-03-22T12:45:28.999Z</time></trkpt><trkpt lat="44.437958327201855" lon="11.043202092133946"><ele>219.60000000000002</ele><time>2026-03-22T12:45:29.999Z</time></trkpt><trkpt lat="44.43799735690124" lon="11.043056539384894"><ele>221.4</ele><time>2026-03-22T12:45:30.999Z</time></trkpt><trkpt lat="44.43803650793335" lon="11.042951534046503"><ele>223.2</ele><time>2026-03-22T12:45:31.999Z</time></trkpt><trkpt lat="44.4380851448391" lon="11.042889606597955"><ele>225.0</ele><time>2026-03-22T12:45:32.999Z</time></trkpt><trkpt lat="44.43815253595098" lon="11.042874127873226"><ele>226.2</ele><time>2026-03-22T12:45:33.999Z</time></trkpt><trkpt lat="44.438224462856084" lon="11.042909290113698"><ele>227.4</ele><time>2026-03-22T12:45:34.999Z</time></trkpt><trkpt lat="44.43827715927726" lon="11.043013965921226"><ele>228.60000000000002</ele><time>2026-03-22T12:45:35.999Z</time></trkpt><trkpt lat="44.43831461132465" lon="11.043137422839118"><ele>229.8</ele><time>2026-03-22T12:45:36.999Z</time></trkpt><trkpt lat="44.43837250812029" lon="11.043268082612878"><ele>231.0</ele><time>2026-03-22T12:45:37.999Z</time></trkpt><trkpt lat="44.438453440273186" lon="11.04341011175041"><ele>231.0</ele><time>2026-03-22T12:45:38.999Z</time></trkpt><trkpt lat="44.438533869444946" lon="11.043570616663587"><ele>231.0</ele><time>2026-03-22T12:45:39.999Z</time></trkpt><trkpt lat="44.4386212762597" lon="11.043744592034"><ele>231.0</ele><time>2026-03-22T12:45:40.999Z</time></trkpt><trkpt lat="44.43871287502085" lon="11.043915169452607"><ele>231.0</ele><time>2026-03-22T12:45:41.999Z</time></trkpt><trkpt lat="44.43881281282399" lon="11.04410499973625"><ele>232.25</ele><time>2026-03-22T12:45:42.999Z</time></trkpt><trkpt lat="44.4388932924375" lon="11.044273044073275"><ele>233.5</ele><time>2026-03-22T12:45:43.999Z</time></trkpt><trkpt lat="44.43896257457873" lon="11.044410581018756"><ele>234.75</ele><time>2026-03-22T12:45:44.999Z</time></trkpt><trkpt lat="44.4390245905713" lon="11.044484799257754"><ele>236.0</ele><time>2026-03-22T12:45:45.999Z</time></trkpt><trkpt lat="44.43913457201284" lon="11.0444301145213"><ele>236.0</ele><time>2026-03-22T12:45:47.999Z</time></trkpt><trkpt lat="44.439154804285444" lon="11.044332222522359"><ele>236.00000000000003</ele><time>2026-03-22T12:45:48.999Z</time></trkpt><trkpt lat="44.43913794470423" lon="11.044204966159128"><ele>236.00000000000003</ele><time>2026-03-22T12:45:49.999Z</time></trkpt><trkpt lat="44.43909700671689" lon="11.0440574774463"><ele>236.0</ele><time>2026-03-22T12:45:50.999Z</time></trkpt><trkpt lat="44.43905669217746" lon="11.043888883004808"><ele>236.0</ele><time>2026-03-22T12:45:51.999Z</time></trkpt><trkpt lat="44.43902614817569" lon="11.043698450977873"><ele>238.33333333333334</ele><time>2026-03-22T12:45:52.999Z</time></trkpt><trkpt lat="44.43900614128259" lon="11.043504205726816"><ele>240.66666666666669</ele><time>2026-03-22T12:45:53.999Z</time></trkpt><trkpt lat="44.43899735095791" lon="11.04329505845582"><ele>243.0</ele><time>2026-03-22T12:45:54.999Z</time></trkpt><trkpt lat="44.439002998939365" lon="11.04306660617811"><ele>246.33333333333331</ele><time>2026-03-22T12:45:55.999Z</time></trkpt><trkpt lat="44.43901649814509" lon="11.042828327580228"><ele>249.66666666666666</ele><time>2026-03-22T12:45:56.999Z</time></trkpt><trkpt lat="44.43902852563394" lon="11.04259433617038"><ele>253.0</ele><time>2026-03-22T12:45:57.999Z</time></trkpt><trkpt lat="44.439032710410515" lon="11.042347166241068"><ele>254.25</ele><time>2026-03-22T12:45:58.999Z</time></trkpt><trkpt lat="44.439031821828046" lon="11.04212996570933"><ele>255.5</ele><time>2026-03-22T12:45:59.999Z</time></trkpt><trkpt lat="44.43904203463788" lon="11.041943164649036"><ele>256.75</ele><time>2026-03-22T12:46:00.999Z</time></trkpt><trkpt lat="44.439068640603786" lon="11.041754019111442"><ele>258.0</ele><time>2026-03-22T12:46:01.999Z</time></trkpt><trkpt lat="44.43911555803146" lon="11.041554916699784"><ele>258.3333333333333</ele><time>2026-03-22T12:46:02.999Z</time></trkpt><trkpt lat="44.43918320516718" lon="11.04134632257862"><ele>258.66666666666663</ele><time>2026-03-22T12:46:03.999Z</time></trkpt><trkpt lat="44.43924164085983" lon="11.041116322602448"><ele>259.0</ele><time>2026-03-22T12:46:04.999Z</time></trkpt><trkpt lat="44.439282495717414" lon="11.04088476720729"><ele>260.3333333333333</ele><time>2026-03-22T12:46:05.999Z</time></trkpt><trkpt lat="44.439315482412134" lon="11.040642298478769"><ele>261.6666666666667</ele><time>2026-03-22T12:46:06.999Z</time></trkpt><trkpt lat="44.439336739024114" lon="11.04040134179263"><ele>263.0</ele><time>2026-03-22T12:46:07.999Z</time></trkpt><trkpt lat="44.439337452448235" lon="11.040152956938634"><ele>263.33333333333337</ele><time>2026-03-22T12:46:08.999Z</time></trkpt><trkpt lat="44.439296422136195" lon="11.039900953082581"><ele>263.6666666666667</ele><time>2026-03-22T12:46:09.999Z</time></trkpt><trkpt lat="44.43923676769232" lon="11.03964051733031"><ele>264.0</ele><time>2026-03-22T12:46:10.999Z</time></trkpt><trkpt lat="44.43916694523065" lon="11.039385188821543"><ele>265.0</ele><time>2026-03-22T12:46:11.999Z</time></trkpt><trkpt lat="44.439102713387676" lon="11.039128653445722"><ele>266.0</ele><time>2026-03-22T12:46:13Z</time></trkpt><trkpt lat="44.43904061781346" lon="11.038869712881356"><ele>267.0</ele><time>2026-03-22T12:46:14Z</time></trkpt><trkpt lat="44.438973548173266" lon="11.038607550383077"><ele>267.0</ele><time>2026-03-22T12:46:15Z</time></trkpt><trkpt lat="44.43890156789715" lon="11.038344273629372"><ele>267.0</ele><time>2026-03-22T12:46:16Z</time></trkpt><trkpt lat="44.43883513972078" lon="11.03809270158513"><ele>267.0</ele><time>2026-03-22T12:46:17Z</time></trkpt><trkpt lat="44.43877523359487" lon="11.037881449164582"><ele>269.4</ele><time>2026-03-22T12:46:18Z</time></trkpt><trkpt lat="44.43871488391708" lon="11.037699715923804"><ele>271.79999999999995</ele><time>2026-03-22T12:46:19Z</time></trkpt><trkpt lat="44.43867409404162" lon="11.037546972605993"><ele>274.2</ele><time>2026-03-22T12:46:20Z</time></trkpt><trkpt lat="44.438650635479036" lon="11.037438944230932"><ele>276.59999999999997</ele><time>2026-03-22T12:46:21Z</time></trkpt><trkpt lat="44.438662615582324" lon="11.03733308154672"><ele>279.0</ele><time>2026-03-22T12:46:23Z</time></trkpt><trkpt lat="44.43875033989956" lon="11.037308166805083"><ele>280.2</ele><time>2026-03-22T12:46:25Z</time></trkpt><trkpt lat="44.43883488647768" lon="11.037296671045377"><ele>281.4</ele><time>2026-03-22T12:46:26Z</time></trkpt><trkpt lat="44.43893093571839" lon="11.037278266992628"><ele>282.6</ele><time>2026-03-22T12:46:27Z</time></trkpt><trkpt lat="44.439045696196565" lon="11.037244036450616"><ele>283.8</ele><time>2026-03-22T12:46:28Z</time></trkpt><trkpt lat="44.439146809743264" lon="11.037209098005711"><ele>285.0</ele><time>2026-03-22T12:46:29Z</time></trkpt><trkpt lat="44.43923150918122" lon="11.037172971984551"><ele>285.0</ele><time>2026-03-22T12:46:30Z</time></trkpt><trkpt lat="44.439326325517435" lon="11.037107265355713"><ele>285.0</ele><time>2026-03-22T12:46:31Z</time></trkpt><trkpt lat="44.439427897891825" lon="11.03702639251017"><ele>285.0</ele><time>2026-03-22T12:46:32Z</time></trkpt><trkpt lat="44.43951872573808" lon="11.036950103563457"><ele>285.0</ele><time>2026-03-22T12:46:33Z</time></trkpt><trkpt lat="44.43961005384506" lon="11.036874808870035"><ele>285.0</ele><time>2026-03-22T12:46:34Z</time></trkpt><trkpt lat="44.43971256239932" lon="11.03678606317174"><ele>286.6</ele><time>2026-03-22T12:46:35Z</time></trkpt><trkpt lat="44.439812779523855" lon="11.036708812750696"><ele>288.2</ele><time>2026-03-22T12:46:36Z</time></trkpt><trkpt lat="44.43990912833449" lon="11.036652450459929"><ele>289.8</ele><time>2026-03-22T12:46:37Z</time></trkpt><trkpt lat="44.44000723967702" lon="11.036626171247535"><ele>291.4</ele><time>2026-03-22T12:46:38Z</time></trkpt><trkpt lat="44.44011690844761" lon="11.036620865958081"><ele>293.0</ele><time>2026-03-22T12:46:39Z</time></trkpt><trkpt lat="44.44024747045974" lon="11.036633581887713"><ele>287.5</ele><time>2026-03-22T12:46:40Z</time></trkpt><trkpt lat="44.44039275662778" lon="11.03665390876665"><ele>282.0</ele><time>2026-03-22T12:46:41Z</time></trkpt><trkpt lat="44.440535988138116" lon="11.036670344270448"><ele>276.5</ele><time>2026-03-22T12:46:42Z</time></trkpt><trkpt lat="44.44066095233595" lon="11.03667881924204"><ele>271.0</ele><time>2026-03-22T12:46:43Z</time></trkpt><trkpt lat="44.44077455186958" lon="11.036696681562098"><ele>270.6</ele><time>2026-03-22T12:46:44Z</time></trkpt><trkpt lat="44.440885509595155" lon="11.036741513297471"><ele>270.20000000000005</ele><time>2026-03-22T12:46:45Z</time></trkpt><trkpt lat="44.44098890099261" lon="11.036792822413373"><ele>269.79999999999995</ele><time>2026-03-22T12:46:46Z</time></trkpt><trkpt lat="44.44108870285382" lon="11.036811251271645"><ele>269.4</ele><time>2026-03-22T12:46:46.999Z</time></trkpt><trkpt lat="44.4411836248198" lon="11.036790361667707"><ele>269.0</ele><time>2026-03-22T12:46:47.999Z</time></trkpt><trkpt lat="44.441300859264764" lon="11.03673277130461"><ele>269.25</ele><time>2026-03-22T12:46:48.999Z</time></trkpt><trkpt lat="44.44144223150395" lon="11.036677971836825"><ele>269.5</ele><time>2026-03-22T12:46:49.999Z</time></trkpt><trkpt lat="44.441573495402615" lon="11.036637477240006"><ele>269.75</ele><time>2026-03-22T12:46:50.999Z</time></trkpt><trkpt lat="44.441709085844934" lon="11.036603066073354"><ele>270.0</ele><time>2026-03-22T12:46:51.999Z</time></trkpt><trkpt lat="44.44183130065946" lon="11.036569916081248"><ele>270.0</ele><time>2026-03-22T12:46:52.999Z</time></trkpt><trkpt lat="44.44193967782989" lon="11.03653684024021"><ele>270.0</ele><time>2026-03-22T12:46:53.999Z</time></trkpt><trkpt lat="44.44205870033907" lon="11.0365004374349"><ele>270.0</ele><time>2026-03-22T12:46:54.999Z</time></trkpt><trkpt lat="44.44218252662195" lon="11.03645735886722"><ele>270.0</ele><time>2026-03-22T12:46:55.999Z</time></trkpt><trkpt lat="44.44229776795651" lon="11.036416829930662"><ele>269.5</ele><time>2026-03-22T12:46:56.999Z</time></trkpt><trkpt lat="44.44240919365792" lon="11.036388421914062"><ele>269.0</ele><time>2026-03-22T12:46:57.999Z</time></trkpt><trkpt lat="44.44251685990966" lon="11.036381838531684"><ele>268.5</ele><time>2026-03-22T12:46:58.999Z</time></trkpt><trkpt lat="44.44264641634105" lon="11.036377136342328"><ele>268.0</ele><time>2026-03-22T12:46:59.999Z</time></trkpt><trkpt lat="44.44279016446709" lon="11.03637819105516"><ele>268.0</ele><time>2026-03-22T12:47:00.999Z</time></trkpt><trkpt lat="44.44294269816332" lon="11.036392578030531"><ele>268.0</ele><time>2026-03-22T12:47:01.999Z</time></trkpt><trkpt lat="44.44310449119198" lon="11.036420617085875"><ele>268.0</ele><time>2026-03-22T12:47:02.999Z</time></trkpt><trkpt lat="44.443270137564284" lon="11.036460263653781"><ele>266.0</ele><time>2026-03-22T12:47:03.999Z</time></trkpt><trkpt lat="44.44341004172187" lon="11.03650434216348"><ele>264.0</ele><time>2026-03-22T12:47:04.999Z</time></trkpt><trkpt lat="44.443535280237604" lon="11.036548024491317"><ele>262.0</ele><time>2026-03-22T12:47:05.999Z</time></trkpt><trkpt lat="44.443644282219566" lon="11.03659750304511"><ele>260.0</ele><time>2026-03-22T12:47:06.999Z</time></trkpt><trkpt lat="44.443760716584364" lon="11.036636787648277"><ele>259.0</ele><time>2026-03-22T12:47:07.999Z</time></trkpt><trkpt lat="44.443876943745344" lon="11.036649889663243"><ele>258.0</ele><time>2026-03-22T12:47:08.999Z</time></trkpt><trkpt lat="44.44399897393672" lon="11.036635080533047"><ele>257.0</ele><time>2026-03-22T12:47:09.999Z</time></trkpt><trkpt lat="44.444131781277825" lon="11.036618047942078"><ele>256.0</ele><time>2026-03-22T12:47:10.999Z</time></trkpt><trkpt lat="44.444241624970125" lon="11.036618147756263"><ele>256.0</ele><time>2026-03-22T12:47:11.999Z</time></trkpt><trkpt lat="44.44433953464685" lon="11.036620500613354"><ele>256.0</ele><time>2026-03-22T12:47:12.999Z</time></trkpt><trkpt lat="44.444428445991086" lon="11.036640630611533"><ele>256.0</ele><time>2026-03-22T12:47:13.999Z</time></trkpt><trkpt lat="44.444498382955544" lon="11.036724645030446"><ele>256.0</ele><time>2026-03-22T12:47:14.999Z</time></trkpt><trkpt lat="44.44458987881523" lon="11.036825080167139"><ele>256.0</ele><time>2026-03-22T12:47:15.999Z</time></trkpt><trkpt lat="44.44470522598075" lon="11.036927457020779"><ele>256.5</ele><time>2026-03-22T12:47:16.999Z</time></trkpt><trkpt lat="44.44482413766317" lon="11.037044540516987"><ele>257.0</ele><time>2026-03-22T12:47:17.999Z</time></trkpt><trkpt lat="44.44492673192481" lon="11.037145549649967"><ele>257.5</ele><time>2026-03-22T12:47:18.999Z</time></trkpt><trkpt lat="44.44500097680202" lon="11.037222140261749"><ele>258.0</ele><time>2026-03-22T12:47:19.999Z</time></trkpt><trkpt lat="44.44507845850897" lon="11.037311582007934"><ele>258.0</ele><time>2026-03-22T12:47:21.999Z</time></trkpt><trkpt lat="44.44514866777816" lon="11.037351960349469"><ele>258.0</ele><time>2026-03-22T12:47:57.999Z</time></trkpt><trkpt lat="44.44525612408004" lon="11.037443624921634"><ele>258.0</ele><time>2026-03-22T12:47:59.999Z</time></trkpt><trkpt lat="44.44533852020345" lon="11.037480869747244"><ele>258.0</ele><time>2026-03-22T12:48:00.999Z</time></trkpt><trkpt lat="44.445425696629876" lon="11.03752728125866"><ele>258.0</ele><time>2026-03-22T12:48:01.999Z</time></trkpt><trkpt lat="44.445531793257366" lon="11.03755429452054"><ele>258.75</ele><time>2026-03-22T12:48:02.999Z</time></trkpt><trkpt lat="44.445642863124974" lon="11.037588682114116"><ele>259.5</ele><time>2026-03-22T12:48:03.999Z</time></trkpt><trkpt lat="44.44576842498514" lon="11.03762547069632"><ele>260.25</ele><time>2026-03-22T12:48:04.999Z</time></trkpt><trkpt lat="44.44589924642189" lon="11.037659241391765"><ele>261.0</ele><time>2026-03-22T12:48:05.999Z</time></trkpt><trkpt lat="44.446013166149434" lon="11.037693154320571"><ele>261.0</ele><time>2026-03-22T12:48:06.999Z</time></trkpt><trkpt lat="44.446113132245166" lon="11.037731544590697"><ele>261.0</ele><time>2026-03-22T12:48:07.999Z</time></trkpt><trkpt lat="44.44619151237698" lon="11.037801483598312"><ele>261.0</ele><time>2026-03-22T12:48:08.999Z</time></trkpt><trkpt lat="44.44628117948823" lon="11.037869025078917"><ele>261.0</ele><time>2026-03-22T12:48:09.999Z</time></trkpt><trkpt lat="44.44638122617778" lon="11.037957700005231"><ele>261.0</ele><time>2026-03-22T12:48:10.999Z</time></trkpt><trkpt lat="44.44648397160862" lon="11.03805921283686"><ele>262.75</ele><time>2026-03-22T12:48:11.999Z</time></trkpt><trkpt lat="44.44658662213477" lon="11.038157217289339"><ele>264.5</ele><time>2026-03-22T12:48:12.999Z</time></trkpt><trkpt lat="44.44669623629653" lon="11.038236303235546"><ele>266.25</ele><time>2026-03-22T12:48:13.999Z</time></trkpt><trkpt lat="44.44683163401148" lon="11.038296981498405"><ele>268.0</ele><time>2026-03-22T12:48:14.999Z</time></trkpt><trkpt lat="44.446947608448546" lon="11.038359480103859"><ele>268.0</ele><time>2026-03-22T12:48:15.999Z</time></trkpt><trkpt lat="44.44705523063252" lon="11.038403859011954"><ele>268.0</ele><time>2026-03-22T12:48:16.999Z</time></trkpt><trkpt lat="44.44715256589545" lon="11.038439152345102"><ele>268.0</ele><time>2026-03-22T12:48:18Z</time></trkpt><trkpt lat="44.44726109748462" lon="11.038463656060035"><ele>268.0</ele><time>2026-03-22T12:48:19Z</time></trkpt><trkpt lat="44.447382812932126" lon="11.038467862865481"><ele>268.0</ele><time>2026-03-22T12:48:20Z</time></trkpt><trkpt lat="44.44749073623446" lon="11.038446148410012"><ele>265.2</ele><time>2026-03-22T12:48:21Z</time></trkpt><trkpt lat="44.447590947271244" lon="11.038421510546675"><ele>262.4</ele><time>2026-03-22T12:48:22Z</time></trkpt><trkpt lat="44.447690649216874" lon="11.03843205048237"><ele>259.59999999999997</ele><time>2026-03-22T12:48:23Z</time></trkpt><trkpt lat="44.447792251195416" lon="11.038500133206865"><ele>256.8</ele><time>2026-03-22T12:48:24Z</time></trkpt><trkpt lat="44.44788406842782" lon="11.038547435478876"><ele>254.0</ele><time>2026-03-22T12:48:25Z</time></trkpt><trkpt lat="44.447968600462836" lon="11.038593188118414"><ele>252.83333333333334</ele><time>2026-03-22T12:48:26Z</time></trkpt><trkpt lat="44.448052195233885" lon="11.03861663439319"><ele>251.66666666666669</ele><time>2026-03-22T12:48:27Z</time></trkpt><trkpt lat="44.448131272165085" lon="11.038658448090054"><ele>250.5</ele><time>2026-03-22T12:48:28Z</time></trkpt><trkpt lat="44.44821530308286" lon="11.03867237690814"><ele>249.33333333333331</ele><time>2026-03-22T12:48:29Z</time></trkpt><trkpt lat="44.448302926114" lon="11.038655514444388"><ele>248.16666666666666</ele><time>2026-03-22T12:48:30Z</time></trkpt><trkpt lat="44.44838428102498" lon="11.038593013962245"><ele>247.0</ele><time>2026-03-22T12:48:31Z</time></trkpt><trkpt lat="44.44845131844702" lon="11.038504337668"><ele>247.0</ele><time>2026-03-22T12:48:32Z</time></trkpt><trkpt lat="44.448509242661785" lon="11.038417973063732"><ele>247.0</ele><time>2026-03-22T12:48:33Z</time></trkpt><trkpt lat="44.44857005992675" lon="11.038336975240963"><ele>247.0</ele><time>2026-03-22T12:48:34Z</time></trkpt><trkpt lat="44.44865731340931" lon="11.038245243540564"><ele>247.0</ele><time>2026-03-22T12:48:35Z</time></trkpt><trkpt lat="44.4487584853584" lon="11.038142925424607"><ele>247.0</ele><time>2026-03-22T12:48:36Z</time></trkpt><trkpt lat="44.44887336551195" lon="11.038029167684961"><ele>247.25</ele><time>2026-03-22T12:48:37Z</time></trkpt><trkpt lat="44.44899210302116" lon="11.03791302211497"><ele>247.5</ele><time>2026-03-22T12:48:38Z</time></trkpt><trkpt lat="44.44911392992684" lon="11.037790834954015"><ele>247.75</ele><time>2026-03-22T12:48:39Z</time></trkpt><trkpt lat="44.449234396316825" lon="11.03766965266999"><ele>248.0</ele><time>2026-03-22T12:48:40Z</time></trkpt><trkpt lat="44.44933785235392" lon="11.037578115872401"><ele>248.0</ele><time>2026-03-22T12:48:41Z</time></trkpt><trkpt lat="44.44943872625818" lon="11.037504186187459"><ele>248.0</ele><time>2026-03-22T12:48:42Z</time></trkpt><trkpt lat="44.44953809640164" lon="11.037452105797"><ele>248.0</ele><time>2026-03-22T12:48:43Z</time></trkpt><trkpt lat="44.44963176576304" lon="11.037430239945493"><ele>248.0</ele><time>2026-03-22T12:48:44Z</time></trkpt><trkpt lat="44.44972481994959" lon="11.037430919639709"><ele>248.0</ele><time>2026-03-22T12:48:44.999Z</time></trkpt><trkpt lat="44.449821286705806" lon="11.037440719664659"><ele>250.50000000000003</ele><time>2026-03-22T12:48:45.999Z</time></trkpt><trkpt lat="44.449903989536956" lon="11.03743891665758"><ele>253.0</ele><time>2026-03-22T12:48:46.999Z</time></trkpt><trkpt lat="44.44997016255133" lon="11.037428567727968"><ele>255.5</ele><time>2026-03-22T12:48:47.999Z</time></trkpt><trkpt lat="44.450059644649336" lon="11.037409624770458"><ele>258.0</ele><time>2026-03-22T12:48:49.999Z</time></trkpt><trkpt lat="44.45006254757834" lon="11.037205726081144"><ele>260.5</ele><time>2026-03-22T12:49:18.999Z</time></trkpt><trkpt lat="44.45008794487155" lon="11.037124235257833"><ele>263.0</ele><time>2026-03-22T12:49:19.999Z</time></trkpt><trkpt lat="44.45011962361002" lon="11.037036197886922"><ele>263.0</ele><time>2026-03-22T12:49:20.999Z</time></trkpt><trkpt lat="44.45015245899557" lon="11.036957088070178"><ele>263.0</ele><time>2026-03-22T12:49:21.999Z</time></trkpt><trkpt lat="44.45020849742784" lon="11.036805412648608"><ele>263.0</ele><time>2026-03-22T12:49:23.999Z</time></trkpt><trkpt lat="44.450280735472326" lon="11.036666711442223"><ele>263.0</ele><time>2026-03-22T12:49:25.999Z</time></trkpt><trkpt lat="44.450234685638044" lon="11.036505222977578"><ele>263.0</ele><time>2026-03-22T12:49:26.999Z</time></trkpt><trkpt lat="44.45027252801939" lon="11.03639515472913"><ele>262.83333333333337</ele><time>2026-03-22T12:49:27.999Z</time></trkpt><trkpt lat="44.45030561277684" lon="11.036279624286932"><ele>262.6666666666667</ele><time>2026-03-22T12:49:28.999Z</time></trkpt><trkpt lat="44.450335513342175" lon="11.036160001838846"><ele>262.5</ele><time>2026-03-22T12:49:29.999Z</time></trkpt><trkpt lat="44.45036885313885" lon="11.036051566139944"><ele>262.3333333333333</ele><time>2026-03-22T12:49:30.999Z</time></trkpt><trkpt lat="44.45039905247453" lon="11.035969929772461"><ele>262.16666666666663</ele><time>2026-03-22T12:49:31.999Z</time></trkpt><trkpt lat="44.450446227062876" lon="11.035833433514108"><ele>262.0</ele><time>2026-03-22T12:49:33.999Z</time></trkpt><trkpt lat="44.45048375204909" lon="11.035724661986679"><ele>261.5</ele><time>2026-03-22T12:49:35.999Z</time></trkpt><trkpt lat="44.45051611152831" lon="11.035592505927047"><ele>261.0</ele><time>2026-03-22T12:49:38.999Z</time></trkpt><trkpt lat="44.450499137367586" lon="11.035502630027246"><ele>260.5</ele><time>2026-03-22T12:49:40.999Z</time></trkpt><trkpt lat="44.450472525692874" lon="11.03538267552683"><ele>260.0</ele><time>2026-03-22T12:49:43.999Z</time></trkpt><trkpt lat="44.45047967950411" lon="11.035479045105506"><ele>259.5</ele><time>2026-03-22T12:50:12.999Z</time></trkpt><trkpt lat="44.450450587449886" lon="11.035576537584472"><ele>259.0</ele><time>2026-03-22T12:50:14.999Z</time></trkpt><trkpt lat="44.4504440312811" lon="11.035706706626364"><ele>259.0</ele><time>2026-03-22T12:50:16.999Z</time></trkpt><trkpt lat="44.45049235802543" lon="11.03576479700612"><ele>259.0</ele><time>2026-03-22T12:50:20.999Z</time></trkpt><trkpt lat="44.450531102603414" lon="11.035671537286992"><ele>259.0</ele><time>2026-03-22T12:50:22.999Z</time></trkpt><trkpt lat="44.45051464347847" lon="11.03553641368699"><ele>259.0</ele><time>2026-03-22T12:50:25Z</time></trkpt><trkpt lat="44.45049245240376" lon="11.035451422561918"><ele>259.0</ele><time>2026-03-22T12:50:27Z</time></trkpt><trkpt lat="44.450505341643016" lon="11.03536337785086"><ele>259.0</ele><time>2026-03-22T12:50:29Z</time></trkpt><trkpt lat="44.450564692944056" lon="11.03528904586153"><ele>259.0</ele><time>2026-03-22T12:50:33Z</time></trkpt><trkpt lat="44.45064306092569" lon="11.03525623171831"><ele>259.0</ele><time>2026-03-22T12:50:37Z</time></trkpt><trkpt lat="44.450720239038354" lon="11.0352559689686"><ele>259.0</ele><time>2026-03-22T12:50:41Z</time></trkpt><trkpt lat="44.450779694943265" lon="11.035299571021309"><ele>259.0</ele><time>2026-03-22T12:50:44.999Z</time></trkpt><trkpt lat="44.45081666766634" lon="11.035378213167872"><ele>259.0</ele><time>2026-03-22T12:50:47.999Z</time></trkpt><trkpt lat="44.45082163815452" lon="11.035495754241133"><ele>259.0</ele><time>2026-03-22T12:50:51.999Z</time></trkpt><trkpt lat="44.45074977755552" lon="11.035557471048493"><ele>259.0</ele><time>2026-03-22T12:50:54.999Z</time></trkpt><trkpt lat="44.45067193743948" lon="11.035565045172273"><ele>259.0</ele><time>2026-03-22T12:50:56.999Z</time></trkpt><trkpt lat="44.45060349894831" lon="11.035559610425416"><ele>259.0</ele><time>2026-03-22T12:50:58.999Z</time></trkpt><trkpt lat="44.450535838526946" lon="11.035597813342733"><ele>259.0</ele><time>2026-03-22T12:51:01.999Z</time></trkpt><trkpt lat="44.45050236683763" lon="11.035683833029998"><ele>259.0</ele><time>2026-03-22T12:51:05.999Z</time></trkpt><trkpt lat="44.450449171877594" lon="11.035764192823281"><ele>259.0</ele><time>2026-03-22T12:51:07.999Z</time></trkpt><trkpt lat="44.45042455371285" lon="11.035876127400826"><ele>259.0</ele><time>2026-03-22T12:51:09.999Z</time></trkpt><trkpt lat="44.45039216804231" lon="11.035990861840258"><ele>259.5</ele><time>2026-03-22T12:51:11.999Z</time></trkpt><trkpt lat="44.450341161754885" lon="11.036131806294486"><ele>260.0</ele><time>2026-03-22T12:51:13.999Z</time></trkpt><trkpt lat="44.45031231305523" lon="11.036227510261554"><ele>260.5</ele><time>2026-03-22T12:51:14.999Z</time></trkpt><trkpt lat="44.45028845922148" lon="11.036318344229132"><ele>261.0</ele><time>2026-03-22T12:51:15.999Z</time></trkpt><trkpt lat="44.4502663431606" lon="11.03640548469197"><ele>261.5</ele><time>2026-03-22T12:51:16.999Z</time></trkpt><trkpt lat="44.450219805498726" lon="11.036555897891123"><ele>262.0</ele><time>2026-03-22T12:51:18.999Z</time></trkpt><trkpt lat="44.45017057829197" lon="11.036704940769107"><ele>262.2</ele><time>2026-03-22T12:51:20.999Z</time></trkpt><trkpt lat="44.45014856277042" lon="11.036846365959944"><ele>262.4</ele><time>2026-03-22T12:51:22.999Z</time></trkpt><trkpt lat="44.45010856023736" lon="11.036943983857125"><ele>262.6</ele><time>2026-03-22T12:51:24.999Z</time></trkpt><trkpt lat="44.45007652231858" lon="11.037045275534755"><ele>262.8</ele><time>2026-03-22T12:51:26.999Z</time></trkpt><trkpt lat="44.450033817035575" lon="11.037180293260331"><ele>263.0</ele><time>2026-03-22T12:51:28.999Z</time></trkpt><trkpt lat="44.44999724711391" lon="11.037303734980943"><ele>263.0</ele><time>2026-03-22T12:51:30.999Z</time></trkpt><trkpt lat="44.44997223207995" lon="11.03739793348869"><ele>263.0</ele><time>2026-03-22T12:51:35.999Z</time></trkpt><trkpt lat="44.45012320249753" lon="11.037447838086713"><ele>263.0</ele><time>2026-03-22T12:51:37.999Z</time></trkpt><trkpt lat="44.450192723482516" lon="11.03743597195954"><ele>263.0</ele><time>2026-03-22T12:51:38.999Z</time></trkpt><trkpt lat="44.45028914910245" lon="11.037494616403531"><ele>263.0</ele><time>2026-03-22T12:51:40.999Z</time></trkpt><trkpt lat="44.45032663921146" lon="11.037626706230464"><ele>263.0</ele><time>2026-03-22T12:51:42.999Z</time></trkpt><trkpt lat="44.45034709157299" lon="11.037806917586705"><ele>263.0</ele><time>2026-03-22T12:51:44.999Z</time></trkpt><trkpt lat="44.4503725891081" lon="11.037925787540718"><ele>263.0</ele><time>2026-03-22T12:51:45.999Z</time></trkpt><trkpt lat="44.45040769000033" lon="11.038049291492895"><ele>263.0</ele><time>2026-03-22T12:51:46.999Z</time></trkpt><trkpt lat="44.45044540829098" lon="11.038146439422263"><ele>263.0</ele><time>2026-03-22T12:51:47.999Z</time></trkpt><trkpt lat="44.45051666005936" lon="11.038297216086107"><ele>263.83333333333337</ele><time>2026-03-22T12:51:49.999Z</time></trkpt><trkpt lat="44.45058109943979" lon="11.038410185842883"><ele>264.6666666666667</ele><time>2026-03-22T12:51:51.999Z</time></trkpt><trkpt lat="44.450628181925524" lon="11.03849198746882"><ele>265.5</ele><time>2026-03-22T12:51:53.999Z</time></trkpt><trkpt lat="44.45068081838064" lon="11.038551401740383"><ele>266.3333333333333</ele><time>2026-03-22T12:51:54.999Z</time></trkpt><trkpt lat="44.45072910633626" lon="11.038632045188345"><ele>267.16666666666663</ele><time>2026-03-22T12:51:55.999Z</time></trkpt><trkpt lat="44.4507771809038" lon="11.038729921846148"><ele>268.0</ele><time>2026-03-22T12:51:56.999Z</time></trkpt><trkpt lat="44.45080741578628" lon="11.03884448953494"><ele>268.0</ele><time>2026-03-22T12:51:57.999Z</time></trkpt><trkpt lat="44.45083466924375" lon="11.038964731591788"><ele>268.0</ele><time>2026-03-22T12:51:58.999Z</time></trkpt><trkpt lat="44.450859076342915" lon="11.039089362471218"><ele>268.0</ele><time>2026-03-22T12:51:59.999Z</time></trkpt><trkpt lat="44.450870614862104" lon="11.039224141758169"><ele>268.0</ele><time>2026-03-22T12:52:00.999Z</time></trkpt><trkpt lat="44.45088043827535" lon="11.039368528902434"><ele>268.0</ele><time>2026-03-22T12:52:01.999Z</time></trkpt><trkpt lat="44.45088301497262" lon="11.039494958302756"><ele>268.0</ele><time>2026-03-22T12:52:02.999Z</time></trkpt><trkpt lat="44.45088213740605" lon="11.039611194817507"><ele>268.0</ele><time>2026-03-22T12:52:03.999Z</time></trkpt><trkpt lat="44.45088404133559" lon="11.039721856398488"><ele>268.0</ele><time>2026-03-22T12:52:04.999Z</time></trkpt><trkpt lat="44.45088624246777" lon="11.039849792284702"><ele>268.0</ele><time>2026-03-22T12:52:05.999Z</time></trkpt><trkpt lat="44.45088794332196" lon="11.039969105146596"><ele>268.0</ele><time>2026-03-22T12:52:06.999Z</time></trkpt><trkpt lat="44.450887208605785" lon="11.040067131686325"><ele>268.0</ele><time>2026-03-22T12:52:07.999Z</time></trkpt><trkpt lat="44.45088650320487" lon="11.04016124691227"><ele>268.0</ele><time>2026-03-22T12:52:08.999Z</time></trkpt><trkpt lat="44.45088464581753" lon="11.040330810740409"><ele>268.0</ele><time>2026-03-22T12:52:10.999Z</time></trkpt><trkpt lat="44.450883372450036" lon="11.040434623693663"><ele>268.0</ele><time>2026-03-22T12:52:11.999Z</time></trkpt><trkpt lat="44.450881502367174" lon="11.040566835190798"><ele>268.0</ele><time>2026-03-22T12:52:12.999Z</time></trkpt><trkpt lat="44.45087882570924" lon="11.040721532237052"><ele>268.0</ele><time>2026-03-22T12:52:13.999Z</time></trkpt><trkpt lat="44.450873641888776" lon="11.040871830026514"><ele>266.8</ele><time>2026-03-22T12:52:14.999Z</time></trkpt><trkpt lat="44.45087740487829" lon="11.041014142574575"><ele>265.6</ele><time>2026-03-22T12:52:15.999Z</time></trkpt><trkpt lat="44.450904676507136" lon="11.041139953788077"><ele>264.4</ele><time>2026-03-22T12:52:16.999Z</time></trkpt><trkpt lat="44.450937380552766" lon="11.041249409167007"><ele>263.2</ele><time>2026-03-22T12:52:17.999Z</time></trkpt><trkpt lat="44.45098647421267" lon="11.041349213140759"><ele>262.0</ele><time>2026-03-22T12:52:18.999Z</time></trkpt><trkpt lat="44.45103420504218" lon="11.041446051959236"><ele>262.0</ele><time>2026-03-22T12:52:19.999Z</time></trkpt><trkpt lat="44.45109463966598" lon="11.041561472777069"><ele>262.0</ele><time>2026-03-22T12:52:20.999Z</time></trkpt><trkpt lat="44.45116422570764" lon="11.041682986546304"><ele>262.0</ele><time>2026-03-22T12:52:21.999Z</time></trkpt><trkpt lat="44.45123403411202" lon="11.041794747651108"><ele>262.0</ele><time>2026-03-22T12:52:22.999Z</time></trkpt><trkpt lat="44.45131349963604" lon="11.041906966543136"><ele>262.0</ele><time>2026-03-22T12:52:23.999Z</time></trkpt><trkpt lat="44.45140776243919" lon="11.041991830376256"><ele>257.5</ele><time>2026-03-22T12:52:24.999Z</time></trkpt><trkpt lat="44.4514752442483" lon="11.042080798059624"><ele>253.0</ele><time>2026-03-22T12:52:25.999Z</time></trkpt><trkpt lat="44.45153757642894" lon="11.042186001447487"><ele>248.5</ele><time>2026-03-22T12:52:26.999Z</time></trkpt><trkpt lat="44.45163668275292" lon="11.042289738398761"><ele>244.0</ele><time>2026-03-22T12:52:27.999Z</time></trkpt><trkpt lat="44.451735441854574" lon="11.042447047683888"><ele>247.2</ele><time>2026-03-22T12:52:28.999Z</time></trkpt><trkpt lat="44.45183903689193" lon="11.042547814004012"><ele>250.39999999999998</ele><time>2026-03-22T12:52:30Z</time></trkpt><trkpt lat="44.451915138573426" lon="11.042648966693045"><ele>253.6</ele><time>2026-03-22T12:52:31Z</time></trkpt><trkpt lat="44.45199194789028" lon="11.04276065858241"><ele>256.8</ele><time>2026-03-22T12:52:32Z</time></trkpt><trkpt lat="44.45204851506088" lon="11.042851864594352"><ele>260.0</ele><time>2026-03-22T12:52:33Z</time></trkpt><trkpt lat="44.452096456571404" lon="11.042980532709068"><ele>260.0</ele><time>2026-03-22T12:52:35Z</time></trkpt><trkpt lat="44.45210547242983" lon="11.043097770911393"><ele>260.0</ele><time>2026-03-22T12:52:37Z</time></trkpt><trkpt lat="44.45209688804288" lon="11.043190419701942"><ele>260.0</ele><time>2026-03-22T12:52:38Z</time></trkpt><trkpt lat="44.452082100862675" lon="11.04329856646525"><ele>260.0</ele><time>2026-03-22T12:52:39Z</time></trkpt><trkpt lat="44.452056145030696" lon="11.04341670471066"><ele>260.0</ele><time>2026-03-22T12:52:40Z</time></trkpt><trkpt lat="44.452016549906766" lon="11.043541733966862"><ele>260.0</ele><time>2026-03-22T12:52:41Z</time></trkpt><trkpt lat="44.45197342305633" lon="11.04364905113941"><ele>260.5</ele><time>2026-03-22T12:52:42Z</time></trkpt><trkpt lat="44.4519332813745" lon="11.043729097610754"><ele>261.0</ele><time>2026-03-22T12:52:43Z</time></trkpt><trkpt lat="44.45189576201935" lon="11.043800505583032"><ele>261.5</ele><time>2026-03-22T12:52:44Z</time></trkpt><trkpt lat="44.451823259857825" lon="11.043933928240287"><ele>262.0</ele><time>2026-03-22T12:52:45.999Z</time></trkpt><trkpt lat="44.45178244013103" lon="11.044004447954181"><ele>262.5</ele><time>2026-03-22T12:52:46.999Z</time></trkpt><trkpt lat="44.45173679248484" lon="11.044083308327084"><ele>263.0</ele><time>2026-03-22T12:52:47.999Z</time></trkpt><trkpt lat="44.45167907289846" lon="11.04419982709115"><ele>263.33333333333337</ele><time>2026-03-22T12:52:48.999Z</time></trkpt><trkpt lat="44.451633463704404" lon="11.044326009985554"><ele>263.6666666666667</ele><time>2026-03-22T12:52:49.999Z</time></trkpt><trkpt lat="44.45159999707692" lon="11.044442945121984"><ele>264.0</ele><time>2026-03-22T12:52:50.999Z</time></trkpt><trkpt lat="44.45157823403992" lon="11.044562506040476"><ele>264.3333333333333</ele><time>2026-03-22T12:52:51.999Z</time></trkpt><trkpt lat="44.45155491750566" lon="11.044664274751891"><ele>264.66666666666663</ele><time>2026-03-22T12:52:52.999Z</time></trkpt><trkpt lat="44.45153026439998" lon="11.044761954346681"><ele>265.0</ele><time>2026-03-22T12:52:53.999Z</time></trkpt><trkpt lat="44.45150804575315" lon="11.044852945154782"><ele>265.0</ele><time>2026-03-22T12:52:54.999Z</time></trkpt><trkpt lat="44.45147989878341" lon="11.044990724812708"><ele>265.0</ele><time>2026-03-22T12:52:56.999Z</time></trkpt><trkpt lat="44.45151092612682" lon="11.045106210931294"><ele>265.0</ele><time>2026-03-22T12:52:59.999Z</time></trkpt><trkpt lat="44.45157120114388" lon="11.045059997454251"><ele>265.0</ele><time>2026-03-22T12:53:03.999Z</time></trkpt><trkpt lat="44.4516218472926" lon="11.04498560086739"><ele>265.0</ele><time>2026-03-22T12:53:08Z</time></trkpt><trkpt lat="44.45172540546587" lon="11.044872015845616"><ele>265.0</ele><time>2026-03-22T12:53:10Z</time></trkpt><trkpt lat="44.45180784813632" lon="11.044760903720906"><ele>265.0</ele><time>2026-03-22T12:53:11Z</time></trkpt><trkpt lat="44.45187946181993" lon="11.044683353133875"><ele>265.0</ele><time>2026-03-22T12:53:12Z</time></trkpt><trkpt lat="44.4519384802548" lon="11.044632485124728"><ele>265.0</ele><time>2026-03-22T12:53:13Z</time></trkpt><trkpt lat="44.45199584769895" lon="11.044579598022773"><ele>265.0</ele><time>2026-03-22T12:53:14Z</time></trkpt><trkpt lat="44.45205148644899" lon="11.044528135041407"><ele>265.0</ele><time>2026-03-22T12:53:15Z</time></trkpt><trkpt lat="44.45211253567117" lon="11.044464352324788"><ele>263.0</ele><time>2026-03-22T12:53:17Z</time></trkpt><trkpt lat="44.45200899197699" lon="11.043716123372672"><ele>263.0</ele><time>2026-03-22T12:53:18Z</time></trkpt><trkpt lat="44.452048525549046" lon="11.043617083396157"><ele>263.0</ele><time>2026-03-22T12:53:19Z</time></trkpt><trkpt lat="44.45208667607264" lon="11.043496502018725"><ele>263.0</ele><time>2026-03-22T12:53:20Z</time></trkpt><trkpt lat="44.45211431545179" lon="11.04338992770556"><ele>263.0</ele><time>2026-03-22T12:53:21Z</time></trkpt><trkpt lat="44.4521370557122" lon="11.043291242451703"><ele>263.0</ele><time>2026-03-22T12:53:22Z</time></trkpt><trkpt lat="44.45215003714797" lon="11.043199360330263"><ele>263.0</ele><time>2026-03-22T12:53:23Z</time></trkpt><trkpt lat="44.452150657625" lon="11.043094439666648"><ele>262.5</ele><time>2026-03-22T12:53:24Z</time></trkpt><trkpt lat="44.45213494256937" lon="11.042984368531117"><ele>262.0</ele><time>2026-03-22T12:53:25Z</time></trkpt><trkpt lat="44.45210173389867" lon="11.042886668053548"><ele>261.5</ele><time>2026-03-22T12:53:26Z</time></trkpt><trkpt lat="44.45204453899637" lon="11.04279204496229"><ele>261.0</ele><time>2026-03-22T12:53:27Z</time></trkpt><trkpt lat="44.45197266355951" lon="11.042699557192643"><ele>260.5</ele><time>2026-03-22T12:53:28Z</time></trkpt><trkpt lat="44.451897961222784" lon="11.042610294002912"><ele>260.0</ele><time>2026-03-22T12:53:29Z</time></trkpt><trkpt lat="44.45182507813513" lon="11.042518554419484"><ele>256.8</ele><time>2026-03-22T12:53:30Z</time></trkpt><trkpt lat="44.45175268265873" lon="11.042434124397706"><ele>253.6</ele><time>2026-03-22T12:53:31Z</time></trkpt><trkpt lat="44.45168460988958" lon="11.042343145537654"><ele>250.39999999999998</ele><time>2026-03-22T12:53:32Z</time></trkpt><trkpt lat="44.45160650374233" lon="11.04223194369037"><ele>247.2</ele><time>2026-03-22T12:53:33Z</time></trkpt><trkpt lat="44.4515204603415" lon="11.042110298997743"><ele>244.0</ele><time>2026-03-22T12:53:34Z</time></trkpt><trkpt lat="44.4514157684126" lon="11.041977519611628"><ele>244.0</ele><time>2026-03-22T12:53:35Z</time></trkpt><trkpt lat="44.4513149466213" lon="11.041854423142928"><ele>244.0</ele><time>2026-03-22T12:53:36Z</time></trkpt><trkpt lat="44.45123330056404" lon="11.041737670662297"><ele>244.0</ele><time>2026-03-22T12:53:37Z</time></trkpt><trkpt lat="44.45115737039767" lon="11.041608167447015"><ele>244.0</ele><time>2026-03-22T12:53:38Z</time></trkpt><trkpt lat="44.45109168490544" lon="11.041475153189014"><ele>246.99999999999997</ele><time>2026-03-22T12:53:39Z</time></trkpt><trkpt lat="44.451034490137545" lon="11.041365574270486"><ele>250.0</ele><time>2026-03-22T12:53:40Z</time></trkpt><trkpt lat="44.45099135189732" lon="11.041269705475921"><ele>253.0</ele><time>2026-03-22T12:53:41Z</time></trkpt><trkpt lat="44.450955687132726" lon="11.041172260595374"><ele>256.0</ele><time>2026-03-22T12:53:42Z</time></trkpt><trkpt lat="44.45093165533679" lon="11.04106919541464"><ele>259.0</ele><time>2026-03-22T12:53:43Z</time></trkpt><trkpt lat="44.45091829025121" lon="11.040952101719927"><ele>262.0</ele><time>2026-03-22T12:53:44Z</time></trkpt><trkpt lat="44.4509195702279" lon="11.040795241571868"><ele>263.2</ele><time>2026-03-22T12:53:45Z</time></trkpt><trkpt lat="44.45093021632296" lon="11.040624470592787"><ele>264.4</ele><time>2026-03-22T12:53:46Z</time></trkpt><trkpt lat="44.450937895686366" lon="11.040454567325128"><ele>265.6</ele><time>2026-03-22T12:53:47Z</time></trkpt><trkpt lat="44.45093578335101" lon="11.04031248193079"><ele>266.8</ele><time>2026-03-22T12:53:48Z</time></trkpt><trkpt lat="44.450936256036194" lon="11.040186687073081"><ele>268.0</ele><time>2026-03-22T12:53:49Z</time></trkpt><trkpt lat="44.450938887970175" lon="11.040053072870053"><ele>267.8</ele><time>2026-03-22T12:53:50Z</time></trkpt><trkpt lat="44.45093680196395" lon="11.039890616594965"><ele>267.6</ele><time>2026-03-22T12:53:51Z</time></trkpt><trkpt lat="44.450932343987915" lon="11.039725525900879"><ele>267.4</ele><time>2026-03-22T12:53:52Z</time></trkpt><trkpt lat="44.45093110065324" lon="11.039582588710815"><ele>267.2</ele><time>2026-03-22T12:53:53Z</time></trkpt><trkpt lat="44.45092838762047" lon="11.039449395454962"><ele>267.0</ele><time>2026-03-22T12:53:54Z</time></trkpt><trkpt lat="44.4509242297058" lon="11.039318832092041"><ele>267.0</ele><time>2026-03-22T12:53:55Z</time></trkpt><trkpt lat="44.45091084871948" lon="11.03916950646739"><ele>267.0</ele><time>2026-03-22T12:53:56Z</time></trkpt><trkpt lat="44.45089093658076" lon="11.039025534541791"><ele>267.0</ele><time>2026-03-22T12:53:57Z</time></trkpt><trkpt lat="44.45086617314002" lon="11.03889952401313"><ele>267.0</ele><time>2026-03-22T12:53:58Z</time></trkpt><trkpt lat="44.45083764095072" lon="11.03878411375138"><ele>267.0</ele><time>2026-03-22T12:53:59Z</time></trkpt><trkpt lat="44.45080239152776" lon="11.038685340253526"><ele>267.1666666666667</ele><time>2026-03-22T12:54:00Z</time></trkpt><trkpt lat="44.450765594974804" lon="11.038598309971531"><ele>267.3333333333333</ele><time>2026-03-22T12:54:01Z</time></trkpt><trkpt lat="44.45072018194903" lon="11.0385354431108"><ele>267.5</ele><time>2026-03-22T12:54:02Z</time></trkpt><trkpt lat="44.45063231243928" lon="11.038441961322373"><ele>267.66666666666663</ele><time>2026-03-22T12:54:04Z</time></trkpt><trkpt lat="44.45073901618503" lon="11.038438278922914"><ele>267.8333333333333</ele><time>2026-03-22T12:54:14Z</time></trkpt><trkpt lat="44.45083452096764" lon="11.038456154869532"><ele>268.0</ele><time>2026-03-22T12:54:16Z</time></trkpt><trkpt lat="44.45090205109874" lon="11.038385582840615"><ele>266.8333333333333</ele><time>2026-03-22T12:54:18Z</time></trkpt><trkpt lat="44.45094651122025" lon="11.038245834860293"><ele>265.66666666666663</ele><time>2026-03-22T12:54:20Z</time></trkpt><trkpt lat="44.45096803115735" lon="11.038140447918154"><ele>264.5</ele><time>2026-03-22T12:54:22Z</time></trkpt><trkpt lat="44.45091842972207" lon="11.038042495780562"><ele>263.3333333333333</ele><time>2026-03-22T12:54:25Z</time></trkpt><trkpt lat="44.45084335469987" lon="11.038019252697396"><ele>262.1666666666667</ele><time>2026-03-22T12:54:28Z</time></trkpt><trkpt lat="44.45077031992011" lon="11.038089058286943"><ele>261.0</ele><time>2026-03-22T12:54:30Z</time></trkpt><trkpt lat="44.45073536182026" lon="11.038193722126742"><ele>261.0</ele><time>2026-03-22T12:54:32Z</time></trkpt><trkpt lat="44.450683581642146" lon="11.038254197759967"><ele>261.0</ele><time>2026-03-22T12:54:36Z</time></trkpt><trkpt lat="44.45061999701286" lon="11.038212991359488"><ele>261.0</ele><time>2026-03-22T12:54:41Z</time></trkpt><trkpt lat="44.45057029610967" lon="11.038152228436356"><ele>261.0</ele><time>2026-03-22T12:54:44Z</time></trkpt><trkpt lat="44.45054933491628" lon="11.038008926133365"><ele>261.0</ele><time>2026-03-22T12:54:47Z</time></trkpt><trkpt lat="44.45054755935988" lon="11.037881039158496"><ele>261.0</ele><time>2026-03-22T12:54:49Z</time></trkpt><trkpt lat="44.45051536441314" lon="11.037786750633558"><ele>261.0</ele><time>2026-03-22T12:54:51Z</time></trkpt><trkpt lat="44.45049062245769" lon="11.037700432855779"><ele>261.0</ele><time>2026-03-22T12:54:55Z</time></trkpt><trkpt lat="44.450516292887656" lon="11.037794712637268"><ele>261.0</ele><time>2026-03-22T13:00:28Z</time></trkpt><trkpt lat="44.45051908982105" lon="11.037885760973841"><ele>261.0</ele><time>2026-03-22T13:00:37Z</time></trkpt><trkpt lat="44.45056791445759" lon="11.037972350771572"><ele>261.0</ele><time>2026-03-22T13:45:37Z</time></trkpt><trkpt lat="44.450559587113254" lon="11.037870564651959"><ele>261.0</ele><time>2026-03-22T14:05:03.999Z</time></trkpt><trkpt lat="44.45053714677035" lon="11.037782740945222"><ele>261.0</ele><time>2026-03-22T14:05:08.999Z</time></trkpt><trkpt lat="44.450581485375515" lon="11.037861970207755"><ele>261.0</ele><time>2026-03-22T14:05:30.999Z</time></trkpt><trkpt lat="44.45063742289047" lon="11.037910894156646"><ele>261.0</ele><time>2026-03-22T14:05:36.999Z</time></trkpt><trkpt lat="44.45070393215411" lon="11.037897695729672"><ele>261.0</ele><time>2026-03-22T14:05:44.999Z</time></trkpt><trkpt lat="44.450758425443354" lon="11.037848773794716"><ele>261.0</ele><time>2026-03-22T14:05:56.999Z</time></trkpt><trkpt lat="44.45068752279276" lon="11.037846963625292"><ele>261.0</ele><time>2026-03-22T14:06:44.999Z</time></trkpt><trkpt lat="44.450630279447466" lon="11.037802423628468"><ele>261.0</ele><time>2026-03-22T14:06:50.999Z</time></trkpt><trkpt lat="44.45056926959662" lon="11.037750472297345"><ele>261.0</ele><time>2026-03-22T14:06:57.999Z</time></trkpt><trkpt lat="44.45059651892259" lon="11.037842380326387"><ele>261.0</ele><time>2026-03-22T14:07:06.999Z</time></trkpt><trkpt lat="44.45063897292652" lon="11.037918954698698"><ele>261.0</ele><time>2026-03-22T14:07:12.999Z</time></trkpt><trkpt lat="44.450701692425916" lon="11.0378939671966"><ele>261.0</ele><time>2026-03-22T14:07:20.999Z</time></trkpt><trkpt lat="44.45076754929014" lon="11.037859428628275"><ele>261.0</ele><time>2026-03-22T14:07:25.999Z</time></trkpt><trkpt lat="44.450836481284476" lon="11.03780660694008"><ele>261.0</ele><time>2026-03-22T14:07:37.999Z</time></trkpt><trkpt lat="44.45077650375358" lon="11.037842688405274"><ele>261.0</ele><time>2026-03-22T14:07:40.999Z</time></trkpt><trkpt lat="44.4506934414386" lon="11.037802211166557"><ele>261.0</ele><time>2026-03-22T14:07:52.999Z</time></trkpt><trkpt lat="44.450759935524324" lon="11.037826381729989"><ele>261.0</ele><time>2026-03-22T14:08:39Z</time></trkpt><trkpt lat="44.45090336450372" lon="11.037840665253842"><ele>261.0</ele><time>2026-03-22T14:08:46.999Z</time></trkpt><trkpt lat="44.450805537359244" lon="11.037830844581263"><ele>261.0</ele><time>2026-03-22T14:08:57.999Z</time></trkpt><trkpt lat="44.45096897087605" lon="11.037821485150797"><ele>261.0</ele><time>2026-03-22T14:08:58.999Z</time></trkpt><trkpt lat="44.450975969676605" lon="11.03770726117172"><ele>261.0</ele><time>2026-03-22T14:09:11.999Z</time></trkpt><trkpt lat="44.45103929012139" lon="11.03762377035009"><ele>261.0</ele><time>2026-03-22T14:09:22.999Z</time></trkpt><trkpt lat="44.450960893330105" lon="11.03767644625231"><ele>261.0</ele><time>2026-03-22T14:13:20.24Z</time></trkpt><trkpt lat="44.45089931481867" lon="11.037705425120677"><ele>261.0</ele><time>2026-03-22T14:13:27.88Z</time></trkpt><trkpt lat="44.45063737957647" lon="11.037828671598955"><ele>261.0</ele><time>2026-03-22T14:13:50.224Z</time></trkpt></trkseg></trk></gpx>